# Wetter Temperatur Luftdruck Luftfeuchtigkeit Sichtweite Windgeschwindigkeit Windrichtung Zeit
1 Rain 13 1016 93 10000 1 0 19:59 17.10.2019
2 Rain 13 1016 93 10000 1.5 0 19:39 17.10.2019
3 Rain 13 1016 82 10000 1.5 360 19:19 17.10.2019
4 Rain 14 1016 82 10000 1.5 360 18:58 17.10.2019
5 Rain 14 1016 72 10000 2.6 290 18:38 17.10.2019
6 Rain 15 1016 67 10000 3.1 280 18:20 17.10.2019
7 Clouds 15 1015 63 10000 0.5 0 17:42 17.10.2019
8 Clouds 16 1015 63 10000 0.5 0 17:23 17.10.2019
9 Clouds 16 1015 63 10000 0.5 0 16:57 17.10.2019
10 Clouds 16 1015 55 10000 1 0 16:38 17.10.2019
11 Clouds 17 1015 55 10000 1 0 16:18 17.10.2019
12 Clouds 17 1015 51 10000 1 0 15:55 17.10.2019
13 Clouds 17 1015 51 10000 1 0 15:37 17.10.2019
14 Clouds 16 1015 59 10000 1.5 340 15:19 17.10.2019
15 Clouds 17 1016 52 10000 1.5 340 14:43 17.10.2019
16 Clouds 17 1016 55 10000 1.237 304 14:24 17.10.2019
17 Clouds 17 1016 55 10000 1.237 304 14:24 17.10.2019
18 Clouds 17 1016 55 10000 2.1 250 13:57 17.10.2019
19 Clouds 17 1016 55 10000 2.1 250 13:39 17.10.2019
20 Clouds 16 1016 59 10000 1 0 13:19 17.10.2019
21 Clouds 15 1017 62 10000 0.5 0 12:41 17.10.2019
22 Clouds 15 1017 62 10000 0.5 0 12:21 17.10.2019
23 Clouds 14 1017 76 10000 1 0 11:59 17.10.2019
24 Clouds 14 1017 76 10000 1 0 11:41 17.10.2019
25 Clouds 14 1017 76 10000 1 0 11:41 17.10.2019
26 Clouds 14 1017 76 10000 1 0 11:41 17.10.2019
27 Clouds 14 1017 76 10000 1 0 11:41 17.10.2019
28 Clouds 13 1017 71 10000 2.1 130 11:20 17.10.2019
29 Clouds 13 1017 81 10000 2.1 100 10:56 17.10.2019
30 Clouds 13 1017 81 10000 2.1 100 10:56 17.10.2019
31 Clouds 12 1017 81 10000 2.1 100 10:38 17.10.2019
32 Clouds 11 1017 87 10000 1.5 150 10:18 17.10.2019
33 Clouds 11 1017 87 10000 2.6 100 09:54 17.10.2019
34 Clouds 11 1017 87 10000 2.6 100 09:36 17.10.2019
35 Clouds 9 1017 100 10000 1 150 09:18 17.10.2019
36 Clouds 9 1017 100 10000 1 150 09:18 17.10.2019
37 Clouds 8 1017 93 10000 1 0 08:42 17.10.2019
38 Clouds 8 1017 93 10000 2.1 110 08:24 17.10.2019
39 Clouds 8 1017 93 10000 2.1 90 07:56 17.10.2019
40 Clouds 8 1017 93 10000 2.1 90 07:37 17.10.2019
41 Clouds 9 1017 93 10000 2.6 110 07:18 17.10.2019
42 Clouds 9 1017 93 10000 2.1 120 06:40 17.10.2019
43 Clouds 9 1017 93 10000 1 0 06:21 17.10.2019
44 Clouds 9 1017 93 10000 0.5 0 05:54 17.10.2019
45 Clouds 9 1017 93 10000 0.5 0 05:32 17.10.2019
46 Clouds 8 1017 93 10000 1.5 0 04:55 17.10.2019
47 Clouds 8 1017 100 10000 2.1 180 03:55 17.10.2019
48 Clouds 8 1017 100 10000 1.5 110 02:37 17.10.2019
49 Clouds 8 1017 93 10000 1.5 0 01:31 17.10.2019
50 Clouds 8 1017 100 10000 1 0 00:40 17.10.2019
51 Clouds 8 1017 93 10000 1 0 00:19 17.10.2019
52 Clouds 8 1016 100 10000 0.5 0 23:42 16.10.2019
53 Clouds 8 1017 100 10000 1 0 23:21 16.10.2019
54 Clouds 8 1016 93 10000 1 0 22:56 16.10.2019
55 Clouds 8 1016 93 10000 1 0 22:56 16.10.2019
56 Clouds 8 1016 93 10000 1 0 22:37 16.10.2019
57 Clouds 8 1016 93 10000 1 0 22:19 16.10.2019
58 Clouds 8 1016 93 10000 1 0 21:56 16.10.2019
59 Clouds 8 1016 93 10000 2.1 170 21:37 16.10.2019
60 Clouds 9 1016 93 10000 2.6 130 21:19 16.10.2019
61 Clouds 9 1016 93 10000 2.6 130 21:19 16.10.2019
62 Clouds 9 1016 93 10000 2.6 130 20:57 16.10.2019
63 Clouds 9 1016 93 10000 1.083 160 20:38 16.10.2019
64 Clouds 9 1016 100 10000 1 0 20:20 16.10.2019
65 Clouds 10 1016 100 10000 1 0 19:58 16.10.2019
66 Clouds 10 1016 87 10000 1 0 19:38 16.10.2019
67 Clouds 11 1015 81 10000 1.083 160 19:20 16.10.2019
68 Clouds 12 1015 71 10000 0.5 0 18:39 16.10.2019
69 Clear 13 1015 67 10000 1.5 230 18:20 16.10.2019
70 Clear 15 1015 62 10000 1.5 220 17:58 16.10.2019
71 Clear 15 1015 62 10000 1.5 220 17:58 16.10.2019
72 Clear 15 1015 62 10000 1.5 220 17:39 16.10.2019
73 Clear 15 1015 58 10000 1 0 17:21 16.10.2019
74 Clear 15 1015 58 10000 1 0 16:59 16.10.2019
75 Clear 15 1016 55 10000 2.1 300 16:41 16.10.2019
76 Clear 15 1016 55 10000 0.5 0 16:21 16.10.2019
77 Clear 15 1016 54 10000 1.5 300 15:57 16.10.2019
78 Clear 15 1016 55 10000 0.5 0 15:56 16.10.2019
79 Clear 15 1016 54 10000 1.5 300 15:56 16.10.2019
80 Clear 15 1016 54 10000 1.5 300 15:56 16.10.2019
81 Clear 15 1016 54 10000 1.5 300 15:38 16.10.2019
82 Clear 15 1016 54 10000 1.5 0 15:18 16.10.2019
83 Clear 15 1016 54 10000 1.5 0 14:56 16.10.2019
84 Clear 15 1016 54 10000 1.5 0 14:56 16.10.2019
85 Clear 15 1016 54 10000 1.5 0 14:37 16.10.2019
86 Clouds 14 1017 58 10000 1 0 14:18 16.10.2019
87 Clear 14 1017 66 10000 1 0 13:55 16.10.2019
88 Clear 14 1017 66 10000 1 0 13:55 16.10.2019
89 Clear 14 1017 66 10000 1 0 13:36 16.10.2019
90 Clear 13 1017 66 10000 1 0 13:18 16.10.2019
91 Clear 13 1018 71 10000 1 140 12:40 16.10.2019
92 Clear 12 1018 76 10000 2.1 110 12:18 16.10.2019
93 Clouds 11 1018 71 10000 1 90 11:42 16.10.2019
94 Clouds 10 1018 81 10000 2.1 100 11:18 16.10.2019
95 Clouds 10 1018 87 10000 1 100 10:39 16.10.2019
96 Clouds 9 1018 100 10000 1 0 10:20 16.10.2019
97 Clouds 8 1018 100 10000 1 0 09:56 16.10.2019
98 Clouds 8 1018 93 10000 1.5 0 09:38 16.10.2019
99 Clouds 7 1018 93 10000 1 0 09:19 16.10.2019
100 Fog 6 1018 100 10000 2.1 110 08:43 16.10.2019
101 -273 0 0 0 0 0 08:24 16.10.2019
102 Fog 6 1018 100 900 1 0 07:46 16.10.2019
103 Fog 6 1018 100 7000 0.5 0 07:25 16.10.2019
104 Fog 6 1018 100 7000 0.5 0 06:59 16.10.2019
105 Fog 7 1018 93 10000 1.5 100 06:39 16.10.2019
106 Fog 7 1018 100 200 2.1 130 05:48 16.10.2019
107 Clouds 8 1017 100 10000 1 0 03:24 16.10.2019
108 Clouds 8 1017 93 10000 0.5 0 02:47 16.10.2019
109 Clouds 9 1017 93 10000 1 0 01:19 16.10.2019
110 Clouds 9 1017 93 10000 0.5 0 00:49 16.10.2019
111 Clouds 9 1017 93 10000 0.5 0 00:28 16.10.2019
112 Rain 9 1017 87 10000 2.6 240 23:41 15.10.2019
113 Rain 9 1017 100 10000 1 0 23:22 15.10.2019
114 Rain 9 1017 100 10000 1 0 22:56 15.10.2019
115 Rain 10 1017 93 9000 2.6 250 22:38 15.10.2019
116 Rain 10 1016 87 10000 2.1 250 22:20 15.10.2019
117 Rain 10 1016 87 10000 2.1 250 21:56 15.10.2019
118 -273 0 0 0 0 0 21:56 15.10.2019
119 Rain 10 1015 87 10000 1.5 0 21:38 15.10.2019
120 Rain 10 1015 87 10000 1 0 21:20 15.10.2019
121 Rain 10 1015 87 10000 1 0 20:57 15.10.2019
122 Rain 10 1015 87 10000 3.6 210 20:39 15.10.2019
123 Rain 10 1015 87 10000 3.6 210 20:39 15.10.2019
124 Rain 10 1015 87 10000 3.6 210 20:39 15.10.2019
125 Rain 10 1014 81 9000 2.6 230 20:20 15.10.2019
126 Rain 10 1014 81 9000 2.6 230 20:20 15.10.2019
127 Rain 11 1014 81 9000 2.6 230 19:58 15.10.2019
128 Rain 11 1013 87 10000 1 0 19:40 15.10.2019
129 Rain 11 1012 87 10000 1.5 30 19:20 15.10.2019
130 Rain 11 1012 87 9000 3.6 280 18:47 15.10.2019
131 Rain 11 1012 87 9000 3.6 280 18:29 15.10.2019
132 Rain 12 1011 81 6000 7.7 260 17:59 15.10.2019
133 Rain 12 1010 93 6000 1.5 0 17:40 15.10.2019
134 Rain 12 1010 93 6000 1.5 0 17:40 15.10.2019
135 Rain 12 1010 93 2000 1.5 310 17:20 15.10.2019
136 Rain 12 1009 100 6000 1.5 360 16:56 15.10.2019
137 Rain 12 1009 100 6000 1.5 360 16:37 15.10.2019
138 Rain 12 1009 100 6000 1 270 16:19 15.10.2019
139 Rain 12 1009 93 6000 2.6 340 15:42 15.10.2019
140 Rain 13 1009 93 6000 1.5 310 15:21 15.10.2019
141 Rain 13 1009 93 6000 1.5 310 14:58 15.10.2019
142 Rain 13 1010 93 6000 2.1 330 14:38 15.10.2019
143 Rain 13 1010 93 6000 2.1 330 14:38 15.10.2019
144 Rain 13 1010 93 6000 2.1 330 14:38 15.10.2019
145 Rain 13 1010 93 6000 2.1 330 14:38 15.10.2019
146 Rain 13 1010 93 9000 1.5 0 14:20 15.10.2019
147 Rain 14 1010 93 10000 2.6 320 13:55 15.10.2019
148 Rain 14 1010 93 10000 2.6 320 13:37 15.10.2019
149 Rain 14 1010 93 10000 1.5 350 13:18 15.10.2019
150 Rain 14 1010 87 10000 4.1 310 12:41 15.10.2019
151 Rain 14 1010 87 10000 4.1 300 12:21 15.10.2019
152 Rain 14 1010 93 10000 1 0 11:56 15.10.2019
153 Rain 14 1010 93 10000 1 0 11:37 15.10.2019
154 Clouds 13 1009 93 10000 2.1 180 11:19 15.10.2019
155 Clouds 13 1009 93 10000 2.1 180 11:19 15.10.2019
156 Clouds 13 1009 93 10000 1.5 0 10:44 15.10.2019
157 Clouds 13 1009 93 10000 1.5 0 10:44 15.10.2019
158 Rain 12 1009 93 10000 1 0 10:21 15.10.2019
159 Rain 12 1009 93 10000 1 0 09:58 15.10.2019
160 Rain 12 1008 100 10000 1 0 09:38 15.10.2019
161 Mist 11 1008 100 10000 1.5 0 09:19 15.10.2019
162 Mist 11 1007 100 10000 0.5 0 08:43 15.10.2019
163 Fog 10 1007 93 10000 1 310 08:22 15.10.2019
164 Fog 10 1007 100 10000 1.5 0 07:59 15.10.2019
165 Fog 10 1007 100 10000 1.5 0 07:41 15.10.2019
166 Fog 10 1008 100 10000 1 0 07:20 15.10.2019
167 Mist 11 1008 93 10000 2.1 330 06:45 15.10.2019
168 Fog 10 1008 100 8000 1 0 06:27 15.10.2019
169 Fog 10 1009 93 10000 1 0 05:43 15.10.2019
170 Fog 10 1009 100 300 0.5 0 05:24 15.10.2019
171 Fog 10 1009 100 5000 1 0 04:33 15.10.2019
172 Fog 10 1010 100 6000 0.5 0 03:38 15.10.2019
173 Fog 11 1011 100 8000 1 0 02:42 15.10.2019
174 Mist 11 1012 100 9000 0.5 0 01:49 15.10.2019
175 Clouds 12 1012 100 10000 1 0 01:22 15.10.2019
176 Fog 12 1012 93 10000 1 0 00:49 15.10.2019
177 Clear 12 1013 100 10000 2.6 100 00:22 15.10.2019
178 Clear 12 1013 93 10000 3.6 90 23:45 14.10.2019
179 Mist 13 1013 100 10000 3.1 90 23:21 14.10.2019
180 Mist 13 1013 100 10000 3.1 90 22:58 14.10.2019
181 Clouds 13 1013 93 10000 3.6 110 22:38 14.10.2019
182 Clear 13 1013 100 10000 0.5 0 22:19 14.10.2019
183 Clear 13 1013 93 10000 16.5 0 21:56 14.10.2019
184 Clear 13 1013 93 10000 16.5 0 21:37 14.10.2019
185 Clear 13 1013 100 10000 1 0 21:19 14.10.2019
186 Clear 14 1013 100 10000 1 0 20:55 14.10.2019
187 Clear 14 1013 100 10000 1 0 20:55 14.10.2019
188 Clear 14 1013 100 10000 1 0 20:54 14.10.2019
189 -273 0 0 0 0 0 20:54 14.10.2019
190 Clear 14 1013 100 10000 1 0 20:36 14.10.2019
191 Clear 14 1013 100 10000 1 0 20:36 14.10.2019
192 Clear 14 1013 93 10000 1 0 20:18 14.10.2019
193 Clear 15 1013 87 10000 1 120 19:41 14.10.2019
194 Clear 15 1013 87 10000 1 120 19:41 14.10.2019
195 Clear 16 1012 82 10000 1.344 185 19:23 14.10.2019
196 Clear 16 1012 82 10000 1.344 185 19:23 14.10.2019
197 Clear 16 1013 77 10000 2.1 260 18:58 14.10.2019
198 Clear 17 1013 77 10000 2.1 260 18:39 14.10.2019
199 Clear 19 1013 68 10000 1.5 240 18:19 14.10.2019
200 Clear 20 1013 60 10000 1 0 17:57 14.10.2019
201 Clear 20 1013 60 10000 1 0 17:57 14.10.2019
202 Clear 20 1013 60 10000 1 0 17:38 14.10.2019
203 Clear 20 1013 60 10000 1 0 17:38 14.10.2019
204 Clear 21 1013 64 10000 2.1 290 17:19 14.10.2019
205 Clear 21 1014 56 10000 2.6 290 16:44 14.10.2019
206 Clear 21 1014 56 10000 2.6 280 16:21 14.10.2019
207 Clear 21 1015 53 10000 1.5 270 15:43 14.10.2019
208 Clear 21 1015 60 10000 1.5 270 15:24 14.10.2019
209 Clear 21 1015 60 10000 1.5 270 14:58 14.10.2019
210 Clear 20 1015 56 10000 1.5 220 14:39 14.10.2019
211 Clear 20 1016 64 10000 1 0 14:20 14.10.2019
212 Clear 20 1016 63 10000 1 0 13:44 14.10.2019
213 Clear 19 1017 63 10000 1 0 13:21 14.10.2019
214 Clear 18 1017 72 10000 1.5 0 12:55 14.10.2019
215 Clear 18 1017 72 10000 1.5 0 12:37 14.10.2019
216 Clear 17 1017 68 10000 1.5 150 12:18 14.10.2019
217 Mist 16 1017 77 10000 1.5 160 11:44 14.10.2019
218 Clear 16 1018 82 10000 1.5 160 11:26 14.10.2019
219 Fog 15 1018 93 10000 1 300 10:57 14.10.2019
220 Fog 14 1018 93 10000 1 300 10:38 14.10.2019
221 Fog 13 1018 100 10000 1 270 10:19 14.10.2019
222 Fog 12 1018 100 10000 1 0 09:42 14.10.2019
223 Fog 11 1018 100 10000 1.5 160 09:21 14.10.2019
224 Fog 10 1017 100 6000 0.5 100 08:52 14.10.2019
225 Fog 9 1017 100 6000 0.5 0 08:23 14.10.2019
226 Fog 9 1017 100 6000 1 0 07:59 14.10.2019
227 Fog 9 1017 100 6000 1 0 07:39 14.10.2019
228 Fog 10 1017 100 5000 1 190 07:18 14.10.2019
229 Fog 10 1017 100 5000 1 0 06:37 14.10.2019
230 Fog 10 1018 100 10000 1.61 210.103 06:18 14.10.2019
231 Fog 10 1018 100 500 1 150 05:42 14.10.2019
232 Fog 10 1018 100 10000 0.5 100 04:42 14.10.2019
233 Fog 11 1018 100 1100 0.5 0 03:27 14.10.2019
234 Fog 12 1019 100 10000 1 0 02:42 14.10.2019
235 Fog 12 1019 93 10000 1 0 01:23 14.10.2019
236 Fog 12 1019 93 10000 1 0 00:53 14.10.2019
237 Fog 12 1019 93 10000 1 0 00:53 14.10.2019
238 Fog 13 1019 100 10000 1 0 00:19 14.10.2019
239 Mist 13 1018 93 10000 0.5 0 23:44 13.10.2019
240 Clear 13 1018 93 10000 0.5 0 23:20 13.10.2019
241 Clear 13 1018 93 10000 0.5 0 22:58 13.10.2019
242 Mist 13 1018 93 10000 1.5 0 22:40 13.10.2019
243 Clear 14 1018 93 10000 1 0 22:21 13.10.2019
244 Clear 14 1018 93 10000 1 0 21:58 13.10.2019
245 Clear 14 1018 93 10000 1.5 0 21:37 13.10.2019
246 Clear 15 1017 93 10000 2.1 110 21:19 13.10.2019
247 Clear 15 1017 93 10000 2.1 110 21:19 13.10.2019
248 Clear 15 1017 93 10000 2.1 110 20:57 13.10.2019
249 Clear 15 1017 93 10000 2.1 110 20:57 13.10.2019
250 Mist 15 1017 82 10000 3.1 90 20:38 13.10.2019
251 Clear 16 1017 77 10000 3.1 100 20:20 13.10.2019
252 Clear 16 1017 82 10000 3.6 110 19:58 13.10.2019
253 Clear 15 1017 77 10000 3.1 100 19:58 13.10.2019
254 Clear 15 1017 77 10000 3.1 100 19:57 13.10.2019
255 Clear 17 1017 82 10000 3.6 110 19:39 13.10.2019
256 Clear 17 1017 82 10000 3.6 110 19:39 13.10.2019
257 Clear 17 1017 82 10000 2.1 110 19:20 13.10.2019
258 Clear 18 1017 72 10000 1.5 0 18:55 13.10.2019
259 Clear 19 1017 72 10000 1.5 0 18:36 13.10.2019
260 Clear 20 1017 64 10000 2.1 180 18:18 13.10.2019
261 Clear 21 1017 60 10000 1.5 190 17:44 13.10.2019
262 -273 0 0 0 0 0 17:25 13.10.2019
263 -273 0 0 0 0 0 17:25 13.10.2019
264 Clear 21 1017 53 10000 1 0 17:25 13.10.2019
265 Clear 22 1017 50 10000 3.17 205.132 16:54 13.10.2019
266 -273 0 0 0 0 0 16:36 13.10.2019
267 Clear 22 1017 56 10000 3.17 205.132 16:18 13.10.2019
268 Clear 21 1017 56 10000 1 0 15:54 13.10.2019
269 Clear 21 1017 56 10000 1 0 15:36 13.10.2019
270 Clear 21 1017 56 10000 0.5 0 15:18 13.10.2019
271 Clear 21 1018 56 10000 1 0 14:40 13.10.2019
272 Clouds 21 1018 60 10000 1 0 14:22 13.10.2019
273 Clouds 20 1018 60 10000 1 0 13:59 13.10.2019
274 Clear 20 1018 64 10000 1.5 180 13:38 13.10.2019
275 Clear 20 1018 64 10000 1.5 180 13:38 13.10.2019
276 Clear 20 1018 64 10000 1.5 180 13:38 13.10.2019
277 Clouds 20 1019 68 10000 2.1 160 13:20 13.10.2019
278 Clear 19 1019 72 10000 2.1 140 12:56 13.10.2019
279 Clear 18 1019 72 10000 2.1 140 12:38 13.10.2019
280 Clear 17 1019 82 10000 2.1 160 12:19 13.10.2019
281 Clear 16 1019 87 10000 1 0 11:56 13.10.2019
282 Clear 15 1019 87 10000 1 0 11:38 13.10.2019
283 Clear 14 1019 93 10000 0.5 0 11:18 13.10.2019
284 Clear 14 1019 100 10000 0.5 0 10:42 13.10.2019
285 Clear 14 1018 100 10000 1.5 230 10:23 13.10.2019
286 Fog 13 1018 100 10000 2.1 0 09:56 13.10.2019
287 Fog 13 1018 100 10000 2.1 0 09:37 13.10.2019
288 Fog 11 1018 100 10000 1 0 09:19 13.10.2019
289 Fog 11 1018 100 10000 1 140 08:42 13.10.2019
290 -273 0 0 0 0 0 08:21 13.10.2019
291 Fog 10 1018 93 10000 2.1 100 07:46 13.10.2019
292 Fog 10 1018 93 10000 2.6 110 07:23 13.10.2019
293 Fog 10 1018 93 10000 2.1 180 06:42 13.10.2019
294 Fog 11 1019 93 10000 0.5 0 05:49 13.10.2019
295 Mist 11 1019 93 10000 0.5 0 04:52 13.10.2019
296 Mist 11 1019 93 10000 0.5 0 04:32 13.10.2019
297 Mist 11 1019 100 10000 0.5 0 02:42 13.10.2019
298 Mist 11 1019 100 10000 0.5 0 02:42 13.10.2019
299 Mist 11 1019 93 10000 1 0 01:59 13.10.2019
300 Mist 12 1019 93 10000 2.1 160 01:31 13.10.2019
301 Fog 12 1019 100 10000 1.5 0 00:50 13.10.2019
302 Clear 12 1019 93 10000 1.5 130 00:22 13.10.2019
303 Clear 13 1019 93 10000 2.1 130 23:57 12.10.2019
304 Clear 13 1019 93 10000 2.1 130 23:39 12.10.2019
305 Mist 13 1019 93 10000 3.6 215.073 23:20 12.10.2019
306 Clear 13 1019 93 10000 1.5 150 22:57 12.10.2019
307 Clear 13 1019 100 10000 3.6 215.073 22:38 12.10.2019
308 Clouds 14 1019 93 10000 1 230 22:20 12.10.2019
309 Clouds 14 1019 93 10000 1 0 21:55 12.10.2019
310 Clouds 14 1019 93 10000 1 0 21:37 12.10.2019
311 Clouds 15 1019 82 10000 1.5 0 21:18 12.10.2019
312 Rain 15 1019 82 10000 2.1 70 20:40 12.10.2019
313 Clouds 15 1019 77 10000 2.6 100 20:22 12.10.2019
314 Clouds 15 1019 82 10000 2.6 90 19:39 12.10.2019
315 Clouds 15 1019 82 10000 2.6 90 19:39 12.10.2019
316 Clouds 16 1018 72 10000 2.1 100 19:20 12.10.2019
317 Clouds 16 1018 72 10000 2.1 100 18:59 12.10.2019
318 Clouds 16 1018 72 10000 2.6 110 18:40 12.10.2019
319 Clouds 16 1018 72 10000 2.6 110 18:40 12.10.2019
320 Clouds 17 1018 67 10000 2.6 110 18:22 12.10.2019
321 Clouds 18 1018 68 10000 1.5 0 17:43 12.10.2019
322 Clouds 18 1018 68 10000 2.6 110 17:19 12.10.2019
323 Clear 18 1019 59 10000 2.6 130 16:55 12.10.2019
324 Clear 19 1019 59 10000 2.6 130 16:36 12.10.2019
325 Clear 19 1019 59 10000 2.6 130 16:36 12.10.2019
326 Clouds 19 1018 59 10000 1 0 16:18 12.10.2019
327 Clouds 19 1018 63 10000 2.6 130 15:44 12.10.2019
328 Clouds 18 1019 59 10000 1.5 320 15:25 12.10.2019
329 Clouds 18 1019 59 10000 1 0 14:43 12.10.2019
330 Clear 17 1019 63 10000 4.54 206.712 14:22 12.10.2019
331 Clear 17 1019 63 10000 4.54 206.712 13:59 12.10.2019
332 Clear 17 1019 67 10000 0.5 0 13:40 12.10.2019
333 Clouds 17 1019 63 10000 0.5 0 13:21 12.10.2019
334 Clear 16 1019 67 10000 2.1 140 12:40 12.10.2019
335 Clear 16 1020 67 10000 1.5 0 12:22 12.10.2019
336 Clear 15 1020 67 10000 1.5 0 11:59 12.10.2019
337 Clear 14 1020 76 10000 2.1 140 11:39 12.10.2019
338 Clear 13 1020 87 10000 2.1 100 11:20 12.10.2019
339 Clear 13 1020 81 10000 2.1 140 10:45 12.10.2019
340 Fog 11 1020 87 10000 2.1 90 10:25 12.10.2019
341 Fog 11 1020 87 10000 2.1 90 09:58 12.10.2019
342 Fog 11 1020 87 10000 2.1 90 09:58 12.10.2019
343 Fog 11 1020 100 10000 0.5 0 09:40 12.10.2019
344 Fog 8 1020 100 10000 0.5 0 09:22 12.10.2019
345 Fog 8 1020 100 10000 0.5 0 08:58 12.10.2019
346 Fog 7 1020 100 10000 0.5 0 08:38 12.10.2019
347 Fog 7 1020 100 10000 0.5 0 08:20 12.10.2019
348 Fog 7 1020 100 10000 0.5 0 08:20 12.10.2019
349 Fog 7 1020 100 10000 1.5 0 07:35 12.10.2019
350 Fog 7 1019 93 10000 0.5 0 06:57 12.10.2019
351 Fog 7 1019 100 10000 0.5 0 05:48 12.10.2019
352 Fog 7 1019 100 10000 0.5 0 05:23 12.10.2019
353 Fog 7 1019 100 10000 1.5 0 04:24 12.10.2019
354 Fog 8 1019 100 10000 1 0 03:33 12.10.2019
355 Clear 8 1020 100 10000 1.5 0 01:50 12.10.2019
356 Mist 9 1020 100 10000 2.1 110 01:24 12.10.2019
357 Fog 9 1020 93 10000 2.1 110 00:42 12.10.2019
358 Clear 9 1020 100 10000 1 0 00:19 12.10.2019
359 Fog 9 1020 100 10000 2.6 90 23:40 11.10.2019
360 Clear 9 1020 93 10000 0.5 0 23:20 11.10.2019
361 Clear 10 1020 100 10000 0.5 0 22:41 11.10.2019
362 Mist 10 1019 100 10000 1 0 22:22 11.10.2019
363 Mist 10 1019 100 10000 1 0 21:59 11.10.2019
364 Clear 10 1019 93 10000 1.5 0 21:40 11.10.2019
365 Clear 10 1019 87 10000 2.1 120 21:21 11.10.2019
366 Clear 10 1019 87 10000 1.5 100 20:45 11.10.2019
367 Clear 11 1019 87 10000 1.5 100 20:27 11.10.2019
368 Clear 11 1019 81 10000 1.5 140 19:59 11.10.2019
369 Clear 12 1019 87 10000 0.5 0 19:39 11.10.2019
370 Clear 12 1019 82 10000 0.5 0 19:18 11.10.2019
371 Clear 12 1019 82 10000 0.5 0 19:18 11.10.2019
372 Clear 12 1019 82 10000 0.5 0 19:18 11.10.2019
373 Clear 12 1019 82 10000 0.5 0 19:18 11.10.2019
374 Clear 12 1019 82 10000 0.5 0 19:18 11.10.2019
375 Clear 13 1019 82 10000 0.5 0 18:59 11.10.2019
376 Clear 13 1019 82 10000 0.5 0 18:59 11.10.2019
377 Clear 14 1019 72 10000 1 250 18:38 11.10.2019
378 Clear 15 1019 63 10000 1.5 220 18:19 11.10.2019
379 Clear 15 1019 63 10000 1.5 220 18:19 11.10.2019
380 Clear 16 1019 63 10000 1.5 220 17:59 11.10.2019
381 Clear 16 1019 63 10000 1.5 220 17:59 11.10.2019
382 Clear 17 1019 55 10000 1.5 230 17:38 11.10.2019
383 Clear 17 1019 55 10000 2.6 250 17:19 11.10.2019
384 Clear 17 1019 55 10000 2.6 250 16:58 11.10.2019
385 Clear 17 1019 55 10000 3.1 250 16:39 11.10.2019
386 Clear 17 1019 55 10000 1.5 160 16:19 11.10.2019
387 Clear 17 1020 48 10000 3.02 205.384 15:42 11.10.2019
388 Clear 17 1020 51 10000 1 0 15:22 11.10.2019
389 Clear 16 1021 59 10000 1 0 14:59 11.10.2019
390 Clear 16 1021 59 10000 1 0 14:40 11.10.2019
391 Clear 16 1021 58 10000 2.1 330 14:21 11.10.2019
392 Clear 15 1022 62 10000 2.6 320 13:45 11.10.2019
393 Clear 15 1022 67 10000 1.5 0 13:25 11.10.2019
394 Clear 14 1022 67 10000 1.5 0 12:57 11.10.2019
395 Clear 14 1022 67 10000 1 0 12:39 11.10.2019
396 Clear 13 1022 62 10000 0.5 0 12:20 11.10.2019
397 Clear 12 1023 71 10000 1.5 150 11:58 11.10.2019
398 Clear 12 1023 71 10000 1.5 150 11:38 11.10.2019
399 Clear 11 1023 81 10000 1 140 11:20 11.10.2019
400 Clear 11 1023 81 10000 1 185.143 10:55 11.10.2019
401 Clear 10 1023 81 10000 1 185.143 10:36 11.10.2019
402 Clear 9 1023 100 10000 1 0 10:18 11.10.2019
403 Fog 8 1023 93 10000 0.5 0 09:42 11.10.2019
404 Fog 6 1023 93 10000 1.5 0 09:21 11.10.2019
405 Fog 6 1023 93 10000 1.5 0 08:57 11.10.2019
406 Fog 5 1022 100 10000 0.59 231.69 08:38 11.10.2019
407 Fog 5 1022 93 10000 2.6 120 08:20 11.10.2019
408 Fog 5 1022 100 10000 1 0 07:53 11.10.2019
409 Fog 5 1022 100 10000 1 0 07:34 11.10.2019
410 Fog 5 1023 100 10000 1 250 06:50 11.10.2019
411 Fog 5 1023 100 10000 0.5 0 06:25 11.10.2019
412 Fog 5 1023 100 10000 0.5 0 05:47 11.10.2019
413 Fog 5 1023 100 10000 0.5 0 05:29 11.10.2019
414 Fog 5 1023 100 10000 1.5 170 04:58 11.10.2019
415 Clear 6 1023 100 10000 1 0 03:27 11.10.2019
416 Mist 7 1023 93 10000 0.5 0 01:18 11.10.2019
417 Clear 7 1023 100 10000 1 0 00:31 11.10.2019
418 Clear 7 1023 100 10000 1.5 0 23:58 10.10.2019
419 Clear 7 1023 100 10000 1 160 23:40 10.10.2019
420 Clear 8 1023 93 10000 0.5 0 23:19 10.10.2019
421 Clear 8 1023 93 10000 0.5 0 22:56 10.10.2019
422 Clear 8 1023 93 10000 2.6 90 22:36 10.10.2019
423 Clear 8 1023 100 10000 0.5 0 22:18 10.10.2019
424 Clear 9 1023 100 10000 0.5 0 21:42 10.10.2019
425 Clear 9 1023 100 10000 0.5 0 21:22 10.10.2019
426 Clear 9 1023 100 10000 0.5 0 20:58 10.10.2019
427 Clear 10 1023 93 10000 0.5 0 20:39 10.10.2019
428 Clear 10 1023 93 10000 0.5 0 20:20 10.10.2019
429 Clear 11 1022 81 10000 0.5 0 19:57 10.10.2019
430 Clear 11 1022 81 10000 0.5 0 19:57 10.10.2019
431 Clear 11 1022 81 10000 0.5 0 19:39 10.10.2019
432 Clear 11 1022 76 10000 0.5 0 19:19 10.10.2019
433 Clear 12 1022 66 10000 1 0 18:42 10.10.2019
434 Clouds 14 1022 54 10000 2.1 0 18:21 10.10.2019
435 Clouds 14 1022 58 10000 3.6 280 17:59 10.10.2019
436 Clouds 15 1022 58 10000 3.6 280 17:40 10.10.2019
437 Clouds 15 1022 58 10000 3.6 280 17:40 10.10.2019
438 Clouds 15 1021 58 10000 4.6 290 17:19 10.10.2019
439 Clouds 15 1021 62 10000 5.1 280 16:56 10.10.2019
440 Clouds 15 1021 62 10000 5.1 280 16:56 10.10.2019
441 Clouds 15 1021 62 10000 5.1 280 16:37 10.10.2019
442 Clouds 15 1021 51 10000 4.6 270 16:18 10.10.2019
443 Rain 15 1021 62 10000 4.6 270 15:40 10.10.2019
444 Clouds 15 1021 62 10000 6.2 290 15:22 10.10.2019
445 Clouds 15 1021 62 10000 6.2 290 15:22 10.10.2019
446 Rain 15 1021 58 9000 4.6 290 14:57 10.10.2019
447 Rain 15 1021 58 9000 4.6 290 14:37 10.10.2019
448 Rain 14 1021 54 10000 6.2 270 14:19 10.10.2019
449 Rain 14 1021 54 10000 6.2 270 13:57 10.10.2019
450 Rain 14 1021 58 10000 3.6 220 13:39 10.10.2019
451 Rain 14 1021 58 10000 2.1 260 13:18 10.10.2019
452 Clouds 14 1021 62 10000 2.6 250 12:42 10.10.2019
453 Clouds 12 1021 62 10000 4.6 250 12:21 10.10.2019
454 Rain 12 1021 66 10000 4.1 250 11:58 10.10.2019
455 Rain 12 1021 66 10000 4.1 250 11:40 10.10.2019
456 Drizzle 12 1021 62 10000 3.1 270 11:19 10.10.2019
457 Rain 12 1021 66 10000 2.6 250 10:47 10.10.2019
458 Rain 11 1021 66 10000 2.6 250 10:28 10.10.2019
459 Rain 11 1020 62 10000 4.1 260 09:59 10.10.2019
460 Rain 11 1020 71 10000 3.1 240 09:41 10.10.2019
461 Rain 10 1019 71 10000 2.6 260 09:23 10.10.2019
462 Rain 10 1019 71 10000 2.6 260 08:59 10.10.2019
463 Rain 10 1019 66 10000 2.1 200 08:39 10.10.2019
464 Rain 10 1019 66 10000 3.1 230 08:19 10.10.2019
465 Rain 10 1019 76 10000 1.5 0 07:47 10.10.2019
466 Clouds 10 1019 71 10000 1 0 07:25 10.10.2019
467 Clouds 10 1018 76 10000 1.5 0 06:55 10.10.2019
468 Clouds 10 1018 76 10000 1.5 0 06:36 10.10.2019
469 Clouds 10 1018 71 10000 1 0 05:39 10.10.2019
470 Clouds 10 1018 71 10000 2.1 0 05:18 10.10.2019
471 Rain 10 1018 76 10000 2.6 200 04:34 10.10.2019
472 Rain 10 1018 87 10000 1.5 110 02:29 10.10.2019
473 Drizzle 10 1017 81 10000 1 0 01:37 10.10.2019
474 Drizzle 10 1017 81 10000 1 0 01:37 10.10.2019
475 Rain 10 1017 76 10000 1.5 250 01:18 10.10.2019
476 Rain 10 1018 81 10000 4.1 320 00:29 10.10.2019
477 Rain 10 1018 76 10000 3.1 210 23:42 09.10.2019
478 Rain 10 1018 76 10000 5.1 250 23:24 09.10.2019
479 Rain 10 1018 76 10000 5.1 250 22:59 09.10.2019
480 Rain 10 1018 76 10000 0.5 0 22:41 09.10.2019
481 Rain 10 1017 81 10000 2.1 150 22:22 09.10.2019
482 Rain 10 1017 81 10000 2.1 150 22:22 09.10.2019
483 Rain 10 1017 81 10000 2.1 150 21:56 09.10.2019
484 Rain 10 1017 76 10000 3.1 200 21:38 09.10.2019
485 Rain 10 1017 76 10000 3.1 200 21:38 09.10.2019
486 Mist 10 1017 71 10000 2.6 240 21:18 09.10.2019
487 Clouds 10 1017 71 10000 1 0 20:54 09.10.2019
488 Clouds 10 1017 71 10000 1 0 20:36 09.10.2019
489 Rain 10 1017 81 10000 1 0 20:18 09.10.2019
490 Rain 10 1017 81 10000 1 0 20:18 09.10.2019
491 Rain 10 1017 71 10000 1 0 19:43 09.10.2019
492 Rain 10 1017 81 10000 2.1 340 19:22 09.10.2019
493 Rain 10 1017 81 10000 1.5 0 18:39 09.10.2019
494 Rain 11 1017 71 10000 3.6 310 18:21 09.10.2019
495 Rain 11 1017 71 10000 3.6 310 17:58 09.10.2019
496 Rain 11 1016 66 10000 3.1 250 17:40 09.10.2019
497 Rain 10 1017 66 10000 3.6 260 17:22 09.10.2019
498 Rain 11 1017 66 10000 3.6 260 16:57 09.10.2019
499 Drizzle 11 1016 66 10000 2.1 250 16:39 09.10.2019
500 Rain 11 1017 71 10000 5.1 210 16:21 09.10.2019
501 Rain 11 1017 71 10000 5.1 210 16:21 09.10.2019
502 Rain 11 1017 71 10000 5.1 210 15:57 09.10.2019
503 Rain 11 1017 71 10000 4.1 240 15:38 09.10.2019
504 Rain 11 1017 71 10000 4.1 240 15:38 09.10.2019
505 Rain 11 1017 76 10000 3.6 270 15:19 09.10.2019
506 Rain 11 1016 87 10000 3.1 270 14:55 09.10.2019
507 Rain 11 1016 87 10000 3.1 270 14:36 09.10.2019
508 Rain 11 1016 81 6000 6.2 280 14:18 09.10.2019
509 Rain 11 1016 81 7000 7.2 280 13:38 09.10.2019
510 Rain 11 1015 87 9000 4.6 280 13:20 09.10.2019
511 Rain 11 1015 87 8000 5.1 270 12:56 09.10.2019
512 Rain 11 1015 87 8000 5.1 270 12:37 09.10.2019
513 Rain 11 1015 93 7000 3.6 330 12:19 09.10.2019
514 Rain 12 1015 87 6000 4.6 300 11:40 09.10.2019
515 Rain 12 1015 87 6000 4.6 300 11:40 09.10.2019
516 Rain 12 1014 100 10000 5.1 320 11:21 09.10.2019
517 Rain 12 1014 100 7000 5.1 310 10:59 09.10.2019
518 Rain 12 1014 100 7000 5.1 310 10:40 09.10.2019
519 Rain 12 1013 93 5000 3.6 320 10:19 09.10.2019
520 Rain 12 1013 93 10000 2.6 320 09:56 09.10.2019
521 Rain 13 1013 93 10000 2.6 320 09:38 09.10.2019
522 Rain 13 1013 93 9000 4.1 290 09:18 09.10.2019
523 Rain 13 1013 93 7000 4.6 300 08:39 09.10.2019
524 Rain 13 1013 87 10000 4.6 290 08:20 09.10.2019
525 Rain 13 1013 93 10000 3.6 310 07:47 09.10.2019
526 Rain 13 1013 93 10000 3.6 310 07:47 09.10.2019
527 Rain 13 1013 87 10000 3.6 300 07:25 09.10.2019
528 Rain 13 1014 87 4800 5.1 260 06:58 09.10.2019
529 Rain 13 1014 87 4800 5.1 260 06:40 09.10.2019
530 Rain 13 1014 87 4300 5.1 280 05:53 09.10.2019
531 Rain 13 1014 87 6000 3.6 250 04:56 09.10.2019
532 Rain 14 1014 87 4900 5.7 270 03:48 09.10.2019
533 Rain 14 1014 87 4900 5.7 270 03:48 09.10.2019
534 Rain 14 1014 87 10000 5.7 320 02:34 09.10.2019
535 Rain 15 1013 59 10000 5.7 300 01:39 09.10.2019
536 Drizzle 15 1013 67 10000 2.1 290 01:18 09.10.2019
537 Rain 15 1014 82 10000 2.1 120 00:42 09.10.2019
538 Rain 15 1013 59 10000 4.6 260 00:23 09.10.2019
539 Rain 15 1013 59 10000 4.6 260 23:58 08.10.2019
540 Clouds 15 1014 82 10000 1 0 23:38 08.10.2019
541 Rain 15 1014 82 10000 0.5 0 23:18 08.10.2019
542 Rain 15 1014 82 10000 0.5 0 23:18 08.10.2019
543 Clouds 15 1014 82 10000 1 0 22:55 08.10.2019
544 Clouds 15 1014 82 10000 1 0 22:36 08.10.2019
545 Clouds 15 1014 87 10000 2.1 110 22:18 08.10.2019
546 Clouds 15 1014 87 10000 1.5 0 21:55 08.10.2019
547 Clouds 15 1014 87 10000 1.5 0 21:36 08.10.2019
548 Clouds 15 1014 87 10000 1.5 0 21:36 08.10.2019
549 Clouds 15 1014 82 10000 2.1 120 21:18 08.10.2019
550 Clouds 15 1014 87 10000 1.5 0 20:54 08.10.2019
551 Clouds 15 1014 87 10000 1.5 0 20:36 08.10.2019
552 Clouds 15 1014 87 10000 1.5 0 20:18 08.10.2019
553 Clouds 15 1014 82 10000 1.5 120 19:41 08.10.2019
554 Clouds 15 1014 72 10000 1.5 150 19:23 08.10.2019
555 Clouds 16 1013 67 10000 2.6 100 18:57 08.10.2019
556 Clouds 16 1013 67 10000 2.6 100 18:39 08.10.2019
557 Clouds 17 1014 67 10000 3.1 140 18:19 08.10.2019
558 Clouds 17 1014 59 10000 3.1 140 17:56 08.10.2019
559 Clouds 17 1014 59 10000 3.1 140 17:38 08.10.2019
560 Clouds 18 1014 56 10000 1.5 150 17:18 08.10.2019
561 Clouds 18 1014 63 10000 4.6 230 16:41 08.10.2019
562 Clouds 18 1015 56 10000 2.1 140 16:22 08.10.2019
563 Clouds 18 1015 52 10000 1 0 15:57 08.10.2019
564 Clouds 17 1015 59 10000 4.6 240 15:38 08.10.2019
565 Clouds 17 1015 52 10000 1.5 0 15:19 08.10.2019
566 Clouds 16 1016 59 10000 2.1 140 14:42 08.10.2019
567 Clouds 16 1016 59 10000 2.1 140 14:42 08.10.2019
568 Clouds 16 1016 62 10000 2.6 140 14:21 08.10.2019
569 Clouds 16 1017 67 10000 3.1 140 13:59 08.10.2019
570 Clouds 16 1017 67 10000 3.1 140 13:39 08.10.2019
571 Clouds 15 1017 67 10000 2.1 140 13:21 08.10.2019
572 Clouds 15 1017 67 10000 2.1 140 12:59 08.10.2019
573 Clouds 14 1017 67 10000 1.5 130 12:40 08.10.2019
574 Clouds 13 1018 81 10000 2.1 150 12:20 08.10.2019
575 Clouds 12 1018 81 10000 1.5 130 11:56 08.10.2019
576 Clouds 12 1018 81 10000 1.5 130 11:37 08.10.2019
577 Clouds 11 1018 81 10000 1 0 11:19 08.10.2019
578 Clouds 11 1018 87 10000 1.5 0 10:40 08.10.2019
579 Clouds 10 1018 93 10000 1.5 0 10:22 08.10.2019
580 Clouds 10 1018 100 10000 1 0 09:58 08.10.2019
581 Clouds 9 1018 100 10000 1 0 09:40 08.10.2019
582 Clouds 9 1018 93 10000 1.5 0 09:20 08.10.2019
583 Clouds 8 1019 93 10000 0.5 0 08:44 08.10.2019
584 Clouds 8 1019 100 10000 1 180 08:25 08.10.2019
585 Clouds 8 1019 93 10000 1.5 160 07:47 08.10.2019
586 Clouds 7 1019 100 10000 2.77 229.166 07:23 08.10.2019
587 Clouds 7 1019 93 10000 2.77 229.166 06:57 08.10.2019
588 Clear 7 1019 100 10000 1 0 06:36 08.10.2019
589 Fog 7 1019 100 10000 1.5 100 05:59 08.10.2019
590 Fog 7 1019 100 10000 1.5 100 05:40 08.10.2019
591 Fog 7 1019 93 10000 1.5 140 04:55 08.10.2019
592 Fog 7 1020 100 10000 0.5 0 03:30 08.10.2019
593 Fog 7 1020 100 10000 0.5 0 03:30 08.10.2019
594 Clouds 7 1020 100 10000 0.5 0 02:40 08.10.2019
595 Clouds 7 1020 100 10000 1 150 01:51 08.10.2019
596 Clouds 7 1020 100 10000 1 150 01:32 08.10.2019
597 Clear 7 1020 100 10000 1 0 00:55 08.10.2019
598 Clear 7 1020 100 10000 1.5 170 00:22 08.10.2019
599 Clouds 8 1020 100 10000 0.5 0 23:43 07.10.2019
600 Clear 8 1020 93 10000 1 0 23:21 07.10.2019
601 Clear 8 1020 93 10000 1 0 22:58 07.10.2019
602 Clear 8 1020 93 10000 1 0 22:58 07.10.2019
603 Clear 8 1020 93 10000 1 0 22:40 07.10.2019
604 Clear 8 1020 100 10000 1 0 22:21 07.10.2019
605 Clear 8 1020 100 10000 1 0 22:21 07.10.2019
606 Clouds 8 1020 100 10000 1 150 21:58 07.10.2019
607 Clouds 8 1020 100 10000 1 150 21:40 07.10.2019
608 Clouds 8 1020 93 10000 1 110 21:20 07.10.2019
609 Clouds 9 1019 93 10000 1 0 20:58 07.10.2019
610 Clouds 9 1019 93 10000 1 0 20:39 07.10.2019
611 Clouds 10 1019 93 10000 2.12 332.866 20:20 07.10.2019
612 Clouds 10 1019 93 10000 2.12 332.866 19:58 07.10.2019
613 Clouds 10 1019 81 10000 2.12 332.866 19:40 07.10.2019
614 Clouds 11 1019 71 10000 1.5 320 19:20 07.10.2019
615 Clouds 11 1019 71 10000 1.5 320 19:20 07.10.2019
616 Clouds 11 1019 71 10000 1.5 320 18:58 07.10.2019
617 Clear 12 1019 71 10000 2.1 310 18:38 07.10.2019
618 Clouds 13 1019 51 10000 1 0 18:18 07.10.2019
619 Clouds 14 1019 58 10000 1.16 307.827 17:43 07.10.2019
620 Clouds 14 1019 58 10000 1.16 307.827 17:43 07.10.2019
621 Clouds 14 1019 54 10000 0.5 0 17:22 07.10.2019
622 Clouds 14 1019 54 10000 1 0 16:58 07.10.2019
623 Clouds 14 1019 54 10000 1 0 16:39 07.10.2019
624 Clouds 14 1019 54 10000 1 0 16:39 07.10.2019
625 Clouds 14 1019 55 10000 1 40 16:20 07.10.2019
626 Clouds 14 1019 62 10000 1.5 360 15:45 07.10.2019
627 Clouds 14 1019 67 10000 2.1 150 15:26 07.10.2019
628 Clouds 14 1019 67 10000 2.1 150 14:56 07.10.2019
629 Clouds 14 1019 58 10000 1 0 14:38 07.10.2019
630 Clouds 14 1019 62 10000 1.5 260 14:20 07.10.2019
631 Clouds 14 1019 66 10000 2.6 310 13:43 07.10.2019
632 Clouds 13 1019 66 10000 3.1 290 13:20 07.10.2019
633 Clouds 13 1019 66 10000 2.6 310 12:56 07.10.2019
634 Clouds 13 1019 66 10000 2.6 310 12:38 07.10.2019
635 Clouds 12 1019 71 10000 1 0 12:19 07.10.2019
636 Clouds 12 1019 71 10000 0.5 0 11:57 07.10.2019
637 Clouds 11 1019 71 10000 0.5 0 11:37 07.10.2019
638 Clouds 11 1019 81 10000 1 0 11:18 07.10.2019
639 Rain 10 1019 76 10000 3.1 150 10:41 07.10.2019
640 Rain 10 1019 76 10000 3.1 150 10:41 07.10.2019
641 Clouds 10 1018 81 10000 3.1 150 10:20 07.10.2019
642 Drizzle 9 1018 87 10000 3.1 140 09:42 07.10.2019
643 Drizzle 8 1018 87 10000 3.1 110 09:23 07.10.2019
644 Drizzle 8 1018 87 10000 3.1 110 08:57 07.10.2019
645 Drizzle 8 1018 100 10000 2.1 110 08:38 07.10.2019
646 Drizzle 8 1018 100 10000 1.5 260 08:19 07.10.2019
647 Clouds 7 1017 93 10000 3.1 120 07:41 07.10.2019
648 Drizzle 7 1017 100 10000 2.1 100 07:22 07.10.2019
649 Clouds 7 1017 93 10000 1.5 100 06:54 07.10.2019
650 Clouds 7 1017 93 10000 1.5 100 06:34 07.10.2019
651 Rain 8 1017 93 10000 1.5 0 05:47 07.10.2019
652 Rain 8 1016 100 10000 0.5 0 05:22 07.10.2019
653 Rain 8 1016 100 10000 1 0 04:25 07.10.2019
654 Rain 8 1016 93 10000 0.5 0 03:45 07.10.2019
655 Rain 9 1016 93 10000 1.5 0 03:21 07.10.2019
656 Rain 9 1016 93 10000 1 0 02:22 07.10.2019
657 Rain 9 1016 93 10000 2.6 90 01:52 07.10.2019
658 Rain 9 1015 93 10000 1.5 0 01:21 07.10.2019
659 Rain 10 1015 93 10000 0.5 0 00:39 07.10.2019
660 Rain 10 1015 93 10000 0.5 0 00:39 07.10.2019
661 Rain 10 1015 93 10000 4.1 330 00:20 07.10.2019
662 Rain 11 1014 87 10000 6.2 280 23:42 06.10.2019
663 Rain 11 1014 87 10000 6.2 280 23:42 06.10.2019
664 Rain 11 1013 81 10000 5.7 260 23:22 06.10.2019
665 Rain 11 1013 81 10000 5.7 260 22:59 06.10.2019
666 Rain 11 1012 82 10000 6.7 260 22:41 06.10.2019
667 Rain 11 1012 93 6000 2.1 350 22:22 06.10.2019
668 Rain 12 1012 93 6000 2.1 350 21:58 06.10.2019
669 Rain 12 1012 93 10000 0.5 0 21:38 06.10.2019
670 Rain 12 1012 93 10000 2.1 330 21:19 06.10.2019
671 Rain 12 1012 93 10000 2.1 330 20:58 06.10.2019
672 Rain 12 1012 93 10000 2.1 330 20:58 06.10.2019
673 Rain 12 1012 87 10000 3.1 330 20:40 06.10.2019
674 Rain 12 1012 87 10000 3.1 330 20:40 06.10.2019
675 Rain 12 1012 87 10000 3.6 310 20:20 06.10.2019
676 Rain 12 1012 87 10000 3.6 310 19:57 06.10.2019
677 Rain 12 1013 76 10000 5.1 270 19:37 06.10.2019
678 Rain 12 1012 76 10000 4.1 270 19:19 06.10.2019
679 Rain 13 1012 72 10000 2.1 290 18:57 06.10.2019
680 Drizzle 13 1012 72 10000 2.1 290 18:38 06.10.2019
681 Rain 14 1013 72 10000 3.6 290 18:19 06.10.2019
682 Rain 14 1013 72 10000 3.6 290 17:57 06.10.2019
683 Rain 14 1013 72 10000 4.6 280 17:38 06.10.2019
684 Rain 14 1013 67 10000 5.7 260 17:18 06.10.2019
685 Clouds 14 1013 67 10000 2.1 270 16:42 06.10.2019
686 Rain 15 1013 67 10000 2.6 260 16:23 06.10.2019
687 Clouds 15 1014 67 10000 1 0 15:54 06.10.2019
688 Clouds 15 1014 67 10000 1 0 15:36 06.10.2019
689 Clouds 15 1014 67 10000 1.5 310 15:18 06.10.2019
690 Clouds 14 1015 67 10000 3.1 290 14:42 06.10.2019
691 Clouds 14 1015 67 10000 3.1 290 14:42 06.10.2019
692 Clouds 14 1015 77 10000 2.6 270 14:24 06.10.2019
693 Clouds 14 1015 82 10000 0.5 0 13:56 06.10.2019
694 Clouds 14 1015 82 10000 0.5 0 13:38 06.10.2019
695 Clouds 14 1016 82 10000 0.5 0 13:19 06.10.2019
696 Clouds 14 1016 82 10000 0.5 0 12:56 06.10.2019
697 Clouds 13 1016 82 10000 0.5 0 12:37 06.10.2019
698 Clouds 13 1016 87 10000 1 0 12:19 06.10.2019
699 Clouds 13 1016 87 10000 1.5 0 11:55 06.10.2019
700 Clouds 12 1016 87 10000 1.5 0 11:36 06.10.2019
701 Clouds 12 1016 87 10000 1.5 0 11:36 06.10.2019
702 Mist 12 1017 87 10000 1 0 11:18 06.10.2019
703 Clouds 12 1016 93 10000 2.1 130 10:42 06.10.2019
704 Mist 12 1017 93 10000 1 0 10:24 06.10.2019
705 Rain 11 1017 93 10000 1 0 09:42 06.10.2019
706 Rain 11 1017 100 10000 1.5 90 09:21 06.10.2019
707 Drizzle 11 1016 100 10000 1.5 130 08:59 06.10.2019
708 Drizzle 11 1016 100 10000 1.5 130 08:40 06.10.2019
709 Drizzle 10 1016 100 10000 1 0 08:20 06.10.2019
710 Clouds 10 1016 100 10000 1 120 07:42 06.10.2019
711 Drizzle 11 1016 100 9000 2.1 120 07:18 06.10.2019
712 Mist 10 1017 100 10000 1.5 100 06:18 06.10.2019
713 Rain 10 1017 100 8000 1 120 05:27 06.10.2019
714 Rain 11 1017 100 10000 0.5 0 03:23 06.10.2019
715 Rain 11 1017 100 10000 1 110 02:40 06.10.2019
716 Rain 11 1017 100 10000 1 110 02:40 06.10.2019
717 Rain 11 1017 100 10000 0.5 0 01:57 06.10.2019
718 Rain 11 1017 100 10000 0.5 0 01:37 06.10.2019
719 Rain 11 1018 100 10000 1 130 01:18 06.10.2019
720 Rain 11 1018 100 6000 2.1 160 00:45 06.10.2019
721 Rain 11 1018 100 5000 0.5 0 00:21 06.10.2019
722 Rain 11 1018 100 10000 1 20 23:43 05.10.2019
723 Rain 11 1018 100 4700 0.5 0 23:21 05.10.2019
724 Rain 11 1018 100 4700 0.5 0 22:57 05.10.2019
725 Rain 11 1017 93 5000 2.1 340 22:38 05.10.2019
726 Rain 12 1017 93 5000 1.5 0 22:19 05.10.2019
727 Rain 12 1017 100 5000 2.1 310 21:43 05.10.2019
728 Rain 12 1017 87 10000 1.5 290 21:24 05.10.2019
729 Rain 12 1017 87 10000 1.5 290 20:59 05.10.2019
730 Rain 12 1017 87 10000 1.5 290 20:59 05.10.2019
731 Rain 12 1016 87 10000 1.5 300 20:40 05.10.2019
732 Drizzle 12 1016 87 10000 0.5 0 20:20 05.10.2019
733 Rain 12 1016 76 10000 1 240 19:58 05.10.2019
734 Rain 12 1016 76 10000 1 240 19:37 05.10.2019
735 Rain 13 1016 82 10000 1 0 19:18 05.10.2019
736 Rain 13 1016 76 10000 1.5 310 18:55 05.10.2019
737 Rain 13 1016 76 10000 1.5 310 18:36 05.10.2019
738 Rain 14 1015 63 10000 2.1 270 18:18 05.10.2019
739 Rain 14 1015 63 10000 2.6 270 17:42 05.10.2019
740 Clouds 14 1015 63 10000 3.6 270 17:22 05.10.2019
741 Clouds 15 1015 63 10000 3.1 270 16:56 05.10.2019
742 Clouds 15 1015 63 10000 3.1 270 16:56 05.10.2019
743 Clouds 15 1015 63 10000 3.1 270 16:37 05.10.2019
744 Clouds 15 1015 72 10000 4.1 300 16:19 05.10.2019
745 Rain 15 1015 72 10000 5.1 280 15:56 05.10.2019
746 Rain 15 1015 72 10000 5.1 280 15:38 05.10.2019
747 Rain 14 1015 72 10000 3.6 280 15:19 05.10.2019
748 Rain 14 1015 72 10000 4.1 290 14:43 05.10.2019
749 Rain 14 1015 77 10000 3.6 300 14:24 05.10.2019
750 Rain 14 1015 76 10000 4.6 290 13:58 05.10.2019
751 Rain 14 1015 76 10000 4.6 290 13:39 05.10.2019
752 Clouds 14 1015 67 10000 3.6 280 13:18 05.10.2019
753 Rain 14 1015 67 10000 4.6 270 12:42 05.10.2019
754 Rain 13 1015 67 10000 4.1 270 12:19 05.10.2019
755 Rain 13 1015 67 10000 2.1 140 11:41 05.10.2019
756 Rain 13 1015 82 10000 1.5 130 11:20 05.10.2019
757 Rain 13 1015 82 10000 1.5 130 10:57 05.10.2019
758 Rain 13 1015 82 10000 1.5 130 10:57 05.10.2019
759 Rain 12 1015 82 10000 1 130 10:38 05.10.2019
760 Rain 12 1014 87 10000 1 0 10:20 05.10.2019
761 Rain 11 1014 87 10000 1 0 09:42 05.10.2019
762 Rain 11 1014 100 10000 1 80 09:23 05.10.2019
763 Rain 10 1014 93 10000 1.5 120 08:43 05.10.2019
764 Rain 10 1014 93 10000 1.5 90 08:24 05.10.2019
765 Rain 10 1014 93 10000 1.5 90 07:59 05.10.2019
766 Rain 11 1014 87 10000 1 0 07:40 05.10.2019
767 Rain 10 1013 93 10000 2.1 140 07:21 05.10.2019
768 Rain 10 1013 93 10000 0.5 0 06:52 05.10.2019
769 Rain 11 1013 87 10000 1.5 270 06:21 05.10.2019
770 Rain 11 1013 81 10000 1.5 0 05:20 05.10.2019
771 Rain 11 1013 71 10000 1.5 230 03:32 05.10.2019
772 Rain 11 1013 71 10000 3.6 260 02:29 05.10.2019
773 Rain 11 1014 71 10000 1.5 270 01:26 05.10.2019
774 Rain 11 1014 71 10000 2.6 270 00:48 05.10.2019
775 Rain 11 1014 71 10000 2.6 270 00:27 05.10.2019
776 Rain 11 1014 76 10000 4.6 280 23:57 04.10.2019
777 Drizzle 11 1014 81 10000 4.1 290 23:39 04.10.2019
778 Rain 11 1014 81 10000 3.1 310 23:21 04.10.2019
779 Rain 11 1014 71 10000 1.5 320 22:42 04.10.2019
780 Rain 11 1014 81 10000 2.1 240 22:24 04.10.2019
781 Rain 11 1014 81 10000 2.1 240 21:59 04.10.2019
782 Rain 11 1014 81 10000 3.6 260 21:40 04.10.2019
783 Rain 11 1014 81 10000 3.6 260 21:40 04.10.2019
784 Rain 12 1013 76 10000 4.1 280 21:22 04.10.2019
785 Rain 12 1013 76 10000 4.1 280 20:58 04.10.2019
786 Rain 12 1013 76 10000 3.1 280 20:40 04.10.2019
787 Rain 12 1013 76 10000 3.1 250 20:21 04.10.2019
788 Rain 12 1013 76 10000 4.6 270 19:55 04.10.2019
789 Rain 12 1013 76 10000 4.6 270 19:37 04.10.2019
790 Clouds 11 1012 76 10000 4.6 270 19:19 04.10.2019
791 Clouds 12 1012 76 10000 5.1 280 18:40 04.10.2019
792 Clouds 12 1012 82 10000 4.6 300 18:20 04.10.2019
793 Clouds 12 1012 82 10000 4.6 300 17:59 04.10.2019
794 Clouds 12 1012 71 10000 4.1 290 17:39 04.10.2019
795 Drizzle 12 1012 71 10000 3.6 290 17:21 04.10.2019
796 Drizzle 12 1012 71 10000 3.6 290 16:57 04.10.2019
797 Rain 12 1012 87 10000 1 0 16:39 04.10.2019
798 Rain 12 1012 87 10000 1 0 16:39 04.10.2019
799 Drizzle 12 1012 81 10000 0.5 0 16:18 04.10.2019
800 Drizzle 12 1012 81 10000 6.51 229.022 15:55 04.10.2019
801 Rain 12 1012 81 10000 6.51 229.022 15:37 04.10.2019
802 Drizzle 11 1012 81 10000 7.61 227.205 15:19 04.10.2019
803 Rain 11 1012 87 10000 1.5 80 14:54 04.10.2019
804 Rain 11 1012 87 10000 1.5 80 14:36 04.10.2019
805 Drizzle 11 1013 87 10000 1.5 130 14:18 04.10.2019
806 Drizzle 11 1013 93 10000 2.6 140 13:43 04.10.2019
807 Drizzle 10 1013 87 10000 2.6 140 13:20 04.10.2019
808 Rain 10 1013 93 10000 2.1 150 12:46 04.10.2019
809 Rain 10 1013 93 10000 2.1 150 12:46 04.10.2019
810 Rain 10 1013 93 10000 1.5 110 12:28 04.10.2019
811 Rain 9 1014 87 8000 1.5 90 11:59 04.10.2019
812 Rain 9 1014 87 8000 1.5 90 11:40 04.10.2019
813 Rain 9 1014 87 8000 1.5 90 11:40 04.10.2019
814 Rain 9 1014 81 8000 0.5 0 11:20 04.10.2019
815 Rain 9 1013 87 10000 3.1 140 10:40 04.10.2019
816 Rain 9 1013 93 10000 4.1 130 10:20 04.10.2019
817 Rain 8 1013 100 10000 2.6 140 09:47 04.10.2019
818 Clouds 8 1014 100 10000 0.5 0 09:27 04.10.2019
819 Rain 7 1014 100 10000 1 0 08:56 04.10.2019
820 Rain 7 1014 93 10000 3.73 232.789 08:38 04.10.2019
821 Rain 6 1014 93 10000 1 250 08:19 04.10.2019
822 Clouds 6 1014 93 10000 3.73 232.789 07:44 04.10.2019
823 Clear 6 1014 100 10000 1 90 07:22 04.10.2019
824 Clouds 6 1015 93 10000 2.1 140 06:44 04.10.2019
825 Clouds 6 1015 100 10000 1 110 06:25 04.10.2019
826 Clouds 6 1015 100 10000 0.5 0 05:38 04.10.2019
827 Clouds 6 1015 100 10000 0.5 0 05:18 04.10.2019
828 Clouds 6 1016 100 10000 1 0 03:48 04.10.2019
829 Clouds 6 1016 100 8000 0.5 0 02:53 04.10.2019
830 Clouds 7 1016 93 10000 0.5 0 01:55 04.10.2019
831 Clouds 7 1016 93 10000 0.5 0 01:55 04.10.2019
832 Clouds 7 1016 93 10000 0.5 0 01:30 04.10.2019
833 Clouds 7 1017 93 10000 1 0 00:57 04.10.2019
834 Clouds 8 1017 87 10000 2.1 110 23:55 03.10.2019
835 Clouds 8 1017 87 10000 2.1 110 23:37 03.10.2019
836 Mist 8 1017 87 10000 2.1 100 23:18 03.10.2019
837 Mist 8 1017 87 10000 2.1 100 23:18 03.10.2019
838 Mist 8 1017 87 10000 2.1 100 23:18 03.10.2019
839 Clouds 8 1018 93 10000 1.5 130 22:55 03.10.2019
840 Clouds 8 1018 93 10000 1.5 130 22:37 03.10.2019
841 Clouds 8 1018 93 10000 1.02 26.212 22:18 03.10.2019
842 Clouds 9 1018 81 10000 1.02 26.212 21:55 03.10.2019
843 Clouds 9 1018 81 10000 1.02 26.212 21:36 03.10.2019
844 Clouds 9 1018 76 10000 0.71 14.706 21:18 03.10.2019
845 Clouds 9 1018 76 10000 0.71 14.706 21:18 03.10.2019
846 Clouds 9 1017 76 10000 1 0 20:41 03.10.2019
847 Clouds 9 1017 76 10000 1.5 0 20:23 03.10.2019
848 Clouds 9 1017 76 10000 1.5 0 19:59 03.10.2019
849 Clouds 9 1017 66 10000 1.5 0 19:41 03.10.2019
850 Clouds 10 1017 66 10000 1.5 0 19:22 03.10.2019
851 Clouds 11 1017 62 10000 2.6 340 18:58 03.10.2019
852 Clouds 11 1017 62 10000 2.6 340 18:38 03.10.2019
853 Clouds 11 1017 62 10000 2.6 340 18:38 03.10.2019
854 Clear 13 1017 54 10000 3.6 330 18:19 03.10.2019
855 Clear 13 1016 54 10000 1.5 350 17:55 03.10.2019
856 Clear 13 1016 54 10000 1.5 350 17:55 03.10.2019
857 Clear 13 1016 54 10000 1.5 350 17:55 03.10.2019
858 Clear 13 1016 54 10000 1.5 350 17:37 03.10.2019
859 Clear 14 1016 50 10000 1.5 0 17:19 03.10.2019
860 Clear 14 1017 51 10000 1.5 0 16:41 03.10.2019
861 Clouds 14 1017 51 10000 1.5 0 16:23 03.10.2019
862 Clouds 13 1018 50 10000 2.1 340 15:55 03.10.2019
863 Clouds 13 1018 50 10000 2.1 340 15:37 03.10.2019
864 Clouds 14 1018 50 10000 2.1 40 15:18 03.10.2019
865 Clouds 13 1018 54 10000 2.6 20 14:43 03.10.2019
866 Clouds 13 1018 62 10000 2.1 50 14:24 03.10.2019
867 Clouds 13 1019 58 10000 2.1 310 13:57 03.10.2019
868 Clouds 13 1019 58 10000 2.1 310 13:38 03.10.2019
869 Clouds 13 1019 66 10000 2.1 200 13:19 03.10.2019
870 Clouds 12 1019 62 10000 1.5 260 12:55 03.10.2019
871 Clouds 12 1019 62 10000 1.5 260 12:55 03.10.2019
872 Clouds 12 1019 62 10000 1.5 260 12:55 03.10.2019
873 Clouds 12 1019 62 10000 1.5 260 12:36 03.10.2019
874 Clouds 11 1020 71 10000 1 0 12:18 03.10.2019
875 Clouds 10 1020 76 10000 1.5 0 11:40 03.10.2019
876 Clouds 9 1020 71 10000 1 0 11:22 03.10.2019
877 Mist 9 1020 81 10000 2.1 130 10:58 03.10.2019
878 Mist 9 1020 81 10000 2.1 130 10:58 03.10.2019
879 Mist 9 1020 81 10000 2.1 130 10:39 03.10.2019
880 Mist 8 1020 87 10000 1.5 0 10:18 03.10.2019
881 Mist 8 1020 87 10000 1.5 0 09:57 03.10.2019
882 Mist 7 1020 100 10000 1 0 09:38 03.10.2019
883 Mist 6 1020 100 10000 2.6 90 09:19 03.10.2019
884 Fog 5 1020 100 10000 2.6 120 08:43 03.10.2019
885 Fog 4 1020 100 10000 2.1 130 08:25 03.10.2019
886 Fog 4 1020 100 10000 1 0 07:56 03.10.2019
887 Fog 4 1020 100 10000 1 0 07:37 03.10.2019
888 Fog 5 1019 100 10000 1 0 07:19 03.10.2019
889 Fog 5 1019 100 10000 1.5 90 06:45 03.10.2019
890 Clouds 5 1020 100 10000 1 170 06:18 03.10.2019
891 Clear 5 1019 93 10000 0.5 0 05:38 03.10.2019
892 Rain 6 1020 100 10000 1.5 180 04:50 03.10.2019
893 Rain 6 1020 100 10000 1.5 0 04:25 03.10.2019
894 Rain 7 1020 93 10000 2.1 90 03:21 03.10.2019
895 Rain 7 1020 93 10000 0.5 0 02:33 03.10.2019
896 Rain 7 1020 87 10000 0.5 0 01:50 03.10.2019
897 Rain 7 1020 87 10000 0.5 0 01:31 03.10.2019
898 Rain 8 1020 87 10000 1.5 0 00:45 03.10.2019
899 Rain 8 1020 81 10000 5.7 310 00:18 03.10.2019
900 Rain 8 1019 81 10000 1 0 23:43 02.10.2019
901 Rain 9 1019 71 10000 1.5 280 23:20 02.10.2019
902 Rain 9 1018 76 10000 3.6 310 22:43 02.10.2019
903 Rain 9 1018 81 10000 3.1 290 22:21 02.10.2019
904 Rain 10 1017 87 10000 1 0 21:56 02.10.2019
905 Rain 10 1017 87 10000 1 0 21:38 02.10.2019
906 Rain 10 1016 81 10000 1 0 21:19 02.10.2019
907 Rain 10 1016 81 10000 2.1 320 20:56 02.10.2019
908 Rain 10 1016 81 10000 2.1 320 20:37 02.10.2019
909 Rain 11 1015 81 10000 3.1 300 20:19 02.10.2019
910 Rain 11 1015 87 10000 4.6 300 19:46 02.10.2019
911 Rain 11 1014 87 10000 6.2 310 19:25 02.10.2019
912 Rain 11 1014 87 10000 6.2 310 18:59 02.10.2019
913 Rain 12 1013 93 10000 5.1 320 18:40 02.10.2019
914 Rain 13 1012 77 10000 3.6 260 18:22 02.10.2019
915 Rain 13 1012 77 10000 3.6 260 17:59 02.10.2019
916 Rain 14 1012 72 10000 4.6 250 17:40 02.10.2019
917 Rain 14 1012 77 7000 4.6 270 17:21 02.10.2019
918 Rain 14 1012 77 7000 4.6 270 16:57 02.10.2019
919 Rain 14 1012 77 7000 4.6 270 16:57 02.10.2019
920 Rain 14 1011 77 10000 4.6 250 16:38 02.10.2019
921 Rain 15 1011 77 9000 3.6 270 16:20 02.10.2019
922 Rain 15 1011 77 9000 3.6 270 15:56 02.10.2019
923 Rain 15 1011 76 10000 4.1 250 15:37 02.10.2019
924 Rain 15 1011 76 10000 4.1 250 15:18 02.10.2019
925 Rain 15 1011 63 10000 5.1 260 14:44 02.10.2019
926 Rain 15 1011 63 10000 5.7 230 14:25 02.10.2019
927 Rain 16 1011 67 10000 6.2 270 13:57 02.10.2019
928 Clouds 15 1011 67 10000 5.1 250 13:39 02.10.2019
929 Clouds 15 1011 67 10000 5.1 250 13:21 02.10.2019
930 Rain 15 1010 72 10000 4.1 260 12:40 02.10.2019
931 Rain 15 1010 72 10000 4.1 260 12:22 02.10.2019
932 Rain 14 1010 72 10000 3.6 270 11:59 02.10.2019
933 Rain 14 1010 72 10000 4.1 270 11:41 02.10.2019
934 Rain 14 1010 72 10000 4.1 270 11:20 02.10.2019
935 Rain 14 1009 71 10000 1.5 0 10:38 02.10.2019
936 Rain 14 1009 71 10000 1.5 0 10:19 02.10.2019
937 Rain 13 1009 76 10000 3.6 280 09:41 02.10.2019
938 Rain 13 1008 76 10000 2.1 0 09:20 02.10.2019
939 Rain 13 1008 76 10000 1.5 0 08:56 02.10.2019
940 Rain 13 1008 76 10000 1.5 0 08:56 02.10.2019
941 Rain 12 1008 71 10000 2.1 240 08:38 02.10.2019
942 Rain 12 1008 71 10000 2.1 240 08:19 02.10.2019
943 Rain 12 1007 81 10000 2.1 240 07:41 02.10.2019
944 Rain 12 1007 81 10000 2.1 240 07:22 02.10.2019
945 Rain 12 1008 82 10000 2.6 250 06:57 02.10.2019
946 Rain 13 1008 82 10000 4.6 260 06:27 02.10.2019
947 Rain 13 1007 82 10000 0.5 0 05:49 02.10.2019
948 Rain 13 1007 93 10000 1.5 0 05:20 02.10.2019
949 Rain 13 1008 82 10000 3.1 0 03:53 02.10.2019
950 Rain 13 1008 93 10000 1 0 03:24 02.10.2019
951 Rain 13 1008 93 10000 1 0 02:25 02.10.2019
952 Rain 14 1008 93 10000 1.5 120 01:56 02.10.2019
953 Rain 14 1009 100 10000 1 0 00:52 02.10.2019
954 Rain 14 1009 100 10000 1 0 00:29 02.10.2019
955 Rain 14 1009 100 9000 0.5 0 23:54 01.10.2019
956 Rain 14 1009 93 10000 1 0 23:36 01.10.2019
957 Rain 14 1009 93 10000 1 0 23:18 01.10.2019
958 Rain 14 1009 93 10000 2.1 100 22:57 01.10.2019
959 Rain 14 1008 87 10000 3.1 0 22:36 01.10.2019
960 Rain 14 1008 87 10000 3.1 0 22:18 01.10.2019
961 Rain 15 1010 82 10000 2.6 260 21:42 01.10.2019
962 Rain 15 1010 87 10000 3.6 270 21:22 01.10.2019
963 Rain 15 1009 87 10000 1 0 20:57 01.10.2019
964 Rain 16 1009 77 7000 8.7 300 20:38 01.10.2019
965 Rain 16 1009 77 7000 8.7 300 20:20 01.10.2019
966 Rain 17 1008 87 10000 2.1 0 19:57 01.10.2019
967 Rain 17 1008 68 10000 3.6 290 19:38 01.10.2019
968 Rain 18 1008 68 10000 3.6 290 19:20 01.10.2019
969 Rain 18 1007 56 10000 5.1 290 18:55 01.10.2019
970 Clouds 18 1007 56 10000 5.7 300 18:36 01.10.2019
971 Clouds 20 1007 56 10000 5.7 300 18:18 01.10.2019
972 Clouds 22 1007 49 10000 5.7 300 17:42 01.10.2019
973 Clouds 22 1007 49 10000 5.7 300 17:42 01.10.2019
974 Clouds 21 1007 49 10000 5.7 300 17:20 01.10.2019
975 Clouds 21 1007 43 10000 4.1 280 16:58 01.10.2019
976 Clouds 21 1007 44 10000 4.6 300 16:40 01.10.2019
977 Clouds 21 1007 44 10000 4.6 300 16:21 01.10.2019
978 Clouds 22 1008 40 10000 3.6 300 15:47 01.10.2019
979 Clouds 22 1008 46 10000 4.1 300 15:24 01.10.2019
980 Clear 22 1008 53 10000 3.6 330 14:58 01.10.2019
981 Clouds 21 1009 56 10000 3.6 310 14:37 01.10.2019
982 Clouds 21 1009 56 10000 3.6 310 14:19 01.10.2019
983 Clouds 21 1009 56 10000 3.6 310 14:19 01.10.2019
984 Clear 20 1010 56 10000 1.5 0 13:55 01.10.2019
985 Clear 20 1010 56 10000 1.5 0 13:55 01.10.2019
986 Clear 20 1010 56 10000 1.5 0 13:55 01.10.2019
987 Clear 20 1010 56 10000 1.5 0 13:55 01.10.2019
988 Clear 20 1010 59 10000 1 0 13:36 01.10.2019
989 Clear 20 1010 59 10000 1 0 13:18 01.10.2019
990 Clear 19 1011 63 10000 1 170 12:42 01.10.2019
991 Clear 18 1011 63 10000 1 170 12:20 01.10.2019
992 Clear 17 1011 67 10000 1 170 11:58 01.10.2019
993 Clear 16 1012 72 10000 1 210 11:38 01.10.2019
994 Clear 16 1012 72 10000 1 210 11:19 01.10.2019
995 Clear 16 1012 72 10000 1 210 11:19 01.10.2019
996 Clear 15 1012 77 10000 2.1 140 10:58 01.10.2019
997 Clear 15 1012 82 10000 1 150 10:40 01.10.2019
998 Clear 14 1012 82 10000 1 150 10:22 01.10.2019
999 Clear 13 1012 100 10000 1.5 0 09:42 01.10.2019
1000 Clear 11 1012 100 10000 1 0 09:21 01.10.2019
1001 Clear 10 1012 93 10000 0.93 253.289 08:43 01.10.2019
1002 Clear 10 1012 93 10000 0.93 253.289 08:43 01.10.2019
1003 Fog 9 1012 93 10000 1 0 08:25 01.10.2019
1004 Fog 9 1013 93 10000 0.5 0 07:49 01.10.2019
1005 Fog 9 1013 93 10000 0.93 253.289 07:25 01.10.2019
1006 Fog 9 1013 100 10000 1 170 06:50 01.10.2019
1007 Fog 9 1013 100 10000 0.5 0 06:22 01.10.2019
1008 Fog 9 1014 100 10000 1.03 262.335 05:46 01.10.2019
1009 Mist 9 1014 100 10000 0.5 0 05:18 01.10.2019
1010 Fog 9 1014 100 10000 0.5 0 04:30 01.10.2019
1011 Clear 10 1015 100 10000 1 0 02:29 01.10.2019
1012 Clear 10 1015 93 10000 0.5 0 01:59 01.10.2019
1013 Clear 10 1015 100 10000 0.5 310 00:59 01.10.2019
1014 Clear 10 1016 100 10000 0.5 0 00:37 01.10.2019
1015 Clear 10 1016 100 10000 0.5 0 00:37 01.10.2019
1016 Clear 11 1016 100 10000 0.5 0 00:18 01.10.2019
1017 Clear 11 1016 93 10000 0.5 0 23:41 30.09.2019
1018 Clear 11 1016 93 10000 0.5 0 23:41 30.09.2019
1019 Clear 11 1016 93 10000 0.5 0 23:21 30.09.2019
1020 Clear 11 1016 93 10000 1 0 22:43 30.09.2019
1021 Clear 12 1016 93 10000 1 0 22:25 30.09.2019
1022 Clear 12 1016 93 10000 0.5 0 21:58 30.09.2019
1023 Clear 12 1016 87 10000 0.5 0 21:39 30.09.2019
1024 Clear 12 1016 87 10000 0.5 0 21:39 30.09.2019
1025 Clear 13 1016 87 10000 0.5 0 21:19 30.09.2019
1026 Clear 14 1015 81 10000 1 0 20:58 30.09.2019
1027 Clear 14 1015 71 10000 0.5 0 20:39 30.09.2019
1028 Clear 14 1015 71 10000 0.5 0 20:20 30.09.2019
1029 Clear 15 1015 63 10000 1 0 19:57 30.09.2019
1030 Clear 16 1015 55 10000 2.6 290 19:39 30.09.2019
1031 Clear 16 1015 55 10000 2.6 290 19:19 30.09.2019
1032 Clear 17 1015 45 10000 3.1 290 18:57 30.09.2019
1033 Clouds 18 1015 46 10000 3.6 310 18:39 30.09.2019
1034 Clouds 19 1015 46 10000 3.6 310 18:20 30.09.2019
1035 Clouds 19 1016 49 10000 3.6 280 17:43 30.09.2019
1036 Clouds 20 1016 49 10000 3.6 280 17:23 30.09.2019
1037 Clouds 20 1016 53 10000 4.6 300 16:58 30.09.2019
1038 Clouds 20 1016 56 10000 3.6 300 16:40 30.09.2019
1039 Clouds 20 1016 56 10000 3.6 300 16:19 30.09.2019
1040 Clouds 20 1016 56 10000 4.6 280 15:58 30.09.2019
1041 Clouds 20 1016 56 10000 4.6 290 15:38 30.09.2019
1042 Clouds 20 1016 56 10000 4.6 290 15:19 30.09.2019
1043 Clouds 20 1016 52 10000 4.1 300 14:57 30.09.2019
1044 Clouds 20 1016 56 10000 4.1 290 14:37 30.09.2019
1045 Clouds 20 1016 56 10000 4.1 290 14:19 30.09.2019
1046 Clouds 19 1017 59 10000 3.6 260 13:57 30.09.2019
1047 Clouds 20 1017 56 10000 2.1 300 13:38 30.09.2019
1048 Clouds 19 1017 56 10000 2.1 300 13:20 30.09.2019
1049 Clouds 19 1017 63 10000 4.6 290 12:43 30.09.2019
1050 Clouds 18 1017 63 10000 4.6 290 12:22 30.09.2019
1051 Clouds 18 1017 68 10000 4.1 280 11:57 30.09.2019
1052 Clouds 17 1017 63 10000 5.1 290 11:39 30.09.2019
1053 Clouds 17 1017 63 10000 5.1 290 11:19 30.09.2019
1054 Clouds 17 1017 72 10000 4.6 290 10:54 30.09.2019
1055 Clouds 17 1016 68 10000 5.7 300 10:36 30.09.2019
1056 Clouds 17 1016 68 10000 5.7 300 10:18 30.09.2019
1057 Rain 16 1015 67 10000 4.1 270 09:40 30.09.2019
1058 Rain 15 1015 67 10000 4.1 270 09:21 30.09.2019
1059 Clouds 15 1015 72 10000 3.6 260 08:51 30.09.2019
1060 Clouds 15 1015 72 10000 3.6 270 08:33 30.09.2019
1061 Rain 15 1014 77 10000 2.1 330 07:47 30.09.2019
1062 Clouds 15 1014 72 10000 2.6 270 07:28 30.09.2019
1063 Clouds 15 1014 67 10000 2.6 270 06:59 30.09.2019
1064 Clouds 15 1014 68 10000 4.1 280 06:41 30.09.2019
1065 Rain 17 1014 68 10000 5.7 290 05:51 30.09.2019
1066 Rain 17 1014 68 10000 5.7 290 05:51 30.09.2019
1067 Clouds 17 1014 68 10000 6.2 290 05:33 30.09.2019
1068 Clouds 19 1013 52 10000 5.1 260 02:49 30.09.2019
1069 Clouds 19 1012 49 10000 5.1 280 01:41 30.09.2019
1070 Rain 19 1011 46 10000 4.6 270 00:55 30.09.2019
1071 Clear 19 1011 43 10000 5.1 0 00:37 30.09.2019
1072 Clear 20 1011 43 10000 5.1 0 00:18 30.09.2019
1073 Clouds 20 1011 40 10000 3.6 250 23:39 29.09.2019
1074 Clouds 20 1011 40 10000 3.6 250 23:20 29.09.2019
1075 Clouds 20 1011 40 10000 2.1 0 22:43 29.09.2019
1076 Clouds 20 1010 37 10000 3.1 0 22:25 29.09.2019
1077 Clouds 20 1010 33 10000 3.1 280 21:59 29.09.2019
1078 Clouds 20 1010 32 10000 1.5 0 21:39 29.09.2019
1079 Clouds 20 1010 32 10000 1.5 0 21:19 29.09.2019
1080 Clear 20 1009 30 10000 1 0 20:58 29.09.2019
1081 Clouds 20 1009 35 10000 2.1 0 20:40 29.09.2019
1082 Clouds 20 1009 35 10000 2.1 0 20:19 29.09.2019
1083 Rain 20 1009 30 10000 2.6 0 19:55 29.09.2019
1084 Clear 20 1009 31 10000 1.5 0 19:36 29.09.2019
1085 Clear 20 1009 31 10000 1.5 0 19:18 29.09.2019
1086 Clouds 21 1009 28 10000 3.1 210 18:55 29.09.2019
1087 Clouds 21 1009 28 10000 3.1 210 18:55 29.09.2019
1088 Clear 22 1010 25 10000 3.1 210 18:36 29.09.2019
1089 Clear 22 1010 25 10000 3.1 210 18:18 29.09.2019
1090 Clear 22 1010 23 10000 4.1 200 17:54 29.09.2019
1091 Clear 22 1010 23 10000 4.1 200 17:54 29.09.2019
1092 Clear 22 1010 23 10000 4.1 200 17:54 29.09.2019
1093 Clouds 22 1011 23 10000 3.1 230 17:36 29.09.2019
1094 Clouds 22 1011 23 10000 3.1 230 17:18 29.09.2019
1095 Clouds 22 1011 23 10000 3.1 230 16:41 29.09.2019
1096 Clear 22 1011 29 10000 3.1 260 16:20 29.09.2019
1097 Clear 22 1011 33 10000 6.2 280 15:59 29.09.2019
1098 Clear 22 1011 38 10000 5.1 280 15:38 29.09.2019
1099 Clear 22 1011 38 10000 5.1 280 15:19 29.09.2019
1100 Clear 22 1012 43 10000 3.6 280 14:58 29.09.2019
1101 Clear 21 1012 52 10000 1 0 14:38 29.09.2019
1102 Clear 21 1012 52 10000 1 0 14:19 29.09.2019
1103 Clear 20 1013 60 10000 1 0 13:56 29.09.2019
1104 Clear 20 1013 59 10000 0.5 0 13:37 29.09.2019
1105 Clear 20 1013 59 10000 0.5 0 13:18 29.09.2019
1106 Clear 19 1014 63 10000 1 0 12:56 29.09.2019
1107 Clear 19 1014 63 10000 1 210 12:38 29.09.2019
1108 Clear 17 1014 63 10000 1 210 12:20 29.09.2019
1109 Clear 16 1015 71 10000 1 0 11:41 29.09.2019
1110 Clear 15 1015 71 10000 1 0 11:20 29.09.2019
1111 Clear 15 1015 76 10000 1 0 10:58 29.09.2019
1112 Clear 14 1015 87 10000 0.5 0 10:40 29.09.2019
1113 Clear 13 1015 87 10000 0.5 0 10:21 29.09.2019
1114 Clear 13 1015 87 10000 0.5 0 10:21 29.09.2019
1115 Fog 12 1016 93 10000 1 0 09:59 29.09.2019
1116 Fog 11 1016 100 10000 1.5 160 09:41 29.09.2019
1117 Fog 10 1016 100 10000 1.5 160 09:19 29.09.2019
1118 Fog 9 1016 100 10000 1 0 08:43 29.09.2019
1119 Fog 9 1016 93 10000 1 150 08:22 29.09.2019
1120 Fog 9 1016 93 10000 1 150 08:22 29.09.2019
1121 Fog 8 1016 93 10000 1 160 07:45 29.09.2019
1122 Clear 8 1016 100 10000 1 120 07:27 29.09.2019
1123 Clear 8 1016 100 10000 1.16 229.639 06:55 29.09.2019
1124 Clear 8 1016 100 10000 1 0 06:32 29.09.2019
1125 Clear 9 1017 100 10000 0.5 0 04:52 29.09.2019
1126 Clear 9 1018 93 10000 0.5 0 04:24 29.09.2019
1127 Clear 9 1018 100 10000 1 0 03:42 29.09.2019
1128 Clear 10 1019 100 10000 3.1 110 02:25 29.09.2019
1129 Clear 10 1019 100 10000 2.1 120 01:45 29.09.2019
1130 Clear 11 1020 100 10000 1.5 150 01:23 29.09.2019
1131 Mist 11 1020 93 10000 1 0 00:41 29.09.2019
1132 Mist 11 1020 93 10000 1 0 00:19 29.09.2019
1133 Clouds 12 1020 93 10000 0.5 0 23:40 28.09.2019
1134 Clouds 12 1020 93 10000 0.5 0 23:21 28.09.2019
1135 Clouds 12 1020 93 10000 1 120 22:42 28.09.2019
1136 Clouds 12 1020 93 10000 1 120 22:23 28.09.2019
1137 Clear 13 1020 93 10000 0.5 0 21:59 28.09.2019
1138 Clear 13 1020 87 10000 1.5 0 21:40 28.09.2019
1139 Clouds 14 1020 87 10000 1.5 0 21:21 28.09.2019
1140 Clouds 14 1019 93 10000 0.5 0 20:59 28.09.2019
1141 Clouds 14 1019 93 10000 0.5 0 20:41 28.09.2019
1142 Clouds 14 1019 87 10000 1 0 20:21 28.09.2019
1143 Clouds 15 1019 71 10000 0.5 0 19:58 28.09.2019
1144 Clouds 16 1019 55 10000 2.1 290 19:39 28.09.2019
1145 Clouds 16 1019 55 10000 2.1 290 19:21 28.09.2019
1146 Clouds 17 1019 52 10000 5.7 300 18:58 28.09.2019
1147 Clouds 17 1019 52 10000 5.7 300 18:58 28.09.2019
1148 Clouds 17 1019 45 10000 4.6 290 18:39 28.09.2019
1149 Clouds 18 1019 45 10000 4.6 290 18:21 28.09.2019
1150 Clouds 18 1019 48 10000 6.7 290 17:56 28.09.2019
1151 Clouds 19 1019 49 10000 6.7 290 17:38 28.09.2019
1152 Clouds 19 1019 49 10000 6.7 290 17:20 28.09.2019
1153 Clear 19 1019 45 10000 6.2 280 16:45 28.09.2019
1154 Clouds 19 1019 52 10000 6.2 300 16:27 28.09.2019
1155 Clouds 19 1019 63 10000 5.1 290 15:42 28.09.2019
1156 Clouds 19 1019 63 10000 5.1 290 15:24 28.09.2019
1157 Clouds 19 1019 63 10000 5.1 290 15:24 28.09.2019
1158 Clouds 19 1019 55 10000 5.1 290 14:58 28.09.2019
1159 Clouds 19 1020 59 10000 4.6 310 14:40 28.09.2019
1160 Clouds 19 1020 59 10000 4.6 310 14:21 28.09.2019
1161 Clouds 19 1020 55 10000 5.1 290 13:58 28.09.2019
1162 Clouds 19 1020 55 10000 4.6 300 13:40 28.09.2019
1163 Clouds 18 1020 55 10000 4.6 300 13:20 28.09.2019
1164 Clouds 18 1020 59 10000 3.6 290 12:46 28.09.2019
1165 Clouds 17 1020 59 10000 4.1 300 12:21 28.09.2019
1166 Clouds 17 1020 59 10000 4.1 320 11:59 28.09.2019
1167 Clouds 16 1020 63 10000 4.1 330 11:40 28.09.2019
1168 Clouds 16 1020 63 10000 4.1 330 11:40 28.09.2019
1169 Clouds 16 1020 63 10000 4.1 330 11:19 28.09.2019
1170 Clouds 16 1020 59 10000 1 0 10:44 28.09.2019
1171 Clouds 15 1020 62 10000 2.1 300 10:21 28.09.2019
1172 Clouds 15 1021 67 10000 2.1 310 09:58 28.09.2019
1173 Clouds 15 1021 67 10000 2.1 310 09:58 28.09.2019
1174 Clouds 14 1020 76 10000 1 0 09:40 28.09.2019
1175 Clouds 13 1020 76 10000 1 0 09:18 28.09.2019
1176 Clouds 13 1020 82 10000 1 0 08:47 28.09.2019
1177 Clouds 12 1019 81 10000 2.29 270.125 08:29 28.09.2019
1178 Clouds 12 1020 67 10000 3.1 270 07:47 28.09.2019
1179 Clouds 12 1020 81 10000 2.1 270 07:25 28.09.2019
1180 Clouds 13 1020 76 10000 1.5 330 06:59 28.09.2019
1181 Clouds 13 1020 87 10000 2.6 310 06:37 28.09.2019
1182 Clouds 13 1020 87 10000 2.6 310 06:18 28.09.2019
1183 Clouds 14 1019 82 10000 1 0 05:25 28.09.2019
1184 Rain 14 1019 76 10000 1.5 260 04:45 28.09.2019
1185 Clouds 14 1019 72 10000 2.6 270 04:26 28.09.2019
1186 Rain 14 1019 77 10000 2.1 240 03:33 28.09.2019
1187 Rain 14 1019 87 10000 3.1 230 02:57 28.09.2019
1188 Rain 14 1018 87 10000 5.1 250 02:36 28.09.2019
1189 Rain 14 1018 93 7000 4.6 300 01:56 28.09.2019
1190 Rain 14 1018 93 7000 4.6 300 01:56 28.09.2019
1191 Rain 14 1017 87 10000 6.7 300 01:38 28.09.2019
1192 Rain 14 1017 87 10000 6.7 300 01:18 28.09.2019
1193 Rain 15 1016 77 10000 3.6 310 00:43 28.09.2019
1194 Rain 15 1016 77 10000 3.6 310 00:25 28.09.2019
1195 Rain 16 1016 68 10000 4.1 280 23:38 27.09.2019
1196 Rain 16 1016 68 10000 4.1 280 23:20 27.09.2019
1197 Rain 16 1016 72 10000 3.6 300 22:47 27.09.2019
1198 Rain 16 1016 72 10000 3.6 300 22:47 27.09.2019
1199 Clouds 16 1016 77 10000 2.1 330 22:21 27.09.2019
1200 Rain 16 1016 82 10000 1 0 21:59 27.09.2019
1201 Drizzle 16 1015 82 10000 1 0 21:39 27.09.2019
1202 Drizzle 17 1015 82 10000 1 0 21:20 27.09.2019
1203 Clouds 17 1015 77 10000 0.5 0 20:58 27.09.2019
1204 Clouds 17 1015 77 10000 0.5 0 20:58 27.09.2019
1205 Clouds 17 1015 82 10000 1 0 20:40 27.09.2019
1206 Clouds 17 1015 82 10000 1 0 20:19 27.09.2019
1207 Rain 17 1015 63 10000 1 0 19:57 27.09.2019
1208 Clouds 18 1015 60 10000 3.1 310 19:38 27.09.2019
1209 Clouds 19 1015 60 10000 3.1 310 19:19 27.09.2019
1210 Clouds 19 1015 46 10000 3.1 270 18:42 27.09.2019
1211 Clouds 20 1015 46 10000 3.1 270 18:23 27.09.2019
1212 Clouds 21 1015 46 10000 5.1 260 17:56 27.09.2019
1213 Clouds 21 1015 46 10000 5.1 270 17:38 27.09.2019
1214 Clouds 21 1015 46 10000 5.1 270 17:19 27.09.2019
1215 Clouds 22 1015 43 10000 6.7 280 16:57 27.09.2019
1216 Clouds 22 1015 40 10000 6.2 270 16:37 27.09.2019
1217 Clouds 22 1015 40 10000 6.2 270 16:18 27.09.2019
1218 Clouds 22 1015 40 10000 6.2 270 16:18 27.09.2019
1219 Clouds 22 1015 40 10000 6.2 270 16:18 27.09.2019
1220 Clouds 22 1015 43 10000 7.2 260 15:45 27.09.2019
1221 Clouds 22 1015 46 10000 6.7 270 15:21 27.09.2019
1222 Clouds 22 1015 49 10000 5.7 260 14:58 27.09.2019
1223 Clouds 22 1015 49 10000 7.2 260 14:39 27.09.2019
1224 Clouds 22 1015 49 10000 7.2 260 14:21 27.09.2019
1225 Clouds 22 1015 53 10000 9.3 270 13:57 27.09.2019
1226 Clouds 21 1015 60 10000 7.2 270 13:39 27.09.2019
1227 Clouds 21 1015 60 10000 7.2 270 13:20 27.09.2019
1228 Clouds 21 1015 64 10000 6.2 260 12:52 27.09.2019
1229 Clouds 19 1015 68 10000 4.6 270 12:23 27.09.2019
1230 Clouds 19 1015 68 10000 4.1 240 11:57 27.09.2019
1231 Clouds 18 1016 72 10000 2.1 140 11:38 27.09.2019
1232 Clouds 18 1016 72 10000 2.1 140 11:19 27.09.2019
1233 Clouds 17 1016 77 10000 2.6 140 10:43 27.09.2019
1234 Clouds 16 1016 87 10000 1.5 120 10:21 27.09.2019
1235 Fog 16 1016 87 10000 1.5 120 09:58 27.09.2019
1236 Clouds 15 1016 87 10000 1 0 09:39 27.09.2019
1237 Clouds 14 1016 87 10000 1 0 09:19 27.09.2019
1238 Clouds 13 1016 87 10000 2.1 100 08:41 27.09.2019
1239 Clouds 13 1016 93 10000 2.6 90 08:21 27.09.2019
1240 Clouds 13 1016 87 10000 2.6 110 07:50 27.09.2019
1241 Clouds 13 1016 87 10000 3.6 100 07:29 27.09.2019
1242 Clouds 13 1016 93 10000 3.1 110 06:49 27.09.2019
1243 Fog 13 1017 93 10000 3.1 110 06:31 27.09.2019
1244 Clouds 14 1017 87 10000 3.1 110 05:54 27.09.2019
1245 Clouds 14 1017 87 10000 2.6 100 05:34 27.09.2019
1246 Clouds 14 1017 87 10000 3.1 100 04:52 27.09.2019
1247 Clouds 14 1017 93 10000 2.6 110 03:39 27.09.2019
1248 Clouds 15 1018 93 10000 2.1 110 01:56 27.09.2019
1249 Clouds 15 1018 93 10000 1.5 120 01:31 27.09.2019
1250 Clouds 15 1018 93 10000 3.1 100 00:41 27.09.2019
1251 Clouds 15 1018 93 10000 2.1 120 23:57 26.09.2019
1252 Clouds 15 1018 93 10000 0.5 0 23:39 26.09.2019
1253 Clouds 15 1018 93 10000 0.5 0 23:20 26.09.2019
1254 Clouds 15 1018 93 10000 0.5 0 22:58 26.09.2019
1255 Clouds 15 1018 93 10000 0.5 0 22:58 26.09.2019
1256 Clouds 15 1018 100 10000 0.5 0 22:40 26.09.2019
1257 Clouds 15 1018 100 10000 0.5 0 22:18 26.09.2019
1258 Clouds 15 1017 100 10000 0.5 0 21:59 26.09.2019
1259 Clouds 15 1017 87 10000 0.5 0 21:38 26.09.2019
1260 Clouds 15 1017 87 10000 0.5 0 21:19 26.09.2019
1261 Clouds 15 1017 87 10000 0.5 0 21:19 26.09.2019
1262 Clouds 16 1017 93 10000 0.5 0 20:58 26.09.2019
1263 Clouds 16 1016 87 10000 0.5 0 20:40 26.09.2019
1264 Clouds 16 1016 87 10000 0.5 0 20:21 26.09.2019
1265 Clouds 16 1016 72 10000 1 0 19:59 26.09.2019
1266 Clouds 17 1016 72 10000 2.1 280 19:39 26.09.2019
1267 Clouds 17 1016 72 10000 2.1 280 19:18 26.09.2019
1268 Clouds 18 1016 68 10000 3.6 300 18:54 26.09.2019
1269 Clouds 18 1016 64 10000 3.6 290 18:36 26.09.2019
1270 Clouds 19 1016 64 10000 1.5 0 18:18 26.09.2019
1271 Clouds 19 1016 68 10000 3.6 290 17:38 26.09.2019
1272 Clouds 19 1016 68 10000 3.6 290 17:38 26.09.2019
1273 Clouds 19 1016 68 10000 3.6 290 17:38 26.09.2019
1274 Clouds 19 1016 68 10000 3.6 290 17:38 26.09.2019
1275 Clouds 19 1016 68 10000 3.6 290 17:19 26.09.2019
1276 Clouds 19 1016 68 10000 4.6 320 16:56 26.09.2019
1277 Clouds 19 1017 68 10000 3.6 280 16:37 26.09.2019
1278 Clouds 19 1017 68 10000 3.6 280 16:19 26.09.2019
1279 Clouds 18 1017 72 10000 1.5 0 15:56 26.09.2019
1280 Clouds 18 1017 72 10000 1.5 0 15:36 26.09.2019
1281 Clouds 18 1017 72 10000 1.5 0 15:18 26.09.2019
1282 Clouds 17 1017 88 10000 5.1 260 14:41 26.09.2019
1283 Clouds 17 1017 88 10000 5.1 260 14:22 26.09.2019
1284 Clouds 17 1017 82 10000 2.6 110 13:58 26.09.2019
1285 Clouds 17 1017 82 10000 2.6 100 13:39 26.09.2019
1286 Clouds 17 1017 82 10000 2.6 100 13:19 26.09.2019
1287 Clouds 16 1017 87 10000 2.1 120 12:55 26.09.2019
1288 Rain 16 1017 82 10000 2.6 130 12:36 26.09.2019
1289 Rain 16 1017 82 10000 2.6 130 12:18 26.09.2019
1290 Drizzle 15 1017 93 10000 2.1 110 11:42 26.09.2019
1291 Drizzle 15 1017 93 10000 2.1 110 11:21 26.09.2019
1292 Drizzle 15 1017 93 10000 3.1 140 10:43 26.09.2019
1293 Drizzle 14 1017 93 10000 2.1 130 10:25 26.09.2019
1294 Drizzle 14 1017 93 10000 2.1 130 10:25 26.09.2019
1295 Drizzle 14 1016 93 10000 2.1 110 09:59 26.09.2019
1296 Drizzle 14 1016 93 10000 2.1 110 09:59 26.09.2019
1297 Drizzle 14 1016 93 10000 2.1 110 09:59 26.09.2019
1298 Drizzle 14 1016 93 10000 2.1 110 09:41 26.09.2019
1299 Drizzle 13 1016 93 10000 1.5 0 09:22 26.09.2019
1300 Drizzle 13 1016 93 10000 1.5 120 08:54 26.09.2019
1301 Drizzle 13 1015 93 8000 2.1 120 08:32 26.09.2019
1302 Drizzle 13 1015 93 6000 1.5 130 07:58 26.09.2019
1303 Rain 13 1015 93 10000 1.5 90 07:40 26.09.2019
1304 Rain 13 1015 93 10000 1.5 90 07:19 26.09.2019
1305 Rain 13 1015 93 5000 2.1 130 06:43 26.09.2019
1306 Rain 13 1015 93 5000 2.1 130 06:24 26.09.2019
1307 Rain 13 1014 100 10000 2.1 90 05:40 26.09.2019
1308 Rain 13 1014 100 10000 2.1 90 05:20 26.09.2019
1309 Drizzle 13 1014 93 10000 6.4 220.942 02:38 26.09.2019
1310 Rain 13 1013 87 10000 1.5 50 01:49 26.09.2019
1311 Rain 13 1013 87 10000 1.5 50 01:49 26.09.2019
1312 Rain 13 1013 87 10000 1 0 01:26 26.09.2019
1313 Drizzle 13 1013 87 10000 0.5 0 00:48 26.09.2019
1314 Rain 13 1013 87 10000 1.5 0 00:28 26.09.2019
1315 Fog 13 1013 93 10000 1.5 320 23:45 25.09.2019
1316 Clouds 13 1013 93 10000 1 0 23:26 25.09.2019
1317 Clouds 13 1013 87 10000 0.5 0 22:56 25.09.2019
1318 Clouds 13 1013 87 10000 0.5 0 22:56 25.09.2019
1319 Clouds 13 1013 87 10000 0.5 0 22:56 25.09.2019
1320 Rain 14 1013 87 10000 1 0 22:38 25.09.2019
1321 Rain 14 1013 87 10000 1 0 22:19 25.09.2019
1322 Rain 14 1013 87 10000 1 0 22:19 25.09.2019
1323 Rain 14 1013 87 10000 0.5 0 21:56 25.09.2019
1324 Rain 14 1013 87 10000 1 0 21:37 25.09.2019
1325 Rain 14 1013 87 10000 1 0 21:18 25.09.2019
1326 Rain 14 1013 77 10000 0.5 0 20:56 25.09.2019
1327 Rain 14 1013 72 10000 2.6 270 20:37 25.09.2019
1328 Rain 14 1013 72 10000 2.6 270 20:19 25.09.2019
1329 Rain 14 1013 72 10000 2.6 270 20:19 25.09.2019
1330 Rain 14 1013 59 10000 3.6 260 19:41 25.09.2019
1331 Rain 14 1013 59 10000 3.6 260 19:21 25.09.2019
1332 Rain 15 1012 59 10000 5.7 230 18:57 25.09.2019
1333 Rain 15 1012 59 10000 4.1 240 18:39 25.09.2019
1334 Rain 16 1012 59 10000 4.1 240 18:20 25.09.2019
1335 Rain 17 1012 52 10000 4.6 240 17:58 25.09.2019
1336 Rain 17 1012 59 10000 4.6 240 17:36 25.09.2019
1337 Rain 17 1012 59 10000 4.6 240 17:18 25.09.2019
1338 Rain 16 1012 55 10000 4.6 250 16:44 25.09.2019
1339 Clouds 17 1012 59 10000 4.6 280 16:26 25.09.2019
1340 Rain 17 1012 63 10000 5.1 300 15:57 25.09.2019
1341 Clouds 17 1012 55 10000 6.2 290 15:39 25.09.2019
1342 Clouds 18 1012 55 10000 6.2 290 15:20 25.09.2019
1343 Clouds 18 1012 55 10000 6.2 290 15:20 25.09.2019
1344 Rain 18 1012 48 10000 5.1 290 14:44 25.09.2019
1345 Rain 18 1012 55 10000 3.6 270 14:25 25.09.2019
1346 Rain 18 1012 48 10000 6.2 270 13:59 25.09.2019
1347 Rain 18 1013 55 10000 4.6 250 13:40 25.09.2019
1348 Rain 18 1013 55 10000 4.6 250 13:20 25.09.2019
1349 Rain 18 1013 55 10000 3.6 280 12:58 25.09.2019
1350 Rain 17 1013 67 10000 3.6 280 12:38 25.09.2019
1351 Rain 16 1013 67 10000 3.6 280 12:20 25.09.2019
1352 Rain 16 1013 67 10000 4.1 280 11:41 25.09.2019
1353 Rain 16 1013 67 10000 4.1 280 11:21 25.09.2019
1354 Clouds 16 1013 72 10000 1.5 350 10:56 25.09.2019
1355 Clouds 15 1013 67 10000 2.6 320 10:38 25.09.2019
1356 Clouds 15 1013 67 10000 2.6 320 10:19 25.09.2019
1357 Mist 14 1012 93 10000 1.5 310 09:43 25.09.2019
1358 Mist 13 1012 93 10000 1.5 310 09:23 25.09.2019
1359 Rain 13 1012 93 10000 0.5 0 08:59 25.09.2019
1360 Clouds 13 1012 93 10000 0.5 0 08:41 25.09.2019
1361 Clouds 13 1012 93 10000 0.5 0 08:20 25.09.2019
1362 Clouds 13 1012 93 10000 0.5 0 07:42 25.09.2019
1363 Clouds 13 1012 76 10000 2.1 280 07:23 25.09.2019
1364 Mist 13 1012 76 10000 2.6 310 06:58 25.09.2019
1365 Rain 13 1012 76 10000 2.1 280 06:37 25.09.2019
1366 Rain 13 1012 82 10000 1 0 05:47 25.09.2019
1367 Drizzle 13 1013 77 10000 1 0 05:20 25.09.2019
1368 Clouds 13 1013 82 10000 2.1 0 03:21 25.09.2019
1369 Mist 13 1012 100 10000 1 0 01:39 25.09.2019
1370 Rain 14 1013 100 5000 1.5 0 00:41 25.09.2019
1371 Rain 14 1013 100 5000 1.5 0 00:23 25.09.2019
1372 Rain 13 1013 100 10000 1 0 23:44 24.09.2019
1373 Rain 13 1013 100 10000 1 0 23:22 24.09.2019
1374 Rain 13 1013 100 10000 3.1 140 22:58 24.09.2019
1375 Rain 14 1013 93 10000 1.5 120 22:38 24.09.2019
1376 Rain 14 1013 93 10000 1.5 120 22:19 24.09.2019
1377 Rain 14 1013 100 10000 2.1 100 21:55 24.09.2019
1378 Rain 14 1013 100 10000 2.1 100 21:55 24.09.2019
1379 Rain 14 1013 93 10000 2.6 150 21:37 24.09.2019
1380 Rain 14 1013 93 10000 2.6 150 21:18 24.09.2019
1381 Rain 14 1013 100 8000 4.29 214.532 20:56 24.09.2019
1382 Rain 14 1013 100 9000 4.29 214.532 20:38 24.09.2019
1383 Rain 14 1013 100 9000 4.29 214.532 20:19 24.09.2019
1384 Rain 14 1013 100 10000 1 120 19:43 24.09.2019
1385 Rain 14 1013 87 10000 1 90 19:21 24.09.2019
1386 Rain 15 1013 87 10000 1.5 360 18:58 24.09.2019
1387 Rain 15 1012 82 7000 1.5 0 18:39 24.09.2019
1388 Rain 15 1012 82 7000 1.5 0 18:21 24.09.2019
1389 Rain 15 1012 77 10000 1.5 320 17:57 24.09.2019
1390 Rain 16 1012 72 10000 1.5 340 17:38 24.09.2019
1391 Rain 16 1012 72 10000 1.5 340 17:20 24.09.2019
1392 Clouds 16 1012 72 10000 2.6 320 16:43 24.09.2019
1393 Rain 16 1012 67 10000 3.6 310 16:21 24.09.2019
1394 Clouds 16 1012 77 10000 2.1 340 15:59 24.09.2019
1395 Clouds 15 1012 67 10000 3.6 330 15:41 24.09.2019
1396 Clouds 16 1012 67 10000 3.6 330 15:23 24.09.2019
1397 Clouds 15 1013 82 10000 2.6 320 14:41 24.09.2019
1398 Clouds 15 1013 82 10000 2.6 320 14:19 24.09.2019
1399 Rain 15 1013 82 10000 1 0 13:55 24.09.2019
1400 Rain 15 1014 82 10000 0.5 0 13:37 24.09.2019
1401 Rain 14 1014 82 10000 0.5 0 13:18 24.09.2019
1402 Clouds 13 1015 87 10000 2.1 100 12:39 24.09.2019
1403 Clouds 13 1015 87 10000 2.1 100 12:18 24.09.2019
1404 Mist 12 1015 93 10000 1 0 11:43 24.09.2019
1405 Mist 11 1015 93 10000 1 0 11:22 24.09.2019
1406 Mist 11 1016 93 10000 0.5 0 10:57 24.09.2019
1407 Fog 11 1016 100 10000 0.5 0 10:37 24.09.2019
1408 Fog 11 1016 100 10000 0.5 0 10:19 24.09.2019
1409 Fog 11 1015 100 10000 0.5 0 09:46 24.09.2019
1410 Fog 10 1016 100 10000 0.5 0 09:27 24.09.2019
1411 Mist 9 1016 100 10000 1 210 08:57 24.09.2019
1412 Mist 9 1016 100 10000 1 210 08:57 24.09.2019
1413 Fog 9 1016 93 10000 0.5 0 08:38 24.09.2019
1414 Fog 9 1016 93 10000 0.5 0 08:20 24.09.2019
1415 Fog 9 1016 100 10000 1 0 07:55 24.09.2019
1416 Fog 8 1017 100 10000 0.5 0 07:36 24.09.2019
1417 Fog 8 1017 100 10000 0.5 0 07:18 24.09.2019
1418 Fog 8 1016 100 10000 1 0 06:36 24.09.2019
1419 Fog 8 1016 100 10000 1 0 06:36 24.09.2019
1420 Fog 8 1017 100 9000 1 0 05:52 24.09.2019
1421 Mist 9 1017 93 10000 0.5 0 05:20 24.09.2019
1422 Mist 9 1018 100 10000 1 0 03:45 24.09.2019
1423 Fog 9 1018 100 10000 1 0 02:57 24.09.2019
1424 Clear 10 1019 93 10000 1 140 02:39 24.09.2019
1425 Clear 10 1019 100 10000 1.5 150 01:39 24.09.2019
1426 Clear 11 1019 93 10000 0.82 23.153 00:38 24.09.2019
1427 Clear 11 1019 93 10000 1.12 357.041 00:20 24.09.2019
1428 Clear 11 1019 100 10000 1 0 23:41 23.09.2019
1429 Clear 11 1019 100 10000 1 0 23:21 23.09.2019
1430 Clear 11 1019 93 10000 1.12 357.041 22:40 23.09.2019
1431 Clear 11 1019 93 10000 1.12 357.041 22:21 23.09.2019
1432 Clear 11 1019 93 10000 1.12 357.041 22:21 23.09.2019
1433 Clear 12 1019 93 10000 1.5 0 21:58 23.09.2019
1434 Clear 12 1019 93 10000 1 0 21:40 23.09.2019
1435 Clear 13 1019 93 10000 1 0 21:20 23.09.2019
1436 Clear 13 1018 93 10000 1.5 0 20:56 23.09.2019
1437 Clear 14 1018 87 10000 1.5 0 20:37 23.09.2019
1438 Clear 14 1018 87 10000 1.5 0 20:18 23.09.2019
1439 Rain 15 1018 67 10000 2.1 230 19:40 23.09.2019
1440 Rain 15 1018 67 10000 2.1 230 19:21 23.09.2019
1441 Rain 16 1018 48 10000 2.1 270 18:58 23.09.2019
1442 Rain 16 1018 55 10000 2.1 270 18:40 23.09.2019
1443 Rain 17 1018 55 10000 2.1 270 18:18 23.09.2019
1444 Clouds 17 1017 59 10000 2.1 290 17:56 23.09.2019
1445 Drizzle 17 1017 52 10000 3.1 240 17:37 23.09.2019
1446 Drizzle 17 1017 52 10000 3.1 240 17:19 23.09.2019
1447 Clouds 18 1018 52 10000 2.6 270 16:54 23.09.2019
1448 Clouds 18 1018 55 10000 3.1 250 16:36 23.09.2019
1449 Clouds 18 1018 55 10000 3.1 250 16:18 23.09.2019
1450 Clouds 18 1018 55 10000 2.6 250 15:54 23.09.2019
1451 Clouds 18 1018 52 10000 2.6 260 15:36 23.09.2019
1452 Clouds 18 1018 52 10000 2.6 260 15:18 23.09.2019
1453 Rain 17 1018 63 10000 3.1 300 14:39 23.09.2019
1454 Rain 17 1018 63 10000 3.1 300 14:20 23.09.2019
1455 Drizzle 17 1018 63 10000 2.1 300 13:58 23.09.2019
1456 Clouds 17 1018 67 10000 3.6 270 13:37 23.09.2019
1457 Clouds 17 1018 67 10000 2.1 260 13:18 23.09.2019
1458 Rain 16 1019 77 10000 2.1 230 12:43 23.09.2019
1459 Rain 15 1019 77 10000 2.1 230 12:22 23.09.2019
1460 Rain 15 1019 77 10000 1 20 11:55 23.09.2019
1461 Rain 15 1019 87 10000 1.5 120 11:37 23.09.2019
1462 Rain 15 1019 87 10000 1.5 120 11:37 23.09.2019
1463 Rain 14 1019 87 10000 1.5 120 11:19 23.09.2019
1464 Rain 14 1019 93 10000 0.5 0 10:49 23.09.2019
1465 Rain 14 1019 93 10000 1 180 10:21 23.09.2019
1466 Rain 13 1019 100 10000 1 40 09:55 23.09.2019
1467 Rain 13 1018 93 10000 1 0 09:37 23.09.2019
1468 Rain 13 1018 93 10000 1 0 09:19 23.09.2019
1469 Rain 13 1018 100 10000 1.5 160 08:42 23.09.2019
1470 Rain 13 1018 100 10000 1 0 08:22 23.09.2019
1471 Drizzle 13 1017 100 10000 1.5 90 07:47 23.09.2019
1472 Rain 12 1017 100 10000 1.19 298.132 07:24 23.09.2019
1473 Rain 13 1017 100 10000 1 210 06:21 23.09.2019
1474 Rain 13 1017 100 10000 0.5 0 05:47 23.09.2019
1475 Rain 13 1017 93 10000 1.5 0 05:19 23.09.2019
1476 Rain 13 1017 93 10000 1 0 04:54 23.09.2019
1477 Rain 13 1017 87 10000 3.6 260 02:36 23.09.2019
1478 Rain 13 1017 87 10000 3.6 260 02:36 23.09.2019
1479 Rain 14 1014 93 7000 7.7 260 00:42 23.09.2019
1480 Rain 15 1014 93 7000 7.7 260 00:22 23.09.2019
1481 Rain 16 1013 93 6000 6.2 280 23:50 22.09.2019
1482 Rain 16 1012 93 10000 1 0 23:32 22.09.2019
1483 Rain 17 1012 88 10000 1 0 22:57 22.09.2019
1484 Rain 17 1012 82 9000 1.5 0 22:38 22.09.2019
1485 Rain 17 1012 82 9000 1.5 0 22:20 22.09.2019
1486 Rain 18 1011 77 10000 4.6 280 21:43 22.09.2019
1487 Rain 18 1011 77 10000 4.6 280 21:43 22.09.2019
1488 Rain 19 1011 64 10000 4.6 290 21:22 22.09.2019
1489 Rain 19 1011 77 10000 2.6 280 20:55 22.09.2019
1490 Rain 19 1011 82 10000 1 0 20:36 22.09.2019
1491 Rain 19 1011 82 10000 1 0 20:18 22.09.2019
1492 Clouds 19 1010 68 10000 1 0 19:41 22.09.2019
1493 Clouds 20 1010 68 10000 1 0 19:23 22.09.2019
1494 Clouds 20 1010 68 10000 1.5 180 18:59 22.09.2019
1495 Rain 21 1010 53 10000 1 0 18:39 22.09.2019
1496 Clouds 23 1010 53 10000 1 0 18:20 22.09.2019
1497 Clouds 23 1010 50 10000 1 0 17:58 22.09.2019
1498 Clouds 24 1010 50 10000 1.5 250 17:40 22.09.2019
1499 Clouds 24 1010 50 10000 1.5 250 17:19 22.09.2019
1500 Clouds 24 1011 47 10000 1 0 16:44 22.09.2019
1501 Clouds 24 1011 50 10000 1.5 0 16:26 22.09.2019
1502 Clouds 24 1011 53 10000 3.1 320 15:56 22.09.2019
1503 Clouds 24 1011 50 10000 1.5 0 15:38 22.09.2019
1504 Rain 24 1011 50 10000 1.5 0 15:19 22.09.2019
1505 Clouds 23 1012 53 10000 1.5 330 14:43 22.09.2019
1506 Clouds 23 1012 53 10000 1.5 330 14:25 22.09.2019
1507 Clouds 23 1012 60 10000 1.5 320 13:57 22.09.2019
1508 Clouds 22 1012 56 10000 2.1 320 13:39 22.09.2019
1509 Clouds 22 1012 56 10000 2.1 320 13:39 22.09.2019
1510 Clouds 22 1012 56 10000 2.1 320 13:21 22.09.2019
1511 Clouds 21 1013 72 10000 1.04 209.793 12:44 22.09.2019
1512 Clouds 20 1013 72 10000 0.99 184.86 12:24 22.09.2019
1513 Clouds 20 1013 72 10000 1 240 11:56 22.09.2019
1514 Clouds 20 1013 77 10000 0.5 0 11:38 22.09.2019
1515 Clouds 20 1013 77 10000 0.5 0 11:38 22.09.2019
1516 Clouds 19 1013 77 10000 0.5 0 11:20 22.09.2019
1517 Clouds 18 1013 88 10000 1.5 290 10:44 22.09.2019
1518 Clouds 17 1013 88 10000 1 250 10:20 22.09.2019
1519 Clouds 16 1013 93 10000 0.5 0 09:57 22.09.2019
1520 Clouds 16 1013 93 10000 0.5 0 09:38 22.09.2019
1521 Clouds 15 1013 93 10000 0.5 0 09:19 22.09.2019
1522 Clouds 15 1013 100 8000 0.5 10 08:45 22.09.2019
1523 Clouds 14 1013 93 10000 1 0 08:24 22.09.2019
1524 Clouds 14 1013 93 10000 1 0 08:24 22.09.2019
1525 Clouds 14 1013 93 10000 1 0 07:55 22.09.2019
1526 Clouds 14 1013 93 10000 2.1 100 07:36 22.09.2019
1527 Rain 14 1013 100 10000 2.6 110 07:18 22.09.2019
1528 Rain 14 1013 100 10000 2.6 110 06:53 22.09.2019
1529 Rain 14 1014 100 6000 0.5 0 05:25 22.09.2019
1530 Clouds 13 1014 93 9000 0.5 0 03:31 22.09.2019
1531 Clouds 13 1014 100 6000 0.5 0 02:37 22.09.2019
1532 Clouds 13 1014 100 6000 0.5 0 02:18 22.09.2019
1533 Clouds 13 1014 93 6000 0.5 0 00:58 22.09.2019
1534 Clouds 14 1015 100 9000 0.5 0 00:33 22.09.2019
1535 Clear 14 1015 93 10000 0.5 0 23:57 21.09.2019
1536 Clear 14 1015 100 10000 0.5 0 23:39 21.09.2019
1537 Clear 14 1015 100 10000 0.5 0 23:19 21.09.2019
1538 Clear 15 1016 93 10000 0.5 0 22:39 21.09.2019
1539 Clear 15 1016 93 10000 0.5 0 22:20 21.09.2019
1540 Clear 15 1016 93 10000 0.5 0 21:42 21.09.2019
1541 Clear 16 1015 93 10000 1.5 80 21:20 21.09.2019
1542 Clear 16 1015 87 10000 1.32 22.245 20:58 21.09.2019
1543 Clear 16 1015 87 10000 1.32 22.245 20:58 21.09.2019
1544 Rain 17 1015 88 10000 1 0 20:38 21.09.2019
1545 Rain 17 1015 88 10000 1 0 20:38 21.09.2019
1546 Rain 17 1015 88 10000 1 0 20:19 21.09.2019
1547 Rain 17 1015 88 10000 1 0 20:19 21.09.2019
1548 Clear 18 1015 72 10000 1 250 19:46 21.09.2019
1549 Clear 19 1015 68 10000 1.5 250 19:23 21.09.2019
1550 Clear 22 1015 53 10000 2.1 270 18:42 21.09.2019
1551 Clear 22 1015 53 10000 2.1 270 18:22 21.09.2019
1552 Clear 22 1016 50 10000 1.5 320 17:56 21.09.2019
1553 Clear 22 1016 53 10000 2.1 280 17:38 21.09.2019
1554 Clear 22 1016 53 10000 2.1 280 17:19 21.09.2019
1555 Clear 23 1017 56 10000 3.1 270 16:42 21.09.2019
1556 Clear 23 1017 56 10000 3.1 270 16:42 21.09.2019
1557 Clear 23 1017 53 10000 2.6 290 16:24 21.09.2019
1558 Clear 22 1017 53 10000 2.6 290 15:45 21.09.2019
1559 Clear 22 1018 56 10000 2.1 330 15:25 21.09.2019
1560 Clear 21 1018 56 10000 2.6 300 14:50 21.09.2019
1561 Clear 21 1018 60 10000 3.1 310 14:32 21.09.2019
1562 Clear 20 1019 60 10000 2.6 330 13:58 21.09.2019
1563 Clear 20 1019 68 10000 2.1 320 13:39 21.09.2019
1564 Clear 20 1019 68 10000 2.1 320 13:39 21.09.2019
1565 Clear 19 1019 68 10000 2.1 320 13:20 21.09.2019
1566 Clear 19 1020 68 10000 1 0 12:56 21.09.2019
1567 Clear 18 1020 63 10000 1 0 12:37 21.09.2019
1568 Clear 17 1020 63 10000 1 0 12:19 21.09.2019
1569 Clear 16 1021 72 10000 1.5 0 11:44 21.09.2019
1570 Clear 15 1021 82 10000 0.5 0 11:24 21.09.2019
1571 Clear 15 1021 82 10000 0.5 0 11:24 21.09.2019
1572 Clear 14 1021 87 10000 1 0 10:55 21.09.2019
1573 Clear 14 1021 81 10000 1 180 10:36 21.09.2019
1574 Clear 13 1021 81 10000 1 180 10:18 21.09.2019
1575 Mist 11 1022 100 7000 1 150 09:40 21.09.2019
1576 Mist 11 1022 100 7000 1 150 09:21 21.09.2019
1577 Mist 9 1022 93 5000 1 0 08:52 21.09.2019
1578 Mist 8 1022 93 5000 1 140 08:29 21.09.2019
1579 Fog 7 1022 93 8000 1 0 07:43 21.09.2019
1580 Fog 7 1021 100 10000 1.5 100 07:24 21.09.2019
1581 Fog 7 1021 100 10000 1 0 06:59 21.09.2019
1582 Fog 7 1021 100 10000 1 0 06:59 21.09.2019
1583 Drizzle 7 1021 100 6000 0.5 0 06:34 21.09.2019
1584 Fog 7 1021 100 3300 0.5 230 05:51 21.09.2019
1585 Rain 8 1021 100 10000 0.5 0 04:37 21.09.2019
1586 Mist 8 1022 100 10000 0.5 0 03:22 21.09.2019
1587 Clear 9 1022 100 10000 0.5 0 02:21 21.09.2019
1588 Clear 9 1022 100 10000 1.26 39.736 01:46 21.09.2019
1589 Clear 9 1022 100 10000 1.26 39.736 00:52 21.09.2019
1590 Clear 10 1022 93 10000 0.5 10 00:20 21.09.2019
1591 Clear 10 1022 93 10000 0.5 0 23:48 20.09.2019
1592 Clear 11 1022 100 10000 0.5 0 23:28 20.09.2019
1593 Clear 11 1022 93 10000 0.5 0 22:43 20.09.2019
1594 Clear 11 1022 93 10000 0.5 0 22:24 20.09.2019
1595 Clear 11 1022 87 10000 0.5 0 21:57 20.09.2019
1596 Clear 12 1022 76 10000 0.5 0 21:38 20.09.2019
1597 Clear 13 1022 76 10000 0.5 0 21:20 20.09.2019
1598 Clear 14 1022 76 10000 0.5 0 20:57 20.09.2019
1599 Clear 14 1022 67 10000 1 0 20:38 20.09.2019
1600 Clear 14 1022 67 10000 1 0 20:38 20.09.2019
1601 Clear 14 1022 67 10000 1 0 20:19 20.09.2019
1602 Clear 15 1022 63 10000 1.5 0 19:45 20.09.2019
1603 Clear 16 1022 63 10000 2.1 360 19:27 20.09.2019
1604 Clear 17 1022 59 10000 2.6 340 18:58 20.09.2019
1605 Clear 17 1022 55 10000 3.1 320 18:38 20.09.2019
1606 Clear 18 1022 52 10000 3.6 300 18:18 20.09.2019
1607 Clear 19 1022 49 10000 4.1 290 17:46 20.09.2019
1608 Clear 19 1022 49 10000 4.1 290 17:26 20.09.2019
1609 Clear 19 1023 49 10000 4.1 320 16:44 20.09.2019
1610 Clear 19 1023 49 10000 4.1 320 16:23 20.09.2019
1611 Clear 19 1023 52 10000 4.1 300 15:59 20.09.2019
1612 Clear 18 1023 52 10000 3.1 330 15:41 20.09.2019
1613 Clear 18 1023 52 10000 3.1 330 15:22 20.09.2019
1614 Clear 18 1024 55 10000 3.1 260 14:44 20.09.2019
1615 Clear 17 1024 55 10000 2.6 270 14:20 20.09.2019
1616 Clear 17 1024 55 10000 2.6 270 13:57 20.09.2019
1617 Clear 16 1025 62 10000 2.6 280 13:38 20.09.2019
1618 Clear 16 1025 62 10000 2.6 280 13:20 20.09.2019
1619 Clear 15 1025 58 10000 3.1 290 12:40 20.09.2019
1620 Clear 14 1025 58 10000 3.1 290 12:22 20.09.2019
1621 Clear 13 1025 62 10000 2.6 310 11:51 20.09.2019
1622 Clear 12 1025 62 10000 1.5 290 11:25 20.09.2019
1623 Clear 12 1025 71 10000 1.5 250 10:58 20.09.2019
1624 Clear 11 1025 76 10000 3.31 71.488 10:40 20.09.2019
1625 Clear 11 1025 76 10000 3.31 71.488 10:21 20.09.2019
1626 Clear 9 1025 81 10000 3.31 71.488 09:38 20.09.2019
1627 Clear 9 1025 81 10000 3.38 45.132 09:19 20.09.2019
1628 Clear 9 1025 81 10000 3.38 45.132 09:19 20.09.2019
1629 Clear 7 1025 100 10000 3.38 45.132 08:47 20.09.2019
1630 Clear 7 1026 81 10000 1 70 08:27 20.09.2019
1631 Clear 6 1025 93 10000 1 120 07:51 20.09.2019
1632 Clear 6 1025 93 10000 1 190 07:29 20.09.2019
1633 Clear 6 1025 75 10000 2.1 80 06:50 20.09.2019
1634 Clear 6 1025 93 10000 0.5 0 06:32 20.09.2019
1635 Clear 6 1025 93 10000 0.5 0 05:59 20.09.2019
1636 Clear 7 1025 93 10000 0.5 0 04:29 20.09.2019
1637 Clear 8 1025 81 10000 0.5 0 03:26 20.09.2019
1638 Clear 9 1025 81 10000 0.5 0 01:50 20.09.2019
1639 Clear 9 1025 87 10000 1 0 01:31 20.09.2019
1640 Clear 10 1025 76 10000 1.5 0 00:33 20.09.2019
1641 Clear 11 1024 71 10000 1 0 23:46 19.09.2019
1642 Clear 11 1024 71 10000 1 0 23:27 19.09.2019
1643 Clear 11 1024 76 10000 0.5 0 22:58 19.09.2019
1644 Clear 11 1024 62 10000 1.5 0 22:39 19.09.2019
1645 Clear 12 1024 62 10000 1.5 0 22:21 19.09.2019
1646 Clear 12 1024 54 10000 1 0 21:57 19.09.2019
1647 Clear 12 1024 54 10000 1 0 21:38 19.09.2019
1648 Clear 13 1024 54 10000 1 0 21:19 19.09.2019
1649 Clear 13 1024 50 10000 2.1 0 20:43 19.09.2019
1650 Clear 14 1024 54 10000 1.5 0 20:23 19.09.2019
1651 Clear 14 1023 54 10000 1.5 0 19:57 19.09.2019
1652 Clear 14 1023 54 10000 1.5 0 19:39 19.09.2019
1653 Clear 15 1023 54 10000 1.5 0 19:21 19.09.2019
1654 Clear 15 1023 51 10000 2.1 60 18:56 19.09.2019
1655 Clear 15 1023 51 10000 2.1 60 18:56 19.09.2019
1656 Clear 16 1023 48 10000 3.1 60 18:38 19.09.2019
1657 Clear 17 1023 48 10000 3.1 60 18:19 19.09.2019
1658 Clear 17 1023 48 10000 4.1 40 17:42 19.09.2019
1659 Clear 17 1023 48 10000 4.1 40 17:23 19.09.2019
1660 Clear 17 1023 45 10000 4.6 40 16:58 19.09.2019
1661 Clear 17 1023 48 10000 5.1 50 16:39 19.09.2019
1662 Clear 17 1023 48 10000 5.1 50 16:39 19.09.2019
1663 Clear 17 1023 48 10000 5.1 50 16:19 19.09.2019
1664 Clear 17 1023 51 10000 5.7 50 15:39 19.09.2019
1665 Clear 17 1023 51 10000 5.7 50 15:21 19.09.2019
1666 Clear 17 1023 55 10000 4.6 70 14:57 19.09.2019
1667 Clear 17 1023 55 10000 4.1 50 14:38 19.09.2019
1668 Clear 17 1023 55 10000 4.1 50 14:18 19.09.2019
1669 Clouds 16 1023 59 10000 4.1 360 13:40 19.09.2019
1670 Clouds 16 1023 59 10000 4.1 360 13:40 19.09.2019
1671 Clouds 16 1023 59 10000 4.1 360 13:20 19.09.2019
1672 Clouds 15 1024 58 10000 3.1 30 12:40 19.09.2019
1673 Clouds 14 1024 58 10000 3.1 30 12:20 19.09.2019
1674 Clouds 14 1024 62 10000 3.1 70 11:58 19.09.2019
1675 Clear 13 1024 62 10000 2.1 60 11:40 19.09.2019
1676 Clear 13 1024 62 10000 2.1 60 11:21 19.09.2019
1677 Clear 13 1024 62 10000 2.6 20 10:57 19.09.2019
1678 Clear 12 1023 66 10000 2.1 70 10:36 19.09.2019
1679 Clear 12 1023 66 10000 2.1 70 10:18 19.09.2019
1680 Clear 11 1023 66 10000 2.1 40 09:42 19.09.2019
1681 Clear 10 1023 71 10000 1.5 0 09:22 19.09.2019
1682 Clear 9 1023 87 10000 1 0 08:56 19.09.2019
1683 Clear 9 1023 87 10000 1 0 08:56 19.09.2019
1684 Clear 8 1023 75 10000 1.5 10 08:36 19.09.2019
1685 Clear 8 1023 75 10000 1.5 10 08:18 19.09.2019
1686 Clear 8 1022 87 10000 0.5 0 07:42 19.09.2019
1687 Clear 8 1022 87 10000 0.5 0 07:21 19.09.2019
1688 Clear 7 1022 93 10000 1 0 06:46 19.09.2019
1689 Clear 8 1022 75 10000 2.1 330 06:27 19.09.2019
1690 Clear 8 1022 75 10000 2.1 330 06:27 19.09.2019
1691 Clear 8 1022 81 10000 1.5 330 05:52 19.09.2019
1692 Clear 8 1022 81 10000 2.1 320 04:43 19.09.2019
1693 Clear 9 1022 87 10000 1 0 03:51 19.09.2019
1694 Clouds 10 1022 76 10000 2.1 330 02:30 19.09.2019
1695 Clouds 11 1022 71 10000 0.5 0 01:23 19.09.2019
1696 Clouds 11 1022 81 10000 1.5 0 00:50 19.09.2019
1697 Clouds 12 1022 76 10000 1 0 00:25 19.09.2019
1698 Clouds 12 1022 76 10000 1 0 00:25 19.09.2019
1699 Clear 12 1022 81 10000 1 0 23:42 18.09.2019
1700 Clear 12 1022 81 10000 1 0 23:21 18.09.2019
1701 Clear 12 1022 81 10000 2.6 150 22:47 18.09.2019
1702 Clear 12 1022 81 10000 1.5 0 22:23 18.09.2019
1703 Clear 13 1021 71 10000 1 0 21:59 18.09.2019
1704 Clear 13 1021 71 10000 1 0 21:59 18.09.2019
1705 Clouds 13 1021 67 10000 1.5 0 21:40 18.09.2019
1706 Clouds 14 1021 67 10000 1.5 0 21:19 18.09.2019
1707 Clear 14 1021 63 10000 1.5 0 20:59 18.09.2019
1708 Clouds 15 1021 63 10000 3.6 60 20:40 18.09.2019
1709 Clouds 15 1021 63 10000 3.6 60 20:22 18.09.2019
1710 Clouds 15 1020 59 10000 2.6 60 19:58 18.09.2019
1711 Clouds 15 1020 59 10000 2.6 60 19:58 18.09.2019
1712 Clouds 15 1020 59 10000 2.6 60 19:40 18.09.2019
1713 Clouds 16 1020 59 10000 2.6 60 19:19 18.09.2019
1714 Clouds 17 1020 63 10000 2.1 50 18:56 18.09.2019
1715 Clouds 17 1020 59 10000 3.1 50 18:37 18.09.2019
1716 Clouds 17 1020 59 10000 3.1 50 18:37 18.09.2019
1717 Clouds 17 1020 59 10000 3.1 50 18:19 18.09.2019
1718 Clouds 17 1020 59 10000 3.6 50 17:58 18.09.2019
1719 Clouds 18 1020 63 10000 3.1 50 17:39 18.09.2019
1720 Clouds 18 1020 63 10000 3.1 50 17:19 18.09.2019
1721 Clouds 18 1020 63 10000 3.1 50 17:19 18.09.2019
1722 Clouds 17 1021 59 10000 5.1 50 16:56 18.09.2019
1723 Clouds 18 1020 59 10000 3.6 60 16:38 18.09.2019
1724 Clouds 18 1020 59 10000 3.6 60 16:19 18.09.2019
1725 Clouds 18 1020 63 10000 3.1 0 15:55 18.09.2019
1726 Clouds 18 1020 63 10000 2.6 40 15:37 18.09.2019
1727 Clouds 17 1020 63 10000 2.6 40 15:18 18.09.2019
1728 Clouds 17 1020 63 10000 4.6 30 14:57 18.09.2019
1729 Clouds 17 1020 67 10000 3.6 20 14:38 18.09.2019
1730 Clouds 17 1020 67 10000 3.6 20 14:20 18.09.2019
1731 Clouds 17 1020 63 10000 2.6 10 13:43 18.09.2019
1732 Clouds 17 1020 63 10000 2.6 10 13:19 18.09.2019
1733 Clouds 16 1020 67 10000 2.6 350 12:55 18.09.2019
1734 Clouds 16 1020 67 10000 1.5 0 12:37 18.09.2019
1735 Clouds 16 1020 67 10000 1.5 0 12:18 18.09.2019
1736 Clouds 15 1020 72 10000 2.1 350 11:40 18.09.2019
1737 Clouds 15 1020 72 10000 2.1 350 11:19 18.09.2019
1738 Clouds 14 1020 71 10000 2.6 290 10:41 18.09.2019
1739 Clouds 14 1020 71 10000 2.6 290 10:22 18.09.2019
1740 Clouds 14 1020 71 10000 2.6 290 10:22 18.09.2019
1741 Clouds 14 1020 67 10000 1 0 09:59 18.09.2019
1742 Clouds 13 1020 71 10000 1.5 280 09:41 18.09.2019
1743 Clouds 13 1020 71 10000 1.5 280 09:22 18.09.2019
1744 Clouds 12 1020 76 9000 1.5 0 08:55 18.09.2019
1745 Clouds 12 1020 76 10000 1.5 310 08:37 18.09.2019
1746 Clouds 12 1020 76 10000 1.5 310 08:18 18.09.2019
1747 Clouds 12 1020 76 10000 1.5 310 08:18 18.09.2019
1748 Clouds 12 1020 76 10000 1 0 07:43 18.09.2019
1749 Clouds 12 1020 81 10000 1 0 07:23 18.09.2019
1750 Clouds 12 1020 76 10000 1.5 0 06:42 18.09.2019
1751 Clouds 13 1020 82 10000 1.5 340 05:58 18.09.2019
1752 Clouds 13 1019 93 10000 1 0 05:26 18.09.2019
1753 Clear 14 1019 76 10000 2.1 360 03:38 18.09.2019
1754 Clear 14 1020 72 10000 1 0 02:40 18.09.2019
1755 Clear 15 1020 82 10000 3.1 360 01:37 18.09.2019
1756 Clear 16 1019 87 10000 1.5 340 00:51 18.09.2019
1757 Clear 16 1019 72 10000 1 0 00:28 18.09.2019
1758 Clear 16 1020 72 10000 1.5 320 23:47 17.09.2019
1759 Clear 17 1020 68 10000 1.5 0 23:23 17.09.2019
1760 Clear 16 1019 82 10000 2.1 0 22:55 17.09.2019
1761 Clear 16 1019 77 10000 1.5 350 22:36 17.09.2019
1762 Clear 16 1019 77 10000 1.5 350 22:18 17.09.2019
1763 Clear 17 1019 72 10000 0.5 0 21:54 17.09.2019
1764 Clear 18 1018 72 10000 1.5 0 21:36 17.09.2019
1765 Clear 18 1018 72 10000 1.5 0 21:18 17.09.2019
1766 Clear 19 1018 60 10000 2.1 352.512 20:54 17.09.2019
1767 Clear 19 1018 56 10000 1 270 20:36 17.09.2019
1768 Clear 19 1018 56 10000 1 270 20:18 17.09.2019
1769 Clear 21 1018 56 10000 1 300 19:39 17.09.2019
1770 Clear 21 1018 56 10000 1 300 19:39 17.09.2019
1771 Clear 21 1018 56 10000 1 300 19:20 17.09.2019
1772 Clear 22 1017 47 10000 2.6 360 18:58 17.09.2019
1773 Clear 22 1017 47 10000 2.6 360 18:58 17.09.2019
1774 Clear 22 1017 47 10000 2.6 360 18:58 17.09.2019
1775 Clear 23 1017 36 10000 3.6 300 18:40 17.09.2019
1776 Clear 24 1017 36 10000 3.6 300 18:21 17.09.2019
1777 Clear 24 1017 36 10000 3.6 300 17:47 17.09.2019
1778 Clear 24 1017 36 10000 3.6 300 17:21 17.09.2019
1779 Clear 24 1018 36 10000 2.6 310 16:59 17.09.2019
1780 Clear 24 1018 36 10000 2.6 300 16:41 17.09.2019
1781 Clear 24 1018 36 10000 2.6 300 16:22 17.09.2019
1782 Clear 24 1018 39 10000 2.6 290 15:54 17.09.2019
1783 Clear 24 1018 44 10000 2.6 350 15:36 17.09.2019
1784 Clear 25 1018 44 10000 2.6 350 15:18 17.09.2019
1785 Clear 24 1018 47 10000 3.1 330 14:54 17.09.2019
1786 Clear 24 1019 53 10000 3.6 330 14:36 17.09.2019
1787 Clear 24 1019 53 10000 3.6 330 14:36 17.09.2019
1788 Clear 24 1019 53 10000 3.6 330 14:18 17.09.2019
1789 Clear 24 1019 57 10000 3.1 330 13:41 17.09.2019
1790 Clear 24 1019 57 10000 3.1 330 13:22 17.09.2019
1791 Clear 23 1019 64 10000 3.1 320 12:54 17.09.2019
1792 Clear 23 1019 60 10000 3.1 310 12:36 17.09.2019
1793 Clear 22 1019 60 10000 3.1 310 12:18 17.09.2019
1794 Clear 21 1019 68 10000 0.58 92.966 11:41 17.09.2019
1795 Clear 21 1019 68 10000 0.58 92.966 11:19 17.09.2019
1796 Clear 20 1022 59 10000 1 0 10:42 17.09.2019
1797 Clear 19 1020 77 10000 0.5 0 10:22 17.09.2019
1798 Clouds 18 1019 82 10000 0.5 0 09:59 17.09.2019
1799 Clouds 17 1019 87 10000 0.5 0 09:40 17.09.2019
1800 Clouds 17 1019 87 10000 0.5 0 09:40 17.09.2019
1801 Clouds 16 1019 87 10000 0.5 0 09:20 17.09.2019
1802 Clear 15 1019 93 10000 0.5 0 08:44 17.09.2019
1803 Fog 14 1019 93 10000 0.5 0 08:25 17.09.2019
1804 Fog 14 1019 93 10000 1 130 07:55 17.09.2019
1805 Mist 14 1019 93 10000 1 140 07:36 17.09.2019
1806 Clear 14 1019 100 10000 0.5 0 07:18 17.09.2019
1807 Clear 14 1019 100 10000 0.5 0 06:44 17.09.2019
1808 Clouds 14 1019 100 10000 0.17 338.385 06:19 17.09.2019
1809 Clear 14 1019 93 10000 0.5 0 05:33 17.09.2019
1810 Clear 15 1019 93 10000 0.5 0 04:26 17.09.2019
1811 Clear 16 1019 93 10000 0.5 0 02:53 17.09.2019
1812 Clear 16 1019 93 10000 0.5 0 02:33 17.09.2019
1813 Clear 16 1020 93 10000 2.1 100 01:19 17.09.2019
1814 Clouds 18 1020 87 10000 0.5 0 00:22 17.09.2019
1815 Clear 18 1020 93 10000 2.1 130 23:37 16.09.2019
1816 Clear 18 1020 93 10000 2.1 130 23:18 16.09.2019
1817 Clear 18 1020 93 10000 1 130 22:42 16.09.2019
1818 Clear 19 1020 93 10000 1 0 22:24 16.09.2019
1819 Clear 19 1020 88 10000 1 120 21:59 16.09.2019
1820 Clear 19 1019 88 10000 1.5 0 21:39 16.09.2019
1821 Clear 20 1019 88 10000 1.5 0 21:20 16.09.2019
1822 Clear 21 1019 82 10000 0.5 0 20:58 16.09.2019
1823 Clear 21 1019 83 10000 0.5 0 20:39 16.09.2019
1824 Clear 22 1019 83 10000 0.5 0 20:19 16.09.2019
1825 Clear 22 1019 64 10000 1 0 19:55 16.09.2019
1826 Clear 22 1019 64 10000 1 0 19:55 16.09.2019
1827 Clear 24 1019 53 10000 1.5 230 19:37 16.09.2019
1828 Clear 24 1019 53 10000 1.5 230 19:18 16.09.2019
1829 Clear 24 1019 53 10000 1.5 230 19:18 16.09.2019
1830 Clear 26 1019 42 10000 2.6 260 18:43 16.09.2019
1831 Clear 27 1019 42 10000 2.6 260 18:25 16.09.2019
1832 Clear 27 1019 37 10000 2.6 240 17:54 16.09.2019
1833 Clear 27 1019 42 10000 2.1 290 17:36 16.09.2019
1834 Clear 27 1019 42 10000 2.1 290 17:18 16.09.2019
1835 Clear 27 1019 39 10000 3.1 250 16:43 16.09.2019
1836 Clear 27 1020 39 10000 3.6 280 16:21 16.09.2019
1837 Clear 27 1020 39 10000 3.1 280 15:57 16.09.2019
1838 Clear 27 1020 42 10000 2.6 280 15:39 16.09.2019
1839 Clear 27 1020 42 10000 2.6 280 15:20 16.09.2019
1840 Clear 27 1020 42 10000 2.6 280 15:20 16.09.2019
1841 -273 0 0 0 0 0 14:58 16.09.2019
1842 Clear 26 1021 50 10000 1 0 14:39 16.09.2019
1843 Clear 26 1021 50 10000 1 0 14:20 16.09.2019
1844 Clear 26 1021 53 10000 1.5 0 13:43 16.09.2019
1845 Clear 25 1022 53 10000 1.5 0 13:22 16.09.2019
1846 Clear 24 1022 57 10000 0.5 0 12:57 16.09.2019
1847 Clear 24 1022 60 10000 1.5 280 12:38 16.09.2019
1848 Clear 23 1022 60 10000 1.5 280 12:18 16.09.2019
1849 Clear 22 1022 64 10000 1 250 11:44 16.09.2019
1850 Clear 22 1022 64 10000 1 250 11:22 16.09.2019
1851 Clear 21 1022 68 10000 3.1 110 10:55 16.09.2019
1852 Clear 21 1022 68 10000 3.1 110 10:55 16.09.2019
1853 Clear 20 1022 72 10000 3.6 110 10:36 16.09.2019
1854 Clear 19 1022 72 10000 3.6 110 10:18 16.09.2019
1855 Clear 19 1022 72 10000 3.6 110 10:18 16.09.2019
1856 Clear 18 1022 93 10000 0.5 0 09:41 16.09.2019
1857 Clear 18 1022 93 10000 0.5 0 09:41 16.09.2019
1858 Clear 17 1022 93 10000 0.5 0 09:21 16.09.2019
1859 Clear 16 1022 93 10000 0.5 0 08:53 16.09.2019
1860 Fog 16 1022 100 6000 0.5 230 08:34 16.09.2019
1861 Fog 14 1022 93 10000 0.5 0 07:59 16.09.2019
1862 Fog 14 1022 93 10000 0.5 0 07:40 16.09.2019
1863 Fog 14 1022 93 10000 0.5 0 07:20 16.09.2019
1864 Fog 14 1022 100 10000 1 290 06:50 16.09.2019
1865 Fog 14 1022 93 10000 0.5 0 06:32 16.09.2019
1866 Fog 14 1022 93 10000 1 0 05:58 16.09.2019
1867 Fog 15 1023 93 10000 1 0 05:39 16.09.2019
1868 Fog 15 1023 93 10000 1 0 05:18 16.09.2019
1869 Clear 15 1023 93 10000 1 0 03:35 16.09.2019
1870 Clear 16 1024 93 10000 0.5 0 00:57 16.09.2019
1871 Clear 17 1023 93 10000 2.1 120 00:37 16.09.2019
1872 Clear 17 1023 93 10000 2.1 120 00:19 16.09.2019
1873 Clear 17 1023 93 10000 0.5 0 23:39 15.09.2019
1874 Clear 18 1023 93 10000 0.5 0 23:20 15.09.2019
1875 Clear 18 1023 87 10000 1 0 22:39 15.09.2019
1876 Clear 18 1023 87 10000 1 0 22:20 15.09.2019
1877 Clear 19 1023 100 10000 0.5 0 21:57 15.09.2019
1878 Clear 19 1023 93 10000 0.5 0 21:39 15.09.2019
1879 Clear 20 1023 93 10000 0.5 0 21:20 15.09.2019
1880 Clear 20 1023 88 10000 2.1 150 20:46 15.09.2019
1881 Clear 21 1023 82 10000 0.5 0 20:27 15.09.2019
1882 Clear 21 1022 69 10000 1.26 340.11 19:59 15.09.2019
1883 Clear 23 1023 53 10000 1.5 230 19:41 15.09.2019
1884 Clear 24 1023 53 10000 1.5 230 19:22 15.09.2019
1885 Clear 25 1023 44 10000 1.5 270 18:41 15.09.2019
1886 Clear 26 1023 44 10000 1.5 270 18:23 15.09.2019
1887 Clear 26 1023 44 10000 2.6 310 17:56 15.09.2019
1888 Clear 26 1023 37 10000 2.1 260 17:36 15.09.2019
1889 Clear 26 1023 37 10000 2.1 260 17:18 15.09.2019
1890 Clear 26 1024 42 10000 2.1 260 16:42 15.09.2019
1891 Clear 26 1024 45 10000 2.6 290 16:23 15.09.2019
1892 Clear 26 1025 47 10000 1.5 300 15:58 15.09.2019
1893 Clear 26 1025 44 10000 3.1 290 15:38 15.09.2019
1894 Clear 26 1025 44 10000 3.1 290 15:19 15.09.2019
1895 Clear 25 1025 50 10000 4.1 300 14:56 15.09.2019
1896 Clear 25 1025 57 10000 2.6 300 14:37 15.09.2019
1897 Clear 25 1025 57 10000 2.6 300 14:19 15.09.2019
1898 Clear 24 1026 57 10000 1.5 0 13:44 15.09.2019
1899 Clear 24 1026 57 10000 1.5 0 13:44 15.09.2019
1900 Clear 24 1026 69 10000 1 0 13:22 15.09.2019
1901 Clear 23 1027 69 10000 0.5 0 12:43 15.09.2019
1902 Clear 22 1027 69 10000 0.5 0 12:25 15.09.2019
1903 Clear 21 1027 73 10000 1 0 11:59 15.09.2019
1904 Clear 21 1027 72 10000 1 0 11:41 15.09.2019
1905 Clear 20 1027 72 10000 1 0 11:21 15.09.2019
1906 Clear 19 1027 82 10000 1 0 10:47 15.09.2019
1907 Clear 19 1027 82 10000 1 0 10:47 15.09.2019
1908 Fog 18 1027 93 10000 0.5 0 10:23 15.09.2019
1909 Mist 18 1027 93 10000 0.5 0 09:59 15.09.2019
1910 Fog 16 1027 100 8000 0.5 0 09:39 15.09.2019
1911 Fog 16 1027 100 8000 0.5 0 09:19 15.09.2019
1912 Fog 15 1027 100 10000 1 0 08:46 15.09.2019
1913 Fog 14 1027 100 10000 1 0 08:27 15.09.2019
1914 Fog 14 1027 100 6000 0.5 0 07:48 15.09.2019
1915 Fog 13 1027 100 2300 0.5 0 07:27 15.09.2019
1916 Fog 14 1027 100 250 1 200 06:43 15.09.2019
1917 Fog 14 1027 100 5000 1 0 03:31 15.09.2019
1918 Mist 15 1027 100 5000 1.5 0 02:35 15.09.2019
1919 Clouds 15 1027 100 10000 0.78 43.55 01:40 15.09.2019
1920 Clouds 15 1027 100 10000 0.78 43.55 01:40 15.09.2019
1921 Clouds 15 1027 100 10000 0.67 48.531 01:19 15.09.2019
1922 Clouds 15 1028 93 9000 0.5 0 00:43 15.09.2019
1923 Clouds 16 1028 93 9000 0.5 0 00:21 15.09.2019
1924 Mist 16 1027 93 10000 1 0 23:58 14.09.2019
1925 Clear 16 1027 100 10000 1 0 23:39 14.09.2019
1926 Clear 16 1027 100 10000 1 0 23:39 14.09.2019
1927 Clear 16 1027 100 10000 1 0 23:39 14.09.2019
1928 Clear 16 1027 100 10000 1 0 23:21 14.09.2019
1929 Clear 16 1027 100 10000 1 0 22:59 14.09.2019
1930 Clear 17 1028 100 10000 1 0 22:40 14.09.2019
1931 Clear 17 1028 100 10000 1 0 22:20 14.09.2019
1932 Clear 17 1028 87 10000 0.5 0 21:56 14.09.2019
1933 Clear 18 1028 93 10000 0.5 0 21:38 14.09.2019
1934 Clear 18 1028 93 10000 0.5 0 21:19 14.09.2019
1935 Haze 19 1027 73 10000 1.5 250 20:40 14.09.2019
1936 Haze 19 1027 73 10000 1.5 250 20:40 14.09.2019
1937 Haze 20 1027 73 10000 1.5 250 20:22 14.09.2019
1938 Clear 20 1027 68 10000 1 0 19:59 14.09.2019
1939 Clear 22 1027 68 10000 1.5 40 19:40 14.09.2019
1940 Clear 22 1027 68 10000 1.5 40 19:19 14.09.2019
1941 Clear 23 1027 64 10000 2.6 330 18:41 14.09.2019
1942 Clear 23 1027 64 10000 2.6 330 18:21 14.09.2019
1943 Clear 24 1027 61 10000 3.6 300 17:58 14.09.2019
1944 Clear 24 1027 61 10000 3.6 300 17:39 14.09.2019
1945 Clear 24 1027 61 10000 3.6 300 17:21 14.09.2019
1946 Clear 24 1027 57 10000 3.1 320 16:43 14.09.2019
1947 Clear 24 1027 60 10000 3.1 290 16:21 14.09.2019
1948 Clear 23 1028 60 10000 2.6 290 15:55 14.09.2019
1949 Clear 23 1028 64 10000 2.6 290 15:36 14.09.2019
1950 Clear 23 1028 64 10000 2.6 290 15:18 14.09.2019
1951 Clear 23 1028 64 10000 1.5 0 14:42 14.09.2019
1952 Clear 22 1029 64 10000 1.5 310 14:19 14.09.2019
1953 Clear 22 1029 64 10000 1.5 310 14:19 14.09.2019
1954 Clear 22 1029 68 10000 2.6 280 13:47 14.09.2019
1955 Clouds 21 1029 72 10000 2.6 290 13:22 14.09.2019
1956 Clouds 21 1030 72 10000 2.6 310 12:48 14.09.2019
1957 Clouds 20 1030 68 10000 1 0 12:26 14.09.2019
1958 Clear 19 1031 82 10000 0.5 0 11:43 14.09.2019
1959 Clear 18 1031 82 10000 0.5 0 11:22 14.09.2019
1960 Clear 17 1031 87 10000 1 360 10:58 14.09.2019
1961 Clear 17 1031 87 10000 1 360 10:58 14.09.2019
1962 Clear 17 1031 87 10000 0.5 0 10:37 14.09.2019
1963 Clear 17 1031 87 10000 0.5 0 10:18 14.09.2019
1964 Clouds 16 1031 87 10000 2.6 50 09:56 14.09.2019
1965 Clear 15 1031 93 10000 1 50 09:38 14.09.2019
1966 Clear 15 1031 93 10000 1 50 09:18 14.09.2019
1967 Fog 14 1030 93 10000 0.5 0 08:44 14.09.2019
1968 Fog 14 1030 93 10000 0.5 0 08:44 14.09.2019
1969 Fog 13 1030 100 7000 0.5 50 08:23 14.09.2019
1970 Clouds 13 1030 100 9000 2.91 66.964 07:45 14.09.2019
1971 Clouds 13 1030 100 9000 2.91 66.964 07:27 14.09.2019
1972 Fog 13 1030 93 500 0.5 0 06:39 14.09.2019
1973 Mist 13 1030 100 10000 2.1 40 06:18 14.09.2019
1974 Mist 13 1030 100 1100 2.73 44.926 04:55 14.09.2019
1975 Mist 14 1030 100 9000 1 0 03:38 14.09.2019
1976 Clear 14 1030 100 10000 1 0 02:51 14.09.2019
1977 Clear 15 1031 100 10000 0.5 0 01:47 14.09.2019
1978 Clear 15 1031 100 10000 0.5 0 01:21 14.09.2019
1979 Clear 15 1030 100 10000 0.5 0 00:56 14.09.2019
1980 Clear 15 1031 93 10000 1 0 00:37 14.09.2019
1981 Clear 16 1031 87 10000 1 40 00:18 14.09.2019
1982 Clear 16 1031 87 10000 0.5 50 23:38 13.09.2019
1983 Clear 16 1031 87 10000 0.5 50 23:19 13.09.2019
1984 Clear 16 1031 93 10000 0.5 0 22:56 13.09.2019
1985 Clear 16 1030 87 10000 0.5 0 22:38 13.09.2019
1986 Clear 16 1030 87 10000 0.5 0 22:37 13.09.2019
1987 Clear 17 1030 87 10000 0.5 0 22:19 13.09.2019
1988 Clear 17 1030 82 10000 0.5 0 21:41 13.09.2019
1989 Clear 18 1030 82 10000 0.5 0 21:20 13.09.2019
1990 Clear 18 1030 82 10000 0.5 0 21:20 13.09.2019
1991 Clear 19 1030 60 10000 1 0 20:58 13.09.2019
1992 Clear 20 1030 60 10000 1.5 80 20:39 13.09.2019
1993 Clear 20 1030 60 10000 1.5 80 20:20 13.09.2019
1994 Clear 21 1030 50 10000 1.5 0 19:56 13.09.2019
1995 Clear 22 1030 53 10000 1.5 0 19:37 13.09.2019
1996 Clear 22 1030 53 10000 1.5 0 19:19 13.09.2019
1997 Clear 24 1030 53 10000 2.1 50 18:54 13.09.2019
1998 Clear 24 1030 53 10000 1.5 20 18:36 13.09.2019
1999 Clear 25 1030 53 10000 1.5 20 18:18 13.09.2019
2000 Clear 25 1030 47 10000 2.6 0 17:37 13.09.2019
2001 Clear 25 1030 47 10000 2.6 0 17:37 13.09.2019
2002 Clear 25 1030 47 10000 2.6 0 17:18 13.09.2019
2003 Clear 25 1030 50 10000 3.6 320 16:40 13.09.2019
2004 Clear 25 1030 50 10000 3.6 320 16:20 13.09.2019
2005 Clear 25 1030 50 10000 3.6 320 16:20 13.09.2019
2006 Clear 25 1030 47 10000 3.6 320 15:46 13.09.2019
2007 Clear 24 1030 50 10000 3.1 290 15:27 13.09.2019
2008 Clear 24 1031 53 10000 2.6 300 14:57 13.09.2019
2009 Clear 24 1031 53 10000 3.1 290 14:39 13.09.2019
2010 Clear 24 1031 53 10000 3.1 290 14:19 13.09.2019
2011 Clear 24 1031 53 10000 3.1 290 14:19 13.09.2019
2012 Clear 23 1031 60 10000 2.1 260 13:45 13.09.2019
2013 Clear 23 1031 60 10000 2.1 260 13:24 13.09.2019
2014 Clear 22 1032 56 10000 1 0 12:56 13.09.2019
2015 Clear 21 1032 60 10000 1 0 12:38 13.09.2019
2016 Clear 21 1032 60 10000 1 0 12:20 13.09.2019
2017 Clear 20 1032 68 10000 0.5 0 11:54 13.09.2019
2018 Clear 19 1033 72 10000 1.5 140 11:18 13.09.2019
2019 Clear 18 1033 82 10000 1.5 0 10:38 13.09.2019
2020 Clear 17 1033 82 10000 1.5 0 10:19 13.09.2019
2021 Clear 16 1033 87 10000 1.5 0 09:44 13.09.2019
2022 Clear 15 1033 100 10000 1.5 120 09:24 13.09.2019
2023 Clear 14 1033 100 10000 1.5 140 08:58 13.09.2019
2024 Fog 13 1033 100 10000 0.53 27.189 08:40 13.09.2019
2025 Fog 13 1033 100 10000 0.53 27.189 08:40 13.09.2019
2026 Fog 12 1033 100 10000 0.53 27.189 08:20 13.09.2019
2027 Fog 11 1033 100 10000 0.53 27.189 07:45 13.09.2019
2028 Fog 11 1033 100 10000 0.53 27.189 07:27 13.09.2019
2029 Fog 11 1032 100 10000 0.53 27.189 06:47 13.09.2019
2030 Mist 10 1032 100 10000 0.5 0 05:49 13.09.2019
2031 Clear 11 1032 100 10000 0.86 27.576 04:53 13.09.2019
2032 Clear 12 1032 100 10000 1 180 03:39 13.09.2019
2033 Clear 13 1032 93 10000 1 120 02:20 13.09.2019
2034 Clear 13 1032 100 10000 1 0 01:52 13.09.2019
2035 Clear 13 1032 93 10000 0.5 0 01:33 13.09.2019
2036 Clear 14 1032 100 10000 0.5 0 00:39 13.09.2019
2037 Clear 14 1032 93 10000 1.48 7.725 23:59 12.09.2019
2038 Clear 15 1032 93 10000 1.48 7.725 23:36 12.09.2019
2039 Clear 15 1032 87 10000 0.5 0 22:59 12.09.2019
2040 Clear 15 1032 93 10000 1 0 22:41 12.09.2019
2041 Clear 15 1032 93 10000 1 0 22:23 12.09.2019
2042 Clear 16 1032 87 10000 0.5 0 21:57 12.09.2019
2043 Clear 16 1032 87 10000 0.5 0 21:37 12.09.2019
2044 Clear 17 1032 87 10000 0.5 0 21:19 12.09.2019
2045 Clear 17 1032 87 10000 0.5 0 21:19 12.09.2019
2046 Clear 17 1031 82 10000 0.5 0 20:55 12.09.2019
2047 Clear 18 1031 63 10000 1 0 20:37 12.09.2019
2048 Clear 18 1031 63 10000 1 0 20:19 12.09.2019
2049 Clear 21 1031 56 10000 1.5 0 19:41 12.09.2019
2050 Clear 21 1031 56 10000 1.5 0 19:20 12.09.2019
2051 Clear 22 1031 41 10000 2.1 240 18:58 12.09.2019
2052 Clear 23 1030 36 10000 2.1 240 18:37 12.09.2019
2053 Clear 23 1030 36 10000 2.1 240 18:18 12.09.2019
2054 Clear 23 1031 33 10000 1.5 270 17:41 12.09.2019
2055 Clear 24 1031 33 10000 1.5 270 17:22 12.09.2019
2056 Clear 24 1031 36 10000 2.1 310 16:58 12.09.2019
2057 Clear 24 1031 36 10000 2.1 310 16:58 12.09.2019
2058 Clear 24 1031 36 10000 2.1 310 16:58 12.09.2019
2059 Clear 24 1031 36 10000 2.1 310 16:58 12.09.2019
2060 Clear 24 1031 41 10000 2.1 340 16:40 12.09.2019
2061 Clear 24 1031 41 10000 2.1 340 16:20 12.09.2019
2062 Clear 23 1031 46 10000 2.1 290 15:43 12.09.2019
2063 Clear 23 1031 46 10000 2.1 290 15:24 12.09.2019
2064 Clear 23 1031 49 10000 2.1 310 14:55 12.09.2019
2065 Clear 22 1032 53 10000 2.1 300 14:37 12.09.2019
2066 Clear 22 1032 53 10000 2.1 300 14:19 12.09.2019
2067 Clear 22 1032 56 10000 2.1 300 13:39 12.09.2019
2068 Clear 21 1032 56 10000 2.1 300 13:20 12.09.2019
2069 Clear 21 1032 64 10000 2.1 330 12:49 12.09.2019
2070 Clear 21 1032 64 10000 2.1 330 12:49 12.09.2019
2071 Clear 19 1032 68 10000 1 0 12:19 12.09.2019
2072 Clear 19 1032 68 10000 1 0 11:58 12.09.2019
2073 Clear 18 1032 68 10000 1 0 11:39 12.09.2019
2074 Clear 18 1032 68 10000 1 0 11:21 12.09.2019
2075 Clear 17 1032 77 10000 1.5 0 10:49 12.09.2019
2076 Clear 16 1032 77 10000 2.1 80 10:28 12.09.2019
2077 Fog 15 1031 93 10000 0.5 0 09:56 12.09.2019
2078 Fog 14 1031 93 10000 0.5 0 09:38 12.09.2019
2079 Fog 14 1031 93 10000 0.5 0 09:18 12.09.2019
2080 Fog 12 1031 100 8000 1.5 150 08:43 12.09.2019
2081 Fog 11 1031 100 8000 1.5 150 08:23 12.09.2019
2082 Fog 10 1031 100 7000 1 130 07:47 12.09.2019
2083 Fog 10 1031 100 7000 0.91 31.266 07:20 12.09.2019
2084 Clear 10 1031 100 6000 0.91 31.266 06:52 12.09.2019
2085 Clear 10 1030 100 5000 1 0 06:32 12.09.2019
2086 Clear 11 1030 93 8000 0.5 0 05:53 12.09.2019
2087 Clear 11 1030 100 10000 2.6 100 05:35 12.09.2019
2088 Clear 11 1030 93 8000 0.5 0 04:42 12.09.2019
2089 Clouds 12 1030 100 8000 0.5 180 03:18 12.09.2019
2090 Fog 12 1029 100 5000 0.93 3.511 01:38 12.09.2019
2091 Fog 13 1029 100 5000 0.93 3.511 01:19 12.09.2019
2092 Clear 13 1029 100 10000 0.5 0 00:45 12.09.2019
2093 Clear 13 1029 100 10000 0.5 0 00:45 12.09.2019
2094 Clouds 13 1029 100 9000 1.19 5.208 00:25 12.09.2019
2095 Clouds 14 1029 100 10000 1 90 23:43 11.09.2019
2096 Clouds 14 1029 100 10000 1 90 23:24 11.09.2019
2097 Clouds 15 1028 87 10000 1 0 22:57 11.09.2019
2098 Clouds 15 1028 93 10000 1 0 22:38 11.09.2019
2099 Clouds 15 1028 93 10000 1 0 22:19 11.09.2019
2100 Clouds 15 1028 87 10000 0.5 0 21:55 11.09.2019
2101 Clouds 16 1027 87 10000 1.19 5.208 21:36 11.09.2019
2102 Clouds 16 1027 87 10000 2.55 337.017 21:18 11.09.2019
2103 Clouds 16 1027 77 10000 0.5 0 20:54 11.09.2019
2104 Clouds 16 1027 72 10000 0.5 0 20:36 11.09.2019
2105 Clouds 17 1027 72 10000 0.5 0 20:18 11.09.2019
2106 Clouds 18 1026 64 10000 1.5 0 19:42 11.09.2019
2107 Clouds 18 1026 64 10000 1.5 0 19:22 11.09.2019
2108 Clouds 18 1026 64 10000 1.5 0 19:22 11.09.2019
2109 Clouds 19 1026 56 10000 1.5 0 18:59 11.09.2019
2110 Clouds 19 1026 56 10000 1.5 0 18:59 11.09.2019
2111 Clouds 19 1026 60 10000 1 0 18:40 11.09.2019
2112 Clouds 20 1026 60 10000 1 0 18:22 11.09.2019
2113 Clouds 20 1025 64 10000 2.1 310 17:57 11.09.2019
2114 Clouds 20 1025 60 10000 2.1 320 17:38 11.09.2019
2115 Clouds 20 1025 60 10000 2.1 320 17:20 11.09.2019
2116 -273 0 0 0 0 0 16:49 11.09.2019
2117 Clouds 20 1025 60 10000 2.6 260 16:26 11.09.2019
2118 Clouds 20 1025 56 10000 2.1 270 15:59 11.09.2019
2119 Clouds 20 1025 56 10000 2.6 250 15:41 11.09.2019
2120 Clouds 20 1025 56 10000 2.6 250 15:20 11.09.2019
2121 -273 0 0 0 0 0 14:56 11.09.2019
2122 Clouds 20 1025 56 10000 3.1 310 14:56 11.09.2019
2123 Clouds 20 1024 52 10000 2.1 310 14:37 11.09.2019
2124 Clouds 20 1024 52 10000 2.1 310 14:18 11.09.2019
2125 Clouds 20 1024 63 10000 2.6 280 13:39 11.09.2019
2126 Clouds 19 1024 63 10000 2.6 280 13:20 11.09.2019
2127 Clear 19 1024 59 10000 2.1 280 12:59 11.09.2019
2128 Clear 18 1024 68 10000 2.1 270 12:38 11.09.2019
2129 Clear 18 1024 68 10000 2.1 270 12:20 11.09.2019
2130 Clear 16 1024 72 10000 1 0 11:40 11.09.2019
2131 Clear 16 1024 72 10000 1 0 11:21 11.09.2019
2132 Clear 15 1024 82 10000 1 0 10:57 11.09.2019
2133 Clear 15 1024 87 10000 1 0 10:39 11.09.2019
2134 Clear 14 1024 87 10000 1 0 10:20 11.09.2019
2135 Clear 13 1024 100 10000 0.5 0 09:40 11.09.2019
2136 Clear 12 1024 100 10000 0.5 0 09:20 11.09.2019
2137 Fog 11 1024 100 10000 1 0 08:56 11.09.2019
2138 Fog 10 1023 100 10000 1 0 08:38 11.09.2019
2139 Fog 10 1023 100 10000 1 0 08:20 11.09.2019
2140 Fog 9 1022 93 6000 0.5 45.977 07:40 11.09.2019
2141 Fog 9 1022 93 6000 0.5 45.977 07:22 11.09.2019
2142 Fog 9 1022 100 6000 1 230 06:48 11.09.2019
2143 Clear 9 1022 93 10000 1 40 06:29 11.09.2019
2144 Clouds 9 1021 100 10000 0.5 350 05:37 11.09.2019
2145 Clouds 9 1021 100 10000 0.5 350 05:19 11.09.2019
2146 Clear 10 1021 100 10000 0.5 0 04:23 11.09.2019
2147 Clear 10 1021 100 10000 0.5 0 03:32 11.09.2019
2148 Clouds 11 1020 100 10000 0.5 0 02:41 11.09.2019
2149 Clouds 11 1020 100 10000 1 0 01:50 11.09.2019
2150 Clouds 12 1019 93 10000 0.5 0 00:50 11.09.2019
2151 Clouds 12 1020 93 10000 1 320 00:20 11.09.2019
2152 Clouds 12 1020 93 10000 1 320 00:20 11.09.2019
2153 Clouds 12 1019 93 10000 0.5 0 23:41 10.09.2019
2154 Clouds 12 1019 93 10000 0.5 0 23:22 10.09.2019
2155 Clouds 13 1019 93 10000 1 0 22:59 10.09.2019
2156 Clouds 13 1019 87 10000 0.5 0 22:41 10.09.2019
2157 Clouds 13 1019 87 10000 0.5 0 22:19 10.09.2019
2158 Clouds 13 1019 82 10000 1 0 21:55 10.09.2019
2159 Clouds 14 1018 82 10000 0.5 0 21:37 10.09.2019
2160 Clouds 14 1018 82 10000 0.5 0 21:37 10.09.2019
2161 Clouds 14 1018 82 10000 0.5 0 21:37 10.09.2019
2162 Clouds 14 1018 82 10000 0.5 0 21:37 10.09.2019
2163 Clouds 14 1018 82 10000 0.5 0 21:18 10.09.2019
2164 Clouds 15 1018 67 10000 1 0 20:57 10.09.2019
2165 Clear 15 1017 59 10000 1 0 20:38 10.09.2019
2166 Clear 15 1017 59 10000 1 0 20:19 10.09.2019
2167 Clear 15 1017 59 10000 1 0 20:19 10.09.2019
2168 Clear 16 1017 55 10000 2.1 20 19:56 10.09.2019
2169 Clear 17 1017 52 10000 2.1 40 19:37 10.09.2019
2170 Clear 17 1017 52 10000 2.1 40 19:19 10.09.2019
2171 Clear 18 1016 52 10000 2.1 40 18:55 10.09.2019
2172 Clear 18 1016 52 10000 2.1 350 18:37 10.09.2019
2173 Clear 19 1016 52 10000 2.1 350 18:18 10.09.2019
2174 Clear 20 1016 45 10000 2.6 40 17:42 10.09.2019
2175 Clear 20 1016 45 10000 2.6 40 17:21 10.09.2019
2176 Clear 20 1016 45 10000 2.6 60 16:58 10.09.2019
2177 Clear 19 1016 49 10000 2.1 50 16:39 10.09.2019
2178 Clear 20 1016 49 10000 2.1 50 16:20 10.09.2019
2179 Clear 20 1016 49 10000 2.6 330 15:57 10.09.2019
2180 Clear 19 1016 55 10000 3.1 330 15:39 10.09.2019
2181 Clear 19 1016 55 10000 3.1 330 15:20 10.09.2019
2182 Clear 18 1016 59 10000 3.1 250 14:41 10.09.2019
2183 Clear 18 1016 59 10000 3.1 250 14:22 10.09.2019
2184 Clear 18 1016 59 10000 2.1 250 13:50 10.09.2019
2185 Clear 18 1016 59 10000 2.1 290 13:24 10.09.2019
2186 Clear 17 1016 59 10000 1 0 12:58 10.09.2019
2187 Clear 17 1016 59 10000 1 0 12:40 10.09.2019
2188 Clear 16 1016 67 10000 1.5 280 12:22 10.09.2019
2189 Clear 15 1016 67 10000 1 0 11:43 10.09.2019
2190 Clear 15 1016 67 10000 1 0 11:23 10.09.2019
2191 Clear 15 1016 67 10000 1 0 11:23 10.09.2019
2192 Clear 14 1016 67 10000 1 0 10:59 10.09.2019
2193 Clear 14 1016 76 10000 1 300 10:38 10.09.2019
2194 Clouds 13 1015 87 10000 1 300 10:18 10.09.2019
2195 Clouds 12 1015 87 10000 1 300 09:47 10.09.2019
2196 Clouds 11 1015 93 10000 1 0 09:20 10.09.2019
2197 Clouds 10 1015 93 10000 1.85 35.534 08:59 10.09.2019
2198 Clouds 10 1015 93 10000 1.29 46.604 08:41 10.09.2019
2199 Clouds 9 1015 93 10000 1.29 46.604 08:22 10.09.2019
2200 Clouds 9 1014 93 10000 1.5 100 07:44 10.09.2019
2201 Clouds 9 1014 93 10000 1.5 100 07:25 10.09.2019
2202 Clouds 9 1014 93 10000 3.1 100 06:51 10.09.2019
2203 Clouds 9 1014 93 10000 3.1 100 06:31 10.09.2019
2204 Clouds 9 1015 100 10000 0.5 0 04:57 10.09.2019
2205 Clouds 10 1015 93 10000 0.5 0 02:46 10.09.2019
2206 Clouds 10 1015 93 10000 0.5 0 02:23 10.09.2019
2207 Clouds 10 1015 93 10000 0.5 0 01:54 10.09.2019
2208 Clouds 10 1015 100 10000 1 0 01:28 10.09.2019
2209 Clouds 10 1015 93 10000 1 180 00:44 10.09.2019
2210 Clouds 10 1015 93 10000 1 180 00:24 10.09.2019
2211 Clouds 10 1015 100 10000 1 90 23:46 09.09.2019
2212 Clouds 10 1015 100 10000 1 90 23:20 09.09.2019
2213 Clouds 10 1015 100 10000 1 90 22:56 09.09.2019
2214 Clouds 10 1015 93 10000 1 0 22:38 09.09.2019
2215 Clouds 11 1015 93 10000 1 0 22:20 09.09.2019
2216 Clouds 11 1015 93 10000 1 90 21:56 09.09.2019
2217 Clouds 11 1015 93 10000 1 90 21:37 09.09.2019
2218 Clouds 12 1015 93 10000 1 90 21:19 09.09.2019
2219 Clouds 12 1015 87 10000 1 150 20:55 09.09.2019
2220 Clouds 12 1015 71 10000 1 80 20:37 09.09.2019
2221 Clouds 13 1014 71 10000 0.5 0 20:19 09.09.2019
2222 Clouds 13 1014 71 10000 0.5 0 20:19 09.09.2019
2223 Clouds 13 1014 71 10000 0.5 0 19:56 09.09.2019
2224 Clouds 13 1014 62 10000 2.1 240 19:38 09.09.2019
2225 Clouds 15 1014 55 10000 2.1 270 19:19 09.09.2019
2226 Clouds 15 1014 55 10000 2.1 270 18:57 09.09.2019
2227 Clouds 15 1014 55 10000 1 270 18:38 09.09.2019
2228 Clouds 16 1014 48 10000 1 0 18:20 09.09.2019
2229 Clouds 16 1014 48 10000 1 0 17:57 09.09.2019
2230 Clouds 16 1014 42 10000 1 0 17:39 09.09.2019
2231 Clouds 16 1014 42 10000 1 0 17:20 09.09.2019
2232 Clouds 17 1015 55 10000 2.1 260 16:55 09.09.2019
2233 Clouds 17 1015 48 10000 1.5 0 16:37 09.09.2019
2234 Clouds 17 1015 48 10000 2.6 280 16:18 09.09.2019
2235 Clouds 16 1015 45 10000 1.5 230 15:44 09.09.2019
2236 Clouds 16 1015 45 10000 1.5 230 15:24 09.09.2019
2237 Clouds 16 1015 51 10000 1.5 230 14:59 09.09.2019
2238 Clouds 16 1016 51 10000 2.1 280 14:40 09.09.2019
2239 Clouds 16 1016 51 10000 2.1 280 14:22 09.09.2019
2240 Clouds 16 1016 51 10000 1.5 330 13:58 09.09.2019
2241 Clouds 15 1016 54 10000 1.5 280 13:40 09.09.2019
2242 Clouds 15 1016 54 10000 1.5 280 13:19 09.09.2019
2243 Clouds 15 1017 51 10000 1.5 0 12:55 09.09.2019
2244 Clouds 15 1017 62 10000 2.6 280 12:36 09.09.2019
2245 Clouds 14 1017 58 10000 2.1 320 12:18 09.09.2019
2246 Clouds 14 1017 67 10000 2.1 130 11:43 09.09.2019
2247 Clouds 13 1017 67 10000 2.1 130 11:20 09.09.2019
2248 Clouds 13 1018 71 10000 2.1 200 10:54 09.09.2019
2249 Clouds 13 1018 71 10000 1 170 10:36 09.09.2019
2250 Clouds 12 1018 71 10000 1 170 10:18 09.09.2019
2251 Clouds 11 1018 93 10000 1.5 150 09:46 09.09.2019
2252 Clouds 10 1018 93 10000 1.5 150 09:27 09.09.2019
2253 Clouds 10 1018 93 10000 1.5 150 08:56 09.09.2019
2254 Clouds 9 1018 93 10000 1.5 150 08:37 09.09.2019
2255 Clouds 9 1018 93 10000 1.5 140 08:18 09.09.2019
2256 Rain 9 1018 93 10000 1.5 140 07:41 09.09.2019
2257 Clouds 9 1018 93 10000 1 90 07:20 09.09.2019
2258 Clouds 9 1018 93 10000 1 0 06:53 09.09.2019
2259 Clouds 9 1018 93 10000 1 0 06:53 09.09.2019
2260 Clouds 9 1018 93 10000 1 0 06:27 09.09.2019
2261 Clouds 9 1018 100 10000 1 120 03:21 09.09.2019
2262 Drizzle 9 1018 93 10000 2.1 240 02:42 09.09.2019
2263 Rain 9 1018 93 10000 2.6 130 01:25 09.09.2019
2264 Rain 10 1019 93 10000 2.6 110 00:24 09.09.2019
2265 Rain 10 1019 93 10000 2.1 130 23:56 08.09.2019
2266 Rain 10 1019 100 10000 2.6 110 23:38 08.09.2019
2267 Rain 10 1019 100 10000 2.6 110 23:19 08.09.2019
2268 Rain 10 1019 100 10000 1 0 22:41 08.09.2019
2269 Rain 10 1019 100 10000 1 0 22:23 08.09.2019
2270 Rain 10 1019 93 10000 1.5 110 21:59 08.09.2019
2271 Rain 10 1019 93 10000 1.5 130 21:40 08.09.2019
2272 Rain 10 1019 93 10000 1.5 130 21:40 08.09.2019
2273 Rain 10 1019 93 10000 1.5 130 21:22 08.09.2019
2274 Rain 10 1018 87 10000 3.1 210 20:55 08.09.2019
2275 Rain 10 1018 100 10000 2.1 90 20:37 08.09.2019
2276 Rain 10 1018 100 10000 2.1 90 20:37 08.09.2019
2277 Rain 10 1018 100 10000 2.1 90 20:18 08.09.2019
2278 Rain 10 1018 93 10000 1.5 100 19:39 08.09.2019
2279 Rain 11 1018 100 8000 2.6 100 19:21 08.09.2019
2280 Rain 11 1018 100 8000 2.6 100 19:21 08.09.2019
2281 Rain 11 1018 100 8000 2.6 100 18:59 08.09.2019
2282 Rain 11 1018 93 8000 1 0 18:39 08.09.2019
2283 Rain 11 1018 93 8000 1 0 18:20 08.09.2019
2284 Thunderstorm 12 1017 81 6000 2.6 50 17:59 08.09.2019
2285 Thunderstorm 12 1017 76 10000 4.1 110 17:37 08.09.2019
2286 Rain 12 1017 87 10000 5.1 90 17:19 08.09.2019
2287 Rain 12 1017 87 10000 5.1 90 17:19 08.09.2019
2288 Thunderstorm 12 1017 76 10000 4.1 110 17:19 08.09.2019
2289 Thunderstorm 12 1017 76 10000 4.1 110 17:19 08.09.2019
2290 Rain 12 1017 87 10000 5.1 90 16:57 08.09.2019
2291 Rain 12 1017 82 10000 3.6 110 16:39 08.09.2019
2292 Rain 11 1017 82 10000 3.6 110 16:20 08.09.2019
2293 Rain 12 1017 76 10000 4.1 260 15:42 08.09.2019
2294 Rain 12 1017 76 10000 4.1 260 15:23 08.09.2019
2295 Rain 12 1017 72 10000 2.1 130 14:59 08.09.2019
2296 Rain 13 1017 82 10000 2.1 100 14:40 08.09.2019
2297 Rain 13 1017 82 10000 2.1 100 14:40 08.09.2019
2298 Rain 13 1017 82 10000 2.1 100 14:21 08.09.2019
2299 Rain 13 1017 82 10000 2.6 110 13:58 08.09.2019
2300 Rain 13 1017 82 10000 2.6 110 13:40 08.09.2019
2301 Rain 13 1017 82 10000 2.6 110 13:21 08.09.2019
2302 Rain 13 1017 87 10000 1.5 0 12:55 08.09.2019
2303 Drizzle 12 1018 81 10000 1 0 12:37 08.09.2019
2304 Rain 12 1018 71 10000 1.5 230 12:18 08.09.2019
2305 Rain 12 1018 71 10000 1.5 230 11:56 08.09.2019
2306 Rain 11 1018 81 10000 1.5 0 11:37 08.09.2019
2307 Rain 11 1018 81 10000 1.5 0 11:18 08.09.2019
2308 Rain 11 1018 93 10000 0.85 336.748 10:42 08.09.2019
2309 Rain 11 1018 93 10000 0.85 336.748 10:23 08.09.2019
2310 Rain 11 1018 93 10000 0.85 336.748 09:55 08.09.2019
2311 Drizzle 11 1018 93 10000 1.5 0 09:37 08.09.2019
2312 Rain 10 1018 93 10000 1.5 0 09:19 08.09.2019
2313 Rain 10 1018 100 10000 1 80 08:39 08.09.2019
2314 Rain 10 1018 100 10000 1 80 08:19 08.09.2019
2315 Rain 10 1017 93 10000 0.74 277.671 07:43 08.09.2019
2316 Rain 10 1017 93 10000 0.74 277.671 07:21 08.09.2019
2317 Rain 10 1017 93 10000 1 0 06:57 08.09.2019
2318 Rain 10 1018 100 10000 1 100 06:34 08.09.2019
2319 Rain 10 1017 93 10000 1 0 05:40 08.09.2019
2320 Rain 11 1018 93 10000 1 0 04:58 08.09.2019
2321 Rain 11 1018 100 10000 0.5 0 03:23 08.09.2019
2322 Rain 11 1018 93 10000 1 190 02:48 08.09.2019
2323 Clouds 12 1018 100 10000 1 0 01:54 08.09.2019
2324 Clouds 12 1018 93 10000 2.1 110 01:26 08.09.2019
2325 Rain 12 1018 93 10000 0.5 0 00:47 08.09.2019
2326 Rain 12 1018 93 10000 0.5 0 00:29 08.09.2019
2327 Rain 13 1019 93 10000 0.5 0 23:55 07.09.2019
2328 Clouds 13 1019 71 10000 1.5 300 23:36 07.09.2019
2329 Clouds 13 1019 71 10000 1.5 300 23:36 07.09.2019
2330 Clouds 13 1019 62 10000 2.6 300 23:18 07.09.2019
2331 Clouds 13 1019 62 10000 2.6 300 22:42 07.09.2019
2332 Clouds 13 1019 62 10000 2.6 300 22:23 07.09.2019
2333 Clouds 13 1019 76 10000 1.5 0 21:56 07.09.2019
2334 Clouds 13 1018 82 10000 1.5 90 21:37 07.09.2019
2335 Clouds 14 1018 82 10000 1.5 90 21:19 07.09.2019
2336 Clouds 15 1018 72 10000 1 0 20:39 07.09.2019
2337 Clouds 15 1018 72 10000 1 0 20:21 07.09.2019
2338 Clouds 14 1018 72 10000 1 0 19:56 07.09.2019
2339 Clouds 15 1018 59 10000 2.1 270 19:38 07.09.2019
2340 Clouds 16 1018 59 10000 2.1 270 19:19 07.09.2019
2341 Clouds 17 1018 39 10000 2.1 260 18:58 07.09.2019
2342 Clouds 17 1018 39 10000 2.1 260 18:58 07.09.2019
2343 Drizzle 17 1018 39 10000 2.6 280 18:38 07.09.2019
2344 Drizzle 18 1018 37 10000 4.1 280 18:20 07.09.2019
2345 Drizzle 18 1018 37 10000 4.1 280 18:20 07.09.2019
2346 Drizzle 18 1018 37 10000 4.1 280 17:58 07.09.2019
2347 Clouds 18 1018 37 10000 3.6 250 17:39 07.09.2019
2348 Clouds 18 1018 37 10000 3.6 250 17:18 07.09.2019
2349 Clouds 18 1018 40 10000 2.1 300 16:55 07.09.2019
2350 Clouds 18 1018 40 10000 2.1 300 16:36 07.09.2019
2351 Clouds 18 1018 40 10000 2.1 300 16:18 07.09.2019
2352 Clouds 18 1019 52 10000 1.5 0 15:43 07.09.2019
2353 Clouds 18 1019 52 10000 1.5 0 15:24 07.09.2019
2354 Clouds 18 1019 48 10000 1.5 0 14:56 07.09.2019
2355 Clouds 17 1019 55 10000 1.5 0 14:36 07.09.2019
2356 Clouds 17 1019 55 10000 1.5 0 14:36 07.09.2019
2357 Rain 17 1020 52 10000 1 0 14:18 07.09.2019
2358 Clouds 17 1020 52 10000 1 0 13:44 07.09.2019
2359 Clouds 17 1020 52 10000 1 0 13:25 07.09.2019
2360 Clouds 17 1020 59 10000 2.1 320 12:55 07.09.2019
2361 Rain 17 1020 67 10000 1 0 12:37 07.09.2019
2362 Clouds 16 1020 67 10000 1 0 12:19 07.09.2019
2363 Clouds 15 1021 67 10000 1 0 11:41 07.09.2019
2364 Clouds 15 1021 67 10000 1 0 11:41 07.09.2019
2365 Clouds 15 1021 67 10000 1 0 11:22 07.09.2019
2366 Clouds 14 1021 87 10000 1 0 10:42 07.09.2019
2367 Clouds 14 1021 87 10000 1 0 10:23 07.09.2019
2368 Clouds 13 1021 87 10000 1 0 09:59 07.09.2019
2369 Rain 13 1021 87 10000 1 0 09:41 07.09.2019
2370 Rain 12 1021 87 10000 1 0 09:21 07.09.2019
2371 Rain 12 1021 93 10000 1.5 110 08:49 07.09.2019
2372 Drizzle 12 1021 87 10000 0.5 250 08:31 07.09.2019
2373 Clouds 11 1021 100 10000 2.1 110 07:57 07.09.2019
2374 Drizzle 11 1021 93 10000 2.1 130 07:38 07.09.2019
2375 Drizzle 11 1021 93 10000 2.1 130 07:20 07.09.2019
2376 Clouds 11 1020 100 10000 1 60 06:42 07.09.2019
2377 Rain 11 1021 93 10000 0.5 190 05:39 07.09.2019
2378 Rain 11 1021 93 10000 0.1 334.737 04:26 07.09.2019
2379 Drizzle 12 1021 87 10000 0.1 334.737 03:41 07.09.2019
2380 Drizzle 12 1022 87 10000 0.5 230 02:22 07.09.2019
2381 Drizzle 12 1022 82 10000 1 250 01:27 07.09.2019
2382 Drizzle 12 1022 87 10000 0.5 240 00:54 07.09.2019
2383 Drizzle 12 1022 82 10000 0.5 220 00:23 07.09.2019
2384 Drizzle 12 1022 82 10000 0.5 220 23:59 06.09.2019
2385 Drizzle 12 1022 76 10000 1 170 23:38 06.09.2019
2386 Rain 12 1022 76 10000 1.5 210 23:19 06.09.2019
2387 Rain 12 1022 76 10000 1.5 210 22:56 06.09.2019
2388 Rain 12 1022 76 10000 1.5 210 22:36 06.09.2019
2389 Drizzle 12 1022 93 10000 2.1 120 22:18 06.09.2019
2390 Drizzle 12 1022 93 10000 2.1 120 21:54 06.09.2019
2391 Drizzle 12 1022 93 10000 1.5 130 21:36 06.09.2019
2392 Drizzle 12 1022 93 10000 1.5 130 21:36 06.09.2019
2393 Drizzle 12 1022 93 10000 1.5 130 21:18 06.09.2019
2394 Rain 13 1022 87 10000 1 70 20:41 06.09.2019
2395 Rain 13 1022 87 10000 1 70 20:22 06.09.2019
2396 Rain 13 1022 82 10000 1.5 140 19:59 06.09.2019
2397 Clouds 13 1022 87 10000 1.5 150 19:41 06.09.2019
2398 Clouds 13 1022 87 10000 1.5 150 19:41 06.09.2019
2399 Clouds 13 1022 87 10000 1.5 150 19:21 06.09.2019
2400 Rain 13 1022 82 10000 1.5 180 18:56 06.09.2019
2401 Rain 13 1022 87 10000 1.5 180 18:37 06.09.2019
2402 Clouds 14 1022 82 10000 1 190 18:19 06.09.2019
2403 Drizzle 14 1022 55 10000 2.6 60 17:40 06.09.2019
2404 Drizzle 14 1022 55 10000 2.6 60 17:20 06.09.2019
2405 Rain 14 1022 76 10000 0.5 0 16:43 06.09.2019
2406 Rain 14 1022 76 10000 0.5 0 16:20 06.09.2019
2407 Clouds 14 1022 82 10000 0.5 0 15:59 06.09.2019
2408 -273 0 0 0 0 0 15:41 06.09.2019
2409 Clouds 14 1022 82 10000 1 0 15:22 06.09.2019
2410 Clouds 14 1022 82 10000 1 0 15:22 06.09.2019
2411 Clouds 14 1022 82 10000 1 0 14:47 06.09.2019
2412 Clouds 14 1022 82 10000 1 0 14:19 06.09.2019
2413 Clouds 14 1022 87 9000 2.1 200 13:44 06.09.2019
2414 Clouds 14 1022 87 9000 2.1 200 13:44 06.09.2019
2415 Clouds 13 1022 87 9000 2.1 200 13:23 06.09.2019
2416 Rain 13 1022 93 8000 1 220 12:58 06.09.2019
2417 Rain 13 1022 93 5000 2.1 190 12:37 06.09.2019
2418 Rain 13 1022 93 7000 1.5 0 12:18 06.09.2019
2419 Rain 12 1022 93 7000 1.5 0 11:41 06.09.2019
2420 Rain 12 1022 93 7000 1.5 0 11:23 06.09.2019
2421 Rain 12 1022 67 10000 4.6 80 10:57 06.09.2019
2422 Rain 12 1022 93 7000 2.1 350 10:39 06.09.2019
2423 Drizzle 12 1022 93 10000 2.1 300 10:18 06.09.2019
2424 Rain 11 1022 81 10000 1.5 0 09:40 06.09.2019
2425 Rain 11 1022 81 10000 1.5 0 09:20 06.09.2019
2426 Rain 11 1022 87 10000 1.5 0 08:56 06.09.2019
2427 Rain 11 1022 87 10000 1 310 08:38 06.09.2019
2428 Rain 11 1022 87 10000 1 310 08:20 06.09.2019
2429 Rain 11 1022 87 10000 0.5 0 07:44 06.09.2019
2430 Rain 11 1022 87 10000 0.5 0 07:26 06.09.2019
2431 Rain 11 1022 93 10000 0.5 0 06:54 06.09.2019
2432 Rain 11 1022 81 10000 0.5 0 05:58 06.09.2019
2433 Rain 11 1022 100 10000 0.5 0 05:19 06.09.2019
2434 Rain 11 1022 93 10000 0.5 0 04:38 06.09.2019
2435 Rain 10 1022 93 10000 1.5 0 03:42 06.09.2019
2436 Rain 11 1023 93 10000 0.5 0 01:51 06.09.2019
2437 Clouds 11 1023 93 10000 1.5 90 00:32 06.09.2019
2438 Rain 12 1023 93 10000 2.1 100 23:44 05.09.2019
2439 Rain 12 1023 93 10000 2.1 100 23:24 05.09.2019
2440 Rain 12 1023 93 10000 2.1 100 22:54 05.09.2019
2441 Rain 12 1023 93 10000 2.1 100 22:54 05.09.2019
2442 Rain 12 1023 93 10000 1.5 90 22:36 05.09.2019
2443 Rain 12 1023 93 10000 1.5 90 22:18 05.09.2019
2444 Rain 12 1023 93 10000 1.5 90 21:55 05.09.2019
2445 Drizzle 12 1023 87 10000 2.1 80 21:37 05.09.2019
2446 Drizzle 12 1023 87 10000 2.1 80 21:19 05.09.2019
2447 Rain 13 1023 87 10000 1.5 90 20:54 05.09.2019
2448 Rain 13 1023 76 10000 3.6 140 20:36 05.09.2019
2449 Rain 13 1023 76 10000 3.6 140 20:36 05.09.2019
2450 Rain 13 1023 71 10000 3.1 150 20:18 05.09.2019
2451 Rain 13 1023 71 10000 3.1 130 19:41 05.09.2019
2452 Rain 14 1023 76 10000 2.6 140 19:22 05.09.2019
2453 Rain 14 1023 76 10000 2.6 140 18:57 05.09.2019
2454 Rain 14 1022 67 10000 2.1 110 18:39 05.09.2019
2455 Rain 15 1022 62 10000 1 0 18:19 05.09.2019
2456 Rain 15 1022 58 10000 0.5 0 17:41 05.09.2019
2457 Rain 15 1022 58 10000 0.5 0 17:22 05.09.2019
2458 Rain 15 1022 58 10000 3.1 320 16:58 05.09.2019
2459 Rain 15 1022 58 10000 3.1 320 16:40 05.09.2019
2460 Rain 15 1021 54 10000 4.1 330 16:20 05.09.2019
2461 Rain 15 1021 54 10000 4.1 330 15:56 05.09.2019
2462 Rain 15 1021 51 10000 2.1 350 15:37 05.09.2019
2463 Rain 15 1021 62 10000 4.6 330 15:18 05.09.2019
2464 Rain 15 1021 51 10000 2.1 350 15:18 05.09.2019
2465 Rain 15 1021 62 10000 4.6 330 14:42 05.09.2019
2466 Rain 15 1021 62 10000 4.6 330 14:21 05.09.2019
2467 Rain 15 1020 59 10000 4.1 310 13:44 05.09.2019
2468 Rain 15 1020 59 10000 4.1 310 13:23 05.09.2019
2469 Rain 15 1020 72 10000 3.6 320 12:59 05.09.2019
2470 Clouds 15 1020 67 10000 2.6 320 12:40 05.09.2019
2471 Clouds 15 1020 67 10000 2.6 320 12:21 05.09.2019
2472 Clouds 15 1020 67 10000 4.6 330 12:21 05.09.2019
2473 Clouds 15 1020 67 10000 3.6 320 11:43 05.09.2019
2474 Clouds 15 1020 67 10000 3.6 320 11:20 05.09.2019
2475 Drizzle 15 1020 55 10000 4.1 300 10:43 05.09.2019
2476 Drizzle 15 1020 55 10000 4.1 300 10:23 05.09.2019
2477 Drizzle 15 1020 55 10000 4.1 300 10:23 05.09.2019
2478 Drizzle 15 1020 55 10000 4.1 300 10:23 05.09.2019
2479 Clouds 15 1019 87 10000 1 220 09:59 05.09.2019
2480 Clouds 15 1019 87 10000 1 220 09:40 05.09.2019
2481 Clouds 15 1019 87 10000 1 220 09:20 05.09.2019
2482 Clouds 14 1019 100 10000 1.81 327.067 08:46 05.09.2019
2483 Clouds 14 1019 100 10000 1.81 327.067 08:27 05.09.2019
2484 Rain 13 1019 93 10000 0.5 0 07:48 05.09.2019
2485 Clear 12 1018 87 10000 1.5 140 07:29 05.09.2019
2486 Fog 12 1018 93 10000 0.5 0 06:58 05.09.2019
2487 Clouds 12 1018 100 10000 1 0 06:33 05.09.2019
2488 Clouds 12 1018 100 10000 1 0 06:33 05.09.2019
2489 Clear 12 1017 93 10000 1 0 05:59 05.09.2019
2490 Clear 12 1017 100 10000 0.5 0 05:37 05.09.2019
2491 Clear 12 1017 100 10000 0.5 0 05:19 05.09.2019
2492 Clear 13 1017 100 10000 0.5 0 04:29 05.09.2019
2493 Mist 12 1017 93 6000 0.5 0 03:41 05.09.2019
2494 Clear 13 1017 100 10000 0.5 0 02:54 05.09.2019
2495 Clear 14 1017 93 10000 0.5 0 02:28 05.09.2019
2496 Clear 14 1018 93 10000 0.5 0 01:42 05.09.2019
2497 Clear 14 1017 93 10000 0.5 0 00:51 05.09.2019
2498 Clear 15 1017 93 10000 0.5 0 00:23 05.09.2019
2499 Clear 15 1017 93 10000 0.5 0 23:59 04.09.2019
2500 Clear 16 1017 48 10000 2.1 190 23:39 04.09.2019
2501 Clear 16 1017 48 10000 2.1 190 23:18 04.09.2019
2502 Clear 16 1017 82 10000 0.5 0 22:47 04.09.2019
2503 Clear 17 1017 40 10000 2.6 220 22:19 04.09.2019
2504 Clear 18 1017 87 10000 0.5 0 21:41 04.09.2019
2505 Clear 18 1017 87 10000 0.5 0 21:21 04.09.2019
2506 Clear 18 1017 87 10000 0.5 0 20:59 04.09.2019
2507 Clear 19 1017 72 10000 1 0 20:40 04.09.2019
2508 Clear 19 1017 72 10000 1 0 20:20 04.09.2019
2509 Clear 20 1016 60 10000 1 0 19:59 04.09.2019
2510 Clear 21 1016 56 10000 1.5 220 19:39 04.09.2019
2511 Clear 23 1016 47 10000 2.6 260 19:20 04.09.2019
2512 Clear 24 1016 41 10000 3.1 280 18:41 04.09.2019
2513 Clear 24 1016 41 10000 3.1 280 18:23 04.09.2019
2514 Clear 24 1016 39 10000 2.6 300 18:23 04.09.2019
2515 Clear 24 1016 39 10000 2.6 300 17:56 04.09.2019
2516 Clear 24 1016 39 10000 2.6 300 17:56 04.09.2019
2517 Clear 24 1017 39 10000 3.6 280 17:38 04.09.2019
2518 Clear 24 1017 39 10000 3.6 280 17:20 04.09.2019
2519 Clear 24 1017 38 10000 3.1 280 16:48 04.09.2019
2520 Clear 24 1017 38 10000 4.1 290 16:28 04.09.2019
2521 Clear 24 1017 38 10000 4.1 290 15:59 04.09.2019
2522 Clear 24 1017 38 10000 2.1 280 15:39 04.09.2019
2523 Clear 23 1017 38 10000 2.1 280 15:21 04.09.2019
2524 Clear 23 1018 44 10000 2.1 330 14:58 04.09.2019
2525 Clear 23 1018 44 10000 2.1 330 14:37 04.09.2019
2526 Clear 23 1018 44 10000 2.1 330 14:19 04.09.2019
2527 -273 0 0 0 0 0 13:55 04.09.2019
2528 Clear 22 1019 53 10000 2.1 310 13:36 04.09.2019
2529 Clear 22 1019 60 10000 2.1 360 13:18 04.09.2019
2530 Clear 21 1019 60 10000 2.1 320 12:40 04.09.2019
2531 Clear 20 1019 60 10000 2.1 320 12:22 04.09.2019
2532 Clear 19 1020 72 10000 1 0 11:55 04.09.2019
2533 Clear 18 1020 72 10000 1 0 11:37 04.09.2019
2534 Clear 18 1020 72 10000 1 0 11:18 04.09.2019
2535 Clear 17 1020 77 10000 1 0 10:44 04.09.2019
2536 Clear 17 1020 77 10000 1 0 10:25 04.09.2019
2537 Clear 16 1021 82 10000 1 0 09:57 04.09.2019
2538 Clear 15 1021 100 10000 0.5 0 09:39 04.09.2019
2539 Clear 14 1021 100 10000 0.5 0 09:18 04.09.2019
2540 Clouds 13 1021 100 10000 0.5 0 08:41 04.09.2019
2541 Clouds 12 1021 100 10000 0.5 0 08:23 04.09.2019
2542 Fog 11 1021 100 10000 1 160 07:50 04.09.2019
2543 Fog 10 1021 100 8000 0.5 130 07:32 04.09.2019
2544 Fog 10 1021 100 8000 0.5 130 07:32 04.09.2019
2545 Fog 10 1021 100 5000 1 130 06:42 04.09.2019
2546 Fog 10 1021 100 5000 1 130 06:21 04.09.2019
2547 Fog 10 1021 100 6000 0.5 50 04:53 04.09.2019
2548 Fog 11 1021 100 7000 0.11 312.064 04:19 04.09.2019
2549 Clear 12 1023 100 10000 0.78 7.334 01:39 04.09.2019
2550 Clear 12 1023 100 10000 0.5 0 00:55 04.09.2019
2551 Clear 12 1023 100 10000 0.5 0 00:34 04.09.2019
2552 Clear 13 1023 100 10000 0.5 0 23:56 03.09.2019
2553 Clear 13 1023 93 10000 1 110 23:38 03.09.2019
2554 Clear 13 1023 100 10000 0.5 0 23:19 03.09.2019
2555 Clear 14 1023 100 10000 0.5 0 22:40 03.09.2019
2556 Clear 14 1023 93 10000 0.5 0 22:22 03.09.2019
2557 Clear 15 1023 93 10000 0.5 0 21:56 03.09.2019
2558 Clear 14 1023 93 10000 0.5 0 21:56 03.09.2019
2559 Clear 14 1023 93 10000 0.5 0 21:56 03.09.2019
2560 Clear 14 1023 93 10000 0.5 0 21:56 03.09.2019
2561 Clear 15 1023 87 10000 1 0 21:37 03.09.2019
2562 Clear 16 1023 87 10000 1 0 21:19 03.09.2019
2563 Clear 17 1023 67 10000 1.5 0 20:43 03.09.2019
2564 Clear 17 1023 67 10000 1.5 0 20:24 03.09.2019
2565 Clear 17 1023 55 10000 1 0 19:57 03.09.2019
2566 Clear 19 1023 52 10000 2.1 40 19:38 03.09.2019
2567 Clear 19 1023 49 10000 2.1 20 19:19 03.09.2019
2568 Clear 20 1023 49 10000 2.1 20 18:56 03.09.2019
2569 Clear 20 1023 49 10000 2.1 0 18:38 03.09.2019
2570 Clear 21 1023 49 10000 2.1 10 18:18 03.09.2019
2571 Clear 22 1023 49 10000 1 0 17:41 03.09.2019
2572 Clear 21 1023 49 10000 1 0 17:20 03.09.2019
2573 Clear 22 1024 49 10000 2.6 340 16:59 03.09.2019
2574 Clear 22 1024 49 10000 2.6 20 16:39 03.09.2019
2575 Clear 22 1024 49 10000 2.6 20 16:20 03.09.2019
2576 Clear 21 1024 49 10000 2.1 10 15:41 03.09.2019
2577 Clear 21 1024 49 10000 2.1 10 15:21 03.09.2019
2578 Clear 20 1024 49 10000 3.1 340 14:58 03.09.2019
2579 Clear 20 1024 49 10000 3.1 340 14:40 03.09.2019
2580 Clear 20 1024 49 10000 3.1 340 14:20 03.09.2019
2581 Clear 20 1025 52 10000 3.1 340 13:57 03.09.2019
2582 Clear 20 1025 60 10000 2.6 340 13:37 03.09.2019
2583 Clear 20 1025 60 10000 2.6 340 13:19 03.09.2019
2584 Clear 19 1025 72 10000 2.6 300 12:56 03.09.2019
2585 Clouds 18 1025 72 10000 2.6 270 12:38 03.09.2019
2586 Clouds 17 1025 72 10000 2.6 310 12:19 03.09.2019
2587 Clouds 17 1025 72 10000 2.6 310 12:19 03.09.2019
2588 Clouds 16 1026 77 10000 1 0 11:41 03.09.2019
2589 Clouds 16 1026 77 10000 1 0 11:22 03.09.2019
2590 Clouds 15 1026 77 10000 4.23 65.941 10:56 03.09.2019
2591 Mist 15 1026 87 10000 1 0 10:38 03.09.2019
2592 Mist 14 1026 87 10000 1 0 10:19 03.09.2019
2593 Mist 13 1025 100 10000 4.36 63.458 09:44 03.09.2019
2594 Mist 12 1025 100 10000 2.97 43.019 09:25 03.09.2019
2595 Fog 12 1025 100 10000 2.97 43.019 08:54 03.09.2019
2596 Fog 11 1025 100 10000 2.97 43.019 08:36 03.09.2019
2597 Fog 11 1025 93 10000 2.97 43.019 08:18 03.09.2019
2598 Fog 10 1025 100 300 2.97 43.019 07:40 03.09.2019
2599 Fog 10 1025 100 300 2.97 43.019 07:21 03.09.2019
2600 Mist 10 1024 100 3800 2.97 43.019 06:44 03.09.2019
2601 Fog 10 1024 100 6000 0.5 0 05:52 03.09.2019
2602 Mist 11 1025 100 5000 1.5 30 03:35 03.09.2019
2603 Fog 11 1025 100 250 0.5 0 02:43 03.09.2019
2604 Fog 11 1025 100 250 0.5 0 02:23 03.09.2019
2605 Fog 11 1025 100 5000 0.5 0 01:48 03.09.2019
2606 Fog 11 1025 100 5000 0.5 0 01:28 03.09.2019
2607 Mist 12 1024 93 5000 0.5 0 00:40 03.09.2019
2608 Fog 12 1025 100 8000 0.5 0 00:18 03.09.2019
2609 Fog 13 1025 93 9000 0.5 0 23:39 02.09.2019
2610 Fog 13 1025 93 10000 1 0 23:20 02.09.2019
2611 Fog 13 1025 93 10000 1 0 23:20 02.09.2019
2612 Fog 14 1025 93 10000 1 0 22:56 02.09.2019
2613 Fog 13 1025 93 10000 1 0 22:56 02.09.2019
2614 Clouds 14 1025 100 10000 0.5 0 22:37 02.09.2019
2615 Clouds 14 1025 93 10000 0.5 0 22:19 02.09.2019
2616 Clouds 14 1025 93 10000 0.5 0 21:56 02.09.2019
2617 Clouds 14 1024 87 10000 1 0 21:38 02.09.2019
2618 Clouds 15 1024 87 10000 1.5 30 21:20 02.09.2019
2619 Clouds 15 1024 87 10000 1.5 30 20:55 02.09.2019
2620 Clouds 15 1024 82 10000 1.5 140 20:37 02.09.2019
2621 Rain 15 1024 82 10000 2.1 120 20:18 02.09.2019
2622 Rain 15 1024 82 10000 2.1 120 19:55 02.09.2019
2623 Clouds 15 1024 77 10000 1.5 50 19:37 02.09.2019
2624 Clouds 15 1023 77 10000 1.5 50 19:18 02.09.2019
2625 Clouds 15 1023 77 10000 1.5 0 18:38 02.09.2019
2626 Clouds 15 1023 77 10000 1.5 0 18:38 02.09.2019
2627 Clouds 16 1023 77 10000 1 120 18:19 02.09.2019
2628 Clouds 16 1023 77 10000 1 120 17:56 02.09.2019
2629 Clouds 16 1023 77 10000 1.5 60 17:37 02.09.2019
2630 Clouds 16 1023 77 10000 1.5 60 17:19 02.09.2019
2631 Drizzle 16 1022 72 10000 2.1 80 16:41 02.09.2019
2632 Drizzle 17 1022 72 10000 2.1 80 16:21 02.09.2019
2633 Rain 17 1022 77 10000 1 120 15:54 02.09.2019
2634 Rain 17 1022 72 10000 1 10 15:36 02.09.2019
2635 Clouds 16 1023 77 10000 2.6 330 15:18 02.09.2019
2636 Clouds 16 1023 77 10000 2.6 330 14:55 02.09.2019
2637 Clouds 16 1023 72 10000 2.6 330 14:36 02.09.2019
2638 Clouds 17 1023 72 10000 2.6 330 14:18 02.09.2019
2639 Clouds 17 1022 77 10000 2.6 350 13:41 02.09.2019
2640 Clouds 17 1022 77 10000 2.6 350 13:23 02.09.2019
2641 Clouds 17 1022 82 10000 2.1 350 12:45 02.09.2019
2642 Clouds 17 1022 77 10000 2.6 360 12:26 02.09.2019
2643 Clouds 16 1022 77 10000 2.6 360 11:59 02.09.2019
2644 Drizzle 16 1022 59 10000 3.6 100 11:40 02.09.2019
2645 Drizzle 16 1022 59 10000 3.6 100 11:22 02.09.2019
2646 Rain 16 1021 82 10000 2.04 47.028 10:58 02.09.2019
2647 Rain 16 1021 82 10000 2.04 47.028 10:39 02.09.2019
2648 Rain 16 1021 93 10000 1 0 10:20 02.09.2019
2649 Rain 15 1021 93 10000 1 0 09:58 02.09.2019
2650 Rain 15 1021 93 10000 1 0 09:37 02.09.2019
2651 Rain 15 1021 93 7000 2.1 330 09:18 02.09.2019
2652 Rain 15 1021 93 7000 2.1 330 08:39 02.09.2019
2653 Rain 15 1020 93 9000 2.1 270 08:18 02.09.2019
2654 Rain 15 1020 93 9000 2.1 270 08:18 02.09.2019
2655 Rain 15 1020 93 8000 2.1 300 07:41 02.09.2019
2656 Rain 15 1020 93 6000 1.5 320 07:21 02.09.2019
2657 Rain 15 1019 93 10000 1.5 360 06:48 02.09.2019
2658 Rain 15 1019 93 10000 1.5 360 06:30 02.09.2019
2659 Rain 15 1019 100 10000 1 0 05:49 02.09.2019
2660 Rain 15 1019 100 10000 1 0 05:19 02.09.2019
2661 Rain 15 1019 93 8000 1.5 0 04:34 02.09.2019
2662 Rain 16 1019 93 10000 1.5 290 01:48 02.09.2019
2663 Rain 16 1019 100 10000 2.6 320 00:53 02.09.2019
2664 Rain 17 1019 100 9000 1 0 00:32 02.09.2019
2665 Rain 17 1018 100 10000 0.5 0 23:48 01.09.2019
2666 Drizzle 17 1018 100 10000 0.5 0 23:23 01.09.2019
2667 Drizzle 17 1018 68 10000 2.1 40 22:59 01.09.2019
2668 Rain 17 1018 100 10000 2.1 140 22:40 01.09.2019
2669 Rain 17 1018 100 10000 2.1 140 22:20 01.09.2019
2670 Rain 17 1018 100 5000 1 0 21:57 01.09.2019
2671 Rain 17 1018 93 5000 2.1 140 21:39 01.09.2019
2672 Rain 18 1018 93 5000 2.1 140 21:21 01.09.2019
2673 Rain 18 1017 100 10000 2.1 120 20:57 01.09.2019
2674 Rain 18 1017 93 10000 2.1 120 20:38 01.09.2019
2675 Drizzle 18 1017 93 10000 3.1 110 20:18 01.09.2019
2676 Drizzle 18 1017 93 10000 3.1 110 19:58 01.09.2019
2677 Rain 19 1016 93 10000 2.1 160 19:38 01.09.2019
2678 Rain 19 1016 93 10000 2.6 120 19:19 01.09.2019
2679 Rain 19 1016 82 10000 1 0 18:43 01.09.2019
2680 Rain 20 1016 82 10000 1 0 18:25 01.09.2019
2681 Rain 21 1015 83 10000 1.5 0 17:57 01.09.2019
2682 Rain 21 1015 83 10000 1.5 0 17:38 01.09.2019
2683 Rain 22 1015 83 10000 1.5 0 17:19 01.09.2019
2684 Rain 22 1015 83 10000 1.5 0 17:19 01.09.2019
2685 Rain 23 1015 53 10000 1 0 16:41 01.09.2019
2686 Rain 23 1015 53 10000 1 0 16:41 01.09.2019
2687 Rain 23 1015 53 10000 1 0 16:20 01.09.2019
2688 -273 0 0 0 0 0 15:55 01.09.2019
2689 Clouds 24 1015 53 10000 2.1 310 15:37 01.09.2019
2690 Clouds 23 1015 53 10000 2.1 310 15:18 01.09.2019
2691 Clouds 23 1015 53 10000 1.5 0 14:40 01.09.2019
2692 Clouds 23 1015 53 10000 1.5 0 14:21 01.09.2019
2693 Clouds 23 1016 53 10000 1 0 13:56 01.09.2019
2694 Clouds 24 1016 69 10000 1 0 13:37 01.09.2019
2695 Clouds 23 1016 69 10000 1 0 13:19 01.09.2019
2696 Clouds 22 1016 73 10000 1 0 12:41 01.09.2019
2697 Clouds 21 1016 73 10000 1 0 12:23 01.09.2019
2698 Rain 21 1017 82 10000 2.1 110 11:42 01.09.2019
2699 Rain 20 1017 82 10000 2.1 110 11:21 01.09.2019
2700 Clouds 20 1016 88 10000 1 120 10:59 01.09.2019
2701 Clouds 20 1016 88 10000 1.5 140 10:41 01.09.2019
2702 Clouds 20 1016 88 10000 1.5 140 10:23 01.09.2019
2703 Clouds 19 1016 93 10000 0.5 100 09:43 01.09.2019
2704 Clouds 18 1016 93 10000 0.5 100 09:25 01.09.2019
2705 Clouds 18 1015 93 10000 1.5 0 08:44 01.09.2019
2706 Clouds 18 1015 93 10000 1.5 0 08:24 01.09.2019
2707 Rain 17 1015 93 10000 1.5 0 07:56 01.09.2019
2708 Rain 17 1015 100 10000 2.1 110 07:38 01.09.2019
2709 Rain 17 1015 100 10000 2.1 110 07:38 01.09.2019
2710 Clouds 17 1015 93 10000 3.6 90 06:51 01.09.2019
2711 Clouds 17 1015 88 10000 3.6 120 06:28 01.09.2019
2712 Clouds 17 1015 88 10000 3.1 110 05:56 01.09.2019
2713 Clouds 17 1015 88 10000 3.1 110 05:56 01.09.2019
2714 Rain 18 1016 77 10000 5.7 200 04:31 01.09.2019
2715 Rain 18 1016 82 10000 2.6 250 03:42 01.09.2019
2716 Rain 18 1016 88 7000 1.5 0 02:58 01.09.2019
2717 Rain 18 1016 88 7000 1.5 0 02:26 01.09.2019
2718 Clouds 18 1016 82 10000 2.1 160 01:50 01.09.2019
2719 Clouds 18 1016 82 10000 2.1 160 01:50 01.09.2019
2720 Clouds 18 1016 82 10000 1.5 0 01:23 01.09.2019
2721 Clear 18 1015 82 10000 3.6 90 00:46 01.09.2019
2722 Clear 18 1015 82 10000 3.6 90 00:22 01.09.2019
2723 Clear 19 1015 82 10000 3.1 90 23:54 31.08.2019
2724 Clear 19 1015 77 10000 3.1 100 23:36 31.08.2019
2725 Clear 19 1015 77 10000 3.1 100 23:18 31.08.2019
2726 Clear 19 1015 72 10000 3.1 100 23:18 31.08.2019
2727 Clear 20 1016 72 10000 3.1 110 22:42 31.08.2019
2728 Clear 20 1016 72 10000 3.1 110 22:24 31.08.2019
2729 Rain 21 1015 68 10000 2.6 100 21:56 31.08.2019
2730 Rain 21 1015 60 10000 0.5 260 21:37 31.08.2019
2731 Rain 21 1015 60 10000 0.5 260 21:37 31.08.2019
2732 Rain 22 1015 60 10000 0.5 260 21:19 31.08.2019
2733 Clear 22 1015 60 10000 6.2 130 20:47 31.08.2019
2734 Clear 22 1015 60 10000 6.2 130 20:28 31.08.2019
2735 Clear 23 1015 56 10000 7.2 140 19:56 31.08.2019
2736 Clear 23 1015 53 10000 6.7 150 19:37 31.08.2019
2737 Rain 24 1015 53 10000 6.2 160 19:19 31.08.2019
2738 Rain 23 1015 57 10000 7.2 170 18:39 31.08.2019
2739 Rain 23 1015 57 10000 7.2 170 18:39 31.08.2019
2740 Rain 26 1015 50 10000 8.2 160 18:20 31.08.2019
2741 Rain 26 1015 50 10000 8.2 160 17:55 31.08.2019
2742 Clear 26 1015 54 10000 7.2 180 17:37 31.08.2019
2743 Clear 27 1015 35 10000 2.6 220 17:18 31.08.2019
2744 Rain 26 1015 35 10000 2.6 220 16:55 31.08.2019
2745 Rain 27 1015 37 10000 3.1 260 16:37 31.08.2019
2746 Rain 27 1015 37 10000 3.1 260 16:19 31.08.2019
2747 Clear 27 1016 54 10000 4.1 300 15:42 31.08.2019
2748 Clear 27 1016 54 10000 4.1 300 15:19 31.08.2019
2749 Clear 27 1017 54 10000 3.1 290 14:56 31.08.2019
2750 Clouds 27 1017 54 10000 2.6 230 14:37 31.08.2019
2751 Clouds 27 1017 54 10000 2.6 230 14:19 31.08.2019
2752 Clouds 27 1017 54 10000 2.6 230 14:19 31.08.2019
2753 Clear 27 1017 57 10000 3.6 310 13:40 31.08.2019
2754 Clear 26 1017 57 10000 3.6 310 13:22 31.08.2019
2755 Clear 25 1018 61 10000 3.1 330 12:58 31.08.2019
2756 Clear 25 1018 61 10000 1 0 12:38 31.08.2019
2757 Clear 24 1018 61 10000 1 0 12:19 31.08.2019
2758 Clear 24 1018 61 10000 1 0 12:19 31.08.2019
2759 Clear 24 1019 73 10000 1 0 11:46 31.08.2019
2760 Clear 24 1019 73 10000 1 0 11:46 31.08.2019
2761 Clear 23 1019 73 10000 1 0 11:28 31.08.2019
2762 Clear 23 1019 73 10000 1 0 10:58 31.08.2019
2763 Clear 22 1019 73 10000 1.5 0 10:40 31.08.2019
2764 Clear 21 1019 73 10000 1.5 0 10:19 31.08.2019
2765 Clear 20 1019 82 10000 2.6 120 09:54 31.08.2019
2766 Clear 20 1019 88 10000 1 0 09:36 31.08.2019
2767 Clear 19 1019 88 10000 1 0 09:18 31.08.2019
2768 Mist 18 1019 100 10000 0.53 228.977 08:41 31.08.2019
2769 Mist 18 1019 100 10000 0.53 228.977 08:41 31.08.2019
2770 Mist 17 1019 100 10000 0.53 228.977 08:22 31.08.2019
2771 Fog 16 1019 100 10000 1 0 07:40 31.08.2019
2772 Mist 16 1019 93 10000 1 0 07:20 31.08.2019
2773 Mist 16 1019 100 7000 0.5 0 06:28 31.08.2019
2774 Mist 16 1019 100 6000 0.5 0 05:55 31.08.2019
2775 Mist 16 1019 93 9000 0.5 0 05:30 31.08.2019
2776 Mist 16 1019 100 7000 1 0 04:30 31.08.2019
2777 Clouds 17 1020 93 9000 0.29 16.164 03:44 31.08.2019
2778 Clouds 17 1020 100 7000 1 0 02:29 31.08.2019
2779 Clear 18 1020 93 10000 0.5 50 01:52 31.08.2019
2780 Clear 18 1020 93 10000 0.5 0 01:31 31.08.2019
2781 Clear 18 1020 93 10000 0.5 0 00:49 31.08.2019
2782 Clear 18 1020 93 10000 0.5 0 00:28 31.08.2019
2783 Clear 19 1020 93 10000 0.5 0 23:51 30.08.2019
2784 Clear 19 1021 93 10000 2.1 100 23:21 30.08.2019
2785 Clear 20 1020 88 10000 0.5 100 22:59 30.08.2019
2786 Clear 20 1021 88 10000 0.5 0 22:40 30.08.2019
2787 Clear 20 1021 88 10000 0.5 0 22:40 30.08.2019
2788 Clear 20 1021 88 10000 0.5 0 22:21 30.08.2019
2789 Clear 20 1021 93 10000 0.5 0 21:57 30.08.2019
2790 Rain 21 1021 82 10000 0.5 0 21:37 30.08.2019
2791 Clear 22 1020 73 10000 0.5 0 21:18 30.08.2019
2792 Clear 22 1020 73 10000 0.5 0 20:58 30.08.2019
2793 Clear 23 1020 69 10000 0.5 0 20:38 30.08.2019
2794 Clear 23 1020 57 10000 0.5 0 20:20 30.08.2019
2795 Clear 23 1020 57 10000 0.5 0 19:56 30.08.2019
2796 Clear 24 1020 54 10000 2.1 40 19:38 30.08.2019
2797 Clear 25 1020 51 10000 3.6 50 19:19 30.08.2019
2798 Thunderstorm 26 1020 51 10000 3.1 50 18:45 30.08.2019
2799 Clear 27 1020 51 10000 3.1 50 18:24 30.08.2019
2800 Clear 27 1020 48 10000 3.1 50 17:57 30.08.2019
2801 Clouds 27 1020 48 10000 3.1 70 17:39 30.08.2019
2802 Clouds 27 1020 42 10000 4.1 80 17:19 30.08.2019
2803 Clouds 28 1020 42 10000 4.1 80 16:57 30.08.2019
2804 Clouds 28 1021 42 10000 4.6 90 16:39 30.08.2019
2805 Clouds 28 1021 42 10000 4.6 90 16:20 30.08.2019
2806 Clouds 27 1021 51 10000 2.6 10 15:42 30.08.2019
2807 Clouds 27 1021 51 10000 2.6 10 15:21 30.08.2019
2808 Clouds 26 1022 54 10000 2.1 320 14:45 30.08.2019
2809 Clouds 26 1022 54 10000 2.1 320 14:26 30.08.2019
2810 Clouds 26 1022 57 10000 4.1 310 13:57 30.08.2019
2811 Clouds 26 1022 57 10000 2.6 300 13:39 30.08.2019
2812 Clouds 26 1022 57 10000 2.6 300 13:20 30.08.2019
2813 Clear 25 1023 65 10000 1.5 0 12:45 30.08.2019
2814 Clear 24 1023 65 10000 1.5 0 12:25 30.08.2019
2815 Clear 23 1023 64 10000 1.43 90.321 11:57 30.08.2019
2816 Clear 23 1023 57 10000 1.5 140 11:39 30.08.2019
2817 Clear 23 1023 57 10000 1.5 140 11:39 30.08.2019
2818 Clear 23 1023 57 10000 1.5 140 11:20 30.08.2019
2819 Clear 21 1023 73 10000 2.1 110 10:37 30.08.2019
2820 Clear 21 1023 73 10000 2.1 110 10:19 30.08.2019
2821 Clear 20 1023 77 10000 2.6 100 09:55 30.08.2019
2822 Clear 19 1023 88 10000 1.5 110 09:36 30.08.2019
2823 Clear 19 1023 88 10000 1.5 110 09:18 30.08.2019
2824 Clear 19 1023 88 10000 1.5 120 09:18 30.08.2019
2825 Clear 18 1023 100 10000 1.5 100 08:42 30.08.2019
2826 Clear 17 1023 100 10000 1.5 100 08:23 30.08.2019
2827 Clear 16 1023 100 10000 2.6 130 07:46 30.08.2019
2828 Clear 16 1023 100 10000 2.6 130 07:25 30.08.2019
2829 Clear 16 1023 100 10000 1.12 56.395 06:49 30.08.2019
2830 Mist 16 1023 100 10000 1.12 56.395 06:31 30.08.2019
2831 Clear 16 1023 100 9000 1 0 05:59 30.08.2019
2832 Mist 16 1022 100 10000 0.5 0 05:24 30.08.2019
2833 Clear 17 1022 93 9000 1 30 03:56 30.08.2019
2834 Clear 17 1022 100 5000 0.5 110 03:37 30.08.2019
2835 Clear 17 1022 100 5000 0.5 110 03:37 30.08.2019
2836 Clear 18 1022 93 10000 0.9 20.19 02:37 30.08.2019
2837 Clear 18 1023 93 10000 0.5 0 01:40 30.08.2019
2838 Clear 18 1023 93 10000 0.5 0 00:47 30.08.2019
2839 Clear 19 1023 93 10000 1.5 90 00:18 30.08.2019
2840 Clear 19 1022 93 10000 1 0 23:46 29.08.2019
2841 Clear 19 1022 93 10000 1 0 23:22 29.08.2019
2842 Clear 20 1022 88 10000 0.5 0 22:45 29.08.2019
2843 Clear 20 1022 88 10000 0.5 0 22:27 29.08.2019
2844 Clear 20 1022 88 10000 1 0 21:59 29.08.2019
2845 Rain 21 1021 69 10000 0.5 0 21:40 29.08.2019
2846 Rain 22 1021 69 10000 0.5 0 21:21 29.08.2019
2847 Rain 22 1021 69 10000 0.5 0 21:21 29.08.2019
2848 Clear 22 1021 69 10000 1.5 340 20:58 29.08.2019
2849 Clear 23 1021 69 10000 1.5 340 20:39 29.08.2019
2850 Clear 23 1020 61 10000 1.5 0 20:18 29.08.2019
2851 Clouds 24 1020 54 10000 2.1 30 19:47 29.08.2019
2852 Clear 25 1020 54 10000 2.1 350 19:26 29.08.2019
2853 Clouds 25 1020 54 10000 2.6 30 18:58 29.08.2019
2854 Clouds 25 1020 54 10000 2.6 30 18:40 29.08.2019
2855 Clear 26 1020 42 10000 2.1 330 18:18 29.08.2019
2856 Clear 26 1020 42 10000 2.1 330 18:18 29.08.2019
2857 Clouds 26 1020 48 10000 1.5 360 17:54 29.08.2019
2858 Clouds 26 1020 45 10000 1.5 0 17:36 29.08.2019
2859 Clouds 27 1020 45 10000 1.5 0 17:18 29.08.2019
2860 Clouds 27 1020 51 10000 1 0 16:41 29.08.2019
2861 Clouds 27 1020 45 10000 1.5 190 16:23 29.08.2019
2862 Rain 27 1021 48 10000 2.1 180 15:41 29.08.2019
2863 Rain 27 1021 48 10000 2.1 180 15:22 29.08.2019
2864 Thunderstorm 26 1021 48 10000 2.1 100 14:59 29.08.2019
2865 Clouds 26 1021 54 10000 2.6 120 14:41 29.08.2019
2866 Clouds 26 1021 54 10000 2.6 120 14:20 29.08.2019
2867 Thunderstorm 25 1021 54 10000 2.6 150 13:57 29.08.2019
2868 Thunderstorm 25 1021 54 10000 2.6 150 13:39 29.08.2019
2869 Thunderstorm 25 1021 54 10000 2.6 150 13:39 29.08.2019
2870 Thunderstorm 25 1021 54 10000 2.6 150 13:39 29.08.2019
2871 Thunderstorm 25 1021 54 10000 2.6 150 13:19 29.08.2019
2872 Clouds 25 1022 61 10000 3.1 170 12:56 29.08.2019
2873 Clouds 24 1022 64 10000 5.1 170 12:38 29.08.2019
2874 Clouds 23 1022 64 10000 5.1 170 12:20 29.08.2019
2875 Rain 22 1022 69 10000 2.6 130 11:43 29.08.2019
2876 Rain 22 1022 69 10000 2.6 130 11:21 29.08.2019
2877 Rain 21 1022 68 10000 2.6 140 10:59 29.08.2019
2878 Rain 21 1022 68 10000 2.6 140 10:40 29.08.2019
2879 Rain 21 1022 68 10000 2.6 140 10:22 29.08.2019
2880 Rain 20 1021 88 10000 1.5 100 09:41 29.08.2019
2881 Rain 19 1021 88 10000 1.5 100 09:20 29.08.2019
2882 Rain 19 1021 93 10000 2.1 90 08:56 29.08.2019
2883 Rain 18 1021 93 10000 0.5 0 08:36 29.08.2019
2884 Rain 18 1021 93 10000 1.5 90 08:18 29.08.2019
2885 Rain 18 1021 93 10000 1.5 90 07:41 29.08.2019
2886 Rain 17 1021 93 10000 1.5 90 07:23 29.08.2019
2887 Clouds 18 1020 93 10000 2.1 100 06:42 29.08.2019
2888 Clouds 18 1020 93 10000 1 160 06:18 29.08.2019
2889 Clouds 18 1020 93 10000 2.1 100 05:34 29.08.2019
2890 Rain 18 1020 88 10000 2.1 110 04:50 29.08.2019
2891 Mist 18 1020 88 10000 2.1 110 04:28 29.08.2019
2892 Rain 19 1020 82 10000 2.6 110 02:27 29.08.2019
2893 Rain 19 1020 82 10000 3.6 120 01:41 29.08.2019
2894 Rain 19 1020 82 10000 3.1 110 00:52 29.08.2019
2895 Rain 20 1020 82 10000 2.1 100 00:25 29.08.2019
2896 Rain 20 1020 82 10000 2.1 140 23:59 28.08.2019
2897 Clouds 21 1020 72 10000 2.1 100 23:41 28.08.2019
2898 Clouds 21 1020 72 10000 2.1 100 23:22 28.08.2019
2899 Clouds 21 1019 77 10000 2.1 100 22:57 28.08.2019
2900 Clouds 21 1019 68 10000 2.6 120 22:38 28.08.2019
2901 Clouds 21 1019 68 10000 2.6 120 22:18 28.08.2019
2902 Clouds 22 1018 69 0 1.5 230 21:54 28.08.2019
2903 Clouds 21 1019 77 10000 2.6 100 21:36 28.08.2019
2904 Clouds 22 1019 77 10000 2.6 100 21:18 28.08.2019
2905 Clouds 23 1018 77 10000 3.6 100 20:40 28.08.2019
2906 Clouds 23 1018 77 10000 3.6 100 20:22 28.08.2019
2907 Clouds 23 1017 73 10000 2.6 90 19:44 28.08.2019
2908 Clouds 24 1017 73 10000 2.6 90 19:22 28.08.2019
2909 Rain 25 1017 69 10000 3.1 110 18:59 28.08.2019
2910 Clouds 25 1017 57 10000 2.6 110 18:40 28.08.2019
2911 Thunderstorm 26 1016 39 10000 1.5 0 18:21 28.08.2019
2912 Thunderstorm 27 1017 42 10000 1 280 17:39 28.08.2019
2913 Clear 27 1017 37 10000 1 90 17:19 28.08.2019
2914 Clear 27 1017 37 10000 1 90 16:56 28.08.2019
2915 Clear 28 1017 45 10000 2.6 280 16:38 28.08.2019
2916 Clear 27 1017 42 10000 2.1 0 16:18 28.08.2019
2917 Clear 27 1018 42 10000 1.5 260 15:38 28.08.2019
2918 Clear 27 1018 42 10000 1.5 260 15:38 28.08.2019
2919 Clear 27 1018 44 10000 2.1 260 15:20 28.08.2019
2920 Clear 27 1018 44 10000 2.1 260 14:58 28.08.2019
2921 Clear 27 1018 47 10000 2.1 290 14:40 28.08.2019
2922 Clear 26 1018 47 10000 2.1 290 14:20 28.08.2019
2923 Clear 26 1018 57 10000 1 0 13:59 28.08.2019
2924 Clear 26 1018 50 10000 1.5 300 13:39 28.08.2019
2925 Clear 26 1018 50 10000 1.5 300 13:39 28.08.2019
2926 Clear 25 1018 57 10000 1.5 0 13:20 28.08.2019
2927 Clear 25 1019 60 10000 1.5 10 12:42 28.08.2019
2928 Clear 24 1019 60 10000 1.5 0 12:24 28.08.2019
2929 Clear 24 1019 60 10000 1.5 0 11:57 28.08.2019
2930 Clear 23 1019 64 10000 2.1 320 11:39 28.08.2019
2931 Clear 23 1019 64 10000 2.1 320 11:20 28.08.2019
2932 Clear 22 1019 68 10000 2.1 340 10:56 28.08.2019
2933 Clear 21 1019 77 10000 1.5 280 10:37 28.08.2019
2934 Clouds 21 1019 82 10000 1 0 10:19 28.08.2019
2935 Clear 20 1019 88 10000 1 0 09:41 28.08.2019
2936 Clear 19 1019 88 10000 1 0 09:21 28.08.2019
2937 Clouds 18 1019 93 10000 1 0 08:55 28.08.2019
2938 Clouds 18 1019 93 10000 1 0 08:36 28.08.2019
2939 Clouds 18 1019 93 10000 1 0 08:18 28.08.2019
2940 Clouds 18 1019 88 10000 2.1 90 07:37 28.08.2019
2941 Clouds 18 1019 88 10000 2.1 70 07:19 28.08.2019
2942 Clouds 18 1019 88 10000 2.6 130 06:46 28.08.2019
2943 Clouds 18 1019 88 10000 3.6 120 05:52 28.08.2019
2944 Rain 19 1020 82 10000 2.1 200 04:40 28.08.2019
2945 Rain 20 1020 88 10000 1 0 01:58 28.08.2019
2946 Clouds 20 1020 82 10000 0.5 0 01:30 28.08.2019
2947 Rain 20 1019 88 10000 1.5 0 00:50 28.08.2019
2948 Rain 20 1019 82 10000 1.5 0 00:32 28.08.2019
2949 Clouds 21 1019 88 10000 0.86 283.343 23:45 27.08.2019
2950 Clouds 21 1019 88 10000 0.86 283.343 23:22 27.08.2019
2951 Clouds 21 1019 88 10000 0.86 283.343 22:59 27.08.2019
2952 Clouds 21 1019 82 10000 1 0 22:41 27.08.2019
2953 Clouds 21 1019 82 10000 1 0 22:21 27.08.2019
2954 Clear 22 1018 88 10000 1 130 21:56 27.08.2019
2955 Rain 22 1018 83 10000 0.65 311.003 21:38 27.08.2019
2956 Rain 22 1018 83 10000 0.85 357.287 21:19 27.08.2019
2957 Rain 23 1018 88 10000 0.85 357.287 20:56 27.08.2019
2958 Rain 23 1018 88 10000 0.85 357.287 20:56 27.08.2019
2959 Clear 23 1017 78 10000 0.85 357.287 20:37 27.08.2019
2960 Clear 24 1017 78 10000 0.85 357.287 20:19 27.08.2019
2961 Clear 24 1017 74 10000 2.1 220 19:43 27.08.2019
2962 Clouds 25 1017 61 10000 2.1 230 19:24 27.08.2019
2963 Clouds 26 1017 51 10000 1 280 18:56 27.08.2019
2964 Clouds 26 1017 51 10000 1 280 18:36 27.08.2019
2965 Clouds 27 1017 45 10000 2.6 290 18:18 27.08.2019
2966 Clear 27 1017 39 10000 1.5 0 17:43 27.08.2019
2967 Clear 28 1017 39 10000 1.5 0 17:24 27.08.2019
2968 Clear 28 1018 42 10000 1 250 16:57 27.08.2019
2969 Clear 28 1018 48 10000 2.1 320 16:36 27.08.2019
2970 Clear 28 1018 48 10000 2.1 320 16:18 27.08.2019
2971 Clear 27 1018 45 10000 3.1 220 15:41 27.08.2019
2972 Clear 27 1018 45 10000 3.1 220 15:23 27.08.2019
2973 Clear 27 1018 42 10000 2.1 310 14:59 27.08.2019
2974 Clear 27 1019 47 10000 2.6 310 14:41 27.08.2019
2975 Clear 27 1019 47 10000 2.6 310 14:22 27.08.2019
2976 Clear 26 1019 42 10000 3.1 310 13:43 27.08.2019
2977 Clear 26 1019 42 10000 3.1 310 13:24 27.08.2019
2978 Clear 25 1019 50 10000 2.1 310 12:55 27.08.2019
2979 Clear 24 1019 53 10000 1.5 0 12:37 27.08.2019
2980 Clear 24 1020 57 10000 1 0 12:18 27.08.2019
2981 Clear 23 1020 60 10000 1 0 11:43 27.08.2019
2982 Clear 22 1020 60 10000 1 0 11:25 27.08.2019
2983 Clear 21 1020 68 10000 2.1 100 10:44 27.08.2019
2984 Clear 20 1020 68 10000 2.1 100 10:21 27.08.2019
2985 Clear 20 1020 82 10000 2.1 110 09:58 27.08.2019
2986 Clear 19 1020 88 10000 1.5 0 09:39 27.08.2019
2987 Clear 19 1020 88 10000 1.5 0 09:20 27.08.2019
2988 Clear 17 1020 93 10000 1 0 08:54 27.08.2019
2989 Clear 17 1020 100 10000 1.5 120 08:36 27.08.2019
2990 Clear 16 1020 100 10000 1.5 120 08:18 27.08.2019
2991 Clear 15 1020 100 10000 0.5 80 07:39 27.08.2019
2992 Fog 14 1019 100 10000 1 340 07:19 27.08.2019
2993 Fog 14 1019 100 10000 1 340 06:51 27.08.2019
2994 Clear 14 1019 100 7000 0.59 248.343 06:23 27.08.2019
2995 Clear 14 1019 93 8000 1 0 05:42 27.08.2019
2996 Clear 14 1019 93 9000 0.5 0 04:37 27.08.2019
2997 Clear 14 1019 93 9000 0.5 0 03:34 27.08.2019
2998 Clear 16 1018 93 10000 1 0 02:23 27.08.2019
2999 Clear 16 1019 87 10000 0.5 0 01:40 27.08.2019
3000 Clear 16 1019 93 10000 0.5 0 00:58 27.08.2019
3001 Clear 16 1019 93 10000 0.5 0 00:39 27.08.2019
3002 Clear 17 1019 93 10000 0.5 0 00:19 27.08.2019
3003 Clear 18 1019 93 10000 0.5 0 23:37 26.08.2019
3004 Clear 18 1019 93 10000 0.5 0 23:19 26.08.2019
3005 Clear 18 1019 87 10000 0.5 0 22:39 26.08.2019
3006 Clear 19 1019 87 10000 0.5 0 22:19 26.08.2019
3007 Clear 19 1018 82 10000 1.14 17.291 21:57 26.08.2019
3008 Clear 19 1018 82 10000 1.14 17.291 21:37 26.08.2019
3009 Clear 20 1018 82 10000 0.76 353.241 21:19 26.08.2019
3010 Clear 21 1018 64 10000 1 0 20:55 26.08.2019
3011 Clear 22 1018 53 10000 0.76 353.241 20:37 26.08.2019
3012 Clear 23 1018 53 10000 0.76 353.241 20:18 26.08.2019
3013 Clear 24 1018 50 10000 2.6 230 19:42 26.08.2019
3014 Clear 26 1018 45 10000 1.5 220 19:19 26.08.2019
3015 Clear 26 1018 37 10000 0.5 0 18:58 26.08.2019
3016 Clear 27 1018 37 10000 0.5 0 18:37 26.08.2019
3017 Clear 27 1018 35 10000 1.5 260 18:19 26.08.2019
3018 Clear 27 1018 37 10000 3.1 280 17:44 26.08.2019
3019 Clear 27 1018 35 10000 2.6 360 17:20 26.08.2019
3020 Clear 27 1018 42 10000 2.1 290 16:57 26.08.2019
3021 Clear 27 1018 42 10000 2.1 290 16:39 26.08.2019
3022 Clear 27 1019 44 10000 1.5 350 16:18 26.08.2019
3023 Clear 27 1019 47 10000 3.1 320 15:54 26.08.2019
3024 Clear 27 1019 47 10000 3.1 320 15:36 26.08.2019
3025 Clear 27 1019 44 10000 2.6 280 15:18 26.08.2019
3026 Clear 26 1019 44 10000 2.1 330 14:42 26.08.2019
3027 Clear 26 1019 47 10000 2.1 290 14:22 26.08.2019
3028 Clear 25 1020 47 10000 2.1 330 13:44 26.08.2019
3029 Clear 25 1020 53 10000 2.6 280 13:23 26.08.2019
3030 Clear 24 1020 53 10000 2.6 290 12:57 26.08.2019
3031 Clear 24 1020 53 10000 2.6 290 12:39 26.08.2019
3032 Clear 23 1020 60 10000 1 260 12:20 26.08.2019
3033 Clear 22 1020 60 10000 1 0 11:39 26.08.2019
3034 Clear 21 1020 64 10000 1 160 11:21 26.08.2019
3035 Clear 21 1021 64 10000 1.5 0 10:58 26.08.2019
3036 Clear 21 1021 64 10000 1.5 0 10:39 26.08.2019
3037 Clear 20 1021 64 10000 1.5 150 10:19 26.08.2019
3038 Clear 19 1021 72 10000 1 130 09:43 26.08.2019
3039 Clear 17 1021 82 10000 1 110 09:24 26.08.2019
3040 Clear 17 1021 87 10000 0.5 0 08:58 26.08.2019
3041 Clear 16 1021 87 10000 0.5 0 08:39 26.08.2019
3042 Clear 15 1020 93 10000 0.5 0 08:21 26.08.2019
3043 Clear 14 1020 100 9000 0.5 50 07:45 26.08.2019
3044 -273 0 0 0 0 0 07:25 26.08.2019
3045 Fog 13 1020 93 9000 0.5 70 06:58 26.08.2019
3046 Fog 13 1020 93 9000 0.5 70 06:39 26.08.2019
3047 Clear 13 1020 100 9000 0.5 30 06:18 26.08.2019
3048 Clear 13 1020 93 10000 1 320 05:41 26.08.2019
3049 Clear 14 1020 100 10000 1 100 04:22 26.08.2019
3050 Clear 15 1020 93 10000 1.14 22.717 02:40 26.08.2019
3051 Clear 16 1020 87 10000 0.5 0 01:23 26.08.2019
3052 Clear 17 1020 93 10000 1 60 00:45 26.08.2019
3053 Clear 17 1020 100 10000 1 50 00:26 26.08.2019
3054 Clear 17 1020 88 10000 0.5 70 23:45 25.08.2019
3055 Clear 18 1020 93 10000 1 90 23:21 25.08.2019
3056 Clear 18 1021 82 10000 0.5 0 22:59 25.08.2019
3057 Clear 19 1021 82 10000 0.5 0 22:40 25.08.2019
3058 Clear 18 1020 87 10000 1 0 22:20 25.08.2019
3059 Rain 19 1020 87 10000 1 110 21:58 25.08.2019
3060 Rain 19 1020 87 10000 1 110 21:58 25.08.2019
3061 Rain 20 1020 87 10000 1 110 21:40 25.08.2019
3062 Mist 21 1020 82 10000 1 0 21:19 25.08.2019
3063 Clear 22 1020 77 10000 1 0 20:56 25.08.2019
3064 Clear 22 1020 77 10000 1 0 20:38 25.08.2019
3065 Clear 22 1019 53 10000 1 0 20:19 25.08.2019
3066 Clear 25 1019 36 10000 1 220 19:41 25.08.2019
3067 Clear 25 1019 42 10000 2.6 230 19:23 25.08.2019
3068 Clear 25 1019 42 10000 2.6 230 18:59 25.08.2019
3069 Clear 25 1019 42 10000 2.6 230 18:59 25.08.2019
3070 Clear 26 1019 28 10000 1.5 230 18:40 25.08.2019
3071 Clear 27 1019 28 10000 1.5 230 18:22 25.08.2019
3072 Clear 27 1019 25 10000 1 0 17:59 25.08.2019
3073 Clear 27 1019 25 10000 1 0 17:39 25.08.2019
3074 Clear 27 1019 32 10000 1 0 17:20 25.08.2019
3075 Clear 27 1019 32 10000 1 300 16:41 25.08.2019
3076 Clear 27 1019 32 10000 1.5 270 16:23 25.08.2019
3077 Clear 27 1020 42 10000 1.5 320 15:48 25.08.2019
3078 Clear 27 1020 47 10000 2.1 310 15:27 25.08.2019
3079 Clear 26 1020 47 10000 3.1 310 14:59 25.08.2019
3080 Clear 26 1020 47 10000 3.1 310 14:39 25.08.2019
3081 Clear 26 1020 47 10000 2.6 320 14:20 25.08.2019
3082 Clear 25 1020 50 10000 2.1 290 13:45 25.08.2019
3083 Clear 25 1020 53 10000 2.1 310 13:21 25.08.2019
3084 Clear 24 1020 60 10000 2.1 340 12:56 25.08.2019
3085 Clear 24 1020 60 10000 2.1 340 12:37 25.08.2019
3086 Clear 24 1020 60 10000 2.1 340 12:37 25.08.2019
3087 Clear 23 1021 64 10000 1.5 0 12:19 25.08.2019
3088 Clear 22 1021 68 10000 1 40 11:54 25.08.2019
3089 Clear 22 1021 68 10000 1 40 11:36 25.08.2019
3090 Clear 21 1021 73 10000 1 0 11:18 25.08.2019
3091 Clear 20 1021 72 10000 1 0 10:40 25.08.2019
3092 Clear 20 1021 77 10000 0.5 0 10:20 25.08.2019
3093 Clear 19 1021 82 10000 1 0 09:56 25.08.2019
3094 Clear 18 1021 82 10000 1 0 09:38 25.08.2019
3095 Fog 17 1021 93 10000 1 0 09:20 25.08.2019
3096 Fog 16 1021 93 10000 0.15 187.365 08:42 25.08.2019
3097 Fog 15 1021 100 10000 1 0 08:22 25.08.2019
3098 Fog 14 1021 100 150 0.5 20 07:38 25.08.2019
3099 Fog 14 1021 100 5000 1 0 07:19 25.08.2019
3100 Mist 14 1021 100 4900 0.5 0 06:22 25.08.2019
3101 Fog 14 1020 100 7000 1 0 04:41 25.08.2019
3102 Fog 14 1020 100 6000 0.5 0 03:36 25.08.2019
3103 Mist 15 1020 100 4400 0.5 0 02:39 25.08.2019
3104 Fog 16 1020 100 6000 1.5 310 01:35 25.08.2019
3105 Mist 16 1020 93 7000 0.5 0 00:40 25.08.2019
3106 Clear 16 1020 100 10000 0.5 0 00:21 25.08.2019
3107 Clear 17 1020 93 10000 1 0 23:52 24.08.2019
3108 Clear 17 1020 93 10000 1.5 0 23:22 24.08.2019
3109 Clear 17 1020 100 10000 2.1 120 22:56 24.08.2019
3110 Clear 18 1020 100 10000 2.1 120 22:38 24.08.2019
3111 Clear 18 1020 93 10000 1 0 22:19 24.08.2019
3112 Clear 18 1020 93 10000 1 0 22:19 24.08.2019
3113 Clear 19 1020 88 10000 0.5 0 21:56 24.08.2019
3114 Clear 19 1020 88 10000 0.5 0 21:37 24.08.2019
3115 Rain 20 1020 82 10000 1 0 21:19 24.08.2019
3116 Clear 21 1020 64 10000 1 0 20:55 24.08.2019
3117 Clear 21 1020 64 10000 1 0 20:37 24.08.2019
3118 Clear 22 1019 60 10000 1.5 340 20:18 24.08.2019
3119 Clear 22 1019 57 10000 3.1 330 19:55 24.08.2019
3120 Clear 23 1019 57 10000 3.1 330 19:37 24.08.2019
3121 Clear 24 1019 50 10000 2.6 330 19:18 24.08.2019
3122 Clear 25 1019 44 10000 2.6 310 18:41 24.08.2019
3123 Clear 25 1020 42 10000 1.5 320 18:21 24.08.2019
3124 Clear 25 1020 42 10000 1.5 320 18:21 24.08.2019
3125 Clear 25 1020 44 10000 2.6 290 17:44 24.08.2019
3126 Clear 26 1020 42 10000 1.5 10 17:24 24.08.2019
3127 Clear 25 1020 44 10000 2.1 270 16:51 24.08.2019
3128 Clear 25 1020 50 10000 2.1 300 16:21 24.08.2019
3129 Clear 25 1020 50 10000 2.1 0 15:59 24.08.2019
3130 Clear 25 1020 50 10000 2.1 0 15:59 24.08.2019
3131 Clear 25 1020 50 10000 2.1 0 15:40 24.08.2019
3132 Clear 25 1020 57 10000 2.1 330 15:22 24.08.2019
3133 Clear 24 1021 53 10000 2.1 330 14:43 24.08.2019
3134 Clear 24 1021 60 10000 2.1 10 14:22 24.08.2019
3135 Clouds 23 1021 64 10000 1 0 13:57 24.08.2019
3136 Clouds 23 1021 64 10000 1 0 13:39 24.08.2019
3137 Rain 23 1021 68 10000 3.1 310 13:21 24.08.2019
3138 Clouds 22 1022 68 10000 1.5 0 12:55 24.08.2019
3139 Clouds 22 1022 68 10000 1.5 0 12:37 24.08.2019
3140 Clouds 21 1022 73 10000 1.5 0 12:19 24.08.2019
3141 Clouds 20 1022 68 10000 2.1 0 11:43 24.08.2019
3142 Clouds 19 1022 72 10000 1 0 11:22 24.08.2019
3143 Clouds 19 1022 77 10000 0.5 0 10:49 24.08.2019
3144 Clouds 18 1022 82 10000 0.5 0 10:24 24.08.2019
3145 Mist 17 1022 88 7000 0.5 0 09:45 24.08.2019
3146 Mist 16 1022 93 8000 0.5 0 09:22 24.08.2019
3147 Mist 15 1022 100 8000 0.48 86.091 08:58 24.08.2019
3148 Mist 14 1022 100 8000 0.48 86.091 08:39 24.08.2019
3149 Mist 13 1022 93 7000 0.5 0 08:21 24.08.2019
3150 Mist 14 1022 100 5000 0.5 0 07:49 24.08.2019
3151 Fog 13 1022 100 8000 0.5 0 07:26 24.08.2019
3152 Fog 13 1022 100 5000 0.5 140 06:29 24.08.2019
3153 Fog 13 1022 100 6000 0.5 0 05:42 24.08.2019
3154 Fog 13 1022 93 6000 0.5 30 04:46 24.08.2019
3155 Fog 13 1022 93 5000 0.5 0 03:37 24.08.2019
3156 Mist 14 1022 93 3700 2.12 43.871 02:26 24.08.2019
3157 Fog 14 1022 93 6000 0.5 0 01:31 24.08.2019
3158 Mist 14 1022 93 3600 0.5 0 00:53 24.08.2019
3159 Mist 14 1022 93 7000 1 0 00:26 24.08.2019
3160 Clear 15 1022 93 10000 1 330 23:58 23.08.2019
3161 Clear 15 1022 93 10000 1 330 23:37 23.08.2019
3162 Clear 15 1022 93 10000 1 0 23:18 23.08.2019
3163 Clear 15 1023 87 10000 0.5 0 22:42 23.08.2019
3164 Clear 16 1023 87 10000 0.5 0 22:23 23.08.2019
3165 Clear 17 1023 77 10000 1 0 21:40 23.08.2019
3166 Rain 17 1023 82 10000 1.5 100 21:21 23.08.2019
3167 Clouds 18 1023 77 10000 1.5 0 20:57 23.08.2019
3168 Clouds 18 1023 77 10000 1.5 0 20:38 23.08.2019
3169 Clear 19 1023 72 10000 1 0 20:19 23.08.2019
3170 Clouds 19 1023 77 10000 2.1 30 19:44 23.08.2019
3171 Clouds 20 1023 72 10000 1 0 19:18 23.08.2019
3172 Clouds 20 1023 72 10000 1 0 19:18 23.08.2019
3173 Clouds 20 1023 68 10000 1.5 0 18:48 23.08.2019
3174 Clouds 21 1023 68 10000 2.1 320 18:30 23.08.2019
3175 Clouds 21 1023 68 10000 2.6 290 17:56 23.08.2019
3176 Clouds 21 1023 68 10000 2.6 290 17:38 23.08.2019
3177 Clouds 21 1023 68 10000 2.6 290 17:20 23.08.2019
3178 Clouds 21 1023 72 10000 3.6 330 16:47 23.08.2019
3179 Clouds 21 1023 68 10000 3.6 330 16:29 23.08.2019
3180 Clouds 20 1024 72 10000 3.1 320 15:56 23.08.2019
3181 Clouds 20 1024 72 10000 3.1 320 15:37 23.08.2019
3182 Clouds 20 1024 72 10000 3.1 290 15:19 23.08.2019
3183 Clouds 19 1024 77 10000 2.6 310 14:41 23.08.2019
3184 Clouds 19 1024 77 10000 3.1 310 14:21 23.08.2019
3185 Clouds 19 1024 77 10000 3.1 310 14:21 23.08.2019
3186 Clouds 19 1024 77 10000 3.1 310 13:57 23.08.2019
3187 Clouds 19 1025 77 10000 0.5 0 13:39 23.08.2019
3188 Clouds 19 1025 77 10000 0.5 0 13:21 23.08.2019
3189 Clouds 19 1025 82 10000 1 0 12:57 23.08.2019
3190 Clouds 19 1025 82 10000 1 0 12:39 23.08.2019
3191 Clouds 17 1025 77 10000 1 0 12:20 23.08.2019
3192 Clouds 17 1025 87 10000 1 0 11:56 23.08.2019
3193 Clouds 17 1025 87 10000 1 0 11:37 23.08.2019
3194 Clouds 16 1025 87 10000 3.68 66.689 11:18 23.08.2019
3195 Clouds 16 1025 93 6000 0.5 0 10:43 23.08.2019
3196 Clouds 16 1025 93 6000 0.5 0 10:43 23.08.2019
3197 Clouds 16 1025 100 6000 3.25 75.545 10:22 23.08.2019
3198 Clouds 15 1025 100 5000 3.25 75.545 09:57 23.08.2019
3199 Clouds 15 1025 100 5000 3.25 75.545 09:38 23.08.2019
3200 Clouds 15 1025 100 4000 2.22 52.923 09:18 23.08.2019
3201 Mist 14 1025 100 2000 2.22 52.923 08:41 23.08.2019
3202 Mist 14 1025 100 1100 0.5 0 08:19 23.08.2019
3203 Mist 13 1025 100 800 0.5 0 07:43 23.08.2019
3204 Mist 13 1025 100 800 0.5 0 07:43 23.08.2019
3205 Fog 13 1025 93 900 0.5 0 07:24 23.08.2019
3206 Mist 13 1025 100 3500 0.5 0 06:57 23.08.2019
3207 Mist 13 1025 100 3500 0.5 0 06:38 23.08.2019
3208 Fog 13 1025 100 250 2.66 38.471 06:20 23.08.2019
3209 Fog 12 1025 100 150 2.66 38.471 05:34 23.08.2019
3210 Fog 12 1025 100 5000 0.5 0 04:45 23.08.2019
3211 Fog 13 1025 100 6000 0.5 0 02:58 23.08.2019
3212 Fog 13 1025 93 10000 0.5 0 02:23 23.08.2019
3213 Fog 13 1025 100 200 0.5 0 01:40 23.08.2019
3214 Clear 13 1025 100 10000 0.5 120 00:45 23.08.2019
3215 Mist 14 1025 93 1700 0.5 0 00:20 23.08.2019
3216 Clear 14 1025 100 8000 0.5 0 23:47 22.08.2019
3217 Clear 15 1025 93 6000 1 0 23:25 22.08.2019
3218 Clear 15 1025 93 10000 1 320 22:58 22.08.2019
3219 Clear 15 1025 93 10000 1 320 22:39 22.08.2019
3220 Clear 16 1025 87 10000 0.5 0 22:21 22.08.2019
3221 Rain 16 1025 77 10000 1.5 0 21:55 22.08.2019
3222 Rain 17 1025 77 10000 1.5 0 21:37 22.08.2019
3223 Clouds 17 1025 77 10000 1.5 0 21:19 22.08.2019
3224 Clouds 18 1025 77 10000 2.1 20 20:56 22.08.2019
3225 Clouds 18 1025 77 10000 2.1 20 20:38 22.08.2019
3226 Clouds 18 1025 72 10000 1.5 20 20:18 22.08.2019
3227 Clear 19 1024 68 10000 2.1 360 19:41 22.08.2019
3228 Clear 20 1024 68 10000 1.5 0 19:23 22.08.2019
3229 Rain 20 1024 72 10000 2.1 40 18:59 22.08.2019
3230 Rain 20 1024 72 10000 2.1 40 18:41 22.08.2019
3231 Clouds 21 1024 68 10000 2.1 30 18:20 22.08.2019
3232 Clouds 21 1024 64 10000 2.6 300 17:59 22.08.2019
3233 Clouds 21 1024 64 10000 2.6 300 17:41 22.08.2019
3234 Clouds 21 1024 64 10000 2.6 300 17:41 22.08.2019
3235 Clouds 20 1025 72 10000 3.1 300 17:20 22.08.2019
3236 Clouds 20 1025 72 10000 3.1 300 16:57 22.08.2019
3237 Clouds 20 1025 72 10000 3.1 300 16:38 22.08.2019
3238 Clouds 20 1024 68 10000 2.6 330 16:20 22.08.2019
3239 Clouds 20 1024 68 10000 2.6 330 16:20 22.08.2019
3240 Clouds 20 1024 68 10000 2.6 330 16:20 22.08.2019
3241 Clouds 20 1024 68 10000 2.6 330 16:20 22.08.2019
3242 Clouds 20 1025 68 10000 2.6 300 15:56 22.08.2019
3243 Clouds 20 1025 68 10000 2.6 300 15:56 22.08.2019
3244 Clouds 20 1025 72 10000 3.1 310 15:37 22.08.2019
3245 Clouds 20 1025 72 10000 3.1 310 15:18 22.08.2019
3246 Clouds 20 1025 72 10000 3.1 310 15:18 22.08.2019
3247 Clouds 20 1025 72 10000 3.1 310 15:18 22.08.2019
3248 Clouds 20 1025 77 10000 3.6 310 14:41 22.08.2019
3249 Clouds 19 1025 72 10000 4.1 300 14:22 22.08.2019
3250 Clouds 19 1025 72 10000 3.1 320 13:59 22.08.2019
3251 Clouds 20 1025 72 10000 3.1 320 13:41 22.08.2019
3252 Clouds 19 1025 72 10000 2.6 310 13:21 22.08.2019
3253 Clouds 18 1025 72 10000 2.1 300 12:57 22.08.2019
3254 Clouds 18 1025 72 10000 2.1 300 12:38 22.08.2019
3255 Clouds 17 1025 77 10000 2.6 270 12:19 22.08.2019
3256 Clouds 17 1025 72 10000 2.1 290 11:42 22.08.2019
3257 Clouds 17 1025 72 10000 2.1 290 11:42 22.08.2019
3258 Clouds 16 1025 77 10000 2.1 280 11:21 22.08.2019
3259 Clouds 16 1024 82 10000 2.1 280 10:58 22.08.2019
3260 Clouds 16 1024 82 10000 2.1 280 10:40 22.08.2019
3261 Clouds 16 1024 87 10000 1.5 310 10:22 22.08.2019
3262 Clouds 15 1024 82 10000 2.6 300 09:57 22.08.2019
3263 Clouds 15 1024 82 10000 2.6 300 09:39 22.08.2019
3264 Clouds 14 1024 87 10000 1.5 310 09:20 22.08.2019
3265 Clouds 14 1024 87 10000 1.5 310 08:56 22.08.2019
3266 Clouds 14 1024 93 10000 1.5 320 08:38 22.08.2019
3267 Clouds 13 1024 93 10000 0.5 320 08:19 22.08.2019
3268 Clouds 13 1023 93 10000 0.5 0 07:39 22.08.2019
3269 Clouds 12 1023 93 10000 0.5 0 07:20 22.08.2019
3270 Clouds 12 1023 93 10000 0.5 0 06:52 22.08.2019
3271 Clouds 12 1023 100 10000 0.5 0 06:24 22.08.2019
3272 Clouds 12 1024 100 10000 2.59 43.905 05:40 22.08.2019
3273 Clouds 12 1023 100 10000 0.5 0 04:28 22.08.2019
3274 Fog 13 1024 93 10000 0.5 0 02:47 22.08.2019
3275 Clear 13 1024 93 10000 0.5 0 02:29 22.08.2019
3276 Clouds 14 1024 93 10000 0.5 0 01:22 22.08.2019
3277 Clouds 14 1024 82 10000 0.5 0 00:44 22.08.2019
3278 Clouds 15 1024 82 10000 1 0 00:25 22.08.2019
3279 Clouds 15 1024 72 10000 0.5 0 23:50 21.08.2019
3280 Clouds 15 1024 72 10000 0.5 0 23:30 21.08.2019
3281 Clouds 15 1024 72 10000 1.5 0 22:59 21.08.2019
3282 Clouds 15 1024 72 10000 1.5 0 22:41 21.08.2019
3283 Clouds 16 1024 72 10000 2.1 0 22:21 21.08.2019
3284 Clouds 16 1024 72 10000 1.5 0 21:58 21.08.2019
3285 Clouds 16 1024 72 10000 1.5 0 21:38 21.08.2019
3286 Clouds 17 1024 68 10000 1.5 0 21:20 21.08.2019
3287 Clouds 17 1024 68 10000 2.6 30 20:58 21.08.2019
3288 Clouds 18 1024 68 10000 2.6 30 20:40 21.08.2019
3289 Clouds 18 1024 68 10000 2.6 50 20:22 21.08.2019
3290 Clouds 17 1024 68 10000 3.1 50 19:55 21.08.2019
3291 Clouds 17 1024 68 10000 3.1 50 19:36 21.08.2019
3292 Clouds 18 1024 68 10000 3.1 60 19:18 21.08.2019
3293 Clouds 18 1024 68 10000 2.6 0 18:41 21.08.2019
3294 Clouds 19 1025 63 10000 4.6 40 18:22 21.08.2019
3295 Clouds 19 1025 63 10000 3.6 0 17:45 21.08.2019
3296 Clouds 19 1025 68 10000 3.6 60 17:25 21.08.2019
3297 Clouds 19 1025 68 10000 3.6 40 16:59 21.08.2019
3298 Clouds 19 1025 68 10000 3.6 40 16:40 21.08.2019
3299 Clouds 19 1025 63 10000 3.1 70 16:21 21.08.2019
3300 Clouds 19 1025 63 10000 3.6 80 15:58 21.08.2019
3301 Clouds 19 1025 63 10000 3.6 80 15:40 21.08.2019
3302 Clouds 19 1025 63 10000 4.6 50 15:20 21.08.2019
3303 Clouds 19 1025 68 10000 4.1 0 14:57 21.08.2019
3304 Clouds 18 1025 68 10000 4.1 0 14:38 21.08.2019
3305 Clouds 18 1026 68 10000 3.1 0 14:20 21.08.2019
3306 Clouds 18 1026 68 10000 3.1 0 14:20 21.08.2019
3307 Clouds 18 1026 68 10000 3.1 0 14:20 21.08.2019
3308 Clouds 18 1026 72 10000 3.1 60 13:45 21.08.2019
3309 Clouds 18 1026 67 10000 4.1 50 13:23 21.08.2019
3310 Clouds 18 1026 72 10000 3.6 50 12:59 21.08.2019
3311 Clouds 17 1026 72 10000 3.6 50 12:41 21.08.2019
3312 Clouds 17 1026 67 10000 3.1 70 12:22 21.08.2019
3313 Clouds 16 1026 77 10000 2.1 30 11:58 21.08.2019
3314 Clouds 16 1026 77 10000 2.1 30 11:40 21.08.2019
3315 Clouds 15 1026 77 10000 1.5 0 11:22 21.08.2019
3316 Clouds 15 1026 87 10000 0.5 0 10:56 21.08.2019
3317 Clouds 15 1026 87 10000 0.5 0 10:37 21.08.2019
3318 Clouds 14 1027 100 10000 0.5 0 10:19 21.08.2019
3319 Clouds 13 1027 100 10000 0.5 0 09:43 21.08.2019
3320 -273 0 0 0 0 0 09:24 21.08.2019
3321 Fog 12 1027 100 150 0.5 0 08:59 21.08.2019
3322 Fog 12 1027 100 150 0.5 0 08:41 21.08.2019
3323 Fog 12 1027 93 100 0.5 0 08:23 21.08.2019
3324 Fog 11 1027 100 150 0.5 0 07:41 21.08.2019
3325 Fog 11 1027 100 150 0.5 0 07:22 21.08.2019
3326 Clouds 11 1027 93 9000 1.5 40 06:49 21.08.2019
3327 Fog 11 1027 100 2000 0.5 0 06:23 21.08.2019
3328 Clouds 11 1027 100 6000 1 0 05:42 21.08.2019
3329 Fog 11 1027 100 10000 1.5 130 05:23 21.08.2019
3330 Mist 11 1027 93 2300 0.5 0 03:39 21.08.2019
3331 Clouds 12 1027 100 10000 1 80 01:50 21.08.2019
3332 Clouds 12 1027 100 10000 0.5 0 01:22 21.08.2019
3333 Clouds 12 1027 93 10000 1.5 0 00:37 21.08.2019
3334 Rain 13 1028 93 10000 1.5 0 00:18 21.08.2019
3335 Drizzle 13 1027 87 10000 2.6 110 23:42 20.08.2019
3336 Rain 13 1027 93 10000 2.6 120 23:19 20.08.2019
3337 Rain 13 1027 93 10000 3.6 130 22:56 20.08.2019
3338 Rain 13 1027 93 10000 3.6 130 22:38 20.08.2019
3339 Rain 13 1028 100 10000 2.6 110 22:20 20.08.2019
3340 Rain 13 1028 100 10000 2.6 110 22:20 20.08.2019
3341 Rain 13 1028 100 10000 2.6 110 21:57 20.08.2019
3342 Rain 13 1028 100 10000 2.1 140 21:38 20.08.2019
3343 Rain 13 1028 100 10000 2.1 140 21:19 20.08.2019
3344 Rain 13 1028 100 6000 1 100 20:43 20.08.2019
3345 Rain 13 1028 100 6000 1 100 20:43 20.08.2019
3346 Rain 13 1027 93 6000 1.5 70 20:24 20.08.2019
3347 Rain 13 1027 93 6000 0.5 0 19:59 20.08.2019
3348 Rain 13 1027 93 6000 0.5 0 19:39 20.08.2019
3349 Rain 13 1027 93 6000 2.1 0 19:20 20.08.2019
3350 Rain 14 1026 93 5000 3.1 300 18:55 20.08.2019
3351 Rain 14 1026 93 5000 3.1 300 18:37 20.08.2019
3352 Rain 14 1025 100 6000 2.6 290 18:18 20.08.2019
3353 Rain 14 1025 100 6000 2.6 290 17:55 20.08.2019
3354 Rain 14 1025 93 9000 1.5 290 17:37 20.08.2019
3355 Rain 14 1025 93 9000 1.5 290 17:18 20.08.2019
3356 Rain 14 1024 93 3500 3.6 330 16:41 20.08.2019
3357 Rain 15 1024 93 3500 3.6 330 16:23 20.08.2019
3358 Rain 15 1023 87 6000 3.1 330 15:42 20.08.2019
3359 Rain 15 1023 87 6000 3.1 330 15:19 20.08.2019
3360 Rain 16 1023 93 6000 3.6 300 14:56 20.08.2019
3361 Rain 16 1023 88 5000 2.6 290 14:38 20.08.2019
3362 Drizzle 16 1022 88 10000 2.6 290 14:20 20.08.2019
3363 Drizzle 16 1022 88 10000 2.6 290 13:56 20.08.2019
3364 Rain 16 1022 88 10000 2.6 290 13:37 20.08.2019
3365 Rain 16 1022 88 10000 2.6 290 13:18 20.08.2019
3366 Drizzle 16 1023 93 10000 2.1 300 12:50 20.08.2019
3367 Rain 16 1022 88 8000 1.5 270 12:25 20.08.2019
3368 Rain 16 1023 93 10000 2.1 280 11:56 20.08.2019
3369 Rain 16 1023 93 8000 3.1 290 11:38 20.08.2019
3370 Rain 16 1022 93 7000 2.6 300 11:18 20.08.2019
3371 Rain 16 1022 93 7000 2.6 300 10:56 20.08.2019
3372 Rain 16 1022 93 7000 2.6 300 10:37 20.08.2019
3373 Rain 16 1022 93 6000 1.5 0 10:18 20.08.2019
3374 Rain 16 1022 93 9000 2.1 320 09:42 20.08.2019
3375 Rain 16 1022 93 9000 2.1 320 09:24 20.08.2019
3376 Rain 16 1021 93 10000 1.5 300 08:43 20.08.2019
3377 Rain 15 1021 93 10000 1.5 300 08:25 20.08.2019
3378 Rain 15 1021 93 10000 2.6 290 07:59 20.08.2019
3379 Rain 15 1021 93 10000 2.6 290 07:41 20.08.2019
3380 Rain 15 1021 93 10000 2.6 290 07:22 20.08.2019
3381 Drizzle 15 1021 100 10000 1.5 300 06:56 20.08.2019
3382 Drizzle 15 1020 100 10000 2.1 160 06:24 20.08.2019
3383 Rain 15 1021 93 10000 1 0 05:49 20.08.2019
3384 Rain 15 1021 100 10000 0.5 0 04:56 20.08.2019
3385 Rain 16 1021 93 6000 2.6 350 03:37 20.08.2019
3386 Rain 16 1021 100 10000 2.6 300 02:34 20.08.2019
3387 Rain 16 1021 100 10000 1 0 01:24 20.08.2019
3388 Rain 16 1022 100 10000 2.1 300 00:50 20.08.2019
3389 Rain 16 1021 100 10000 1.5 0 00:31 20.08.2019
3390 Rain 16 1021 93 10000 1 0 23:56 19.08.2019
3391 Rain 16 1021 100 10000 0.5 0 23:37 19.08.2019
3392 Rain 16 1021 100 10000 0.5 0 23:18 19.08.2019
3393 Rain 17 1021 100 10000 0.5 0 22:41 19.08.2019
3394 Rain 17 1021 100 10000 0.5 0 22:21 19.08.2019
3395 Rain 17 1021 93 10000 3.1 340 21:58 19.08.2019
3396 Rain 17 1020 93 10000 1 0 21:39 19.08.2019
3397 Rain 17 1020 93 10000 1 0 21:20 19.08.2019
3398 Rain 17 1020 93 10000 1 0 21:20 19.08.2019
3399 Rain 17 1020 93 10000 1.5 0 20:59 19.08.2019
3400 Rain 17 1020 88 10000 2.1 320 20:38 19.08.2019
3401 Rain 18 1020 88 10000 2.1 320 20:20 19.08.2019
3402 Rain 18 1020 100 1500 0.5 0 19:55 19.08.2019
3403 Rain 18 1020 100 1500 0.5 0 19:55 19.08.2019
3404 Rain 18 1019 72 10000 1.5 0 19:37 19.08.2019
3405 Thunderstorm 18 1019 77 10000 1.5 0 19:18 19.08.2019
3406 Thunderstorm 18 1019 77 10000 1.5 0 19:18 19.08.2019
3407 Rain 18 1019 82 10000 3.1 290 18:44 19.08.2019
3408 Rain 19 1019 82 10000 3.1 290 18:26 19.08.2019
3409 Clouds 19 1019 77 10000 4.6 320 17:58 19.08.2019
3410 Rain 20 1019 69 10000 3.1 290 17:40 19.08.2019
3411 Rain 20 1019 69 10000 3.1 290 17:19 19.08.2019
3412 Rain 20 1019 73 10000 3.6 300 16:58 19.08.2019
3413 Rain 20 1019 73 10000 3.6 300 16:37 19.08.2019
3414 Rain 21 1019 69 10000 2.6 340 16:18 19.08.2019
3415 Clouds 21 1018 64 10000 2.1 0 15:45 19.08.2019
3416 Rain 22 1019 69 10000 2.1 0 15:20 19.08.2019
3417 Rain 22 1019 69 10000 2.6 150 14:58 19.08.2019
3418 Rain 22 1019 69 10000 2.6 150 14:38 19.08.2019
3419 Clouds 22 1019 68 10000 1.5 0 14:20 19.08.2019
3420 Clouds 21 1019 68 10000 1.5 320 13:57 19.08.2019
3421 Clouds 21 1019 68 10000 1.5 320 13:57 19.08.2019
3422 Clouds 21 1019 68 10000 1.5 320 13:37 19.08.2019
3423 Clouds 21 1018 73 10000 2.6 340 13:19 19.08.2019
3424 Rain 21 1018 68 10000 1.5 320 12:44 19.08.2019
3425 Clouds 20 1019 68 10000 1 0 12:24 19.08.2019
3426 Rain 20 1018 82 10000 1.5 0 11:57 19.08.2019
3427 Rain 20 1018 82 10000 1.5 0 11:37 19.08.2019
3428 Rain 19 1018 88 10000 1 0 11:18 19.08.2019
3429 Rain 19 1018 82 10000 1.5 0 10:40 19.08.2019
3430 Rain 19 1018 82 10000 1.5 0 10:40 19.08.2019
3431 Rain 18 1018 88 10000 2.1 100 10:19 19.08.2019
3432 Rain 18 1019 88 10000 2.1 150 09:59 19.08.2019
3433 Rain 18 1019 88 10000 2.1 150 09:41 19.08.2019
3434 Rain 17 1018 88 10000 2.1 100 09:21 19.08.2019
3435 Clouds 17 1018 93 10000 2.6 110 08:54 19.08.2019
3436 Clouds 17 1018 93 10000 2.6 110 08:36 19.08.2019
3437 Clouds 17 1018 93 10000 2.6 120 08:18 19.08.2019
3438 Rain 17 1018 88 10000 3.1 110 07:42 19.08.2019
3439 Rain 17 1018 93 10000 2.1 0 07:23 19.08.2019
3440 Rain 17 1018 100 10000 3.1 110 06:42 19.08.2019
3441 Rain 17 1018 93 9000 3.1 120 05:54 19.08.2019
3442 Rain 17 1017 88 10000 3.6 160 04:46 19.08.2019
3443 Rain 17 1017 93 10000 3.1 110 03:59 19.08.2019
3444 Rain 18 1017 93 10000 3.1 100 03:19 19.08.2019
3445 Rain 18 1018 100 8000 3.6 110 01:47 19.08.2019
3446 Rain 18 1018 88 7000 3.1 120 01:21 19.08.2019
3447 Rain 18 1017 82 8000 6.2 250 00:42 19.08.2019
3448 Rain 19 1017 82 10000 7.2 250 00:18 19.08.2019
3449 Thunderstorm 19 1015 73 10000 4.6 270 23:41 18.08.2019
3450 Thunderstorm 20 1014 60 10000 1.5 320 23:20 18.08.2019
3451 Rain 21 1013 57 10000 4.6 290 22:40 18.08.2019
3452 Clouds 21 1012 73 10000 2.45 37.263 22:22 18.08.2019
3453 -273 0 0 0 0 0 21:58 18.08.2019
3454 Rain 23 1012 68 10000 2.45 37.263 21:40 18.08.2019
3455 Clear 25 1011 57 10000 2.1 230 21:20 18.08.2019
3456 Rain 25 1011 44 10000 3.6 280 20:58 18.08.2019
3457 Rain 25 1011 44 10000 3.6 280 20:40 18.08.2019
3458 Clouds 27 1011 42 10000 4.1 280 20:22 18.08.2019
3459 Clouds 28 1011 37 10000 3.1 250 19:42 18.08.2019
3460 Clouds 29 1011 35 10000 4.6 260 19:23 18.08.2019
3461 Clouds 30 1011 33 10000 5.1 270 18:57 18.08.2019
3462 Clouds 30 1011 33 10000 5.1 270 18:39 18.08.2019
3463 Clouds 30 1011 33 10000 6.2 260 18:21 18.08.2019
3464 Clouds 30 1011 35 10000 5.7 270 17:55 18.08.2019
3465 Clouds 30 1011 35 10000 5.7 270 17:36 18.08.2019
3466 Clouds 30 1011 35 10000 6.2 250 17:18 18.08.2019
3467 Clouds 30 1011 35 10000 5.1 240 16:43 18.08.2019
3468 Clouds 30 1011 35 10000 3.6 260 16:24 18.08.2019
3469 Clouds 30 1011 38 10000 3.6 310 15:59 18.08.2019
3470 Clouds 30 1011 38 10000 3.6 310 15:39 18.08.2019
3471 Clouds 29 1011 38 10000 3.6 290 15:20 18.08.2019
3472 Clouds 29 1011 40 10000 3.6 300 14:57 18.08.2019
3473 Clouds 29 1011 40 10000 3.6 300 14:38 18.08.2019
3474 Clear 29 1011 40 10000 2.1 360 14:19 18.08.2019
3475 Clear 29 1011 42 10000 1.5 0 13:56 18.08.2019
3476 Clear 29 1011 42 10000 1.5 0 13:38 18.08.2019
3477 Clear 27 1012 42 10000 2.1 310 13:19 18.08.2019
3478 Clear 27 1012 42 10000 3.1 310 12:44 18.08.2019
3479 Clear 26 1012 47 10000 1.5 310 12:22 18.08.2019
3480 Clear 25 1012 50 10000 1 0 11:55 18.08.2019
3481 Clear 25 1012 50 10000 1 0 11:37 18.08.2019
3482 Clear 24 1012 53 10000 1 0 11:18 18.08.2019
3483 Clear 23 1012 60 10000 1.5 100 10:41 18.08.2019
3484 Clear 22 1013 60 10000 2.6 100 10:22 18.08.2019
3485 Clear 21 1013 68 10000 3.1 110 09:51 18.08.2019
3486 Clear 19 1013 72 10000 3.6 110 09:24 18.08.2019
3487 Clear 17 1013 82 10000 2.6 110 08:59 18.08.2019
3488 Clear 17 1013 82 10000 2.6 110 08:40 18.08.2019
3489 Clear 16 1013 93 10000 1 150 08:21 18.08.2019
3490 Clear 14 1013 100 10000 2.26 214.119 07:48 18.08.2019
3491 Clear 14 1013 100 10000 2.26 214.119 07:48 18.08.2019
3492 Clear 14 1013 93 10000 1 140 07:29 18.08.2019
3493 Clear 15 1013 93 10000 1 0 05:48 18.08.2019
3494 Clear 15 1014 93 10000 0.5 0 04:54 18.08.2019
3495 Clear 15 1014 93 10000 0.5 0 03:42 18.08.2019
3496 Clouds 17 1014 87 10000 1 0 02:46 18.08.2019
3497 Clouds 17 1014 87 10000 0.5 0 02:24 18.08.2019
3498 Clouds 17 1014 82 10000 0.5 0 01:44 18.08.2019
3499 Clouds 18 1014 77 10000 1 0 01:19 18.08.2019
3500 Clouds 18 1014 77 10000 2.6 90 00:38 18.08.2019
3501 Clouds 18 1014 77 10000 2.6 90 00:38 18.08.2019
3502 Clouds 18 1014 77 10000 3.6 90 00:19 18.08.2019
3503 Clouds 19 1014 72 10000 3.6 90 23:57 17.08.2019
3504 Clouds 19 1014 72 10000 3.6 90 23:37 17.08.2019
3505 Clouds 19 1014 68 10000 3.1 80 23:18 17.08.2019
3506 Clouds 19 1014 68 10000 3.1 100 22:56 17.08.2019
3507 Clouds 19 1014 68 10000 3.1 100 22:37 17.08.2019
3508 Clouds 20 1014 64 10000 3.1 100 22:18 17.08.2019
3509 Rain 20 1014 72 10000 2.1 100 21:41 17.08.2019
3510 Rain 20 1014 73 10000 1.5 0 21:23 17.08.2019
3511 Clouds 21 1014 64 10000 1 70 20:41 17.08.2019
3512 Clouds 23 1014 57 10000 1 0 20:21 17.08.2019
3513 Clouds 23 1014 36 10000 1.5 230 19:59 17.08.2019
3514 Clouds 23 1014 36 10000 1.5 230 19:40 17.08.2019
3515 Clouds 23 1014 55 10000 1.5 0 19:21 17.08.2019
3516 Clouds 23 1014 36 10000 2.6 260 18:41 17.08.2019
3517 Clouds 24 1014 44 10000 2.6 260 18:20 17.08.2019
3518 Clouds 24 1014 50 10000 2.6 140 17:59 17.08.2019
3519 Clouds 24 1014 50 10000 2.6 140 17:41 17.08.2019
3520 Clouds 24 1014 50 10000 2.1 160 17:21 17.08.2019
3521 Clouds 25 1014 47 10000 2.1 140 16:55 17.08.2019
3522 Clouds 25 1014 47 10000 2.1 140 16:36 17.08.2019
3523 Clouds 25 1014 51 10000 2.1 100 16:18 17.08.2019
3524 Clear 24 1015 54 10000 2.1 140 15:41 17.08.2019
3525 Clear 24 1015 53 10000 2.1 170 15:21 17.08.2019
3526 Clear 24 1015 50 10000 1.5 140 14:56 17.08.2019
3527 Clouds 23 1016 53 10000 1.5 0 14:36 17.08.2019
3528 Clouds 23 1016 53 10000 1.5 0 14:18 17.08.2019
3529 Clouds 24 1016 53 10000 1.5 0 13:42 17.08.2019
3530 Clouds 23 1016 56 10000 0.5 0 13:19 17.08.2019
3531 Clouds 23 1016 53 10000 0.5 0 12:42 17.08.2019
3532 Clouds 21 1017 60 10000 1 0 12:19 17.08.2019
3533 Clouds 21 1017 64 10000 3.47 205.635 11:58 17.08.2019
3534 Clouds 21 1017 64 10000 3.47 205.635 11:37 17.08.2019
3535 Clouds 20 1017 64 10000 1.5 0 11:19 17.08.2019
3536 Clouds 19 1017 68 10000 1 0 10:39 17.08.2019
3537 Clouds 19 1017 60 10000 1 50 10:20 17.08.2019
3538 Clear 18 1017 77 10000 2.1 110 09:52 17.08.2019
3539 Clear 18 1017 77 10000 2.1 110 09:33 17.08.2019
3540 Clear 16 1017 87 10000 1.5 120 08:58 17.08.2019
3541 Clear 16 1017 87 10000 1.5 110 08:28 17.08.2019
3542 Clear 15 1016 93 10000 2.6 100 07:56 17.08.2019
3543 Clear 15 1016 93 10000 2.6 100 07:38 17.08.2019
3544 Clear 14 1017 93 10000 0.5 0 07:19 17.08.2019
3545 Clear 13 1017 93 10000 1.5 120 05:58 17.08.2019
3546 Clear 14 1017 93 10000 0.5 0 04:32 17.08.2019
3547 Clear 14 1017 93 10000 0.5 0 04:32 17.08.2019
3548 Clear 14 1017 93 10000 0.5 0 04:32 17.08.2019
3549 Clear 14 1017 93 10000 0.5 0 04:32 17.08.2019
3550 Clear 14 1017 93 10000 0.5 0 03:37 17.08.2019
3551 Clear 15 1017 82 10000 3.1 110 01:59 17.08.2019
3552 Clear 15 1017 82 10000 3.1 110 01:36 17.08.2019
3553 Clear 15 1017 82 10000 3.1 100 01:18 17.08.2019
3554 Clear 15 1017 87 10000 2.6 90 00:39 17.08.2019
3555 Clear 16 1017 82 10000 2.1 120 23:57 16.08.2019
3556 Clear 16 1017 82 10000 2.1 120 23:38 16.08.2019
3557 Clouds 16 1017 93 10000 2.1 100 23:19 16.08.2019
3558 Clear 16 1017 87 10000 1 0 22:40 16.08.2019
3559 Clear 16 1017 87 10000 1 0 22:19 16.08.2019
3560 Clear 17 1017 82 10000 2.1 280 21:42 16.08.2019
3561 Clear 18 1017 77 10000 0.5 0 21:22 16.08.2019
3562 Clear 19 1016 60 10000 2.1 240 20:58 16.08.2019
3563 Clear 20 1016 60 10000 2.1 240 20:40 16.08.2019
3564 Clear 20 1016 46 10000 1 290 20:19 16.08.2019
3565 Clear 21 1016 41 10000 1 0 19:45 16.08.2019
3566 Clear 21 1016 41 10000 1 0 19:45 16.08.2019
3567 Clear 22 1017 41 10000 0.5 0 19:24 16.08.2019
3568 Clear 22 1017 41 10000 0.5 0 19:24 16.08.2019
3569 Clear 22 1017 41 10000 1 0 18:59 16.08.2019
3570 Clear 22 1017 41 10000 1 0 18:41 16.08.2019
3571 Clear 23 1017 41 10000 1.5 310 18:22 16.08.2019
3572 Clear 23 1017 43 10000 1.5 30 17:44 16.08.2019
3573 Clear 23 1017 41 10000 2.1 280 17:25 16.08.2019
3574 Clear 23 1018 41 10000 2.6 330 16:56 16.08.2019
3575 Clear 23 1018 41 10000 2.6 330 16:38 16.08.2019
3576 Clear 23 1017 41 10000 3.1 310 16:18 16.08.2019
3577 Clear 23 1018 41 10000 2.1 280 15:54 16.08.2019
3578 Clear 23 1018 41 10000 2.1 280 15:36 16.08.2019
3579 Clear 23 1018 38 10000 3.1 270 15:18 16.08.2019
3580 Clear 22 1018 40 10000 1 0 14:41 16.08.2019
3581 Clouds 22 1019 43 10000 1.5 0 14:19 16.08.2019
3582 Clouds 22 1019 43 10000 1.5 0 14:19 16.08.2019
3583 Clouds 22 1019 43 10000 1.5 0 13:59 16.08.2019
3584 Clouds 22 1019 43 10000 1.5 0 13:38 16.08.2019
3585 Clouds 22 1019 46 10000 1.5 0 13:20 16.08.2019
3586 Clouds 21 1020 49 10000 1.5 0 12:39 16.08.2019
3587 Clouds 20 1020 49 10000 1.5 0 12:20 16.08.2019
3588 Clouds 20 1020 60 10000 1 0 11:43 16.08.2019
3589 Clouds 19 1021 63 10000 1 0 11:24 16.08.2019
3590 Clear 19 1021 63 10000 1 0 10:58 16.08.2019
3591 Clear 19 1021 63 10000 1 0 10:40 16.08.2019
3592 Clear 18 1021 72 10000 2.1 130 10:18 16.08.2019
3593 Clear 17 1021 72 10000 1.5 0 09:38 16.08.2019
3594 Clear 15 1021 82 10000 1.5 160 09:19 16.08.2019
3595 Clear 15 1021 87 10000 0.5 0 08:56 16.08.2019
3596 Clear 15 1021 87 10000 0.5 0 08:38 16.08.2019
3597 Clear 14 1021 93 10000 0.84 29.507 08:19 16.08.2019
3598 Clear 13 1021 93 10000 0.5 0 07:44 16.08.2019
3599 Clear 12 1021 100 10000 0.5 0 07:25 16.08.2019
3600 Clear 12 1021 93 10000 2.1 110 06:43 16.08.2019
3601 Clouds 12 1021 93 10000 0.5 0 05:58 16.08.2019
3602 Clear 13 1021 93 10000 1.23 359.813 05:33 16.08.2019
3603 Clouds 15 1021 87 10000 0.5 0 03:19 16.08.2019
3604 Clouds 14 1021 82 10000 1 0 01:50 16.08.2019
3605 Clouds 15 1021 77 10000 1 0 01:25 16.08.2019
3606 Clouds 15 1021 72 10000 1 0 00:48 16.08.2019
3607 Clouds 16 1021 63 10000 1.5 290 00:23 16.08.2019
3608 Clouds 16 1021 77 10000 1.5 250 23:55 15.08.2019
3609 Clouds 16 1021 77 10000 1.5 250 23:37 15.08.2019
3610 Clouds 16 1021 82 10000 1 0 23:18 15.08.2019
3611 Clouds 16 1021 72 10000 1.5 0 22:41 15.08.2019
3612 Rain 17 1020 55 10000 3.1 280 22:22 15.08.2019
3613 Rain 17 1020 55 10000 2.1 280 21:58 15.08.2019
3614 Rain 18 1020 55 10000 2.1 280 21:39 15.08.2019
3615 Rain 18 1019 52 10000 3.1 270 21:19 15.08.2019
3616 Rain 19 1019 52 10000 3.6 260 20:56 15.08.2019
3617 Rain 19 1019 52 10000 3.6 260 20:38 15.08.2019
3618 Rain 19 1019 52 10000 4.1 270 20:19 15.08.2019
3619 Clouds 19 1018 56 10000 6.7 290 19:39 15.08.2019
3620 Rain 20 1018 56 10000 5.7 290 19:21 15.08.2019
3621 Clouds 20 1018 52 10000 6.7 280 18:49 15.08.2019
3622 Clouds 21 1018 53 10000 7.7 300 18:24 15.08.2019
3623 Clouds 22 1017 56 10000 7.7 290 17:59 15.08.2019
3624 Clouds 22 1017 56 10000 7.7 290 17:39 15.08.2019
3625 Clouds 22 1017 53 10000 4.6 300 17:20 15.08.2019
3626 Clouds 23 1017 53 10000 6.2 300 16:58 15.08.2019
3627 Clouds 23 1017 53 10000 6.2 300 16:40 15.08.2019
3628 Rain 23 1017 56 10000 4.1 250 16:22 15.08.2019
3629 Rain 22 1017 49 10000 4.6 280 15:39 15.08.2019
3630 Clouds 22 1017 49 10000 5.1 240 15:20 15.08.2019
3631 Clouds 22 1017 56 10000 6.7 290 14:57 15.08.2019
3632 Clouds 21 1017 56 10000 6.7 290 14:38 15.08.2019
3633 Clouds 21 1017 56 10000 5.7 310 14:20 15.08.2019
3634 Rain 21 1017 46 10000 6.7 300 13:56 15.08.2019
3635 Rain 21 1017 46 10000 6.7 300 13:56 15.08.2019
3636 Rain 21 1017 46 10000 6.7 300 13:38 15.08.2019
3637 Rain 21 1017 53 10000 4.6 280 13:19 15.08.2019
3638 Clouds 21 1017 56 10000 5.7 270 12:40 15.08.2019
3639 Rain 20 1017 52 10000 5.7 270 12:21 15.08.2019
3640 Clouds 20 1017 60 10000 3.1 300 11:59 15.08.2019
3641 Rain 19 1017 60 10000 2.6 330 11:39 15.08.2019
3642 Rain 19 1017 60 10000 2.6 330 11:20 15.08.2019
3643 Clouds 18 1017 63 10000 1 0 10:59 15.08.2019
3644 Clouds 18 1017 63 10000 1 0 10:37 15.08.2019
3645 Clouds 18 1017 68 10000 1.5 0 10:18 15.08.2019
3646 Clouds 16 1017 77 10000 1.5 110 09:44 15.08.2019
3647 Clouds 16 1017 87 10000 2.6 120 09:22 15.08.2019
3648 Clouds 15 1017 87 10000 2.6 140 08:54 15.08.2019
3649 Clouds 15 1017 87 10000 2.6 140 08:36 15.08.2019
3650 Clouds 14 1018 87 10000 2.62 232.92 08:18 15.08.2019
3651 Clouds 13 1018 93 10000 2.1 0 07:40 15.08.2019
3652 Rain 13 1018 93 10000 1.5 120 07:21 15.08.2019
3653 Clouds 13 1017 93 10000 2.62 232.92 06:52 15.08.2019
3654 Clouds 13 1017 93 10000 0.5 0 06:31 15.08.2019
3655 Clouds 12 1018 100 10000 0.5 0 05:39 15.08.2019
3656 Clouds 12 1018 100 10000 0.5 0 05:19 15.08.2019
3657 Clear 12 1018 93 10000 1 130 04:27 15.08.2019
3658 Clear 12 1018 93 10000 0.5 0 03:26 15.08.2019
3659 Clear 12 1018 93 10000 0.5 0 02:35 15.08.2019
3660 Clear 12 1018 93 10000 0.5 0 01:45 15.08.2019
3661 Clear 12 1018 93 10000 1 0 01:23 15.08.2019
3662 Clear 13 1018 93 10000 0.5 0 00:38 15.08.2019
3663 Clear 13 1018 93 10000 2.6 110 00:19 15.08.2019
3664 Clear 14 1018 93 10000 1.5 90 23:57 14.08.2019
3665 Clear 14 1018 93 10000 1.5 90 23:37 14.08.2019
3666 Clear 14 1018 87 10000 2.1 110 23:19 14.08.2019
3667 Clear 14 1018 87 10000 1 90 22:42 14.08.2019
3668 Clear 14 1018 87 10000 1 80 22:23 14.08.2019
3669 Clear 15 1018 72 10000 0.5 0 21:58 14.08.2019
3670 Clear 15 1018 72 10000 0.5 0 21:58 14.08.2019
3671 Clear 16 1018 72 10000 0.5 0 21:40 14.08.2019
3672 Clear 17 1017 59 10000 0.5 0 21:21 14.08.2019
3673 Clear 18 1018 55 10000 0.5 0 20:59 14.08.2019
3674 Clear 18 1018 55 10000 0.5 0 20:41 14.08.2019
3675 Clear 19 1018 37 10000 1.5 220 20:20 14.08.2019
3676 Clear 20 1018 40 10000 1 100 19:55 14.08.2019
3677 Clear 22 1017 35 10000 2.1 40 19:37 14.08.2019
3678 Clear 22 1017 35 10000 2.1 40 19:37 14.08.2019
3679 Clear 22 1017 35 10000 2.1 40 19:18 14.08.2019
3680 Clear 21 1018 35 10000 1.5 0 18:56 14.08.2019
3681 Clear 21 1018 35 10000 1.5 0 18:37 14.08.2019
3682 Clear 22 1018 35 10000 2.1 300 18:18 14.08.2019
3683 Clear 22 1018 37 10000 3.6 300 17:54 14.08.2019
3684 Clear 22 1018 37 10000 3.6 300 17:36 14.08.2019
3685 Clear 21 1018 35 10000 2.6 300 17:18 14.08.2019
3686 Clear 22 1019 37 10000 2.1 360 16:39 14.08.2019
3687 Clear 21 1019 40 10000 3.1 300 16:20 14.08.2019
3688 Clear 21 1019 40 10000 3.1 300 16:20 14.08.2019
3689 Clear 21 1019 37 10000 3.1 300 15:44 14.08.2019
3690 Clear 20 1019 46 10000 1.5 0 15:20 14.08.2019
3691 Clear 21 1019 40 10000 1.5 340 14:59 14.08.2019
3692 Clear 21 1019 40 10000 1.5 340 14:39 14.08.2019
3693 Clear 20 1020 43 10000 2.6 0 14:19 14.08.2019
3694 Clear 20 1020 43 10000 2.6 0 14:19 14.08.2019
3695 Clear 20 1020 45 10000 1.5 0 13:55 14.08.2019
3696 Clear 20 1020 45 10000 1.5 0 13:37 14.08.2019
3697 Clear 19 1020 49 10000 1.5 0 13:18 14.08.2019
3698 Clouds 19 1021 49 10000 1.5 0 12:55 14.08.2019
3699 Clouds 19 1021 49 10000 1.5 0 12:36 14.08.2019
3700 Clouds 18 1021 59 10000 1.5 0 12:18 14.08.2019
3701 Clouds 18 1021 59 10000 1 0 11:43 14.08.2019
3702 Clouds 17 1021 63 10000 1.5 0 11:22 14.08.2019
3703 Clear 16 1021 55 10000 1.5 0 10:46 14.08.2019
3704 Clear 16 1021 72 10000 1 0 10:25 14.08.2019
3705 Clear 15 1021 77 10000 1.5 0 09:59 14.08.2019
3706 Clear 15 1021 77 10000 1.5 0 09:41 14.08.2019
3707 Clear 13 1021 77 10000 1.5 140 09:20 14.08.2019
3708 Clear 13 1021 87 10000 1.5 170 08:42 14.08.2019
3709 Clear 11 1021 93 10000 1 0 08:24 14.08.2019
3710 Clear 10 1021 100 10000 1 130 07:55 14.08.2019
3711 Clear 10 1021 100 10000 1 130 07:35 14.08.2019
3712 Clear 9 1020 93 10000 1 0 06:50 14.08.2019
3713 Clear 10 1020 100 10000 1 0 06:23 14.08.2019
3714 Clear 11 1021 100 10000 0.5 0 05:28 14.08.2019
3715 Clouds 11 1021 93 10000 1 0 03:40 14.08.2019
3716 Clouds 13 1021 93 10000 0.5 0 02:37 14.08.2019
3717 Clouds 13 1021 100 10000 0.5 0 01:57 14.08.2019
3718 Clouds 13 1021 87 10000 0.5 0 01:23 14.08.2019
3719 Clouds 14 1021 76 10000 0.5 0 00:25 14.08.2019
3720 Clouds 14 1021 62 10000 0.5 0 23:43 13.08.2019
3721 Clouds 14 1021 67 10000 2.1 340 23:19 13.08.2019
3722 Clouds 14 1021 63 10000 3.1 330 22:56 13.08.2019
3723 Clouds 14 1021 63 10000 3.1 330 22:56 13.08.2019
3724 Clouds 14 1021 63 10000 3.1 330 22:38 13.08.2019
3725 Clouds 15 1020 67 10000 2.1 350 22:19 13.08.2019
3726 Clouds 15 1020 67 10000 1.5 350 21:54 13.08.2019
3727 Clouds 15 1020 67 10000 1.5 350 21:36 13.08.2019
3728 Clouds 16 1020 67 10000 1.5 20 21:18 13.08.2019
3729 Clouds 17 1019 63 10000 1.5 0 20:42 13.08.2019
3730 Clouds 17 1019 63 10000 1.5 0 20:19 13.08.2019
3731 Clouds 17 1019 55 10000 1.5 0 19:56 13.08.2019
3732 Clouds 17 1019 55 10000 1.5 0 19:37 13.08.2019
3733 Clouds 18 1019 59 10000 1.5 70 19:19 13.08.2019
3734 Clouds 18 1019 55 10000 2.1 50 18:41 13.08.2019
3735 Clouds 19 1019 55 10000 1.5 20 18:22 13.08.2019
3736 Clouds 19 1019 55 10000 2.1 20 17:44 13.08.2019
3737 Rain 19 1019 55 10000 1.5 0 17:25 13.08.2019
3738 Rain 19 1019 60 10000 2.6 70 16:59 13.08.2019
3739 Rain 19 1019 60 10000 2.6 70 16:40 13.08.2019
3740 Clouds 19 1019 52 10000 3.1 320 16:22 13.08.2019
3741 Clouds 19 1019 52 10000 3.1 320 16:00 13.08.2019
3742 Clouds 19 1019 52 10000 3.1 320 15:38 13.08.2019
3743 Rain 19 1020 55 10000 2.1 40 15:19 13.08.2019
3744 Rain 19 1020 56 10000 2.6 10 14:47 13.08.2019
3745 Rain 19 1020 59 10000 3.1 320 14:20 13.08.2019
3746 Clouds 19 1020 59 10000 2.6 320 13:59 13.08.2019
3747 Clouds 19 1020 59 10000 2.6 320 13:59 13.08.2019
3748 Clouds 18 1020 59 10000 2.6 320 13:40 13.08.2019
3749 Clouds 19 1020 59 10000 2.1 0 13:20 13.08.2019
3750 Clouds 18 1021 59 10000 1.5 320 12:57 13.08.2019
3751 Clouds 18 1021 59 10000 1.5 320 12:39 13.08.2019
3752 Clouds 17 1021 63 10000 2.6 340 12:21 13.08.2019
3753 Clouds 17 1021 68 10000 3.1 330 11:42 13.08.2019
3754 Clouds 17 1021 72 10000 2.6 330 11:23 13.08.2019
3755 Clouds 17 1021 72 10000 2.1 0 10:58 13.08.2019
3756 Clouds 17 1021 72 10000 2.1 0 10:38 13.08.2019
3757 Clouds 17 1021 72 10000 2.1 0 10:38 13.08.2019
3758 Rain 16 1021 77 10000 1 0 10:20 13.08.2019
3759 Rain 16 1021 77 10000 1 0 10:20 13.08.2019
3760 Rain 16 1021 82 10000 1 0 09:56 13.08.2019
3761 Rain 16 1021 82 10000 1 0 09:38 13.08.2019
3762 Rain 15 1021 82 10000 1 120 09:19 13.08.2019
3763 Rain 14 1021 87 10000 0.36 319.022 08:41 13.08.2019
3764 Clouds 14 1021 100 10000 0.36 319.022 08:21 13.08.2019
3765 Clouds 14 1020 93 10000 1 0 07:47 13.08.2019
3766 Clouds 13 1020 93 10000 0.5 0 07:28 13.08.2019
3767 Clouds 13 1020 93 10000 1 70 06:44 13.08.2019
3768 Clouds 13 1020 93 10000 0.5 0 05:59 13.08.2019
3769 Clouds 13 1020 93 10000 1 320 05:32 13.08.2019
3770 Clouds 13 1020 93 10000 1 0 02:32 13.08.2019
3771 Clouds 14 1020 93 10000 0.5 0 01:46 13.08.2019
3772 Clouds 14 1021 93 10000 0.5 0 00:52 13.08.2019
3773 Clouds 15 1021 100 10000 1 0 00:22 13.08.2019
3774 Clouds 15 1021 100 10000 1.5 160 23:47 12.08.2019
3775 Clouds 15 1020 100 10000 1.5 100 23:21 12.08.2019
3776 Rain 15 1020 87 10000 2.6 120 22:56 12.08.2019
3777 Rain 16 1020 87 10000 2.6 120 22:38 12.08.2019
3778 Rain 16 1019 93 10000 2.1 110 22:18 12.08.2019
3779 Rain 16 1019 93 10000 1 0 21:54 12.08.2019
3780 Rain 16 1019 93 10000 1 0 21:36 12.08.2019
3781 Rain 17 1018 88 10000 1.5 0 21:18 12.08.2019
3782 Rain 18 1018 82 10000 2.6 100 20:41 12.08.2019
3783 Rain 18 1018 82 10000 1.79 190.651 20:21 12.08.2019
3784 Rain 18 1018 68 10000 2.1 290 19:58 12.08.2019
3785 Rain 18 1018 68 10000 2.1 290 19:39 12.08.2019
3786 Clouds 18 1017 68 10000 2.6 270 19:21 12.08.2019
3787 Rain 18 1017 64 10000 4.1 270 18:59 12.08.2019
3788 Rain 18 1017 64 10000 4.1 270 18:39 12.08.2019
3789 Rain 18 1017 77 10000 3.1 270 18:21 12.08.2019
3790 Rain 18 1017 68 10000 2.6 0 17:56 12.08.2019
3791 Rain 18 1017 68 10000 2.6 0 17:38 12.08.2019
3792 Rain 19 1017 68 10000 1.5 0 17:20 12.08.2019
3793 Rain 19 1017 72 10000 2.1 350 16:55 12.08.2019
3794 Rain 19 1017 72 10000 2.1 350 16:36 12.08.2019
3795 Rain 19 1017 72 10000 3.6 310 16:18 12.08.2019
3796 Rain 19 1017 72 10000 3.1 340 15:42 12.08.2019
3797 Rain 19 1017 72 10000 3.1 340 15:41 12.08.2019
3798 -273 0 0 0 0 0 15:41 12.08.2019
3799 Clouds 19 1017 72 10000 4.6 330 15:22 12.08.2019
3800 Rain 18 1017 68 10000 2.1 0 14:58 12.08.2019
3801 -273 0 0 0 0 0 14:39 12.08.2019
3802 Rain 18 1017 68 10000 2.1 0 14:39 12.08.2019
3803 Rain 18 1017 72 10000 1.5 0 14:21 12.08.2019
3804 Drizzle 18 1018 77 10000 2.6 130 13:57 12.08.2019
3805 Drizzle 18 1018 77 10000 2.6 130 13:39 12.08.2019
3806 Drizzle 18 1018 88 10000 3.6 130 13:20 12.08.2019
3807 Rain 17 1018 88 10000 2.1 110 12:43 12.08.2019
3808 Rain 17 1018 88 10000 2.1 110 12:43 12.08.2019
3809 Rain 17 1019 82 10000 1 0 12:19 12.08.2019
3810 Rain 16 1019 88 10000 1.5 0 11:45 12.08.2019
3811 -273 0 0 0 0 0 11:44 12.08.2019
3812 Rain 16 1019 88 10000 1.5 0 11:44 12.08.2019
3813 Rain 16 1019 87 10000 2.1 270 11:25 12.08.2019
3814 Rain 16 1020 100 6000 1.5 330 10:54 12.08.2019
3815 Rain 16 1019 82 10000 4.1 290 10:36 12.08.2019
3816 Rain 16 1019 82 10000 4.1 290 10:18 12.08.2019
3817 Rain 16 1017 82 10000 1 270 09:42 12.08.2019
3818 Rain 16 1016 93 10000 1 0 09:21 12.08.2019
3819 Drizzle 16 1017 87 10000 1.5 0 08:59 12.08.2019
3820 Drizzle 16 1017 87 10000 1.5 0 08:39 12.08.2019
3821 Drizzle 16 1017 87 10000 1.5 0 08:39 12.08.2019
3822 Clouds 16 1017 93 10000 2.6 280 08:21 12.08.2019
3823 Rain 15 1017 93 10000 2.6 300 07:56 12.08.2019
3824 Rain 15 1017 93 10000 2.6 300 07:34 12.08.2019
3825 Rain 15 1017 93 7000 2.1 320 06:53 12.08.2019
3826 Rain 16 1017 93 10000 1 0 05:46 12.08.2019
3827 Rain 16 1018 93 10000 1 0 03:30 12.08.2019
3828 Rain 16 1018 93 10000 1 0 02:42 12.08.2019
3829 Clouds 16 1018 93 10000 1 100 01:23 12.08.2019
3830 Rain 16 1018 93 10000 0.5 0 00:58 12.08.2019
3831 Rain 16 1018 93 10000 0.5 0 00:40 12.08.2019
3832 Rain 17 1018 93 10000 0.5 0 00:20 12.08.2019
3833 Rain 17 1018 93 10000 1 210 23:57 11.08.2019
3834 Rain 17 1018 93 10000 1 210 23:38 11.08.2019
3835 Rain 17 1018 93 10000 1 0 23:19 11.08.2019
3836 -273 0 0 0 0 0 22:55 11.08.2019
3837 Rain 17 1018 93 10000 1.5 0 22:36 11.08.2019
3838 Rain 17 1018 93 10000 1.5 0 22:36 11.08.2019
3839 Rain 17 1018 93 10000 1 0 22:18 11.08.2019
3840 Rain 17 1017 93 10000 1 0 21:55 11.08.2019
3841 Rain 17 1017 93 10000 1 0 21:36 11.08.2019
3842 Rain 17 1017 82 10000 1.5 0 21:18 11.08.2019
3843 Rain 17 1017 82 10000 2.1 110 20:42 11.08.2019
3844 Rain 17 1017 82 10000 2.1 110 20:42 11.08.2019
3845 Rain 17 1017 77 10000 1 0 20:22 11.08.2019
3846 Rain 17 1017 77 10000 2.1 0 19:54 11.08.2019
3847 Rain 17 1017 77 10000 2.1 0 19:36 11.08.2019
3848 Rain 17 1017 77 10000 5.7 270 19:18 11.08.2019
3849 Rain 19 1016 68 10000 6.7 280 18:38 11.08.2019
3850 Rain 22 1013 61 10000 4.1 300 18:19 11.08.2019
3851 Clouds 25 1013 57 10000 3.1 300 17:42 11.08.2019
3852 Thunderstorm 25 1012 57 10000 2.1 320 17:21 11.08.2019
3853 Rain 26 1012 57 10000 3.1 300 16:59 11.08.2019
3854 Rain 26 1012 57 10000 3.1 300 16:40 11.08.2019
3855 Clouds 26 1013 54 10000 4.1 280 16:22 11.08.2019
3856 Clear 26 1013 54 10000 5.7 320 15:57 11.08.2019
3857 Clear 26 1013 54 10000 5.7 320 15:38 11.08.2019
3858 Clear 26 1013 54 10000 4.6 300 15:20 11.08.2019
3859 Clear 26 1013 54 10000 2.6 300 14:42 11.08.2019
3860 Clear 26 1013 54 10000 2.6 300 14:42 11.08.2019
3861 Clear 26 1013 54 10000 1.5 0 14:24 11.08.2019
3862 Clear 25 1014 54 10000 2.1 300 13:47 11.08.2019
3863 Clear 25 1014 57 10000 1.5 320 13:26 11.08.2019
3864 Clear 24 1015 61 10000 1.5 210 12:59 11.08.2019
3865 Clear 24 1015 61 10000 1.5 210 12:41 11.08.2019
3866 Clear 23 1016 69 10000 1 270 12:20 11.08.2019
3867 Clear 22 1016 64 10000 1 230 11:40 11.08.2019
3868 Clear 22 1016 64 10000 1 230 11:40 11.08.2019
3869 Clear 22 1017 60 10000 1.5 0 11:22 11.08.2019
3870 Clear 21 1017 73 10000 2.1 140 10:56 11.08.2019
3871 Clear 20 1017 73 10000 2.1 140 10:38 11.08.2019
3872 Clear 20 1018 72 10000 1.5 130 10:19 11.08.2019
3873 Clear 20 1018 72 10000 1.5 130 10:19 11.08.2019
3874 Clear 19 1018 77 10000 2.1 130 09:54 11.08.2019
3875 Clear 19 1018 77 10000 2.1 130 09:36 11.08.2019
3876 Clear 19 1018 77 10000 2.1 130 09:36 11.08.2019
3877 Clear 18 1018 77 10000 1.5 130 09:18 11.08.2019
3878 Clear 17 1019 82 10000 1.5 110 08:40 11.08.2019
3879 Clear 16 1019 87 10000 1 0 08:22 11.08.2019
3880 Clouds 15 1019 93 10000 0.5 0 07:46 11.08.2019
3881 Mist 14 1019 100 10000 0.5 0 07:19 11.08.2019
3882 Mist 14 1019 100 10000 2.6 90 06:38 11.08.2019
3883 Fog 14 1020 93 10000 2.6 100 05:28 11.08.2019
3884 Clouds 15 1020 93 10000 2.6 130 02:54 11.08.2019
3885 Clear 16 1021 93 10000 3.1 130 02:25 11.08.2019
3886 Clear 16 1021 93 10000 3.1 130 01:33 11.08.2019
3887 Clouds 17 1021 93 10000 2.6 100 00:56 11.08.2019
3888 Clouds 17 1021 87 10000 2.1 110 00:36 11.08.2019
3889 Clouds 17 1021 88 10000 2.1 110 23:57 10.08.2019
3890 Clouds 17 1021 88 10000 2.1 110 23:37 10.08.2019
3891 Clouds 18 1021 88 10000 3.1 110 23:18 10.08.2019
3892 Clouds 18 1021 88 10000 1.5 110 22:40 10.08.2019
3893 Clouds 18 1021 82 10000 2.1 110 22:22 10.08.2019
3894 Clouds 18 1020 77 10000 2.1 110 21:56 10.08.2019
3895 Clouds 19 1020 77 10000 2.1 110 21:36 10.08.2019
3896 Clouds 19 1020 72 10000 4.1 150 21:18 10.08.2019
3897 Clouds 20 1020 68 10000 2.6 140 20:42 10.08.2019
3898 Clouds 20 1020 64 10000 4.6 170 20:21 10.08.2019
3899 Clouds 21 1020 64 10000 4.6 160 19:57 10.08.2019
3900 Clouds 21 1020 64 10000 4.6 160 19:37 10.08.2019
3901 Clouds 22 1020 60 10000 4.6 160 19:19 10.08.2019
3902 Clouds 22 1019 64 10000 3.6 120 18:39 10.08.2019
3903 Clouds 22 1019 50 10000 2.1 170 18:21 10.08.2019
3904 Clouds 22 1020 50 10000 3.1 180 17:44 10.08.2019
3905 Clouds 22 1020 56 10000 2.1 200 17:24 10.08.2019
3906 Clouds 22 1020 56 10000 2.1 240 16:47 10.08.2019
3907 Clouds 22 1020 56 10000 3.6 240 16:28 10.08.2019
3908 Clouds 22 1020 53 10000 2.6 250 15:54 10.08.2019
3909 Clouds 21 1020 53 10000 3.1 240 15:25 10.08.2019
3910 Clouds 21 1020 64 10000 2.6 270 14:45 10.08.2019
3911 Clouds 20 1020 73 10000 1.5 330 14:23 10.08.2019
3912 Clouds 20 1020 77 10000 1 10 13:55 10.08.2019
3913 Clouds 20 1020 77 10000 1 10 13:37 10.08.2019
3914 Clouds 19 1020 77 10000 1 310 13:18 10.08.2019
3915 Rain 19 1021 82 10000 1 0 12:41 10.08.2019
3916 Rain 18 1021 82 10000 1.5 350 12:21 10.08.2019
3917 Rain 18 1021 93 10000 1.5 10 11:54 10.08.2019
3918 Rain 18 1021 93 10000 1.5 10 11:36 10.08.2019
3919 Rain 18 1021 93 10000 1.5 10 11:36 10.08.2019
3920 Rain 17 1021 88 10000 1.5 0 11:18 10.08.2019
3921 Rain 17 1021 88 10000 3.6 300 10:38 10.08.2019
3922 Rain 17 1020 82 10000 3.1 280 10:20 10.08.2019
3923 Rain 17 1020 82 10000 3.1 280 10:20 10.08.2019
3924 Rain 18 1019 82 10000 4.6 280 09:44 10.08.2019
3925 Rain 18 1019 88 10000 2.6 10 09:25 10.08.2019
3926 Rain 18 1019 93 10000 1.5 360 08:59 10.08.2019
3927 Rain 18 1019 93 10000 1.5 360 08:38 10.08.2019
3928 Rain 18 1018 93 10000 1.5 350 08:18 10.08.2019
3929 Drizzle 18 1018 93 10000 1 10 07:46 10.08.2019
3930 Rain 18 1017 88 10000 2.1 330 07:25 10.08.2019
3931 Rain 18 1017 93 8000 3.6 310 06:47 10.08.2019
3932 Rain 19 1016 100 7000 5.1 310 06:18 10.08.2019
3933 Rain 20 1015 94 10000 0.5 0 05:21 10.08.2019
3934 Rain 21 1016 94 10000 1.5 150 03:55 10.08.2019
3935 Drizzle 21 1015 94 10000 3.6 140 02:50 10.08.2019
3936 Rain 21 1016 94 10000 2.6 80 01:57 10.08.2019
3937 Rain 21 1016 94 10000 2.6 80 01:37 10.08.2019
3938 Rain 21 1016 94 10000 3.6 140 01:19 10.08.2019
3939 Rain 21 1015 94 10000 2.1 0 00:42 10.08.2019
3940 Rain 22 1016 94 10000 2.6 70 00:19 10.08.2019
3941 Rain 22 1016 88 4500 5.1 230 23:41 09.08.2019
3942 Rain 23 1015 88 10000 3.1 250 23:21 09.08.2019
3943 Rain 22 1014 94 10000 2.6 330 22:56 09.08.2019
3944 Rain 22 1014 94 10000 2.6 330 22:37 09.08.2019
3945 Rain 23 1013 83 10000 1 0 22:19 09.08.2019
3946 Rain 24 1012 73 10000 0.5 0 21:41 09.08.2019
3947 Clouds 25 1011 78 10000 0.5 0 21:22 09.08.2019
3948 Rain 26 1011 78 10000 1 0 20:58 09.08.2019
3949 Rain 26 1011 78 10000 1 0 20:39 09.08.2019
3950 Rain 26 1011 78 10000 1 0 20:39 09.08.2019
3951 Clouds 26 1011 61 10000 1.5 0 20:20 09.08.2019
3952 Clouds 27 1011 65 10000 0.5 0 19:44 09.08.2019
3953 Clouds 28 1011 54 10000 1 0 19:23 09.08.2019
3954 Rain 28 1011 62 10000 0.5 0 18:59 09.08.2019
3955 Rain 28 1011 62 10000 0.5 0 18:39 09.08.2019
3956 Clear 29 1011 48 10000 2.6 310 18:20 09.08.2019
3957 Clear 30 1011 43 10000 2.1 320 17:45 09.08.2019
3958 Clouds 30 1011 38 10000 1.5 0 17:25 09.08.2019
3959 Clouds 31 1011 40 10000 2.6 240 16:58 09.08.2019
3960 Clouds 31 1011 40 10000 2.6 240 16:38 09.08.2019
3961 Clouds 31 1012 43 10000 1.5 0 16:20 09.08.2019
3962 Clouds 30 1012 43 10000 1 0 15:55 09.08.2019
3963 Clouds 30 1012 43 10000 1 0 15:36 09.08.2019
3964 Clouds 30 1013 43 10000 1 0 15:18 09.08.2019
3965 Clear 29 1013 42 10000 1.5 290 14:42 09.08.2019
3966 Clear 29 1013 45 10000 1.5 0 14:21 09.08.2019
3967 Clear 29 1013 51 10000 1.5 0 13:55 09.08.2019
3968 Clear 28 1013 51 10000 1.5 0 13:37 09.08.2019
3969 Clear 28 1014 48 10000 1.5 0 13:18 09.08.2019
3970 Clear 26 1014 51 10000 1.5 340 12:41 09.08.2019
3971 Clear 26 1014 54 10000 1.5 0 12:22 09.08.2019
3972 Clear 25 1014 61 10000 1.5 320 11:42 09.08.2019
3973 Clear 24 1014 60 10000 1.5 0 11:21 09.08.2019
3974 Clear 24 1014 60 10000 1.5 0 11:21 09.08.2019
3975 Clear 24 1014 60 10000 1.5 0 10:58 09.08.2019
3976 Clear 24 1014 60 10000 1.5 0 10:39 09.08.2019
3977 Clear 23 1014 64 10000 0.5 0 10:20 09.08.2019
3978 Clear 22 1014 68 10000 1 0 09:42 09.08.2019
3979 Clear 20 1014 73 10000 2.1 100 09:19 09.08.2019
3980 Clear 19 1015 82 10000 2.6 100 08:46 09.08.2019
3981 Clear 19 1015 82 10000 0.5 0 08:26 09.08.2019
3982 Clear 18 1015 93 10000 1 0 07:59 09.08.2019
3983 Clear 18 1015 93 10000 1 0 07:41 09.08.2019
3984 Clear 17 1015 100 10000 1.5 180 07:21 09.08.2019
3985 Clear 16 1015 93 10000 1.5 120 06:50 09.08.2019
3986 Clear 16 1015 100 10000 1 160 06:22 09.08.2019
3987 Clear 16 1015 93 10000 0.5 0 05:45 09.08.2019
3988 Clear 16 1015 87 10000 2.1 100 02:30 09.08.2019
3989 Clear 17 1015 87 10000 1 0 01:30 09.08.2019
3990 Clear 18 1015 87 10000 0.5 0 00:43 09.08.2019
3991 Clear 18 1015 87 10000 0.5 0 00:24 09.08.2019
3992 Clear 18 1015 93 10000 1 0 23:57 08.08.2019
3993 Clear 18 1015 93 10000 1 0 23:37 08.08.2019
3994 Clear 19 1015 88 10000 0.5 0 23:19 08.08.2019
3995 Clear 19 1015 88 10000 0.5 90 22:56 08.08.2019
3996 Clear 19 1015 88 10000 0.5 90 22:36 08.08.2019
3997 Clear 19 1014 82 10000 0.5 0 22:18 08.08.2019
3998 Clear 20 1014 77 10000 0.5 0 21:43 08.08.2019
3999 Clear 22 1014 68 10000 1 0 21:24 08.08.2019
4000 Clear 23 1014 53 10000 1.5 240 20:58 08.08.2019
4001 Clear 23 1014 53 10000 1.5 240 20:40 08.08.2019
4002 Clear 24 1013 61 10000 1.5 60 20:20 08.08.2019
4003 Clear 24 1014 39 10000 1.5 310 19:49 08.08.2019
4004 Clouds 26 1014 42 10000 1.5 0 19:29 08.08.2019
4005 Clouds 26 1014 39 10000 2.1 0 18:59 08.08.2019
4006 Clouds 26 1014 39 10000 2.1 0 18:40 08.08.2019
4007 Clouds 26 1014 37 10000 2.1 350 18:19 08.08.2019
4008 Clouds 26 1014 42 10000 2.1 310 17:42 08.08.2019
4009 Clouds 26 1014 42 10000 2.6 290 17:24 08.08.2019
4010 Clear 26 1014 39 10000 2.1 0 16:59 08.08.2019
4011 Clear 26 1014 39 10000 2.1 0 16:41 08.08.2019
4012 Clouds 26 1014 42 10000 1.5 0 16:23 08.08.2019
4013 Clouds 26 1014 44 10000 3.1 310 15:57 08.08.2019
4014 Clouds 26 1014 44 10000 3.1 310 15:38 08.08.2019
4015 Clouds 25 1014 50 10000 2.1 330 15:20 08.08.2019
4016 Clouds 25 1015 50 10000 2.6 330 14:40 08.08.2019
4017 Clouds 25 1015 50 10000 1.5 0 14:21 08.08.2019
4018 Clear 24 1015 57 10000 2.1 0 13:56 08.08.2019
4019 Clear 24 1015 57 10000 2.1 0 13:36 08.08.2019
4020 Clouds 24 1015 57 10000 2.6 290 13:18 08.08.2019
4021 Clouds 23 1015 64 10000 2.6 330 12:38 08.08.2019
4022 Clouds 22 1015 69 10000 2.1 340 12:19 08.08.2019
4023 Clouds 21 1015 68 10000 1.5 0 11:43 08.08.2019
4024 Clouds 20 1015 73 10000 2.1 290 11:25 08.08.2019
4025 Clouds 20 1015 77 10000 1 0 10:56 08.08.2019
4026 Clouds 20 1015 77 10000 1 0 10:37 08.08.2019
4027 Mist 18 1015 77 10000 1.5 90 10:19 08.08.2019
4028 Fog 18 1015 77 10000 2.6 120 09:40 08.08.2019
4029 Fog 17 1015 82 10000 2.1 100 09:20 08.08.2019
4030 Fog 16 1015 93 10000 2.1 90 08:42 08.08.2019
4031 Fog 15 1015 93 10000 2.1 100 08:22 08.08.2019
4032 Fog 15 1015 100 10000 2.1 120 07:58 08.08.2019
4033 Fog 15 1015 100 10000 2.1 120 07:39 08.08.2019
4034 Fog 15 1015 100 10000 2.1 100 07:18 08.08.2019
4035 Fog 14 1015 100 10000 2.1 90 06:45 08.08.2019
4036 Fog 14 1015 100 8000 0.5 0 05:58 08.08.2019
4037 Fog 15 1015 100 8000 0.5 0 05:40 08.08.2019
4038 Fog 15 1015 100 700 0.5 0 04:21 08.08.2019
4039 Fog 15 1015 100 10000 0.5 0 03:47 08.08.2019
4040 Mist 16 1015 93 10000 1.01 6.836 01:54 08.08.2019
4041 Clouds 16 1015 93 10000 2.1 140 01:20 08.08.2019
4042 Rain 17 1014 93 10000 2.6 120 00:25 08.08.2019
4043 Rain 17 1014 93 10000 2.6 110 23:39 07.08.2019
4044 Rain 17 1015 82 10000 0.5 0 23:18 07.08.2019
4045 Rain 18 1014 72 10000 2.1 230 22:41 07.08.2019
4046 Rain 18 1014 77 10000 1.5 240 22:21 07.08.2019
4047 Rain 18 1014 82 10000 1.5 0 21:59 07.08.2019
4048 Rain 18 1014 82 10000 1.5 0 21:40 07.08.2019
4049 Rain 18 1014 82 10000 1.5 0 21:40 07.08.2019
4050 Rain 19 1013 77 10000 3.24 238.848 21:21 07.08.2019
4051 Clouds 19 1013 73 10000 1.5 0 20:59 07.08.2019
4052 Clouds 19 1013 73 10000 1.5 0 20:41 07.08.2019
4053 Mist 19 1013 73 10000 2.1 330 20:22 07.08.2019
4054 Clouds 19 1012 73 10000 3.1 320 19:56 07.08.2019
4055 Clouds 19 1012 73 10000 3.1 320 19:56 07.08.2019
4056 Clouds 20 1012 73 10000 3.1 320 19:37 07.08.2019
4057 Clouds 20 1012 68 10000 2.1 280 19:19 07.08.2019
4058 Rain 20 1012 68 10000 2.6 260 18:41 07.08.2019
4059 Rain 20 1012 82 10000 4.1 240 18:20 07.08.2019
4060 Clouds 20 1012 68 10000 3.6 260 17:56 07.08.2019
4061 Clouds 20 1012 68 10000 3.6 260 17:38 07.08.2019
4062 Clouds 20 1012 73 10000 2.1 270 17:19 07.08.2019
4063 Clouds 21 1012 83 10000 1.5 0 16:56 07.08.2019
4064 Clouds 20 1012 83 10000 1.5 0 16:38 07.08.2019
4065 Rain 20 1013 88 10000 2.1 150 16:19 07.08.2019
4066 Rain 20 1013 82 10000 1 0 15:43 07.08.2019
4067 Rain 19 1013 77 10000 1 0 15:23 07.08.2019
4068 Clouds 19 1013 77 10000 2.6 320 14:57 07.08.2019
4069 Clouds 19 1013 77 10000 2.6 320 14:39 07.08.2019
4070 Rain 19 1013 82 10000 2.1 310 14:21 07.08.2019
4071 Rain 19 1013 88 10000 1 0 13:41 07.08.2019
4072 Rain 19 1013 82 10000 1 0 13:19 07.08.2019
4073 Rain 19 1013 82 10000 1 0 13:19 07.08.2019
4074 Rain 18 1013 88 10000 1.5 0 12:58 07.08.2019
4075 Rain 18 1013 88 10000 1.5 0 12:39 07.08.2019
4076 Rain 18 1013 93 10000 3.1 150 12:20 07.08.2019
4077 Rain 18 1014 93 10000 4.1 170 11:59 07.08.2019
4078 Rain 18 1014 93 10000 4.1 170 11:40 07.08.2019
4079 Rain 18 1014 93 10000 3.1 150 11:19 07.08.2019
4080 Rain 17 1013 100 10000 2.1 0 10:42 07.08.2019
4081 Rain 17 1013 93 8000 1 0 10:20 07.08.2019
4082 Rain 17 1013 93 8000 1 130 09:59 07.08.2019
4083 Rain 17 1013 93 8000 1 130 09:41 07.08.2019
4084 Rain 17 1013 100 9000 1 0 09:21 07.08.2019
4085 Rain 17 1013 93 10000 2.6 330 08:45 07.08.2019
4086 Rain 17 1011 88 10000 1 0 08:26 07.08.2019
4087 Rain 17 1011 88 10000 2.6 100 07:52 07.08.2019
4088 Rain 17 1011 93 10000 2.6 100 07:33 07.08.2019
4089 Rain 16 1012 93 10000 3.1 110 06:50 07.08.2019
4090 Clouds 16 1012 93 10000 3.1 120 06:27 07.08.2019
4091 Clouds 16 1012 93 10000 3.6 90 05:46 07.08.2019
4092 Clear 16 1012 93 10000 2.6 110 04:46 07.08.2019
4093 Clouds 17 1013 87 10000 2.6 120 03:21 07.08.2019
4094 Clear 16 1013 93 10000 3.1 120 02:43 07.08.2019
4095 Rain 17 1014 87 10000 1 0 01:58 07.08.2019
4096 Mist 17 1014 87 10000 2.6 120 01:24 07.08.2019
4097 Clear 17 1014 87 10000 2.1 90 00:38 07.08.2019
4098 Rain 17 1013 88 10000 1.5 170 00:19 07.08.2019
4099 Rain 18 1014 77 10000 2.1 350 23:41 06.08.2019
4100 Rain 18 1014 82 10000 1.5 0 23:21 06.08.2019
4101 Rain 18 1014 82 10000 1.5 0 23:21 06.08.2019
4102 Rain 18 1013 82 10000 2.1 60 22:56 06.08.2019
4103 Rain 18 1013 82 10000 2.1 60 22:37 06.08.2019
4104 Rain 18 1013 77 10000 7.2 160 22:18 06.08.2019
4105 Thunderstorm 18 1014 82 10000 3.1 110 21:40 06.08.2019
4106 Rain 19 1014 77 10000 4.1 160 21:20 06.08.2019
4107 Rain 19 1014 77 10000 4.1 160 21:20 06.08.2019
4108 Rain 19 1014 77 10000 4.1 160 21:20 06.08.2019
4109 Rain 19 1013 82 10000 6.7 150 20:48 06.08.2019
4110 Rain 20 1013 72 10000 6.7 150 20:29 06.08.2019
4111 Rain 19 1013 77 10000 6.7 140 19:59 06.08.2019
4112 Rain 20 1013 77 10000 6.7 140 19:41 06.08.2019
4113 Rain 20 1013 77 10000 6.7 150 19:22 06.08.2019
4114 Rain 21 1014 88 10000 4.1 130 18:45 06.08.2019
4115 Rain 22 1014 77 10000 2.1 130 18:26 06.08.2019
4116 Clouds 22 1014 77 10000 5.1 160 17:58 06.08.2019
4117 Clouds 22 1014 77 10000 5.1 160 17:38 06.08.2019
4118 Thunderstorm 22 1014 82 10000 6.2 150 17:20 06.08.2019
4119 Thunderstorm 22 1015 82 10000 5.7 140 16:55 06.08.2019
4120 Thunderstorm 22 1015 82 10000 5.7 140 16:37 06.08.2019
4121 Thunderstorm 22 1014 94 10000 3.6 150 16:19 06.08.2019
4122 Thunderstorm 24 1014 78 9000 3.1 310 15:56 06.08.2019
4123 Thunderstorm 24 1014 78 9000 3.1 310 15:38 06.08.2019
4124 Thunderstorm 24 1014 65 10000 3.1 0 15:18 06.08.2019
4125 Thunderstorm 24 1014 73 10000 1.5 0 14:41 06.08.2019
4126 Rain 24 1015 73 10000 1 0 14:22 06.08.2019
4127 Rain 24 1015 83 10000 1.5 350 13:57 06.08.2019
4128 Rain 24 1015 83 10000 1.5 350 13:38 06.08.2019
4129 Rain 23 1015 88 10000 1.5 10 13:19 06.08.2019
4130 Rain 23 1015 83 10000 2.6 320 12:55 06.08.2019
4131 Thunderstorm 23 1015 78 10000 1 0 12:36 06.08.2019
4132 Thunderstorm 22 1015 78 10000 1 0 12:18 06.08.2019
4133 Rain 21 1016 88 10000 1 0 11:40 06.08.2019
4134 Rain 21 1016 88 10000 1 0 11:40 06.08.2019
4135 Rain 21 1016 93 10000 1 0 11:18 06.08.2019
4136 Thunderstorm 21 1016 93 8000 1 0 10:41 06.08.2019
4137 Rain 20 1016 93 10000 2.1 0 10:22 06.08.2019
4138 Rain 20 1016 88 6000 2.6 0 09:49 06.08.2019
4139 Rain 19 1016 82 10000 2.1 0 09:24 06.08.2019
4140 Thunderstorm 19 1015 93 10000 1 0 08:57 06.08.2019
4141 Thunderstorm 19 1015 93 10000 1 0 08:38 06.08.2019
4142 Thunderstorm 19 1015 93 10000 1 0 08:38 06.08.2019
4143 Rain 19 1015 93 10000 1 0 08:20 06.08.2019
4144 Rain 18 1015 100 9000 1 0 07:36 06.08.2019
4145 Clouds 18 1015 93 10000 1 0 06:51 06.08.2019
4146 Clouds 18 1015 93 10000 1 20 06:29 06.08.2019
4147 Clouds 19 1014 93 10000 1.5 80 05:47 06.08.2019
4148 Thunderstorm 19 1015 88 10000 0.5 0 02:59 06.08.2019
4149 Clouds 19 1015 88 10000 0.91 280.705 01:46 06.08.2019
4150 Clouds 20 1015 82 10000 0.5 0 01:22 06.08.2019
4151 Thunderstorm 21 1014 82 10000 0.5 0 00:29 06.08.2019
4152 Clouds 21 1014 82 10000 2.1 120 23:44 05.08.2019
4153 Rain 22 1014 77 10000 1 0 23:18 05.08.2019
4154 Clouds 22 1014 77 10000 0.5 0 22:40 05.08.2019
4155 Clouds 22 1014 73 10000 0.5 0 22:22 05.08.2019
4156 Rain 23 1014 73 10000 1 0 21:45 05.08.2019
4157 Rain 25 1014 60 10000 0.5 0 21:22 05.08.2019
4158 Clouds 26 1014 45 10000 1.5 0 21:00 05.08.2019
4159 Clouds 26 1014 45 10000 1.5 0 20:41 05.08.2019
4160 Clouds 26 1014 39 10000 3.1 290 20:23 05.08.2019
4161 Clouds 27 1013 37 10000 3.6 280 19:59 05.08.2019
4162 Clouds 26 1013 37 10000 3.6 280 19:39 05.08.2019
4163 Clouds 26 1013 37 10000 3.6 280 19:39 05.08.2019
4164 Clouds 27 1013 35 10000 4.1 280 19:20 05.08.2019
4165 Clouds 28 1014 33 10000 3.6 260 18:45 05.08.2019
4166 Clouds 29 1014 31 10000 5.1 260 18:22 05.08.2019
4167 Clouds 29 1014 31 10000 6.2 270 17:58 05.08.2019
4168 Clouds 29 1014 31 10000 6.2 270 17:40 05.08.2019
4169 Clouds 29 1014 33 10000 4.6 260 17:22 05.08.2019
4170 Clouds 29 1014 35 10000 3.6 260 16:44 05.08.2019
4171 Clouds 29 1014 33 10000 5.7 290 16:24 05.08.2019
4172 Clouds 29 1014 33 10000 6.7 260 15:44 05.08.2019
4173 Clouds 28 1015 35 10000 5.1 250 15:21 05.08.2019
4174 Clouds 28 1015 33 10000 6.2 260 14:54 05.08.2019
4175 Clouds 28 1015 33 10000 6.2 260 14:54 05.08.2019
4176 Clouds 28 1015 33 10000 6.2 260 14:36 05.08.2019
4177 Clear 28 1015 35 10000 6.2 250 14:18 05.08.2019
4178 Clouds 28 1015 35 10000 6.2 250 13:40 05.08.2019
4179 Clear 27 1015 39 10000 4.1 300 13:20 05.08.2019
4180 Clouds 27 1015 42 10000 3.6 270 12:43 05.08.2019
4181 Clouds 25 1015 50 10000 1.5 330 12:19 05.08.2019
4182 Clouds 25 1016 50 10000 1 310 11:45 05.08.2019
4183 Clouds 25 1016 50 10000 1 310 11:45 05.08.2019
4184 Clouds 24 1016 50 10000 1 0 11:26 05.08.2019
4185 Clouds 23 1016 60 10000 0.5 0 10:49 05.08.2019
4186 Clear 23 1016 64 10000 1.5 110 10:31 05.08.2019
4187 Rain 21 1016 72 10000 1.5 0 09:57 05.08.2019
4188 Rain 21 1016 72 10000 1.5 0 09:39 05.08.2019
4189 Rain 20 1016 77 10000 2.6 140 09:20 05.08.2019
4190 Clouds 19 1016 82 10000 0.5 0 08:44 05.08.2019
4191 Clouds 19 1016 77 10000 1.5 0 08:25 05.08.2019
4192 Rain 18 1016 82 10000 3.1 110 07:49 05.08.2019
4193 Rain 18 1016 93 10000 0.5 0 07:30 05.08.2019
4194 Clouds 18 1016 93 10000 1 0 06:58 05.08.2019
4195 Mist 18 1016 93 10000 1 0 06:24 05.08.2019
4196 Rain 18 1016 82 10000 1 0 05:33 05.08.2019
4197 Drizzle 18 1016 77 10000 4.1 110 04:52 05.08.2019
4198 Clouds 18 1016 82 10000 0.5 0 03:52 05.08.2019
4199 Clouds 18 1017 72 10000 2.1 300 02:47 05.08.2019
4200 Clouds 18 1016 77 10000 1 0 02:21 05.08.2019
4201 Clouds 18 1016 77 10000 0.5 0 01:31 05.08.2019
4202 Clear 19 1016 93 10000 1 140 00:41 05.08.2019
4203 Clouds 19 1016 88 10000 0.5 0 00:20 05.08.2019
4204 Clouds 19 1016 88 10000 0.5 0 00:20 05.08.2019
4205 Clouds 19 1016 88 10000 0.5 90 23:43 04.08.2019
4206 Clouds 19 1016 82 10000 2.1 150 23:23 04.08.2019
4207 Clouds 19 1016 82 10000 0.5 0 22:57 04.08.2019
4208 Clouds 19 1016 82 10000 0.5 0 22:38 04.08.2019
4209 Clear 20 1016 77 10000 1.5 0 22:20 04.08.2019
4210 Clear 20 1015 72 10000 1 0 21:58 04.08.2019
4211 Clear 21 1015 72 10000 1 0 21:40 04.08.2019
4212 Clear 22 1015 73 10000 1 150 21:19 04.08.2019
4213 Clear 24 1015 50 10000 1 0 20:42 04.08.2019
4214 Clear 24 1015 44 10000 1.5 70 20:19 04.08.2019
4215 Clear 25 1015 32 10000 2.1 300 19:55 04.08.2019
4216 Clear 25 1015 32 10000 2.1 300 19:36 04.08.2019
4217 Clear 26 1015 30 10000 2.1 280 19:18 04.08.2019
4218 Clear 27 1015 30 10000 2.1 270 18:41 04.08.2019
4219 Clear 27 1015 25 10000 2.6 280 18:20 04.08.2019
4220 Clear 27 1015 26 10000 1.5 0 17:44 04.08.2019
4221 Clear 27 1015 28 10000 2.1 290 17:24 04.08.2019
4222 Clear 27 1016 25 10000 2.6 250 16:46 04.08.2019
4223 Clear 27 1016 30 10000 3.6 240 16:28 04.08.2019
4224 Clear 27 1016 39 10000 2.6 310 15:58 04.08.2019
4225 Clear 26 1016 39 10000 2.6 310 15:38 04.08.2019
4226 Clear 26 1016 39 10000 1.5 320 15:19 04.08.2019
4227 Clear 26 1016 41 10000 1.5 0 14:43 04.08.2019
4228 Clear 26 1017 44 10000 2.6 320 14:25 04.08.2019
4229 Clear 25 1017 47 10000 2.6 330 13:47 04.08.2019
4230 Clear 25 1017 47 10000 1.5 0 13:27 04.08.2019
4231 Clear 25 1017 53 10000 2.1 10 12:57 04.08.2019
4232 Clear 25 1017 53 10000 2.1 10 12:57 04.08.2019
4233 Clear 24 1017 53 10000 2.1 10 12:39 04.08.2019
4234 Clear 23 1017 53 10000 1.5 30 12:21 04.08.2019
4235 Clear 22 1018 56 10000 1.5 0 11:48 04.08.2019
4236 Clear 22 1018 56 10000 1.18 139.97 11:23 04.08.2019
4237 Clear 21 1018 60 10000 1.18 139.97 10:48 04.08.2019
4238 Clear 20 1018 64 10000 1 0 10:23 04.08.2019
4239 Clear 19 1018 72 10000 1.5 0 09:47 04.08.2019
4240 Clear 18 1018 82 10000 0.5 0 09:26 04.08.2019
4241 Clear 17 1018 82 10000 0.75 87.783 08:59 04.08.2019
4242 Clear 16 1018 82 10000 0.75 87.783 08:35 04.08.2019
4243 Clear 14 1017 93 10000 0.5 0 07:56 04.08.2019
4244 Clear 14 1017 93 10000 0.5 0 07:37 04.08.2019
4245 Fog 13 1017 100 10000 0.75 87.783 06:43 04.08.2019
4246 Clear 13 1017 100 10000 1.33 39.371 06:19 04.08.2019
4247 Clear 14 1017 93 10000 0.5 0 03:38 04.08.2019
4248 Clear 15 1017 93 10000 1 0 01:55 04.08.2019
4249 Clear 15 1017 93 10000 1 0 01:32 04.08.2019
4250 Clear 16 1017 93 10000 0.5 0 00:43 04.08.2019
4251 Clear 16 1017 93 10000 0.5 80 00:24 04.08.2019
4252 Clear 17 1017 82 10000 0.5 0 23:56 03.08.2019
4253 Clear 17 1017 82 10000 0.5 0 23:37 03.08.2019
4254 Clear 17 1017 87 10000 0.5 0 23:18 03.08.2019
4255 Rain 18 1017 82 10000 0.5 0 22:40 03.08.2019
4256 Rain 18 1017 82 10000 0.5 0 22:19 03.08.2019
4257 Clouds 19 1017 60 8000 0.5 0 21:39 03.08.2019
4258 Clear 21 1016 49 10000 0.5 0 21:21 03.08.2019
4259 Clear 22 1016 46 10000 2.1 10 20:45 03.08.2019
4260 Clear 22 1016 44 10000 2.1 20 20:25 03.08.2019
4261 Clouds 23 1016 41 10000 2.1 350 19:56 03.08.2019
4262 Clouds 23 1016 41 10000 2.1 350 19:38 03.08.2019
4263 Clouds 23 1016 41 10000 3.1 330 19:20 03.08.2019
4264 Clouds 24 1016 39 10000 3.6 310 18:45 03.08.2019
4265 Clouds 25 1016 39 10000 2.6 320 18:24 03.08.2019
4266 Clouds 25 1016 36 10000 2.1 50 17:43 03.08.2019
4267 Clouds 25 1016 34 10000 3.1 280 17:20 03.08.2019
4268 Clouds 25 1017 36 10000 2.6 270 16:39 03.08.2019
4269 Clouds 25 1017 36 10000 2.6 270 16:39 03.08.2019
4270 Clouds 25 1017 39 10000 2.6 250 16:21 03.08.2019
4271 Clouds 25 1017 41 10000 2.6 330 15:55 03.08.2019
4272 Clouds 25 1017 41 10000 2.6 330 15:37 03.08.2019
4273 Clear 25 1017 39 10000 3.1 290 15:18 03.08.2019
4274 Clouds 24 1017 44 10000 4.6 310 14:36 03.08.2019
4275 Clouds 24 1017 41 10000 2.6 270 14:18 03.08.2019
4276 Clouds 24 1017 44 10000 3.6 310 13:41 03.08.2019
4277 Clouds 24 1018 47 10000 3.1 300 13:23 03.08.2019
4278 Clouds 24 1018 49 10000 3.1 300 12:54 03.08.2019
4279 Clouds 24 1018 49 10000 3.1 300 12:36 03.08.2019
4280 Clouds 23 1018 53 10000 3.1 300 12:18 03.08.2019
4281 Clouds 22 1018 56 10000 1.5 320 11:38 03.08.2019
4282 Clouds 22 1018 60 10000 1.5 0 11:19 03.08.2019
4283 Clouds 21 1018 68 10000 1 0 10:38 03.08.2019
4284 Clear 20 1018 72 10000 1.5 0 10:19 03.08.2019
4285 Clear 20 1018 72 10000 1.5 0 10:19 03.08.2019
4286 Clouds 19 1018 72 10000 2.1 120 09:37 03.08.2019
4287 Clouds 18 1018 77 10000 2.1 140 09:18 03.08.2019
4288 Clouds 17 1018 88 10000 1 0 08:43 03.08.2019
4289 Clouds 15 1017 93 10000 2.6 90 07:40 03.08.2019
4290 Clouds 14 1017 100 10000 2.6 90 06:48 03.08.2019
4291 Clouds 14 1017 93 10000 2.6 110 06:18 03.08.2019
4292 Clouds 15 1017 87 10000 2.6 120 03:35 03.08.2019
4293 Clouds 15 1017 87 10000 2.6 100 02:25 03.08.2019
4294 Clouds 16 1017 87 10000 2.1 110 00:58 03.08.2019
4295 Clouds 16 1017 87 10000 2.1 100 00:32 03.08.2019
4296 Clouds 16 1017 77 10000 2.6 110 23:42 02.08.2019
4297 Clouds 16 1017 77 10000 3.1 90 23:20 02.08.2019
4298 Rain 17 1017 77 10000 2.6 90 22:59 02.08.2019
4299 Rain 16 1017 77 10000 2.6 90 22:40 02.08.2019
4300 Rain 17 1017 77 10000 2.6 100 22:21 02.08.2019
4301 Rain 17 1017 77 10000 2.1 100 21:56 02.08.2019
4302 Rain 17 1017 77 10000 2.1 100 21:37 02.08.2019
4303 Rain 19 1017 72 10000 1.5 80 21:18 02.08.2019
4304 Clouds 20 1016 68 10000 1 0 20:42 02.08.2019
4305 Clouds 21 1016 64 10000 1 0 20:22 02.08.2019
4306 Clear 21 1016 64 10000 2.6 170 19:50 02.08.2019
4307 Clear 21 1016 64 10000 2.6 170 19:50 02.08.2019
4308 Clouds 21 1016 60 10000 3.1 160 19:30 02.08.2019
4309 Clouds 22 1016 57 10000 3.1 150 18:50 02.08.2019
4310 Clouds 22 1016 57 10000 3.1 150 18:50 02.08.2019
4311 Rain 22 1016 57 10000 3.1 160 18:32 02.08.2019
4312 Clouds 23 1017 53 10000 2.1 170 17:56 02.08.2019
4313 Clouds 23 1017 53 10000 2.1 170 17:38 02.08.2019
4314 Clouds 23 1017 64 10000 2.1 150 17:19 02.08.2019
4315 Clouds 23 1017 56 10000 1.5 0 16:39 02.08.2019
4316 Clouds 23 1017 53 10000 2.1 140 16:20 02.08.2019
4317 Clouds 23 1017 60 10000 2.1 0 15:47 02.08.2019
4318 Clouds 23 1017 60 10000 2.1 0 15:47 02.08.2019
4319 Clouds 22 1017 68 10000 1.5 0 15:21 02.08.2019
4320 Clouds 22 1017 73 10000 0.73 309.876 14:59 02.08.2019
4321 Clouds 22 1017 73 10000 0.73 309.876 14:40 02.08.2019
4322 Clouds 21 1017 68 10000 1.5 0 14:18 02.08.2019
4323 Rain 21 1017 77 10000 2.1 100 13:45 02.08.2019
4324 Rain 20 1018 77 10000 3.1 130 13:20 02.08.2019
4325 Rain 20 1018 82 10000 2.6 80 12:43 02.08.2019
4326 Rain 19 1018 93 10000 2.6 110 12:19 02.08.2019
4327 Rain 18 1018 100 10000 3.1 120 11:41 02.08.2019
4328 Rain 17 1018 93 6000 1.5 0 11:22 02.08.2019
4329 Rain 17 1018 100 6000 1.5 0 10:45 02.08.2019
4330 Rain 17 1017 93 3500 1.5 0 10:24 02.08.2019
4331 Rain 17 1017 93 6000 1.5 0 09:55 02.08.2019
4332 Rain 17 1017 93 6000 1.5 0 09:37 02.08.2019
4333 Rain 17 1016 93 10000 0.5 0 09:18 02.08.2019
4334 Clouds 17 1016 88 10000 1 0 08:40 02.08.2019
4335 Clouds 17 1015 93 10000 0.5 0 08:18 02.08.2019
4336 Clouds 16 1015 93 10000 0.5 0 07:40 02.08.2019
4337 Clouds 16 1015 100 10000 0.5 0 07:21 02.08.2019
4338 Mist 16 1015 100 10000 1 70 06:31 02.08.2019
4339 Mist 16 1015 93 8000 0.5 0 05:43 02.08.2019
4340 Mist 16 1015 100 4000 1 0 03:34 02.08.2019
4341 Rain 17 1016 93 5000 3.1 90 02:38 02.08.2019
4342 Rain 17 1017 93 9000 1.5 80 01:36 02.08.2019
4343 Rain 18 1016 88 7000 2.1 80 00:31 02.08.2019
4344 Rain 19 1016 88 0 1 0 23:44 01.08.2019
4345 Rain 19 1016 77 10000 1 0 23:25 01.08.2019
4346 Rain 19 1016 60 10000 2.1 0 22:44 01.08.2019
4347 Rain 20 1016 60 10000 0.5 0 22:25 01.08.2019
4348 Clouds 21 1016 53 10000 1 0 21:56 01.08.2019
4349 Clouds 20 1016 53 10000 1 0 21:38 01.08.2019
4350 Rain 22 1016 46 10000 1 0 21:20 01.08.2019
4351 Rain 22 1015 49 10000 1.5 330 20:46 01.08.2019
4352 Clear 23 1015 47 10000 2.1 350 20:23 01.08.2019
4353 Clear 23 1015 44 10000 2.1 10 19:45 01.08.2019
4354 Clear 24 1015 44 10000 3.1 350 19:24 01.08.2019
4355 Clear 24 1015 44 10000 3.1 10 18:59 01.08.2019
4356 Clear 24 1015 44 10000 3.1 10 18:40 01.08.2019
4357 Clear 25 1015 44 10000 2.1 20 18:22 01.08.2019
4358 Clear 25 1015 39 10000 2.1 40 17:46 01.08.2019
4359 Clear 25 1015 39 10000 3.1 20 17:27 01.08.2019
4360 Clear 25 1016 34 10000 2.1 0 16:45 01.08.2019
4361 Clear 26 1016 34 10000 2.1 0 16:45 01.08.2019
4362 Clear 25 1016 34 10000 2.6 0 16:22 01.08.2019
4363 Clear 25 1016 36 10000 1.5 0 15:46 01.08.2019
4364 Clear 25 1016 36 10000 1.5 360 15:21 01.08.2019
4365 Clear 25 1017 34 10000 2.6 60 14:58 01.08.2019
4366 Clear 24 1017 34 10000 2.6 60 14:40 01.08.2019
4367 Clear 24 1017 38 10000 1.5 0 14:18 01.08.2019
4368 Clear 24 1017 44 10000 1.5 0 13:41 01.08.2019
4369 Clear 24 1017 44 10000 1.5 0 13:41 01.08.2019
4370 Clear 23 1018 50 10000 1.5 0 13:22 01.08.2019
4371 Clear 23 1018 49 10000 1 0 12:59 01.08.2019
4372 Clear 23 1018 49 10000 1 0 12:59 01.08.2019
4373 Clear 23 1018 49 10000 1 0 12:41 01.08.2019
4374 Clear 22 1018 49 10000 1.5 0 12:21 01.08.2019
4375 Clear 22 1018 53 10000 1 0 11:42 01.08.2019
4376 Clear 21 1018 52 10000 1 0 11:22 01.08.2019
4377 Clear 20 1019 60 10000 1.5 0 10:46 01.08.2019
4378 Clear 20 1019 56 10000 1 0 10:28 01.08.2019
4379 Clear 19 1019 68 10000 1 0 09:59 01.08.2019
4380 Clear 18 1019 68 10000 1 0 09:39 01.08.2019
4381 Clear 17 1019 68 10000 1 0 09:21 01.08.2019
4382 Clear 16 1019 72 10000 1.69 46.153 08:42 01.08.2019
4383 Clouds 15 1019 77 10000 1.69 46.153 08:19 01.08.2019
4384 Clouds 15 1019 82 10000 1 0 07:47 01.08.2019
4385 Clouds 14 1019 93 10000 1 0 07:24 01.08.2019
4386 Clouds 14 1019 93 10000 1 0 06:47 01.08.2019
4387 Clouds 13 1019 100 10000 1 0 05:50 01.08.2019
4388 Clouds 14 1019 87 10000 0.5 0 04:18 01.08.2019
4389 Clouds 15 1020 87 10000 1 0 02:32 01.08.2019
4390 Clouds 16 1020 72 10000 1 0 00:43 01.08.2019
4391 Clouds 16 1020 72 10000 1.5 0 00:24 01.08.2019
4392 Clouds 17 1020 72 10000 0.5 0 23:42 31.07.2019
4393 Clouds 17 1019 72 10000 1 0 23:21 31.07.2019
4394 Clouds 17 1019 72 10000 0.5 0 22:47 31.07.2019
4395 Clouds 17 1019 82 10000 1 0 22:29 31.07.2019
4396 Clouds 18 1019 68 10000 1 0 21:56 31.07.2019
4397 Clouds 18 1019 68 10000 1 0 21:37 31.07.2019
4398 Clouds 20 1019 72 10000 1 0 21:18 31.07.2019
4399 Clouds 20 1019 72 10000 1 0 21:18 31.07.2019
4400 Rain 20 1018 68 10000 0.5 0 20:41 31.07.2019
4401 Clear 21 1018 60 10000 1 0 20:21 31.07.2019
4402 Clouds 20 1018 60 10000 1.5 0 19:41 31.07.2019
4403 Clouds 21 1018 49 10000 2.1 0 19:23 31.07.2019
4404 Clouds 21 1018 53 10000 2.1 280 18:53 31.07.2019
4405 Clouds 22 1018 49 10000 2.1 330 18:25 31.07.2019
4406 Clouds 22 1018 56 10000 1.5 0 17:57 31.07.2019
4407 Clouds 22 1018 56 10000 1.5 0 17:39 31.07.2019
4408 Clouds 22 1018 53 10000 1.5 330 17:19 31.07.2019
4409 Clouds 22 1019 53 10000 2.6 310 16:43 31.07.2019
4410 Clouds 22 1019 56 10000 3.6 300 16:20 31.07.2019
4411 Clouds 22 1019 53 10000 2.6 310 15:44 31.07.2019
4412 Clouds 22 1019 56 10000 4.1 320 15:24 31.07.2019
4413 Clouds 21 1019 60 10000 3.1 340 14:43 31.07.2019
4414 Clouds 21 1019 60 10000 3.1 330 14:22 31.07.2019
4415 Clouds 21 1019 60 10000 3.1 320 13:57 31.07.2019
4416 Clouds 21 1019 60 10000 3.1 320 13:38 31.07.2019
4417 Clouds 21 1019 56 10000 1 0 13:20 31.07.2019
4418 Clouds 20 1019 60 10000 1.5 0 12:45 31.07.2019
4419 Clouds 20 1019 60 10000 1.5 0 12:45 31.07.2019
4420 Clouds 20 1019 60 10000 2.1 330 12:26 31.07.2019
4421 Clouds 19 1019 68 10000 2.6 330 11:55 31.07.2019
4422 Clouds 19 1019 68 10000 2.6 330 11:36 31.07.2019
4423 Clouds 19 1019 63 10000 2.6 340 11:18 31.07.2019
4424 Clouds 19 1019 68 10000 2.6 350 10:41 31.07.2019
4425 Clouds 18 1019 72 10000 0.5 0 10:20 31.07.2019
4426 Clouds 18 1019 77 10000 0.5 0 09:43 31.07.2019
4427 Clouds 17 1019 82 10000 0.5 0 09:24 31.07.2019
4428 Clouds 17 1019 82 10000 0.5 0 09:24 31.07.2019
4429 Clouds 17 1019 88 10000 1.03 331.76 08:45 31.07.2019
4430 Clouds 17 1019 93 10000 1 110 08:26 31.07.2019
4431 Clouds 17 1019 88 10000 1 0 07:57 31.07.2019
4432 Clouds 16 1019 88 10000 1 0 07:34 31.07.2019
4433 Clouds 16 1019 88 10000 3.1 110 06:18 31.07.2019
4434 Rain 16 1018 93 10000 0.5 0 04:49 31.07.2019
4435 Rain 17 1018 88 10000 0.5 0 01:21 31.07.2019
4436 Clouds 17 1018 82 10000 1.5 90 23:57 30.07.2019
4437 Clouds 17 1018 82 10000 1.5 90 23:39 30.07.2019
4438 Rain 18 1018 77 10000 1 0 23:18 30.07.2019
4439 Rain 18 1018 72 10000 2.6 310 22:42 30.07.2019
4440 Clouds 18 1017 72 10000 2.6 320 22:23 30.07.2019
4441 Clouds 19 1017 72 10000 4.6 310 21:38 30.07.2019
4442 Thunderstorm 20 1016 60 10000 4.6 280 21:20 30.07.2019
4443 Thunderstorm 20 1016 60 10000 4.6 280 21:20 30.07.2019
4444 Thunderstorm 20 1016 60 10000 3.1 310 20:58 30.07.2019
4445 Thunderstorm 21 1016 60 10000 3.1 310 20:39 30.07.2019
4446 Rain 21 1015 56 10000 3.1 340 20:20 30.07.2019
4447 Clouds 22 1015 53 10000 4.1 340 19:49 30.07.2019
4448 Clouds 22 1015 50 10000 5.1 330 19:30 30.07.2019
4449 Clouds 24 1014 53 10000 4.6 320 18:48 30.07.2019
4450 Clouds 25 1014 50 10000 3.1 330 18:27 30.07.2019
4451 Clouds 25 1014 42 10000 2.1 300 17:59 30.07.2019
4452 Clouds 26 1014 42 10000 2.1 300 17:41 30.07.2019
4453 Clouds 26 1014 42 10000 3.1 290 17:19 30.07.2019
4454 Clear 27 1014 37 10000 2.1 260 16:46 30.07.2019
4455 Clear 27 1014 34 10000 1.5 0 16:20 30.07.2019
4456 Clouds 27 1014 37 10000 3.1 330 15:44 30.07.2019
4457 Clouds 27 1015 39 10000 3.1 300 15:23 30.07.2019
4458 Clouds 26 1015 39 10000 2.6 330 14:46 30.07.2019
4459 Clouds 26 1015 44 10000 2.6 340 14:27 30.07.2019
4460 Clouds 26 1015 44 10000 2.6 340 14:27 30.07.2019
4461 Clouds 26 1015 47 10000 2.6 310 13:59 30.07.2019
4462 Clouds 26 1015 47 10000 2.6 310 13:40 30.07.2019
4463 Clouds 25 1015 41 10000 2.1 290 13:22 30.07.2019
4464 Clouds 25 1015 50 10000 1 0 12:46 30.07.2019
4465 Clouds 24 1015 61 10000 1.5 0 12:28 30.07.2019
4466 Clouds 23 1015 60 10000 1 0 11:58 30.07.2019
4467 Clouds 23 1015 60 10000 1 0 11:38 30.07.2019
4468 Clear 22 1016 68 10000 1 0 11:18 30.07.2019
4469 Clear 22 1016 68 10000 1.5 0 10:39 30.07.2019
4470 Clear 21 1016 68 10000 2.6 120 10:20 30.07.2019
4471 Clear 20 1016 72 10000 2.1 100 09:48 30.07.2019
4472 Clear 19 1016 88 10000 3.1 110 09:28 30.07.2019
4473 Clouds 18 1016 82 10000 2.1 110 08:43 30.07.2019
4474 Clouds 17 1016 93 10000 0.5 0 08:20 30.07.2019
4475 Clouds 16 1016 93 10000 1 0 07:46 30.07.2019
4476 Clouds 15 1016 100 10000 1.5 130 07:23 30.07.2019
4477 Fog 15 1016 100 10000 2.1 110 06:46 30.07.2019
4478 Fog 15 1016 100 10000 2.1 110 06:46 30.07.2019
4479 Mist 14 1015 93 10000 1.5 120 05:47 30.07.2019
4480 Fog 14 1015 93 10000 0.5 0 05:25 30.07.2019
4481 Clear 16 1014 93 10000 0.5 0 01:38 30.07.2019
4482 Clear 17 1014 93 10000 1.5 90 00:36 30.07.2019
4483 Clear 17 1014 93 10000 2.1 90 00:18 30.07.2019
4484 Clouds 17 1014 87 10000 2.1 110 23:43 29.07.2019
4485 Clouds 17 1013 88 10000 2.1 120 23:24 29.07.2019
4486 Clouds 18 1013 82 10000 2.1 100 22:57 29.07.2019
4487 Clouds 18 1013 82 10000 2.1 100 22:57 29.07.2019
4488 Clouds 18 1013 82 10000 2.1 100 22:38 29.07.2019
4489 Clouds 18 1013 77 10000 2.6 120 22:18 29.07.2019
4490 Clouds 19 1013 77 10000 1.5 90 21:43 29.07.2019
4491 Clouds 20 1012 77 10000 1.5 80 21:24 29.07.2019
4492 Clouds 20 1012 68 10000 1.5 170 20:58 29.07.2019
4493 Clouds 21 1012 68 10000 1.5 170 20:40 29.07.2019
4494 Clouds 21 1012 68 10000 2.6 190 20:21 29.07.2019
4495 Clouds 21 1012 64 10000 2.6 180 19:50 29.07.2019
4496 Clouds 22 1012 60 10000 2.1 150 19:24 29.07.2019
4497 Clouds 22 1012 56 10000 2.1 120 18:59 29.07.2019
4498 Clouds 22 1012 56 10000 2.1 120 18:40 29.07.2019
4499 Clouds 22 1012 56 10000 1.5 110 18:20 29.07.2019
4500 Clouds 22 1012 56 10000 2.1 110 17:49 29.07.2019
4501 Clouds 22 1012 56 10000 2.6 170 17:31 29.07.2019
4502 Clouds 22 1012 60 10000 1.5 130 16:57 29.07.2019
4503 Clouds 22 1012 60 10000 1.5 130 16:37 29.07.2019
4504 Clouds 22 1012 68 10000 2.6 170 16:19 29.07.2019
4505 Clouds 22 1012 64 10000 2.6 80 15:47 29.07.2019
4506 Clouds 21 1012 60 10000 2.1 110 15:28 29.07.2019
4507 Clouds 21 1012 60 10000 1.5 60 14:43 29.07.2019
4508 Clouds 21 1012 64 10000 2.6 120 14:21 29.07.2019
4509 Clouds 21 1012 64 10000 3.1 90 13:55 29.07.2019
4510 Clouds 20 1012 64 10000 3.1 90 13:36 29.07.2019
4511 Clouds 21 1012 60 10000 3.6 100 13:18 29.07.2019
4512 Clouds 20 1012 68 10000 1.5 60 12:40 29.07.2019
4513 Clouds 19 1012 68 10000 2.6 80 12:21 29.07.2019
4514 Clouds 19 1012 72 10000 2.1 60 11:42 29.07.2019
4515 Clouds 19 1012 82 10000 1.5 0 11:20 29.07.2019
4516 Clouds 18 1013 82 10000 0.5 0 10:44 29.07.2019
4517 Clouds 18 1013 88 10000 0.5 0 10:23 29.07.2019
4518 Clouds 17 1013 93 10000 1 0 09:45 29.07.2019
4519 Clouds 16 1013 87 10000 1 0 09:24 29.07.2019
4520 Clouds 16 1013 100 10000 1 0 08:55 29.07.2019
4521 Mist 15 1012 100 10000 1.5 120 08:27 29.07.2019
4522 Clouds 15 1012 93 10000 2.1 90 07:53 29.07.2019
4523 Clouds 15 1012 93 10000 1.5 100 07:31 29.07.2019
4524 Fog 14 1012 100 10000 2.1 110 06:40 29.07.2019
4525 Clouds 14 1012 100 10000 1.5 140 05:37 29.07.2019
4526 Clouds 15 1013 93 10000 1 0 04:24 29.07.2019
4527 Drizzle 15 1013 93 10000 2.1 120 01:54 29.07.2019
4528 Drizzle 15 1013 93 10000 2.1 120 01:35 29.07.2019
4529 Drizzle 15 1013 93 10000 3.1 130 00:59 29.07.2019
4530 Drizzle 15 1013 93 10000 2.1 110 00:30 29.07.2019
4531 Drizzle 15 1013 93 10000 3.1 130 23:45 28.07.2019
4532 Drizzle 15 1013 93 10000 2.6 110 23:26 28.07.2019
4533 Rain 15 1013 93 6000 2.1 90 22:57 28.07.2019
4534 Rain 15 1013 93 6000 2.1 90 22:36 28.07.2019
4535 Rain 15 1012 100 6000 2.6 110 22:18 28.07.2019
4536 Rain 15 1012 100 5000 2.6 110 21:42 28.07.2019
4537 Rain 15 1012 93 5000 1 0 21:18 28.07.2019
4538 Rain 15 1011 93 10000 1 0 20:43 28.07.2019
4539 Rain 15 1011 93 10000 1 0 20:43 28.07.2019
4540 Rain 15 1011 93 10000 1.5 240 20:24 28.07.2019
4541 Rain 16 1011 82 8000 2.6 260 19:42 28.07.2019
4542 Rain 16 1010 93 7000 3.1 0 19:21 28.07.2019
4543 Rain 16 1010 93 10000 2.6 110 18:47 28.07.2019
4544 Rain 16 1010 93 5000 1 0 18:29 28.07.2019
4545 Rain 16 1009 87 5000 2.6 270 17:58 28.07.2019
4546 Rain 16 1009 87 5000 2.6 270 17:58 28.07.2019
4547 Rain 16 1009 87 5000 2.6 270 17:39 28.07.2019
4548 Rain 16 1009 87 10000 5.1 270 17:19 28.07.2019
4549 Rain 16 1009 87 10000 5.1 260 16:46 28.07.2019
4550 Rain 16 1008 82 7000 5.7 260 16:26 28.07.2019
4551 Rain 16 1008 82 6000 4.6 270 15:49 28.07.2019
4552 Rain 17 1007 82 10000 4.6 260 15:28 28.07.2019
4553 Rain 17 1007 88 8000 4.1 270 14:57 28.07.2019
4554 Rain 17 1007 88 8000 4.1 270 14:37 28.07.2019
4555 Rain 17 1007 82 10000 4.6 260 14:18 28.07.2019
4556 Rain 17 1006 88 7000 6.2 260 13:40 28.07.2019
4557 Rain 17 1006 88 10000 4.1 270 13:21 28.07.2019
4558 Rain 17 1005 82 10000 4.1 270 12:47 28.07.2019
4559 Rain 17 1005 88 10000 4.1 270 12:28 28.07.2019
4560 Rain 17 1005 88 10000 4.6 260 11:52 28.07.2019
4561 Rain 17 1004 88 10000 4.6 270 11:32 28.07.2019
4562 Rain 17 1004 88 10000 4.6 280 11:00 28.07.2019
4563 Rain 17 1004 88 10000 4.6 280 10:39 28.07.2019
4564 Rain 17 1004 93 10000 3.6 280 10:19 28.07.2019
4565 Rain 17 1003 88 10000 3.1 290 09:41 28.07.2019
4566 Rain 16 1003 93 10000 2.1 330 09:23 28.07.2019
4567 Drizzle 16 1003 93 10000 1 0 08:44 28.07.2019
4568 Rain 16 1003 100 10000 1 0 08:26 28.07.2019
4569 Rain 16 1002 100 7000 1 0 07:44 28.07.2019
4570 Rain 16 1002 93 10000 1 0 07:26 28.07.2019
4571 Rain 16 1002 93 7000 1 0 06:38 28.07.2019
4572 Rain 16 1002 93 9000 2.6 330 05:23 28.07.2019
4573 Rain 17 1002 88 10000 1 0 03:21 28.07.2019
4574 Rain 17 1002 100 10000 0.5 60 02:18 28.07.2019
4575 Drizzle 17 1002 93 10000 0.5 0 01:18 28.07.2019
4576 Rain 17 1002 93 10000 1 0 00:43 28.07.2019
4577 Drizzle 18 1002 100 10000 1 200 23:56 27.07.2019
4578 Clouds 17 1003 100 10000 0.5 0 23:31 27.07.2019
4579 Clouds 18 1003 93 10000 1.5 100 22:56 27.07.2019
4580 Clouds 18 1003 93 10000 1.5 100 22:56 27.07.2019
4581 Clouds 18 1003 93 10000 1.5 100 22:37 27.07.2019
4582 Rain 18 1003 88 10000 1 0 22:18 27.07.2019
4583 Rain 18 1003 88 10000 2.1 150 21:38 27.07.2019
4584 Rain 18 1002 82 10000 2.6 130 21:19 27.07.2019
4585 Rain 19 1002 82 10000 2.6 100 20:49 27.07.2019
4586 Rain 19 1002 77 10000 2.6 100 20:23 27.07.2019
4587 Rain 19 1003 77 10000 3.1 160 19:43 27.07.2019
4588 Rain 19 1003 77 10000 3.1 60 19:25 27.07.2019
4589 Rain 19 1004 83 10000 2.6 130 18:50 27.07.2019
4590 Rain 19 1004 88 10000 2.1 120 18:32 27.07.2019
4591 Rain 19 1004 88 10000 2.6 90 17:52 27.07.2019
4592 Rain 19 1005 82 10000 2.6 30 17:32 27.07.2019
4593 Rain 20 1005 83 8000 4.6 290 16:58 27.07.2019
4594 Rain 21 1005 83 8000 4.6 290 16:39 27.07.2019
4595 Rain 21 1004 88 9000 4.1 120 16:19 27.07.2019
4596 Rain 22 1004 88 8000 4.1 150 15:44 27.07.2019
4597 Rain 24 1004 69 10000 2.1 250 15:19 27.07.2019
4598 Rain 24 1004 60 10000 3.1 290 14:48 27.07.2019
4599 Thunderstorm 24 1004 57 10000 2.6 310 14:29 27.07.2019
4600 Clouds 25 1005 57 10000 2.1 0 13:52 27.07.2019
4601 Clouds 24 1006 64 10000 2.1 280 13:25 27.07.2019
4602 Clouds 24 1006 60 10000 1.5 0 12:56 27.07.2019
4603 Clouds 24 1006 60 10000 1.5 0 12:37 27.07.2019
4604 Clouds 24 1006 64 10000 3.1 310 12:19 27.07.2019
4605 Clouds 23 1006 64 10000 2.1 0 11:40 27.07.2019
4606 Clouds 22 1007 64 10000 1.5 40 11:21 27.07.2019
4607 Clouds 21 1007 73 10000 1.5 350 10:41 27.07.2019
4608 Clouds 21 1007 73 10000 1 0 10:22 27.07.2019
4609 Clouds 20 1007 82 10000 2.1 320 09:41 27.07.2019
4610 Clouds 20 1007 77 10000 2.6 300 09:23 27.07.2019
4611 Clouds 19 1007 88 10000 1 0 08:50 27.07.2019
4612 Clouds 19 1007 88 10000 1 0 08:31 27.07.2019
4613 Clouds 18 1007 93 10000 1 0 07:56 27.07.2019
4614 Clouds 18 1007 93 10000 1 0 07:33 27.07.2019
4615 Clouds 18 1007 93 10000 1 50 06:57 27.07.2019
4616 Clouds 18 1007 93 10000 1 50 06:57 27.07.2019
4617 Rain 18 1008 93 10000 1 0 06:32 27.07.2019
4618 Drizzle 18 1008 93 10000 2.6 140 05:53 27.07.2019
4619 Rain 18 1008 88 10000 1.5 0 05:32 27.07.2019
4620 Rain 18 1009 88 10000 3.1 150 04:35 27.07.2019
4621 Rain 19 1010 77 10000 6.7 260 03:29 27.07.2019
4622 Rain 18 1010 77 10000 7.7 270 02:41 27.07.2019
4623 Clouds 19 1010 88 10000 1.5 0 01:49 27.07.2019
4624 Rain 19 1010 93 10000 1.5 240 01:21 27.07.2019
4625 Clouds 19 1010 93 10000 2.6 90 00:33 27.07.2019
4626 Rain 19 1010 100 10000 1.5 0 23:55 26.07.2019
4627 Rain 19 1010 100 10000 1.5 0 23:37 26.07.2019
4628 Rain 19 1011 100 10000 3.1 120 23:18 26.07.2019
4629 Rain 19 1012 93 10000 1.5 250 22:41 26.07.2019
4630 Rain 19 1012 93 10000 2.1 90 22:23 26.07.2019
4631 Rain 19 1012 82 10000 3.6 340 21:49 26.07.2019
4632 Rain 20 1012 77 10000 3.6 0 21:20 26.07.2019
4633 Rain 23 1010 77 10000 8.7 160 20:43 26.07.2019
4634 Rain 23 1009 83 10000 7.7 110 20:25 26.07.2019
4635 Thunderstorm 25 1009 69 10000 12.3 170 19:44 26.07.2019
4636 Thunderstorm 26 1009 42 10000 7.7 140 19:25 26.07.2019
4637 Thunderstorm 28 1008 38 10000 2.1 340 18:58 26.07.2019
4638 Thunderstorm 30 1008 38 10000 2.1 340 18:38 26.07.2019
4639 Thunderstorm 30 1008 38 10000 2.1 340 18:38 26.07.2019
4640 Thunderstorm 31 1008 35 10000 2.1 350 18:19 26.07.2019
4641 Clouds 32 1008 32 10000 2.6 310 17:46 26.07.2019
4642 Clouds 32 1009 30 10000 3.6 280 17:19 26.07.2019
4643 Clouds 33 1009 32 10000 2.6 330 16:57 26.07.2019
4644 Clouds 33 1009 32 10000 2.6 330 16:39 26.07.2019
4645 Clouds 33 1010 34 10000 2.1 280 16:20 26.07.2019
4646 Clouds 33 1010 33 10000 3.6 290 15:56 26.07.2019
4647 Clouds 33 1010 33 10000 3.6 290 15:38 26.07.2019
4648 Clouds 32 1011 33 10000 2.6 350 15:19 26.07.2019
4649 Clear 32 1011 31 10000 2.1 290 14:43 26.07.2019
4650 Clear 32 1012 31 10000 1.5 290 14:22 26.07.2019
4651 Clouds 32 1012 38 10000 2.1 0 13:44 26.07.2019
4652 Clear 31 1013 38 10000 1.5 0 13:26 26.07.2019
4653 Clear 31 1013 40 10000 2.1 350 12:49 26.07.2019
4654 Clear 30 1014 42 10000 2.1 350 12:22 26.07.2019
4655 Clear 29 1014 45 10000 1 0 11:48 26.07.2019
4656 Clouds 28 1014 48 10000 1 0 11:22 26.07.2019
4657 Clouds 27 1015 54 10000 1 0 10:59 26.07.2019
4658 Clouds 27 1015 54 10000 1 0 10:39 26.07.2019
4659 Clouds 27 1015 54 10000 1 0 10:39 26.07.2019
4660 Clouds 26 1015 57 10000 2.1 70 10:19 26.07.2019
4661 Clear 25 1015 61 10000 2.1 110 09:47 26.07.2019
4662 Clouds 24 1015 64 10000 3.1 130 09:26 26.07.2019
4663 Clouds 23 1015 64 10000 3.6 110 08:41 26.07.2019
4664 Clouds 23 1015 69 10000 4.1 120 08:20 26.07.2019
4665 Clouds 22 1015 73 10000 3.6 120 07:39 26.07.2019
4666 Clear 22 1015 77 10000 2.1 110 07:21 26.07.2019
4667 Rain 21 1015 73 10000 3.6 120 06:21 26.07.2019
4668 Clear 21 1015 64 10000 1 0 04:30 26.07.2019
4669 Rain 22 1015 57 10000 2.1 240 03:51 26.07.2019
4670 Rain 23 1015 57 10000 5.7 160 01:46 26.07.2019
4671 Rain 23 1016 50 10000 4.1 0 01:18 26.07.2019
4672 Clouds 25 1015 45 10000 6.7 240 00:28 26.07.2019
4673 Clear 25 1015 61 10000 4.1 240 23:46 25.07.2019
4674 Clouds 26 1015 65 10000 2.1 0 23:20 25.07.2019
4675 Clouds 26 1015 69 10000 1.5 90 22:41 25.07.2019
4676 Rain 26 1014 65 10000 0.5 0 22:21 25.07.2019
4677 Clear 27 1014 61 10000 0.5 0 21:48 25.07.2019
4678 Clear 28 1014 51 10000 1.5 110 21:23 25.07.2019
4679 Clear 29 1014 48 10000 1 0 20:58 25.07.2019
4680 Clear 29 1014 48 10000 1 0 20:38 25.07.2019
4681 Clear 30 1013 43 10000 1 0 20:18 25.07.2019
4682 Clear 31 1013 33 10000 1 0 19:40 25.07.2019
4683 Clear 31 1013 32 10000 0.5 0 19:22 25.07.2019
4684 Clouds 32 1014 28 10000 1.5 290 18:42 25.07.2019
4685 Haze 33 1014 24 10000 2.1 290 18:23 25.07.2019
4686 Clear 34 1014 23 10000 2.1 250 17:50 25.07.2019
4687 Clear 34 1014 25 10000 3.1 300 17:32 25.07.2019
4688 Clear 35 1015 23 10000 1.5 300 16:57 25.07.2019
4689 Clear 35 1015 23 10000 1.5 300 16:38 25.07.2019
4690 Clear 35 1015 26 10000 3.6 300 16:20 25.07.2019
4691 Clear 35 1015 28 10000 3.1 280 15:44 25.07.2019
4692 Clear 34 1015 30 10000 3.1 280 15:19 25.07.2019
4693 Clear 34 1016 30 10000 2.6 290 14:43 25.07.2019
4694 Clear 34 1016 34 10000 2.6 270 14:23 25.07.2019
4695 Clear 33 1016 32 10000 3.1 300 13:56 25.07.2019
4696 Clear 33 1016 32 10000 3.1 300 13:36 25.07.2019
4697 Clear 32 1016 33 10000 2.6 310 13:18 25.07.2019
4698 Clear 31 1017 37 10000 1.5 300 12:30 25.07.2019
4699 Clear 30 1017 39 10000 1.5 320 11:54 25.07.2019
4700 Clear 29 1017 39 10000 1.5 320 11:36 25.07.2019
4701 Clear 29 1017 39 10000 1 0 11:18 25.07.2019
4702 Clear 28 1017 39 10000 0.5 0 10:42 25.07.2019
4703 Clear 27 1017 44 10000 0.5 0 10:23 25.07.2019
4704 Clear 26 1018 53 10000 0.5 0 09:44 25.07.2019
4705 Clear 25 1018 53 10000 1 0 09:25 25.07.2019
4706 Clear 23 1018 64 10000 1 0 08:44 25.07.2019
4707 Clear 22 1018 72 10000 2.1 100 08:20 25.07.2019
4708 Clear 20 1018 82 10000 1 0 07:36 25.07.2019
4709 Clear 19 1018 87 10000 0.5 0 06:43 25.07.2019
4710 Clear 19 1018 82 10000 1.5 0 05:48 25.07.2019
4711 Clear 19 1018 82 10000 0.5 0 05:30 25.07.2019
4712 Clear 19 1018 77 10000 0.5 0 04:38 25.07.2019
4713 Clouds 22 1018 82 10000 1.76 18.723 01:48 25.07.2019
4714 Clouds 22 1018 77 10000 1 110 01:20 25.07.2019
4715 Clear 24 1018 77 10000 1.5 130 00:20 25.07.2019
4716 Clear 24 1018 73 10000 2.1 100 23:50 24.07.2019
4717 Clear 24 1017 56 10000 0.5 60 23:31 24.07.2019
4718 Mist 25 1017 56 10000 1 0 22:56 24.07.2019
4719 Mist 25 1017 56 10000 1 0 22:38 24.07.2019
4720 Rain 25 1017 69 10000 2 12.831 22:19 24.07.2019
4721 Clear 27 1017 69 10000 1.5 120 21:43 24.07.2019
4722 Clear 29 1017 57 10000 1.93 345.568 21:22 24.07.2019
4723 Clear 30 1017 38 10000 1 0 20:57 24.07.2019
4724 Clear 30 1017 38 10000 1 0 20:38 24.07.2019
4725 Clear 31 1017 29 10000 2.1 20 20:19 24.07.2019
4726 Clear 33 1016 24 10000 2.1 360 19:54 24.07.2019
4727 Clear 32 1016 24 10000 2.1 360 19:36 24.07.2019
4728 Clear 32 1016 24 10000 2.1 360 19:36 24.07.2019
4729 Clear 32 1016 24 10000 2.1 360 19:36 24.07.2019
4730 Clear 33 1016 26 10000 2.1 30 19:18 24.07.2019
4731 Clear 34 1016 25 10000 2.1 60 18:37 24.07.2019
4732 Clear 35 1016 23 10000 1 0 18:19 24.07.2019
4733 Clear 35 1017 26 10000 1.5 340 17:42 24.07.2019
4734 Clear 35 1017 26 10000 3.6 300 17:20 24.07.2019
4735 Clear 35 1017 22 10000 2.6 330 16:41 24.07.2019
4736 Clear 35 1017 23 10000 2.6 330 16:21 24.07.2019
4737 Clear 34 1017 28 10000 2.1 300 15:40 24.07.2019
4738 Clear 34 1018 26 10000 2.6 300 15:21 24.07.2019
4739 Clear 34 1018 28 10000 2.6 300 14:56 24.07.2019
4740 Clear 34 1018 28 10000 2.6 300 14:56 24.07.2019
4741 Clear 34 1018 28 10000 2.6 300 14:38 24.07.2019
4742 Clear 33 1018 34 10000 3.1 300 14:18 24.07.2019
4743 Clear 33 1018 36 10000 3.6 330 13:37 24.07.2019
4744 Clear 32 1018 36 10000 2.6 310 13:18 24.07.2019
4745 Clear 32 1019 40 10000 2.6 0 12:49 24.07.2019
4746 Clear 31 1019 38 10000 3.1 310 12:26 24.07.2019
4747 Clear 30 1019 40 10000 1.5 0 11:39 24.07.2019
4748 Clear 29 1019 45 10000 1 0 11:20 24.07.2019
4749 Clear 28 1019 45 10000 1.5 0 10:44 24.07.2019
4750 Clear 27 1019 51 10000 2.6 120 10:25 24.07.2019
4751 Clear 26 1019 54 10000 2.6 120 09:45 24.07.2019
4752 Clear 25 1019 61 10000 2.6 120 09:25 24.07.2019
4753 Clear 24 1019 69 10000 0.5 0 08:57 24.07.2019
4754 Clear 23 1019 83 10000 1 0 08:30 24.07.2019
4755 Clear 21 1019 88 10000 1.5 0 07:52 24.07.2019
4756 Clear 20 1019 93 10000 1 0 07:24 24.07.2019
4757 Clouds 19 1019 93 5000 0.5 0 06:31 24.07.2019
4758 Clouds 19 1019 93 6000 0.5 0 05:54 24.07.2019
4759 Clear 20 1019 93 10000 0.5 0 02:52 24.07.2019
4760 Clear 21 1019 88 10000 0.96 15.591 01:30 24.07.2019
4761 Clear 22 1019 82 10000 0.5 0 00:57 24.07.2019
4762 Clear 22 1019 82 10000 1.5 0 00:23 24.07.2019
4763 Clear 23 1019 77 10000 2.1 150 23:43 23.07.2019
4764 Clear 24 1019 73 10000 1.5 90 23:25 23.07.2019
4765 Clear 23 1018 78 10000 0.5 0 22:41 23.07.2019
4766 Mist 25 1018 69 10000 0.5 0 22:20 23.07.2019
4767 Clear 26 1018 54 10000 1.37 11.738 21:59 23.07.2019
4768 Clear 26 1018 54 10000 1.37 11.738 21:41 23.07.2019
4769 Clear 27 1018 54 10000 1 0 21:23 23.07.2019
4770 Clear 29 1018 40 10000 1 0 20:47 23.07.2019
4771 Clear 30 1018 40 10000 1 210 20:25 23.07.2019
4772 Clear 31 1018 31 10000 1 0 19:43 23.07.2019
4773 Clear 32 1018 33 10000 1.5 0 19:23 23.07.2019
4774 Clear 32 1018 30 10000 1.5 0 18:52 23.07.2019
4775 Clear 32 1019 32 10000 1.5 0 18:25 23.07.2019
4776 Clear 33 1019 34 10000 1.5 0 17:56 23.07.2019
4777 Clear 33 1019 34 10000 1.5 0 17:38 23.07.2019
4778 Clear 33 1019 34 10000 1.5 0 17:19 23.07.2019
4779 Clear 32 1019 33 10000 2.1 0 16:41 23.07.2019
4780 Clear 32 1020 36 10000 2.1 250 16:21 23.07.2019
4781 Clear 32 1020 36 10000 2.6 280 15:46 23.07.2019
4782 Clear 32 1020 38 10000 3.6 290 15:24 23.07.2019
4783 Clear 31 1020 38 10000 3.1 260 14:40 23.07.2019
4784 Clear 31 1020 38 10000 2.6 280 14:22 23.07.2019
4785 Clear 31 1021 43 10000 2.6 280 13:59 23.07.2019
4786 Clear 30 1021 43 10000 2.6 280 13:40 23.07.2019
4787 Clear 30 1021 42 10000 2.1 0 13:21 23.07.2019
4788 Clear 29 1021 45 10000 2.1 290 12:48 23.07.2019
4789 Clear 28 1021 48 10000 1.5 0 12:26 23.07.2019
4790 Clear 28 1021 48 10000 1 0 11:51 23.07.2019
4791 Clear 27 1022 54 10000 1.5 0 11:32 23.07.2019
4792 Clear 26 1022 57 10000 1.09 139.615 10:59 23.07.2019
4793 Clear 26 1022 57 10000 1.09 139.615 10:41 23.07.2019
4794 Clear 25 1022 61 10000 0.5 0 10:20 23.07.2019
4795 Clear 24 1022 64 10000 0.5 0 09:41 23.07.2019
4796 Clear 23 1022 69 10000 1 0 09:19 23.07.2019
4797 Clear 21 1022 77 10000 1 0 08:43 23.07.2019
4798 Clear 20 1022 82 10000 0.5 70 08:19 23.07.2019
4799 Clear 19 1023 93 10000 0.5 0 07:55 23.07.2019
4800 Clear 19 1023 93 10000 0.5 0 07:36 23.07.2019
4801 Clear 17 1022 100 10000 1 60 06:46 23.07.2019
4802 Clear 17 1023 93 10000 0.5 80 06:28 23.07.2019
4803 Clear 18 1023 93 10000 0.5 0 03:27 23.07.2019
4804 Clear 19 1023 88 10000 0.5 0 01:33 23.07.2019
4805 Clear 20 1023 82 10000 1.94 34.175 00:31 23.07.2019
4806 Clear 21 1023 77 10000 2.11 24.363 23:56 22.07.2019
4807 Clear 22 1023 77 10000 2.11 24.363 23:36 22.07.2019
4808 Clear 22 1023 77 10000 0.5 0 23:18 22.07.2019
4809 Clear 22 1023 64 10000 0.5 0 22:42 22.07.2019
4810 Clear 23 1023 64 10000 1 0 22:20 22.07.2019
4811 Clear 24 1023 50 10000 1.5 70 21:43 22.07.2019
4812 Clear 26 1022 45 10000 3.1 60 21:23 22.07.2019
4813 Clear 27 1022 45 10000 3.1 50 20:49 22.07.2019
4814 Clear 27 1022 45 10000 2.6 20 20:31 22.07.2019
4815 Clear 28 1022 40 10000 2.1 0 19:57 22.07.2019
4816 Clear 28 1022 40 10000 2.1 0 19:37 22.07.2019
4817 Clear 28 1022 42 10000 2.1 10 19:18 22.07.2019
4818 Clear 29 1022 40 10000 1.5 0 18:46 22.07.2019
4819 Clear 29 1022 35 10000 2.1 20 18:27 22.07.2019
4820 Clouds 30 1023 35 10000 1.5 0 17:44 22.07.2019
4821 Clouds 30 1023 35 10000 2.1 0 17:26 22.07.2019
4822 Clear 30 1023 35 10000 2.1 0 16:59 22.07.2019
4823 Clear 30 1023 35 10000 2.1 0 16:38 22.07.2019
4824 Clear 30 1023 35 10000 2.1 0 16:38 22.07.2019
4825 Clear 30 1023 35 10000 2.6 0 16:20 22.07.2019
4826 Clear 30 1023 40 10000 1.5 0 15:44 22.07.2019
4827 Clear 30 1024 38 10000 4.1 320 15:19 22.07.2019
4828 Clear 30 1024 38 10000 2.6 350 14:44 22.07.2019
4829 Clear 29 1024 40 10000 3.1 350 14:22 22.07.2019
4830 Clear 29 1024 42 10000 2.1 340 13:50 22.07.2019
4831 Clear 29 1025 42 10000 2.1 310 13:30 22.07.2019
4832 Clear 28 1025 42 10000 3.1 290 12:51 22.07.2019
4833 Clear 28 1025 48 10000 2.1 300 12:31 22.07.2019
4834 Clear 27 1025 51 10000 0.5 0 11:56 22.07.2019
4835 Clear 26 1025 51 10000 0.5 0 11:36 22.07.2019
4836 Clear 26 1025 51 10000 0.5 0 11:36 22.07.2019
4837 Clear 26 1025 54 10000 1 0 11:18 22.07.2019
4838 Clear 25 1025 61 10000 2.1 100 10:37 22.07.2019
4839 Clear 24 1025 61 10000 2.1 100 10:18 22.07.2019
4840 Clear 23 1025 64 10000 2.6 120 09:39 22.07.2019
4841 Clear 21 1025 73 10000 2.6 100 09:20 22.07.2019
4842 Clear 21 1025 77 10000 1.5 120 08:38 22.07.2019
4843 Clear 20 1025 88 10000 1.21 80.264 08:20 22.07.2019
4844 Clear 19 1025 93 10000 1.5 0 07:52 22.07.2019
4845 Clear 18 1025 100 10000 0.5 0 07:27 22.07.2019
4846 Clear 17 1024 93 10000 0.5 0 05:30 22.07.2019
4847 Clear 18 1024 93 10000 1 0 03:44 22.07.2019
4848 Clear 19 1024 93 10000 0.5 0 01:25 22.07.2019
4849 Clear 19 1024 88 10000 1.71 27.254 00:42 22.07.2019
4850 Clear 20 1024 82 10000 0.5 0 00:20 22.07.2019
4851 Clear 20 1024 88 10000 0.5 0 23:46 21.07.2019
4852 Clouds 21 1023 82 10000 1 0 22:58 21.07.2019
4853 Clouds 21 1023 82 10000 1 0 22:39 21.07.2019
4854 Clouds 22 1023 64 10000 1.9 11.813 22:20 21.07.2019
4855 Clouds 23 1023 64 10000 1.9 11.813 21:49 21.07.2019
4856 Clear 25 1022 47 10000 2.38 14.885 21:26 21.07.2019
4857 Clear 26 1022 47 10000 2.1 350 20:59 21.07.2019
4858 Clear 26 1022 47 10000 2.1 350 20:41 21.07.2019
4859 Clouds 27 1022 48 10000 2.1 10 20:22 21.07.2019
4860 Clear 27 1022 39 10000 2.1 320 19:49 21.07.2019
4861 Clouds 27 1022 42 10000 2.6 320 19:29 21.07.2019
4862 Clear 27 1022 39 10000 3.1 300 18:53 21.07.2019
4863 Clouds 28 1022 40 10000 2.6 330 18:34 21.07.2019
4864 Clouds 28 1022 40 10000 3.6 290 17:56 21.07.2019
4865 Clouds 28 1022 40 10000 3.6 290 17:38 21.07.2019
4866 Clouds 28 1022 40 10000 3.6 320 17:18 21.07.2019
4867 Clouds 28 1022 37 10000 4.1 290 16:41 21.07.2019
4868 Clouds 28 1022 39 10000 2.6 320 16:22 21.07.2019
4869 Clouds 28 1022 45 10000 4.1 280 15:41 21.07.2019
4870 Clouds 27 1022 45 10000 2.6 0 15:21 21.07.2019
4871 Clouds 27 1023 45 10000 4.1 310 14:51 21.07.2019
4872 Clouds 27 1023 48 10000 4.1 290 14:25 21.07.2019
4873 Clouds 27 1023 54 10000 3.1 310 13:53 21.07.2019
4874 Clouds 27 1023 54 10000 3.1 310 13:34 21.07.2019
4875 Clouds 26 1023 61 10000 2.1 0 12:58 21.07.2019
4876 Clouds 25 1023 61 10000 2.1 0 12:39 21.07.2019
4877 Clouds 24 1023 65 10000 1 0 12:20 21.07.2019
4878 Clouds 24 1023 69 10000 1.5 0 11:45 21.07.2019
4879 Clouds 23 1023 73 10000 1.5 70 11:26 21.07.2019
4880 Rain 22 1023 83 10000 3.1 100 10:43 21.07.2019
4881 Clouds 21 1023 88 10000 3.1 110 10:24 21.07.2019
4882 Rain 20 1023 88 10000 4.1 140 09:54 21.07.2019
4883 Rain 20 1023 88 10000 4.1 140 09:34 21.07.2019
4884 Rain 19 1023 88 10000 3.6 120 08:49 21.07.2019
4885 Rain 19 1022 93 10000 1.5 150 08:28 21.07.2019
4886 Rain 19 1022 93 10000 2.1 100 07:53 21.07.2019
4887 Rain 19 1022 88 10000 2.6 280 07:18 21.07.2019
4888 Thunderstorm 19 1021 56 10000 3.6 300 05:56 21.07.2019
4889 Clouds 20 1020 68 10000 2.1 290 02:59 21.07.2019
4890 Clouds 21 1019 72 10000 0.5 0 01:51 21.07.2019
4891 Clouds 21 1019 72 10000 1 70 00:44 21.07.2019
4892 Rain 22 1019 64 10000 1.5 200 00:20 21.07.2019
4893 Clouds 22 1018 60 10000 3.1 100 23:44 20.07.2019
4894 Clouds 22 1018 56 10000 1.5 150 23:23 20.07.2019
4895 Clear 23 1018 36 10000 2.1 270 22:49 20.07.2019
4896 Rain 23 1018 44 9000 1.5 230 22:23 20.07.2019
4897 Clouds 23 1017 50 10000 1.5 250 21:58 20.07.2019
4898 Clouds 24 1017 50 10000 1.5 250 21:39 20.07.2019
4899 Clear 25 1017 36 10000 0.5 0 21:21 20.07.2019
4900 Clear 26 1017 37 10000 2.6 280 20:42 20.07.2019
4901 Clear 26 1017 37 10000 2.6 280 20:42 20.07.2019
4902 Clear 27 1017 37 10000 2.1 260 20:21 20.07.2019
4903 Clear 27 1017 32 10000 2.6 260 19:46 20.07.2019
4904 Clear 28 1016 33 10000 2.6 260 19:23 20.07.2019
4905 Clouds 28 1016 30 10000 3.1 220 18:44 20.07.2019
4906 Clouds 29 1016 28 10000 4.6 270 18:22 20.07.2019
4907 Clouds 29 1017 28 10000 5.7 260 17:55 20.07.2019
4908 Clouds 29 1017 30 10000 4.6 250 17:26 20.07.2019
4909 Clouds 29 1017 30 10000 5.1 260 16:45 20.07.2019
4910 Clouds 29 1017 28 10000 7.2 260 16:27 20.07.2019
4911 Clear 29 1017 27 10000 6.7 280 15:58 20.07.2019
4912 Clear 29 1017 27 10000 6.7 280 15:58 20.07.2019
4913 Clear 29 1017 27 10000 6.7 280 15:40 20.07.2019
4914 Clear 29 1017 28 10000 7.2 270 15:20 20.07.2019
4915 Clear 29 1017 27 10000 6.7 270 14:48 20.07.2019
4916 Clear 29 1017 27 10000 6.7 260 14:29 20.07.2019
4917 Clear 29 1017 32 10000 7.7 260 13:56 20.07.2019
4918 Clear 29 1017 32 10000 7.7 260 13:37 20.07.2019
4919 Clear 28 1017 47 10000 2.6 320 13:18 20.07.2019
4920 Clear 27 1017 44 10000 3.1 300 12:40 20.07.2019
4921 Clear 26 1017 44 10000 3.1 310 12:18 20.07.2019
4922 Clear 25 1017 50 10000 2.1 360 11:41 20.07.2019
4923 Clear 25 1017 53 10000 1 320 11:20 20.07.2019
4924 Clear 24 1017 57 10000 1 110 10:37 20.07.2019
4925 Clear 23 1017 56 10000 0.5 0 10:19 20.07.2019
4926 Clear 22 1017 56 10000 0.5 0 09:46 20.07.2019
4927 Clear 21 1017 64 10000 0.8 187.968 09:24 20.07.2019
4928 Clear 20 1017 68 10000 0.89 187.34 08:49 20.07.2019
4929 Clouds 19 1017 77 10000 1.5 110 08:22 20.07.2019
4930 Clear 18 1017 87 10000 1.5 120 07:34 20.07.2019
4931 Clear 16 1016 93 10000 1.5 140 06:43 20.07.2019
4932 Clear 15 1016 100 10000 0.5 0 05:21 20.07.2019
4933 Clear 16 1016 93 10000 0.5 0 04:30 20.07.2019
4934 Clear 18 1016 82 10000 1 60 01:23 20.07.2019
4935 Clear 18 1016 88 10000 0.5 80 00:50 20.07.2019
4936 Clear 19 1016 82 10000 1 60 00:28 20.07.2019
4937 Clear 19 1016 82 10000 1 0 23:56 19.07.2019
4938 Clear 19 1016 82 10000 1 0 23:37 19.07.2019
4939 Clear 19 1016 77 10000 1 0 23:18 19.07.2019
4940 Rain 20 1016 77 10000 1.5 0 22:40 19.07.2019
4941 Clear 20 1016 77 10000 1.89 14.47 22:20 19.07.2019
4942 Clear 22 1015 68 10000 1.5 260 21:43 19.07.2019
4943 Clear 24 1015 57 10000 1.34 314.727 21:24 19.07.2019
4944 Clear 26 1015 44 10000 1.34 314.727 20:44 19.07.2019
4945 Clear 26 1015 34 10000 1.5 0 20:25 19.07.2019
4946 Clear 27 1015 34 10000 1.5 330 19:40 19.07.2019
4947 Clear 27 1015 34 10000 2.6 310 19:19 19.07.2019
4948 Clear 27 1015 32 10000 2.1 310 18:41 19.07.2019
4949 Clear 28 1015 32 10000 2.1 360 18:19 19.07.2019
4950 Clear 28 1015 32 10000 2.1 360 18:19 19.07.2019
4951 Clear 28 1016 30 10000 2.6 0 17:46 19.07.2019
4952 Clouds 28 1016 37 10000 3.6 330 17:25 19.07.2019
4953 Clouds 28 1016 34 10000 3.1 320 16:48 19.07.2019
4954 Clouds 28 1016 37 10000 3.6 320 16:25 19.07.2019
4955 Clouds 27 1016 36 10000 2.6 300 15:49 19.07.2019
4956 Clouds 27 1017 37 10000 2.6 310 15:30 19.07.2019
4957 Clear 27 1017 41 10000 3.1 320 14:56 19.07.2019
4958 Clear 27 1017 41 10000 3.1 320 14:38 19.07.2019
4959 Clear 26 1017 44 10000 1.5 0 14:19 19.07.2019
4960 Clear 26 1017 44 10000 2.6 0 13:43 19.07.2019
4961 Clear 26 1017 44 10000 2.6 0 13:43 19.07.2019
4962 Clear 26 1017 47 10000 2.1 0 13:23 19.07.2019
4963 Clear 25 1017 47 10000 3.6 300 12:49 19.07.2019
4964 Clear 25 1017 50 10000 2.6 330 12:30 19.07.2019
4965 Clear 24 1018 50 10000 3.1 310 11:48 19.07.2019
4966 Clear 23 1018 53 10000 1 0 11:20 19.07.2019
4967 Clear 23 1018 56 10000 0.5 0 10:58 19.07.2019
4968 Clear 23 1018 56 10000 0.5 0 10:40 19.07.2019
4969 Clear 22 1018 52 10000 1 0 10:20 19.07.2019
4970 Clear 21 1018 60 10000 1 0 09:44 19.07.2019
4971 Clear 20 1018 64 10000 0.5 0 09:22 19.07.2019
4972 Clear 20 1018 64 10000 0.5 0 09:22 19.07.2019
4973 Clear 20 1018 64 10000 0.5 0 09:22 19.07.2019
4974 Clear 19 1018 72 10000 0.5 0 08:56 19.07.2019
4975 Clear 19 1018 72 10000 0.5 0 08:56 19.07.2019
4976 Clear 19 1018 72 10000 0.5 0 08:38 19.07.2019
4977 Clear 17 1017 93 10000 1 150 07:42 19.07.2019
4978 Clear 17 1017 93 10000 0.5 0 07:23 19.07.2019
4979 Rain 16 1017 93 10000 1 0 05:39 19.07.2019
4980 Clear 17 1017 93 10000 0.5 0 01:56 19.07.2019
4981 Clouds 17 1016 87 10000 0.5 0 00:59 19.07.2019
4982 Clouds 19 1016 87 10000 0.5 0 00:25 19.07.2019
4983 Rain 20 1016 82 10000 1 150 23:42 18.07.2019
4984 Clouds 20 1016 82 10000 1.5 70 23:23 18.07.2019
4985 Clouds 20 1016 77 10000 1 0 22:57 18.07.2019
4986 Clouds 20 1016 77 10000 1 0 22:39 18.07.2019
4987 Clouds 21 1015 72 10000 1 340 22:18 18.07.2019
4988 Clouds 21 1015 77 10000 0.5 0 21:39 18.07.2019
4989 Clouds 22 1015 68 10000 0.5 0 21:20 18.07.2019
4990 Clouds 23 1014 56 10000 1.5 260 20:48 18.07.2019
4991 Clouds 24 1014 41 10000 0.5 0 20:27 18.07.2019
4992 Clouds 24 1014 41 10000 2.1 300 19:51 18.07.2019
4993 Clouds 24 1014 36 10000 2.1 300 19:28 18.07.2019
4994 Clouds 25 1014 32 10000 3.6 300 18:52 18.07.2019
4995 Clouds 26 1014 36 10000 4.1 310 18:23 18.07.2019
4996 Clouds 26 1014 30 10000 3.1 300 17:57 18.07.2019
4997 Clouds 26 1014 30 10000 3.1 300 17:38 18.07.2019
4998 Clouds 26 1014 32 10000 4.6 310 17:19 18.07.2019
4999 Clouds 27 1014 32 10000 1 0 16:53 18.07.2019
5000 Clouds 27 1014 34 10000 2.1 310 16:26 18.07.2019
5001 Clouds 27 1014 30 10000 2.1 300 15:58 18.07.2019
5002 Clouds 27 1014 28 10000 2.1 0 15:36 18.07.2019
5003 Clouds 26 1014 28 10000 3.1 270 14:56 18.07.2019
5004 Clouds 26 1014 28 10000 3.1 270 14:38 18.07.2019
5005 Clouds 26 1014 32 10000 2.1 0 14:19 18.07.2019
5006 Clouds 26 1015 31 10000 1.5 170 13:43 18.07.2019
5007 Clouds 26 1015 31 10000 1.5 170 13:21 18.07.2019
5008 Clear 26 1015 36 10000 2.1 0 12:46 18.07.2019
5009 Clouds 25 1015 36 10000 1 0 12:21 18.07.2019
5010 Clouds 24 1015 36 10000 1 0 12:21 18.07.2019
5011 Clouds 24 1015 44 10000 1 0 11:52 18.07.2019
5012 Clear 24 1015 46 10000 1.5 110 11:33 18.07.2019
5013 Clear 22 1015 53 10000 2.1 100 10:53 18.07.2019
5014 Clear 22 1015 53 10000 2.1 100 10:35 18.07.2019
5015 Clear 20 1015 63 10000 3.1 110 09:47 18.07.2019
5016 Clear 19 1015 63 10000 3.1 110 09:24 18.07.2019
5017 Clouds 18 1015 72 10000 2.1 130 08:49 18.07.2019
5018 Clouds 17 1015 87 10000 1.5 0 08:20 18.07.2019
5019 Clear 15 1014 93 10000 0.57 230.591 07:43 18.07.2019
5020 Clouds 15 1015 93 10000 1.5 130 07:24 18.07.2019
5021 Clear 15 1014 87 10000 0.5 0 06:37 18.07.2019
5022 Clear 15 1014 87 10000 0.5 0 05:35 18.07.2019
5023 Clear 15 1014 87 10000 1 300 03:23 18.07.2019
5024 Clear 16 1014 67 10000 1 0 01:52 18.07.2019
5025 Clouds 17 1014 82 10000 1.5 140 00:36 18.07.2019
5026 Clear 18 1014 82 10000 0.5 0 23:49 17.07.2019
5027 Clear 18 1014 77 10000 0.5 0 23:20 17.07.2019
5028 Clouds 19 1014 72 10000 1 80 22:56 17.07.2019
5029 Clouds 19 1014 72 10000 1 80 22:38 17.07.2019
5030 Haze 19 1013 63 3000 1 0 22:19 17.07.2019
5031 Clouds 21 1013 38 10000 1.5 310 21:43 17.07.2019
5032 Clouds 23 1013 40 10000 2.6 340 21:25 17.07.2019
5033 Clouds 23 1013 38 10000 1 0 20:58 17.07.2019
5034 Clouds 24 1013 38 10000 1 0 20:39 17.07.2019
5035 Clouds 25 1013 32 10000 2.6 300 20:20 17.07.2019
5036 Clear 25 1013 28 10000 3.1 260 19:44 17.07.2019
5037 Clear 25 1013 28 10000 3.1 260 19:44 17.07.2019
5038 Clear 25 1013 30 10000 3.1 280 19:23 17.07.2019
5039 Clear 25 1013 26 10000 4.1 300 18:59 17.07.2019
5040 Clear 26 1013 28 10000 3.1 260 18:40 17.07.2019
5041 Clear 27 1013 28 10000 3.1 260 18:20 17.07.2019
5042 Clouds 27 1013 30 10000 4.1 280 17:50 17.07.2019
5043 Clouds 27 1013 30 10000 4.1 280 17:26 17.07.2019
5044 Clear 27 1013 32 10000 3.1 320 16:55 17.07.2019
5045 Clear 27 1014 32 10000 3.6 310 16:37 17.07.2019
5046 Clear 26 1014 32 10000 3.6 330 16:18 17.07.2019
5047 Clear 26 1014 34 10000 3.6 320 15:44 17.07.2019
5048 Clear 26 1014 34 10000 3.6 320 15:25 17.07.2019
5049 Clear 26 1014 34 10000 3.6 330 14:54 17.07.2019
5050 Clear 26 1015 36 10000 3.6 280 14:36 17.07.2019
5051 Clear 26 1015 36 10000 3.6 280 14:18 17.07.2019
5052 Clear 26 1015 39 10000 3.6 300 13:40 17.07.2019
5053 -273 0 0 0 0 0 13:20 17.07.2019
5054 Clear 25 1015 50 10000 1 0 12:40 17.07.2019
5055 Clear 24 1015 50 10000 1 0 12:20 17.07.2019
5056 Clear 23 1015 56 10000 1.5 0 11:45 17.07.2019
5057 Clear 23 1015 56 10000 1.5 0 11:21 17.07.2019
5058 Clear 22 1015 60 10000 1.5 0 10:50 17.07.2019
5059 Clear 21 1015 60 10000 1.5 0 10:29 17.07.2019
5060 Clear 20 1016 64 10000 1.5 0 09:58 17.07.2019
5061 Clear 19 1016 72 10000 1.4 206.418 09:39 17.07.2019
5062 Clear 19 1016 72 10000 0.31 156.075 09:20 17.07.2019
5063 Clear 17 1016 82 10000 1 320 08:41 17.07.2019
5064 Clear 16 1016 82 10000 1 320 08:21 17.07.2019
5065 Clear 15 1016 93 10000 0.35 173.75 07:48 17.07.2019
5066 Clear 14 1016 93 10000 1 0 07:23 17.07.2019
5067 Clear 14 1016 93 10000 1 0 07:23 17.07.2019
5068 Clear 14 1016 93 10000 1 0 07:23 17.07.2019
5069 Clouds 13 1016 93 10000 0.5 100 06:49 17.07.2019
5070 Clouds 13 1016 93 10000 0.5 100 06:29 17.07.2019
5071 Clear 13 1016 93 10000 0.5 0 05:47 17.07.2019
5072 Clear 13 1016 93 10000 0.5 0 05:25 17.07.2019
5073 Clear 13 1016 93 10000 0.5 0 04:32 17.07.2019
5074 Clear 15 1017 93 10000 1 5.642 02:52 17.07.2019
5075 Clear 15 1016 87 10000 0.5 0 01:59 17.07.2019
5076 Clear 16 1017 93 10000 0.5 0 01:24 17.07.2019
5077 Clear 16 1017 93 10000 1 110 00:47 17.07.2019
5078 Clear 17 1016 87 10000 1 0 00:24 17.07.2019
5079 Clear 17 1016 82 10000 0.5 0 23:57 16.07.2019
5080 Clear 18 1016 77 10000 0.5 0 23:30 16.07.2019
5081 Clear 18 1016 67 10000 1 0 22:58 16.07.2019
5082 Haze 18 1016 77 10000 0.5 0 22:40 16.07.2019
5083 Haze 18 1016 77 10000 0.5 0 22:20 16.07.2019
5084 Clear 21 1016 46 10000 1 0 21:45 16.07.2019
5085 Clear 22 1016 46 10000 1 0 21:21 16.07.2019
5086 Clear 23 1016 41 10000 2.1 240 20:58 16.07.2019
5087 Clear 23 1015 31 10000 1.5 0 20:38 16.07.2019
5088 Clear 24 1015 31 10000 1.5 0 20:20 16.07.2019
5089 Clear 24 1015 26 10000 1.5 0 19:47 16.07.2019
5090 Clear 25 1015 26 10000 1.5 0 19:27 16.07.2019
5091 Clear 25 1015 28 10000 2.1 300 18:47 16.07.2019
5092 Clear 26 1015 28 10000 2.1 300 18:21 16.07.2019
5093 Clear 26 1016 30 10000 3.1 280 17:58 16.07.2019
5094 Clear 26 1016 36 10000 2.1 330 17:40 16.07.2019
5095 Clear 26 1016 36 10000 2.1 330 17:20 16.07.2019
5096 Clouds 26 1016 39 10000 2.6 290 16:43 16.07.2019
5097 Clouds 26 1016 39 10000 2.6 290 16:21 16.07.2019
5098 Clouds 25 1016 36 10000 1.5 0 15:42 16.07.2019
5099 Clouds 25 1016 36 10000 1.5 0 15:21 16.07.2019
5100 Clouds 25 1017 44 10000 2.1 0 14:59 16.07.2019
5101 Clouds 24 1017 50 10000 1.5 0 14:41 16.07.2019
5102 Clouds 24 1017 50 10000 1.5 0 14:23 16.07.2019
5103 Clouds 24 1017 56 10000 1 0 13:45 16.07.2019
5104 Clouds 23 1017 56 10000 1 0 13:26 16.07.2019
5105 Clouds 23 1017 56 10000 1.5 0 12:55 16.07.2019
5106 Clouds 21 1017 64 10000 1 0 12:37 16.07.2019
5107 Clouds 21 1017 64 10000 1 0 12:19 16.07.2019
5108 Clouds 21 1018 64 10000 1 0 11:43 16.07.2019
5109 Clouds 20 1018 64 10000 1 0 11:23 16.07.2019
5110 Clear 19 1018 64 10000 1.5 0 10:56 16.07.2019
5111 Clear 19 1018 72 10000 1 0 10:37 16.07.2019
5112 Clear 18 1018 72 10000 1 0 10:18 16.07.2019
5113 Clear 18 1018 72 10000 1 0 10:18 16.07.2019
5114 Clear 17 1018 82 10000 2.6 140 09:42 16.07.2019
5115 Clear 16 1018 82 10000 2.6 140 09:19 16.07.2019
5116 Clouds 15 1018 93 10000 2.1 140 08:43 16.07.2019
5117 Clouds 15 1018 93 10000 2.1 140 08:22 16.07.2019
5118 Clouds 15 1018 93 10000 2.1 140 08:22 16.07.2019
5119 Clouds 14 1018 93 10000 0.5 0 07:49 16.07.2019
5120 Clouds 13 1018 100 10000 0.5 0 07:30 16.07.2019
5121 Fog 13 1018 100 10000 2.1 140 06:53 16.07.2019
5122 Fog 12 1018 100 10000 2.1 140 06:31 16.07.2019
5123 Clear 12 1018 93 5000 1.5 150 05:42 16.07.2019
5124 Clear 12 1018 93 5000 1.5 150 05:24 16.07.2019
5125 Clear 13 1018 100 5000 0.5 0 04:23 16.07.2019
5126 Clear 13 1018 100 8000 2.1 90 03:28 16.07.2019
5127 Clear 14 1018 100 7000 1 0 02:36 16.07.2019
5128 Clear 14 1018 93 8000 1.5 150 01:49 16.07.2019
5129 Mist 15 1018 93 10000 2.1 120 00:53 16.07.2019
5130 Clouds 15 1017 87 10000 2.1 90 00:22 16.07.2019
5131 Drizzle 16 1018 87 10000 2.1 90 23:54 15.07.2019
5132 Clouds 16 1017 87 10000 2.6 100 23:36 15.07.2019
5133 Clouds 16 1017 87 10000 2.6 80 22:56 15.07.2019
5134 Rain 16 1017 82 10000 3.1 110 22:37 15.07.2019
5135 Rain 16 1017 82 10000 3.1 110 22:19 15.07.2019
5136 Rain 17 1016 72 10000 1.5 0 21:42 15.07.2019
5137 Rain 18 1016 72 10000 1.5 0 21:21 15.07.2019
5138 Clouds 19 1016 68 10000 2.1 160 20:58 15.07.2019
5139 Clouds 19 1016 64 10000 3.1 160 20:39 15.07.2019
5140 Clouds 19 1016 68 10000 3.1 170 20:21 15.07.2019
5141 Clouds 19 1016 68 10000 3.1 170 19:55 15.07.2019
5142 Clouds 19 1016 64 10000 1.5 160 19:37 15.07.2019
5143 Clouds 19 1016 64 10000 1.5 160 19:18 15.07.2019
5144 Clouds 19 1016 56 10000 3.1 140 18:42 15.07.2019
5145 Clouds 20 1016 56 10000 3.1 140 18:19 15.07.2019
5146 Clouds 20 1016 64 10000 1.5 0 17:55 15.07.2019
5147 Clouds 20 1016 68 10000 0.5 0 17:37 15.07.2019
5148 Clouds 20 1016 68 10000 0.5 0 17:19 15.07.2019
5149 Clouds 20 1016 72 10000 2.1 80 16:39 15.07.2019
5150 Clouds 20 1016 72 10000 2.1 80 16:21 15.07.2019
5151 Clouds 20 1016 68 10000 1.5 50 15:57 15.07.2019
5152 Clouds 20 1015 72 10000 2.6 50 15:37 15.07.2019
5153 Clouds 19 1015 72 10000 3.1 10 15:19 15.07.2019
5154 Clouds 19 1015 72 10000 2.1 0 14:45 15.07.2019
5155 Clouds 19 1015 72 10000 2.1 0 14:25 15.07.2019
5156 Clouds 19 1015 77 10000 3.1 10 13:55 15.07.2019
5157 Clouds 18 1015 72 10000 2.6 350 13:36 15.07.2019
5158 Clouds 17 1015 77 10000 2.1 0 13:18 15.07.2019
5159 Clouds 16 1015 77 10000 2.6 50 12:41 15.07.2019
5160 Clouds 16 1015 77 10000 2.6 50 12:21 15.07.2019
5161 Clouds 15 1015 82 10000 1.5 70 11:43 15.07.2019
5162 Clouds 15 1015 82 10000 1.5 70 11:25 15.07.2019
5163 Clouds 15 1015 82 10000 1.5 70 10:47 15.07.2019
5164 Clouds 15 1015 82 10000 1.5 70 10:28 15.07.2019
5165 Rain 14 1015 87 10000 1.5 0 09:48 15.07.2019
5166 Rain 14 1015 87 10000 1.5 0 09:28 15.07.2019
5167 Rain 13 1014 82 10000 1 0 08:59 15.07.2019
5168 Rain 13 1014 87 10000 1 0 08:41 15.07.2019
5169 Rain 13 1014 87 10000 1 0 08:23 15.07.2019
5170 Rain 13 1014 87 10000 1.5 300 07:39 15.07.2019
5171 Rain 13 1014 87 7000 1 30 07:19 15.07.2019
5172 Rain 13 1014 87 10000 1.5 0 06:39 15.07.2019
5173 Rain 13 1014 93 10000 1 0 05:44 15.07.2019
5174 Rain 13 1014 93 10000 1 0 05:26 15.07.2019
5175 Rain 13 1014 93 10000 0.5 0 04:41 15.07.2019
5176 Rain 13 1014 100 9000 0.5 0 03:48 15.07.2019
5177 Rain 13 1015 93 8000 1.5 260 02:44 15.07.2019
5178 Rain 14 1015 87 7000 1 0 01:43 15.07.2019
5179 Rain 14 1015 87 7000 1 0 01:24 15.07.2019
5180 Rain 14 1016 100 10000 1 360 00:51 15.07.2019
5181 Rain 14 1016 93 10000 2.6 70 00:19 15.07.2019
5182 Rain 14 1016 87 10000 2.1 100 23:55 14.07.2019
5183 Rain 14 1016 93 5000 0.5 0 23:36 14.07.2019
5184 Rain 14 1016 87 6000 2.6 330 23:18 14.07.2019
5185 Rain 15 1015 77 10000 2.6 340 22:40 14.07.2019
5186 Rain 15 1015 77 10000 2.6 340 22:40 14.07.2019
5187 Rain 15 1015 77 10000 2.6 340 22:22 14.07.2019
5188 Rain 15 1015 67 10000 2.6 350 21:59 14.07.2019
5189 Rain 15 1015 63 10000 2.6 340 21:40 14.07.2019
5190 Rain 16 1015 63 10000 2.6 340 21:18 14.07.2019
5191 Rain 16 1014 63 10000 3.6 330 20:54 14.07.2019
5192 Thunderstorm 17 1014 59 10000 5.7 330 20:36 14.07.2019
5193 Thunderstorm 17 1014 59 10000 5.7 330 20:18 14.07.2019
5194 Rain 18 1013 63 10000 9.8 340 19:42 14.07.2019
5195 Rain 18 1013 56 10000 6.2 340 19:24 14.07.2019
5196 Rain 19 1013 56 10000 6.2 340 18:56 14.07.2019
5197 Rain 20 1012 49 10000 4.1 360 18:37 14.07.2019
5198 Rain 22 1012 38 10000 2.6 60 18:18 14.07.2019
5199 Clouds 22 1012 36 10000 2.1 40 17:42 14.07.2019
5200 Clouds 22 1012 36 10000 2.1 40 17:19 14.07.2019
5201 Clouds 23 1013 41 10000 2.6 10 16:46 14.07.2019
5202 Clouds 23 1013 41 10000 2.6 10 16:24 14.07.2019
5203 Clouds 23 1013 41 10000 3.1 20 15:50 14.07.2019
5204 Clouds 23 1013 43 10000 2.6 350 15:27 14.07.2019
5205 Clouds 23 1014 43 10000 3.1 20 14:48 14.07.2019
5206 Clouds 23 1014 44 10000 2.6 20 14:21 14.07.2019
5207 Clouds 23 1014 44 10000 2.6 20 13:49 14.07.2019
5208 Clouds 23 1014 44 10000 2.6 20 13:25 14.07.2019
5209 Clouds 22 1014 43 10000 4.1 330 12:58 14.07.2019
5210 Clouds 22 1015 46 10000 3.1 70 12:40 14.07.2019
5211 Clouds 21 1015 46 10000 3.1 70 12:19 14.07.2019
5212 Clouds 20 1015 46 10000 3.1 70 11:51 14.07.2019
5213 Clouds 20 1015 52 10000 4.6 330 11:22 14.07.2019
5214 Clouds 20 1015 56 10000 2.1 260 10:49 14.07.2019
5215 Clear 19 1015 59 10000 1 0 10:23 14.07.2019
5216 Clear 18 1015 63 10000 1.5 130 09:51 14.07.2019
5217 Clear 17 1015 67 10000 1 0 09:30 14.07.2019
5218 Clear 16 1016 72 10000 1 0 08:57 14.07.2019
5219 Clear 15 1016 82 10000 1.5 130 08:39 14.07.2019
5220 Clear 14 1016 93 10000 1 100 07:47 14.07.2019
5221 Clear 13 1016 93 10000 1 100 07:22 14.07.2019
5222 Clear 12 1016 93 10000 0.5 80 05:47 14.07.2019
5223 Clear 12 1016 93 10000 0.5 80 05:25 14.07.2019
5224 Clear 13 1017 93 10000 1 110 03:44 14.07.2019
5225 Clear 14 1017 93 10000 1 110 03:25 14.07.2019
5226 Clouds 14 1017 82 10000 0.5 0 02:25 14.07.2019
5227 Clouds 14 1017 82 10000 0.5 0 01:57 14.07.2019
5228 Clouds 15 1018 87 10000 0.5 0 01:30 14.07.2019
5229 Clouds 15 1018 67 10000 0.5 0 00:42 14.07.2019
5230 Clouds 16 1018 67 10000 0.5 0 00:21 14.07.2019
5231 Clouds 17 1018 72 10000 0.5 0 23:59 13.07.2019
5232 Clouds 17 1018 63 10000 0.5 0 23:41 13.07.2019
5233 Clouds 17 1018 63 10000 0.5 0 23:22 13.07.2019
5234 Clouds 17 1018 55 10000 1 0 22:42 13.07.2019
5235 Clouds 17 1018 55 10000 1 0 22:22 13.07.2019
5236 Clouds 18 1018 49 10000 1 20 21:49 13.07.2019
5237 Clouds 20 1018 49 10000 1 20 21:22 13.07.2019
5238 Clouds 20 1017 46 10000 2.1 10 20:53 13.07.2019
5239 Clouds 21 1017 43 10000 2.1 30 20:33 13.07.2019
5240 Clouds 21 1017 43 10000 2.6 10 19:53 13.07.2019
5241 Clouds 21 1017 43 10000 3.1 10 19:31 13.07.2019
5242 Clouds 22 1017 43 10000 1.5 360 18:56 13.07.2019
5243 Clouds 22 1017 38 10000 2.6 350 18:38 13.07.2019
5244 Clouds 22 1017 38 10000 2.6 350 18:18 13.07.2019
5245 Clouds 23 1017 46 10000 2.1 20 17:37 13.07.2019
5246 Clouds 23 1017 46 10000 2.1 20 17:19 13.07.2019
5247 Clouds 23 1017 36 10000 3.1 350 16:43 13.07.2019
5248 Clouds 23 1017 36 10000 3.1 350 16:24 13.07.2019
5249 Clouds 23 1017 38 10000 3.1 280 15:48 13.07.2019
5250 Clouds 23 1017 38 10000 3.1 280 15:24 13.07.2019
5251 Clouds 22 1018 33 10000 2.6 320 14:56 13.07.2019
5252 Clouds 22 1018 38 10000 2.6 340 14:37 13.07.2019
5253 Clouds 22 1018 38 10000 2.6 340 14:18 13.07.2019
5254 Clouds 22 1018 38 10000 2.6 330 13:42 13.07.2019
5255 Clouds 22 1018 38 10000 2.6 330 13:19 13.07.2019
5256 Clouds 21 1018 46 10000 3.1 330 12:41 13.07.2019
5257 Clouds 21 1018 46 10000 3.1 330 12:23 13.07.2019
5258 Clouds 21 1018 46 10000 3.1 320 11:57 13.07.2019
5259 Clouds 20 1018 49 10000 3.1 0 11:20 13.07.2019
5260 Clouds 20 1018 52 10000 1 0 10:57 13.07.2019
5261 Clouds 20 1018 59 10000 1.5 0 10:39 13.07.2019
5262 Clouds 20 1018 59 10000 1.5 0 10:20 13.07.2019
5263 Clouds 18 1018 63 10000 1.5 0 09:41 13.07.2019
5264 Clouds 17 1018 63 10000 1.5 0 09:22 13.07.2019
5265 Clouds 17 1018 77 10000 1.5 110 08:46 13.07.2019
5266 Clouds 16 1018 77 10000 1.5 110 08:26 13.07.2019
5267 Clouds 16 1017 82 10000 1 360 07:31 13.07.2019
5268 Rain 15 1017 82 10000 1 360 06:54 13.07.2019
5269 Rain 15 1017 87 10000 1.5 50 06:27 13.07.2019
5270 Rain 15 1017 87 10000 0.5 0 05:38 13.07.2019
5271 Rain 15 1016 72 10000 3.6 310 04:36 13.07.2019
5272 Rain 15 1016 72 10000 3.6 310 04:18 13.07.2019
5273 Clouds 16 1016 63 10000 3.6 330 03:39 13.07.2019
5274 Clouds 17 1016 77 10000 0.5 0 02:28 13.07.2019
5275 Clouds 17 1016 77 10000 1 0 01:44 13.07.2019
5276 Clouds 17 1016 77 10000 1 0 01:20 13.07.2019
5277 Clouds 18 1016 77 10000 1 0 00:57 13.07.2019
5278 Rain 19 1016 77 10000 1 0 00:20 13.07.2019
5279 Clouds 20 1016 52 10000 2.6 290 23:49 12.07.2019
5280 Clouds 20 1016 52 10000 2.6 290 23:30 12.07.2019
5281 Clouds 20 1016 53 10000 2.6 290 22:56 12.07.2019
5282 Rain 21 1015 53 10000 2.6 290 22:38 12.07.2019
5283 Rain 21 1015 53 10000 2.6 290 22:18 12.07.2019
5284 Clouds 22 1015 49 10000 3.1 280 21:41 12.07.2019
5285 Clouds 22 1015 49 10000 3.1 280 21:19 12.07.2019
5286 Rain 22 1014 44 10000 5.1 280 20:43 12.07.2019
5287 Rain 23 1014 44 10000 5.1 280 20:22 12.07.2019
5288 Clouds 23 1014 47 10000 6.2 290 19:42 12.07.2019
5289 Clouds 22 1014 47 10000 6.2 290 19:24 12.07.2019
5290 Clouds 22 1014 44 10000 6.2 290 18:49 12.07.2019
5291 Clouds 24 1014 44 10000 4.6 280 18:22 12.07.2019
5292 Clouds 24 1014 41 10000 5.7 280 17:58 12.07.2019
5293 Clouds 23 1014 41 10000 4.6 260 17:38 12.07.2019
5294 Clouds 23 1014 41 10000 4.6 260 17:19 12.07.2019
5295 Clouds 23 1014 41 10000 5.1 280 16:36 12.07.2019
5296 Clouds 23 1014 41 10000 5.1 280 16:18 12.07.2019
5297 Clouds 23 1014 39 10000 7.2 290 15:38 12.07.2019
5298 Clouds 23 1014 39 10000 7.2 290 15:19 12.07.2019
5299 Clouds 23 1015 47 10000 5.7 280 14:44 12.07.2019
5300 Clouds 23 1015 47 10000 5.7 280 14:21 12.07.2019
5301 Clouds 23 1015 41 10000 4.6 250 13:47 12.07.2019
5302 Rain 23 1015 41 10000 4.6 250 13:24 12.07.2019
5303 Clouds 22 1015 64 10000 4.6 220 12:44 12.07.2019
5304 Clouds 21 1015 64 10000 4.6 220 12:24 12.07.2019
5305 Clouds 20 1016 60 10000 1 0 11:57 12.07.2019
5306 Rain 20 1015 56 10000 1 0 11:38 12.07.2019
5307 Rain 20 1015 56 10000 1 0 11:19 12.07.2019
5308 Clouds 20 1016 64 10000 1 0 10:41 12.07.2019
5309 Clouds 19 1016 64 10000 1 0 10:23 12.07.2019
5310 Clouds 18 1016 68 10000 1.5 160 09:53 12.07.2019
5311 Clouds 18 1016 72 10000 0.5 0 09:28 12.07.2019
5312 Clouds 17 1016 77 10000 1 0 08:51 12.07.2019
5313 Clouds 16 1016 82 10000 3.08 216.23 08:24 12.07.2019
5314 Clouds 15 1016 87 10000 3.08 216.23 07:51 12.07.2019
5315 Clouds 15 1016 93 10000 1.5 140 07:31 12.07.2019
5316 Clouds 14 1016 93 10000 1.5 140 06:32 12.07.2019
5317 Clouds 13 1016 100 10000 1 0 05:52 12.07.2019
5318 Clear 13 1016 100 10000 1.18 221.484 04:53 12.07.2019
5319 Clear 13 1016 100 10000 1.18 221.484 04:53 12.07.2019
5320 Clouds 14 1016 93 10000 2.1 100 02:36 12.07.2019
5321 Clouds 15 1017 93 10000 0.5 0 01:37 12.07.2019
5322 Clouds 15 1017 93 10000 0.5 0 01:37 12.07.2019
5323 Clouds 15 1017 87 10000 0.5 0 00:37 12.07.2019
5324 Clouds 16 1017 87 10000 0.5 0 00:19 12.07.2019
5325 Clouds 16 1017 82 10000 0.5 0 23:42 11.07.2019
5326 Clouds 16 1017 82 10000 0.5 0 23:22 11.07.2019
5327 Clouds 17 1017 72 10000 0.5 0 22:47 11.07.2019
5328 Clouds 17 1016 77 10000 1 120 22:25 11.07.2019
5329 Clouds 17 1016 77 10000 1 120 22:25 11.07.2019
5330 Clouds 17 1016 72 10000 1 100 21:55 11.07.2019
5331 Clouds 18 1016 72 10000 1.5 130 21:36 11.07.2019
5332 Clouds 18 1016 72 10000 1.5 130 21:18 11.07.2019
5333 Clouds 19 1016 52 10000 1.5 0 20:41 11.07.2019
5334 Clouds 19 1016 52 10000 1.5 0 20:22 11.07.2019
5335 Clouds 19 1016 52 10000 1.5 0 20:22 11.07.2019
5336 Clouds 19 1016 52 10000 1.5 180 19:56 11.07.2019
5337 Clouds 20 1016 52 10000 1.5 180 19:37 11.07.2019
5338 Clouds 20 1016 52 10000 1.5 180 19:19 11.07.2019
5339 Rain 20 1015 49 10000 2.6 150 18:41 11.07.2019
5340 Rain 20 1015 49 10000 2.6 150 18:23 11.07.2019
5341 Rain 20 1016 49 10000 0.5 0 17:48 11.07.2019
5342 Rain 20 1016 49 10000 0.5 0 17:29 11.07.2019
5343 Rain 20 1016 52 10000 2.1 360 16:53 11.07.2019
5344 Drizzle 20 1015 49 10000 2.6 340 16:25 11.07.2019
5345 Clouds 21 1015 43 10000 2.1 300 15:58 11.07.2019
5346 Clouds 21 1015 43 10000 2.1 300 15:39 11.07.2019
5347 Clouds 21 1015 43 10000 2.1 300 15:20 11.07.2019
5348 Clouds 21 1015 49 10000 1 0 14:44 11.07.2019
5349 Clouds 21 1015 49 10000 1 0 14:23 11.07.2019
5350 Clouds 21 1015 49 10000 1.5 340 13:48 11.07.2019
5351 Clear 21 1016 56 10000 2.1 350 13:29 11.07.2019
5352 Clouds 21 1016 60 10000 3.1 310 12:57 11.07.2019
5353 Clear 20 1016 60 10000 2.1 330 12:37 11.07.2019
5354 Clear 20 1016 60 10000 2.1 330 12:18 11.07.2019
5355 Clear 19 1016 63 10000 1 0 11:41 11.07.2019
5356 Clear 18 1016 63 10000 1 0 11:23 11.07.2019
5357 Clear 18 1016 67 10000 0.17 126.003 10:51 11.07.2019
5358 Clear 17 1016 77 10000 0.17 126.003 10:19 11.07.2019
5359 Clear 16 1016 77 10000 0.17 126.003 09:49 11.07.2019
5360 Clear 16 1016 77 10000 0.5 0 09:30 11.07.2019
5361 Clear 16 1016 82 10000 0.5 0 08:56 11.07.2019
5362 Clear 15 1016 76 10000 1 100 08:36 11.07.2019
5363 Clear 15 1016 76 10000 1 100 08:18 11.07.2019
5364 Clear 14 1016 87 10000 0.51 132.932 07:41 11.07.2019
5365 Clear 12 1016 93 10000 0.51 132.932 06:42 11.07.2019
5366 Clear 12 1016 93 10000 0.96 48.322 06:18 11.07.2019
5367 Clouds 12 1016 93 10000 0.5 70 05:30 11.07.2019
5368 Clouds 12 1016 93 10000 0.5 0 04:55 11.07.2019
5369 Clear 13 1017 87 10000 0.5 0 02:43 11.07.2019
5370 Clear 13 1018 87 10000 0.5 0 01:43 11.07.2019
5371 Clouds 15 1018 76 10000 0.5 0 00:31 11.07.2019
5372 Clear 15 1018 72 10000 2.51 21.297 23:49 10.07.2019
5373 Clear 16 1018 76 10000 0.5 0 23:21 10.07.2019
5374 Rain 16 1018 72 10000 0.5 0 22:53 10.07.2019
5375 Rain 17 1018 67 10000 1 0 22:22 10.07.2019
5376 Clear 18 1017 37 10000 1.5 0 21:48 10.07.2019
5377 Clear 18 1017 37 10000 1.5 0 21:48 10.07.2019
5378 Clear 20 1017 37 10000 1.5 0 21:29 10.07.2019
5379 Clear 20 1017 37 10000 2.1 30 20:59 10.07.2019
5380 Clear 21 1017 35 10000 1.5 40 20:40 10.07.2019
5381 Clear 21 1017 35 10000 1.5 40 20:20 10.07.2019
5382 Clear 22 1017 38 10000 2.6 10 19:54 10.07.2019
5383 Clear 22 1017 38 10000 2.6 360 19:22 10.07.2019
5384 Clear 22 1017 38 10000 2.6 360 18:59 10.07.2019
5385 Clear 22 1017 38 10000 3.1 360 18:41 10.07.2019
5386 Clear 23 1017 38 10000 3.1 360 18:22 10.07.2019
5387 Clear 23 1017 38 10000 3.6 340 17:42 10.07.2019
5388 Clear 23 1017 38 10000 3.6 340 17:22 10.07.2019
5389 Clear 23 1017 46 10000 2.6 0 16:38 10.07.2019
5390 Clear 23 1017 46 10000 2.6 0 16:19 10.07.2019
5391 Clear 23 1017 46 10000 2.6 0 15:46 10.07.2019
5392 Clear 22 1017 46 10000 2.6 0 15:22 10.07.2019
5393 Clear 21 1017 46 10000 4.1 350 14:43 10.07.2019
5394 Clear 21 1017 46 10000 4.1 350 14:24 10.07.2019
5395 Clear 22 1017 49 10000 4.1 350 13:52 10.07.2019
5396 Clear 21 1017 49 10000 3.6 340 13:19 10.07.2019
5397 Clear 20 1017 49 10000 3.6 340 12:58 10.07.2019
5398 Clear 20 1018 49 10000 4.1 340 12:38 10.07.2019
5399 Clear 18 1018 45 10000 5.7 80 12:19 10.07.2019
5400 Clear 18 1018 52 10000 2.1 300 11:47 10.07.2019
5401 Clear 18 1018 52 10000 2.1 300 11:21 10.07.2019
5402 Clear 18 1018 55 10000 1.5 0 10:50 10.07.2019
5403 Clear 17 1018 59 10000 1.5 0 10:23 10.07.2019
5404 Clear 15 1018 62 10000 2.1 320 09:44 10.07.2019
5405 Clear 15 1018 62 10000 2.1 320 09:21 10.07.2019
5406 Clear 14 1018 62 10000 1.5 0 08:55 10.07.2019
5407 Clear 14 1018 67 10000 1.5 330 08:36 10.07.2019
5408 Clear 13 1018 67 10000 1.5 330 08:18 10.07.2019
5409 Clear 13 1017 71 10000 2.1 290 07:42 10.07.2019
5410 Clear 13 1017 71 10000 2.1 290 07:20 10.07.2019
5411 Clear 11 1017 76 10000 2.1 300 06:21 10.07.2019
5412 Clear 12 1017 81 10000 1 0 05:39 10.07.2019
5413 Clear 12 1017 62 10000 2.1 360 04:29 10.07.2019
5414 Clear 15 1017 67 10000 0.5 0 00:49 10.07.2019
5415 Clear 15 1017 67 10000 0.5 0 00:29 10.07.2019
5416 Clear 16 1017 59 10000 1 0 23:42 09.07.2019
5417 Clear 16 1017 59 10000 1 0 23:22 09.07.2019
5418 Rain 16 1016 59 10000 1 0 22:43 09.07.2019
5419 Rain 17 1016 59 10000 1 0 22:24 09.07.2019
5420 Clouds 17 1016 52 10000 1.5 10 21:59 09.07.2019
5421 Clouds 19 1016 49 10000 2.1 0 21:41 09.07.2019
5422 Clouds 19 1016 49 10000 2.1 0 21:23 09.07.2019
5423 Clouds 20 1015 46 10000 3.6 50 20:43 09.07.2019
5424 Clouds 20 1015 46 10000 3.6 50 20:25 09.07.2019
5425 Clear 21 1015 49 10000 3.1 30 19:43 09.07.2019
5426 Clear 21 1015 49 10000 3.1 30 19:24 09.07.2019
5427 Clouds 21 1015 46 10000 3.6 60 18:47 09.07.2019
5428 Clouds 22 1015 46 10000 3.6 60 18:27 09.07.2019
5429 Clouds 22 1015 49 10000 3.1 50 17:57 09.07.2019
5430 Clouds 22 1015 53 10000 3.1 10 17:39 09.07.2019
5431 Clouds 23 1015 53 10000 3.1 10 17:19 09.07.2019
5432 Clouds 22 1015 53 10000 3.1 40 16:50 09.07.2019
5433 Clouds 22 1015 56 10000 2.6 30 16:25 09.07.2019
5434 Clouds 22 1016 56 10000 3.1 360 15:51 09.07.2019
5435 Clouds 22 1016 56 10000 1.5 30 15:33 09.07.2019
5436 Clouds 21 1016 56 10000 2.1 330 14:58 09.07.2019
5437 Clouds 21 1016 60 10000 2.1 0 14:39 09.07.2019
5438 Clouds 21 1016 60 10000 2.1 0 14:19 09.07.2019
5439 Clouds 21 1017 64 10000 2.6 340 13:45 09.07.2019
5440 Clouds 21 1017 64 10000 2.6 340 13:27 09.07.2019
5441 Clouds 20 1016 64 10000 3.1 340 12:42 09.07.2019
5442 Clouds 19 1016 64 10000 3.1 340 12:23 09.07.2019
5443 Clouds 19 1016 60 10000 4.1 310 11:58 09.07.2019
5444 Clouds 18 1016 64 10000 3.1 320 11:40 09.07.2019
5445 Clouds 18 1016 64 10000 3.1 320 11:21 09.07.2019
5446 Clouds 18 1016 68 10000 2.1 0 10:55 09.07.2019
5447 Clouds 18 1016 72 10000 1.5 350 10:33 09.07.2019
5448 Clouds 17 1016 77 10000 2.6 300 09:48 09.07.2019
5449 Clouds 17 1016 77 10000 2.6 300 09:29 09.07.2019
5450 Clouds 16 1016 77 10000 2.6 310 08:57 09.07.2019
5451 Clouds 16 1016 82 10000 2.6 290 08:39 09.07.2019
5452 Clear 16 1020 100 10000 2.1 90 04:18 05.07.2019
5453 Mist 16 1020 88 10000 2.1 110 03:38 05.07.2019
5454 Mist 17 1020 88 10000 2.1 110 03:19 05.07.2019
5455 Clear 17 1020 93 10000 1.5 100 02:46 05.07.2019
5456 Fog 18 1020 93 10000 2.6 100 01:44 05.07.2019
5457 Fog 18 1020 93 10000 2.6 100 01:25 05.07.2019
5458 Mist 18 1019 88 10000 0.5 120 00:47 05.07.2019
5459 Clear 19 1020 82 10000 2.6 100 00:20 05.07.2019
5460 Clear 20 1020 88 10000 4.1 120 23:23 04.07.2019
5461 Clear 19 1020 88 10000 2.1 90 22:58 04.07.2019
5462 Mist 20 1019 77 10000 2.1 100 22:40 04.07.2019
5463 Mist 20 1019 77 10000 2.1 100 22:19 04.07.2019
5464 Clear 22 1019 64 10000 2.1 140 21:40 04.07.2019
5465 Clear 23 1019 64 10000 2.1 140 21:22 04.07.2019
5466 Clear 24 1019 61 10000 3.1 170 20:55 04.07.2019
5467 Clear 24 1019 57 10000 4.1 160 20:37 04.07.2019
5468 Rain 25 1019 54 10000 4.6 170 20:18 04.07.2019
5469 Clouds 25 1019 48 10000 4.6 200 19:41 04.07.2019
5470 Clouds 25 1019 48 10000 4.6 200 19:20 04.07.2019
5471 Rain 25 1019 37 10000 2.6 330 18:44 04.07.2019
5472 Clouds 26 1019 37 10000 2.6 330 18:26 04.07.2019
5473 Clear 26 1019 37 10000 2.6 350 17:48 04.07.2019
5474 Clear 26 1019 39 10000 3.6 350 17:19 04.07.2019
5475 Clear 26 1019 37 10000 2.6 350 17:19 04.07.2019
5476 Clear 27 1019 42 10000 2.1 0 16:36 04.07.2019
5477 Clear 27 1019 39 10000 2.6 350 15:42 04.07.2019
5478 Clear 26 1019 39 10000 2.6 350 15:24 04.07.2019
5479 Clear 26 1020 39 10000 1.5 0 14:58 04.07.2019
5480 Clear 25 1020 47 10000 3.6 320 14:38 04.07.2019
5481 Clear 25 1020 47 10000 3.6 320 14:19 04.07.2019
5482 Clouds 25 1020 47 10000 3.6 290 13:55 04.07.2019
5483 Clouds 25 1020 47 10000 4.6 310 13:37 04.07.2019
5484 Clouds 25 1023 56 10000 2.6 130 13:18 04.07.2019
5485 Fog 24 1020 53 10000 3.6 280 12:38 04.07.2019
5486 Fog 23 1020 53 10000 3.6 280 12:19 04.07.2019
5487 Clear 22 1021 60 10000 2.1 280 11:40 04.07.2019
5488 Clear 22 1021 64 10000 1 0 11:20 04.07.2019
5489 Clear 21 1021 68 10000 1 0 10:44 04.07.2019
5490 Clear 21 1021 68 10000 1 0 10:25 04.07.2019
5491 Clear 19 1021 77 10000 1.5 0 09:46 04.07.2019
5492 Clear 19 1021 77 10000 1.5 0 09:26 04.07.2019
5493 Clouds 18 1021 77 10000 1.5 0 08:57 04.07.2019
5494 Clouds 18 1021 77 10000 1.5 0 08:29 04.07.2019
5495 Clouds 17 1020 93 10000 1 0 07:57 04.07.2019
5496 Clouds 17 1020 100 10000 1 0 07:37 04.07.2019
5497 Clear 16 1020 100 10000 1 0 07:18 04.07.2019
5498 Clear 15 1020 100 10000 3.66 40.002 05:59 04.07.2019
5499 Clear 15 1020 100 10000 0.5 0 05:41 04.07.2019
5500 Clear 16 1020 93 10000 2.1 100 03:48 04.07.2019
5501 Clear 17 1020 87 10000 1 0 01:46 04.07.2019
5502 Clear 18 1020 87 10000 1 0 01:25 04.07.2019
5503 Clear 18 1020 77 10000 2.6 100 00:37 04.07.2019
5504 Mist 19 1020 77 10000 3.1 110 23:48 03.07.2019
5505 Mist 20 1020 77 10000 3.1 110 23:20 03.07.2019
5506 Clear 19 1019 72 10000 2.6 100 22:56 03.07.2019
5507 Clouds 19 1019 68 10000 3.1 140 22:36 03.07.2019
5508 Clouds 19 1019 68 10000 3.1 140 22:36 03.07.2019
5509 Clouds 20 1019 60 10000 3.6 150 22:18 03.07.2019
5510 Mist 21 1019 60 10000 2.1 130 21:46 03.07.2019
5511 Mist 22 1019 60 10000 2.1 130 21:28 03.07.2019
5512 Rain 23 1019 53 10000 6.7 140 20:46 03.07.2019
5513 Clouds 23 1019 53 10000 6.7 140 20:27 03.07.2019
5514 Rain 22 1018 57 10000 2.6 80 19:54 03.07.2019
5515 Rain 22 1018 53 10000 2.1 60 19:35 03.07.2019
5516 Rain 23 1018 61 10000 2.6 20 18:54 03.07.2019
5517 Rain 24 1019 54 10000 2.6 360 18:36 03.07.2019
5518 Rain 24 1018 54 10000 1.5 350 18:18 03.07.2019
5519 Rain 24 1018 54 10000 3.1 10 17:41 03.07.2019
5520 Clear 25 1018 51 10000 3.1 10 17:18 03.07.2019
5521 Clear 25 1018 51 10000 3.1 10 17:18 03.07.2019
5522 Clouds 25 1018 48 10000 3.1 360 16:44 03.07.2019
5523 Clouds 26 1018 48 10000 3.1 360 16:23 03.07.2019
5524 Clouds 26 1018 48 10000 3.1 360 16:23 03.07.2019
5525 Thunderstorm 26 1018 51 10000 2.1 0 15:50 03.07.2019
5526 Thunderstorm 25 1018 51 10000 3.1 310 15:31 03.07.2019
5527 Clouds 25 1019 51 10000 4.1 310 14:58 03.07.2019
5528 Clouds 25 1019 54 10000 3.6 320 14:39 03.07.2019
5529 Clouds 25 1019 54 10000 3.6 320 14:19 03.07.2019
5530 Clouds 24 1019 54 10000 3.6 300 13:42 03.07.2019
5531 Clouds 24 1019 53 10000 3.6 290 13:23 03.07.2019
5532 Clouds 23 1019 57 10000 3.1 290 12:45 03.07.2019
5533 Clouds 22 1019 57 10000 1.5 0 12:18 03.07.2019
5534 Clouds 22 1019 60 10000 2.6 290 11:43 03.07.2019
5535 Clouds 21 1019 60 10000 2.6 290 11:22 03.07.2019
5536 Rain 21 1019 68 10000 2.1 240 10:43 03.07.2019
5537 Rain 20 1019 68 10000 2.1 240 10:24 03.07.2019
5538 Rain 20 1019 72 10000 1.5 290 09:56 03.07.2019
5539 Clouds 19 1019 68 10000 0.5 0 09:38 03.07.2019
5540 Clear 19 1020 68 10000 3.1 70 09:19 03.07.2019
5541 Rain 18 1019 93 10000 1 0 08:47 03.07.2019
5542 Rain 18 1019 93 10000 1 0 08:25 03.07.2019
5543 Clouds 18 1019 100 10000 1 100 07:39 03.07.2019
5544 Clouds 18 1019 100 10000 1 100 07:18 03.07.2019
5545 Thunderstorm 17 1019 88 10000 3.79 38.877 06:20 03.07.2019
5546 Clouds 17 1019 93 10000 0.5 0 05:29 03.07.2019
5547 Clouds 17 1018 93 10000 0.5 0 04:28 03.07.2019
5548 Clouds 18 1018 93 10000 3.09 30.162 03:22 03.07.2019
5549 Clouds 18 1019 88 10000 0.5 0 01:42 03.07.2019
5550 Clouds 18 1019 88 10000 0.5 0 01:21 03.07.2019
5551 Clouds 20 1019 88 10000 2.1 100 00:42 03.07.2019
5552 Rain 21 1019 77 10000 1 0 23:58 02.07.2019
5553 Rain 21 1019 77 10000 1 0 23:37 02.07.2019
5554 Rain 20 1019 82 10000 2.1 90 23:19 02.07.2019
5555 Rain 20 1019 82 10000 2.1 90 22:55 02.07.2019
5556 Rain 20 1019 77 10000 1.5 110 22:36 02.07.2019
5557 Clouds 21 1018 56 10000 1.5 310 22:18 02.07.2019
5558 Clouds 22 1018 57 10000 1.5 310 21:41 02.07.2019
5559 Clouds 23 1018 53 10000 2.1 330 21:20 02.07.2019
5560 Clouds 23 1018 53 10000 2.1 330 20:57 02.07.2019
5561 Clouds 24 1017 53 10000 2.6 320 20:39 02.07.2019
5562 Clouds 24 1017 54 10000 3.6 350 20:19 02.07.2019
5563 Clouds 25 1017 51 10000 3.1 0 19:42 02.07.2019
5564 Clouds 26 1017 51 10000 3.1 20 19:23 02.07.2019
5565 Clouds 26 1017 54 10000 3.6 20 18:47 02.07.2019
5566 Clouds 27 1017 54 10000 3.6 40 18:18 02.07.2019
5567 Clouds 27 1017 54 10000 3.6 40 18:18 02.07.2019
5568 Clouds 27 1017 54 10000 2.6 30 17:43 02.07.2019
5569 Clouds 27 1017 51 10000 2.6 0 17:22 02.07.2019
5570 Clouds 28 1017 51 10000 2.6 0 16:52 02.07.2019
5571 Clouds 27 1018 51 10000 3.6 320 16:34 02.07.2019
5572 Clouds 27 1018 48 10000 4.1 340 15:47 02.07.2019
5573 Clouds 27 1018 48 10000 4.1 340 15:27 02.07.2019
5574 Rain 27 1018 48 10000 3.1 350 14:57 02.07.2019
5575 Rain 27 1018 48 10000 3.1 350 14:57 02.07.2019
5576 Clouds 26 1018 54 10000 3.6 310 14:38 02.07.2019
5577 Clouds 26 1019 54 10000 1.5 0 14:19 02.07.2019
5578 Clouds 26 1019 47 10000 1 0 13:38 02.07.2019
5579 Clouds 26 1019 47 10000 2.1 0 13:18 02.07.2019
5580 Clouds 25 1019 44 10000 1.5 0 12:44 02.07.2019
5581 Clouds 24 1019 50 10000 1 0 12:22 02.07.2019
5582 Clouds 24 1019 54 10000 1 0 11:44 02.07.2019
5583 Clouds 23 1020 64 10000 0.5 0 11:23 02.07.2019
5584 Clouds 23 1020 57 10000 1 0 10:54 02.07.2019
5585 Haze 22 1020 57 10000 1 0 10:26 02.07.2019
5586 Haze 21 1020 64 10000 1 0 09:51 02.07.2019
5587 Clouds 20 1020 60 10000 0.5 0 09:22 02.07.2019
5588 Clouds 20 1020 77 10000 1 0 08:56 02.07.2019
5589 Clouds 20 1020 77 10000 1 0 08:36 02.07.2019
5590 Clouds 19 1020 73 10000 1 80 07:58 02.07.2019
5591 Thunderstorm 18 1020 88 10000 1 80 07:21 02.07.2019
5592 Clouds 18 1020 93 10000 2.6 110 06:59 02.07.2019
5593 Clouds 18 1020 93 10000 2.6 110 06:36 02.07.2019
5594 Clouds 18 1020 100 10000 2.1 80 05:26 02.07.2019
5595 Clouds 20 1020 93 10000 1.5 0 02:37 02.07.2019
5596 Rain 22 1020 77 10000 2.6 130 00:28 02.07.2019
5597 Rain 22 1018 77 10000 5.1 130 23:32 01.07.2019
5598 Rain 21 1018 83 10000 5.1 120 22:54 01.07.2019
5599 Rain 22 1018 83 10000 5.1 120 22:36 01.07.2019
5600 Rain 21 1018 64 10000 2.6 0 22:18 01.07.2019
5601 Thunderstorm 23 1018 65 10000 2.1 220 21:43 01.07.2019
5602 Thunderstorm 24 1018 65 10000 2.1 220 21:24 01.07.2019
5603 Thunderstorm 25 1018 61 10000 5.7 310 20:46 01.07.2019
5604 Thunderstorm 25 1018 61 10000 5.7 310 20:20 01.07.2019
5605 Thunderstorm 26 1017 48 10000 3.6 330 19:54 01.07.2019
5606 Thunderstorm 26 1017 48 10000 3.6 330 19:36 01.07.2019
5607 Thunderstorm 26 1016 43 10000 2.6 310 19:18 01.07.2019
5608 Thunderstorm 27 1017 41 10000 2.6 280 18:42 01.07.2019
5609 Thunderstorm 29 1017 41 10000 2.6 280 18:21 01.07.2019
5610 Thunderstorm 30 1017 38 10000 2.6 300 17:45 01.07.2019
5611 Thunderstorm 31 1017 38 10000 2.6 300 17:25 01.07.2019
5612 Clear 31 1017 38 10000 3.6 280 16:56 01.07.2019
5613 Clear 31 1018 36 10000 3.1 300 16:38 01.07.2019
5614 Clear 32 1018 36 10000 3.1 300 16:19 01.07.2019
5615 Clear 31 1018 38 10000 3.1 300 15:42 01.07.2019
5616 Clear 31 1018 36 10000 2.1 310 15:22 01.07.2019
5617 Clear 31 1018 38 10000 2.6 0 14:44 01.07.2019
5618 Clear 30 1018 33 10000 1.5 0 14:20 01.07.2019
5619 Clear 30 1019 40 10000 2.1 90 13:45 01.07.2019
5620 Clear 30 1019 40 10000 2.1 90 13:45 01.07.2019
5621 Clear 30 1019 40 10000 1.5 0 13:23 01.07.2019
5622 Clear 30 1019 40 10000 1.5 80 12:56 01.07.2019
5623 Clear 29 1020 42 10000 1.5 0 12:37 01.07.2019
5624 Clear 29 1020 42 10000 1.5 0 12:37 01.07.2019
5625 Clear 28 1020 42 10000 1.5 0 12:18 01.07.2019
5626 Clear 28 1020 48 10000 4.6 150 11:43 01.07.2019
5627 Thunderstorm 27 1020 57 10000 5.7 160 11:21 01.07.2019
5628 Thunderstorm 28 1021 51 10000 1.5 130 10:48 01.07.2019
5629 Clear 27 1021 61 10000 1.5 0 10:24 01.07.2019
5630 Clear 25 1021 69 10000 1.5 210 09:58 01.07.2019
5631 Clear 25 1021 69 10000 1.5 210 09:40 01.07.2019
5632 Clear 24 1020 64 10000 2.1 80 09:21 01.07.2019
5633 Clear 23 1020 68 10000 2.6 130 08:37 01.07.2019
5634 Clear 23 1019 68 10000 3.1 90 07:48 01.07.2019
5635 Rain 22 1019 64 10000 3.6 120 07:27 01.07.2019
5636 Clear 22 1019 68 10000 6.2 180 06:20 01.07.2019
5637 Rain 24 1020 47 10000 10.8 270 01:42 01.07.2019
5638 Clouds 24 1019 78 10000 1 0 00:48 01.07.2019
5639 Clouds 24 1019 78 10000 1.5 0 00:28 01.07.2019
5640 Clear 25 1018 83 10000 1.5 130 23:52 30.06.2019
5641 Clear 25 1018 73 10000 0.5 0 23:21 30.06.2019
5642 Clear 25 1018 73 10000 1 0 22:44 30.06.2019
5643 Clear 25 1018 83 10000 1 0 22:20 30.06.2019
5644 Clear 25 1018 83 10000 1 0 22:20 30.06.2019
5645 Clear 25 1018 83 10000 1 0 22:20 30.06.2019
5646 Clear 28 1018 69 10000 0.5 0 21:42 30.06.2019
5647 Clear 28 1018 69 10000 1.5 0 21:20 30.06.2019
5648 Clear 29 1018 62 10000 2.6 230 20:56 30.06.2019
5649 Clear 30 1018 62 10000 2.6 230 20:38 30.06.2019
5650 Clear 30 1017 49 10000 1.5 250 20:18 30.06.2019
5651 Clear 31 1017 38 10000 1.5 230 19:44 30.06.2019
5652 Clear 32 1017 34 10000 1.5 0 19:24 30.06.2019
5653 Clear 33 1018 39 10000 1 0 18:26 30.06.2019
5654 Clouds 34 1018 32 10000 2.6 300 17:59 30.06.2019
5655 Clouds 34 1018 32 10000 2.6 300 17:39 30.06.2019
5656 Clouds 34 1018 34 10000 2.6 290 17:18 30.06.2019
5657 Clear 34 1019 36 10000 3.6 310 16:49 30.06.2019
5658 Clear 34 1019 36 10000 3.6 290 16:27 30.06.2019
5659 Clear 34 1019 36 10000 3.1 290 15:38 30.06.2019
5660 Clear 33 1019 38 10000 3.6 310 15:19 30.06.2019
5661 Clear 33 1019 41 10000 3.1 250 14:54 30.06.2019
5662 Clear 33 1019 41 10000 3.1 250 14:35 30.06.2019
5663 Clear 33 1019 44 10000 4.6 280 13:49 30.06.2019
5664 Clear 32 1019 43 10000 3.6 280 13:30 30.06.2019
5665 Clear 31 1019 49 10000 4.6 280 12:57 30.06.2019
5666 Clear 31 1019 49 10000 4.6 280 12:39 30.06.2019
5667 Clear 30 1020 45 10000 1 0 12:19 30.06.2019
5668 Clear 29 1020 45 10000 1 0 11:45 30.06.2019
5669 Clear 29 1020 45 10000 1.5 0 11:21 30.06.2019
5670 Clear 29 1020 45 10000 1.5 0 11:21 30.06.2019
5671 Clear 28 1020 51 10000 1.5 0 10:55 30.06.2019
5672 Clear 27 1020 51 10000 1.5 110 10:36 30.06.2019
5673 Clear 27 1020 51 10000 1.5 110 10:18 30.06.2019
5674 Clear 26 1020 54 10000 2.1 80 09:42 30.06.2019
5675 Clear 24 1020 57 10000 3.6 100 09:20 30.06.2019
5676 Clear 23 1020 64 10000 3.6 100 08:40 30.06.2019
5677 Clear 23 1020 77 10000 2.1 100 08:21 30.06.2019
5678 Clear 21 1020 82 10000 1.5 170 07:50 30.06.2019
5679 Clear 20 1019 88 10000 0.73 222.501 07:24 30.06.2019
5680 Clear 19 1019 93 10000 0.5 0 06:37 30.06.2019
5681 Clear 19 1018 93 10000 1 320 03:34 30.06.2019
5682 Clear 20 1018 88 10000 0.49 279.711 01:58 30.06.2019
5683 Clear 21 1018 88 10000 0.53 282.866 00:48 30.06.2019
5684 Clear 21 1018 88 10000 0.5 0 00:24 30.06.2019
5685 Clear 22 1017 82 10000 1 0 23:53 29.06.2019
5686 Clear 23 1017 78 10000 1.03 18.17 23:23 29.06.2019
5687 Rain 22 1018 83 10000 0.5 0 22:48 29.06.2019
5688 Clear 24 1017 78 10000 0.5 0 22:25 29.06.2019
5689 Clear 24 1017 73 10000 0.5 0 21:56 29.06.2019
5690 Clear 27 1017 54 10000 1.5 260 21:25 29.06.2019
5691 Clear 27 1017 54 10000 1.5 260 21:25 29.06.2019
5692 Clear 28 1017 45 10000 2.1 320 20:57 29.06.2019
5693 Clear 29 1017 45 10000 2.1 320 20:36 29.06.2019
5694 Clear 29 1017 48 10000 2.6 320 20:18 29.06.2019
5695 Clear 31 1017 38 10000 1.5 0 19:42 29.06.2019
5696 Clear 31 1017 38 10000 1.5 0 19:21 29.06.2019
5697 Clear 31 1017 36 10000 2.1 310 18:47 29.06.2019
5698 Clear 31 1017 38 10000 2.6 330 18:24 29.06.2019
5699 Haze 31 1017 36 10000 2.6 310 17:39 29.06.2019
5700 Clear 32 1017 36 10000 2.6 300 17:20 29.06.2019
5701 Clear 31 1017 36 10000 2.1 310 16:44 29.06.2019
5702 Clear 31 1017 35 10000 2.6 260 16:25 29.06.2019
5703 Clear 31 1018 43 10000 2.1 0 15:33 29.06.2019
5704 Clear 30 1018 43 10000 2.1 260 14:59 29.06.2019
5705 Clear 30 1018 43 10000 2.1 260 14:40 29.06.2019
5706 Clear 29 1018 45 10000 2.1 0 14:21 29.06.2019
5707 Clear 29 1018 42 10000 2.6 280 13:43 29.06.2019
5708 Clear 29 1018 45 10000 3.1 300 13:24 29.06.2019
5709 Clear 28 1019 48 10000 2.6 310 12:42 29.06.2019
5710 Clear 28 1019 48 10000 2.6 310 12:42 29.06.2019
5711 Clear 27 1019 45 10000 2.6 310 12:23 29.06.2019
5712 Clear 26 1019 51 10000 2.6 280 11:48 29.06.2019
5713 Clear 26 1019 50 10000 1 0 11:28 29.06.2019
5714 Clear 25 1019 53 10000 0.5 0 10:52 29.06.2019
5715 Clear 24 1019 53 10000 0.5 0 10:29 29.06.2019
5716 Clear 23 1019 60 10000 0.5 0 09:58 29.06.2019
5717 Clear 22 1019 64 10000 2.14 90.241 09:29 29.06.2019
5718 Clear 21 1019 68 10000 3.06 63.477 08:37 29.06.2019
5719 Clear 19 1019 77 10000 0.5 0 07:46 29.06.2019
5720 Clear 18 1019 82 10000 2.6 30 07:19 29.06.2019
5721 Clear 17 1019 93 10000 1.5 50 06:41 29.06.2019
5722 Clear 16 1019 87 10000 2.6 40 06:20 29.06.2019
5723 Clear 19 1020 82 10000 0.5 360 02:26 29.06.2019
5724 Clear 19 1020 88 10000 1.5 40 00:57 29.06.2019
5725 Clear 20 1020 77 10000 0.5 60 23:58 28.06.2019
5726 Mist 21 1021 77 10000 0.5 0 23:23 28.06.2019
5727 Clear 21 1020 72 10000 0.5 0 22:52 28.06.2019
5728 Clear 22 1020 68 10000 0.5 0 22:27 28.06.2019
5729 Clear 23 1020 50 10000 2.1 330 21:46 28.06.2019
5730 Clear 26 1020 42 10000 1.5 320 21:20 28.06.2019
5731 Clear 27 1020 35 10000 1 0 20:44 28.06.2019
5732 Clear 27 1019 37 10000 2.1 20 20:21 28.06.2019
5733 Clear 29 1019 37 10000 2.6 30 19:45 28.06.2019
5734 Clear 29 1019 40 10000 2.6 40 19:27 28.06.2019
5735 Clear 29 1019 40 10000 3.1 20 18:44 28.06.2019
5736 Clear 30 1019 40 10000 4.1 50 18:22 28.06.2019
5737 Clear 30 1019 43 10000 3.6 50 17:58 28.06.2019
5738 Clear 30 1019 45 10000 2.1 0 17:29 28.06.2019
5739 Clear 30 1020 48 10000 4.1 30 16:49 28.06.2019
5740 Clear 30 1020 46 10000 3.6 350 16:24 28.06.2019
5741 Clear 30 1020 48 10000 2.1 30 15:48 28.06.2019
5742 Clear 30 1020 48 10000 2.6 310 15:23 28.06.2019
5743 Clear 30 1020 55 10000 3.6 310 14:43 28.06.2019
5744 Clear 30 1020 52 10000 2.6 300 14:22 28.06.2019
5745 Clear 29 1020 52 10000 2.1 300 13:55 28.06.2019
5746 Clear 29 1020 52 10000 2.1 300 13:37 28.06.2019
5747 Clear 29 1021 51 10000 3.6 320 13:19 28.06.2019
5748 Clear 28 1021 58 10000 3.6 330 12:44 28.06.2019
5749 Sand 27 1021 58 10000 3.6 290 11:54 28.06.2019
5750 Clear 27 1021 58 10000 3.1 280 11:22 28.06.2019
5751 Haze 26 1021 65 10000 2.6 280 10:45 28.06.2019
5752 Clear 26 1021 69 10000 2.1 280 10:21 28.06.2019
5753 Clear 25 1021 73 10000 1 0 09:48 28.06.2019
5754 Clear 24 1022 78 10000 0.5 0 09:29 28.06.2019
5755 Clear 23 1022 73 10000 3.4 56.361 08:47 28.06.2019
5756 Clear 23 1022 83 10000 0.5 0 08:26 28.06.2019
5757 Clear 22 1022 94 10000 0.5 80 07:47 28.06.2019
5758 Clear 21 1022 88 10000 2.1 50 07:28 28.06.2019
5759 Clear 20 1021 93 6000 0.5 0 06:21 28.06.2019
5760 Clear 23 1022 83 10000 1 0 01:23 28.06.2019
5761 Clear 24 1022 88 10000 0.5 0 00:39 28.06.2019
5762 Clear 25 1022 78 10000 0.5 0 23:51 27.06.2019
5763 Clear 25 1022 83 10000 1 0 23:26 27.06.2019
5764 Clear 25 1022 78 10000 1 0 22:56 27.06.2019
5765 Clear 27 1022 58 10000 0.5 0 22:37 27.06.2019
5766 Clear 27 1022 58 10000 0.5 0 22:18 27.06.2019
5767 Clear 28 1021 51 10000 1 0 21:48 27.06.2019
5768 Clear 30 1021 55 10000 1 0 21:29 27.06.2019
5769 Clear 30 1021 52 10000 2.6 330 20:57 27.06.2019
5770 Clear 30 1021 52 10000 2.6 330 20:39 27.06.2019
5771 Clear 31 1021 49 10000 2.1 350 20:19 27.06.2019
5772 Clear 31 1021 41 10000 2.6 360 19:44 27.06.2019
5773 Clear 32 1021 34 10000 2.1 360 19:25 27.06.2019
5774 Clear 33 1021 34 10000 2.6 330 18:43 27.06.2019
5775 Clear 34 1021 30 10000 2.1 0 18:21 27.06.2019
5776 Clear 34 1021 32 10000 2.1 340 17:44 27.06.2019
5777 Clear 34 1021 27 10000 2.6 310 17:22 27.06.2019
5778 Clear 34 1021 27 10000 2.6 310 17:22 27.06.2019
5779 Clear 34 1022 28 10000 2.6 350 16:40 27.06.2019
5780 Clear 34 1022 30 10000 2.1 330 16:20 27.06.2019
5781 Clear 34 1022 32 10000 2.1 300 15:55 27.06.2019
5782 Clear 34 1022 32 10000 2.6 280 15:36 27.06.2019
5783 Clear 33 1023 41 10000 1.5 0 14:59 27.06.2019
5784 Clear 33 1023 41 10000 1.5 0 14:39 27.06.2019
5785 Clear 33 1023 41 10000 1.5 0 14:39 27.06.2019
5786 Clear 33 1023 41 10000 2.1 320 14:19 27.06.2019
5787 Clear 33 1023 41 10000 2.1 0 13:43 27.06.2019
5788 Clear 33 1023 36 10000 0.5 0 13:25 27.06.2019
5789 Clear 32 1024 40 10000 1 0 12:49 27.06.2019
5790 Clear 31 1024 45 10000 1 0 12:31 27.06.2019
5791 Clear 30 1024 45 10000 1 0 11:48 27.06.2019
5792 Clear 29 1024 54 10000 1 0 11:24 27.06.2019
5793 Clear 29 1024 54 10000 3.1 110 10:58 27.06.2019
5794 Clear 28 1024 54 10000 3.1 110 10:40 27.06.2019
5795 Clear 28 1025 58 10000 2.1 110 10:19 27.06.2019
5796 Clear 26 1025 57 10000 2.1 100 09:41 27.06.2019
5797 Clear 25 1025 61 10000 2.6 110 09:20 27.06.2019
5798 Clear 24 1025 65 10000 1.5 0 08:50 27.06.2019
5799 Clear 24 1025 78 10000 1.5 0 08:28 27.06.2019
5800 Clear 22 1024 88 10000 1 0 07:46 27.06.2019
5801 Clear 21 1024 93 10000 1.5 120 06:58 27.06.2019
5802 Fog 20 1024 100 10000 2.1 150 06:32 27.06.2019
5803 Clear 21 1024 93 10000 0.5 0 03:51 27.06.2019
5804 Clear 22 1024 88 10000 1 40 02:42 27.06.2019
5805 Mist 23 1024 88 10000 0.5 0 01:39 27.06.2019
5806 Clear 23 1024 83 10000 1 0 00:52 27.06.2019
5807 Clear 24 1024 83 10000 1.5 0 00:26 27.06.2019
5808 Clear 24 1024 83 10000 1 0 23:51 26.06.2019
5809 Clear 25 1024 78 10000 1 0 23:23 26.06.2019
5810 Mist 25 1024 88 10000 2.1 90 22:58 26.06.2019
5811 Mist 25 1024 88 10000 2.1 90 22:40 26.06.2019
5812 Clear 26 1023 78 10000 0.5 0 22:19 26.06.2019
5813 Clear 27 1023 78 10000 0.5 0 21:43 26.06.2019
5814 Clear 29 1023 70 10000 0.5 0 21:21 26.06.2019
5815 Clear 30 1023 52 10000 1 0 20:57 26.06.2019
5816 Clear 30 1023 52 10000 1 0 20:38 26.06.2019
5817 Clear 31 1023 49 10000 1 0 20:20 26.06.2019
5818 Clear 32 1023 47 10000 1 0 19:43 26.06.2019
5819 Clear 33 1023 34 10000 1.5 0 19:25 26.06.2019
5820 Clear 34 1023 34 10000 1.5 290 18:46 26.06.2019
5821 Clear 34 1023 37 10000 1 0 18:23 26.06.2019
5822 Clear 34 1023 34 10000 1.5 0 17:58 26.06.2019
5823 Clear 34 1023 34 10000 1.5 0 17:38 26.06.2019
5824 Clear 34 1023 36 10000 1 0 17:19 26.06.2019
5825 Clear 34 1023 37 10000 2.6 320 16:46 26.06.2019
5826 Clear 34 1023 36 10000 1.5 270 16:23 26.06.2019
5827 Clear 34 1024 44 10000 1.5 280 15:40 26.06.2019
5828 Clear 33 1024 41 10000 1.5 0 15:22 26.06.2019
5829 Clear 32 1024 41 10000 1.5 320 14:38 26.06.2019
5830 Clear 32 1024 41 10000 1.5 320 14:19 26.06.2019
5831 Clear 32 1024 43 10000 2.1 260 13:43 26.06.2019
5832 Clear 32 1025 49 10000 1.5 0 13:20 26.06.2019
5833 Clear 31 1025 52 10000 1.5 290 12:42 26.06.2019
5834 Clear 30 1025 51 10000 1.5 0 12:22 26.06.2019
5835 Clear 29 1025 51 10000 0.9 145.603 11:48 26.06.2019
5836 Clear 29 1025 58 10000 1.5 120 11:20 26.06.2019
5837 Clear 28 1025 54 10000 1.5 100 10:45 26.06.2019
5838 Clear 27 1025 61 10000 2.6 110 10:25 26.06.2019
5839 Clear 27 1025 65 10000 2.6 110 09:49 26.06.2019
5840 Clear 25 1025 73 10000 2.6 110 09:20 26.06.2019
5841 Clear 24 1025 73 10000 2.6 110 08:49 26.06.2019
5842 Clear 23 1024 88 10000 3.1 100 08:20 26.06.2019
5843 Clear 22 1024 94 10000 3.1 100 07:46 26.06.2019
5844 Clear 21 1024 100 10000 2.6 120 06:57 26.06.2019
5845 Clear 20 1024 100 10000 1 0 06:31 26.06.2019
5846 Clear 22 1023 100 10000 0.5 0 01:25 26.06.2019
5847 Clear 23 1023 100 10000 0.5 0 00:25 26.06.2019
5848 Clear 23 1022 94 10000 0.5 0 23:46 25.06.2019
5849 Clear 23 1022 100 10000 0.5 0 23:27 25.06.2019
5850 Clear 23 1022 94 10000 0.5 0 22:57 25.06.2019
5851 Clear 24 1021 94 10000 1 0 22:39 25.06.2019
5852 Clear 24 1021 94 10000 1 0 22:20 25.06.2019
5853 Clear 25 1021 78 10000 0.5 0 21:43 25.06.2019
5854 Clear 27 1021 69 10000 0.5 0 21:22 25.06.2019
5855 Clear 28 1020 52 10000 2.1 240 20:46 25.06.2019
5856 Clear 28 1020 52 10000 2.1 240 20:45 25.06.2019
5857 Clear 29 1020 52 10000 1.5 290 20:22 25.06.2019
5858 Clear 30 1020 49 10000 2.1 310 19:48 25.06.2019
5859 Clear 31 1020 46 10000 2.6 310 19:23 25.06.2019
5860 Clear 31 1020 43 10000 3.1 310 18:59 25.06.2019
5861 Clear 31 1020 43 10000 3.1 310 18:40 25.06.2019
5862 Clear 32 1020 44 10000 3.1 290 18:21 25.06.2019
5863 -273 0 0 0 0 0 17:30 25.06.2019
5864 Clear 32 1020 41 10000 2.6 320 16:58 25.06.2019
5865 Clear 32 1020 41 10000 2.6 320 16:39 25.06.2019
5866 Clear 32 1020 41 10000 2.6 290 16:21 25.06.2019
5867 Clear 31 1021 43 10000 1.5 0 15:42 25.06.2019
5868 Clear 32 1021 43 10000 2.1 220 15:24 25.06.2019
5869 Clear 31 1021 43 10000 1.5 0 14:54 25.06.2019
5870 Clear 31 1021 48 10000 1.5 260 14:35 25.06.2019
5871 Clear 30 1021 45 10000 2.1 300 13:47 25.06.2019
5872 Clear 30 1021 48 10000 1.5 0 13:29 25.06.2019
5873 Clear 29 1022 51 10000 1 0 12:55 25.06.2019
5874 Clear 29 1022 54 10000 0.5 0 12:36 25.06.2019
5875 Clear 28 1022 54 10000 0.5 0 12:18 25.06.2019
5876 -273 0 0 0 0 0 11:41 25.06.2019
5877 Clear 27 1022 61 10000 1 120 11:20 25.06.2019
5878 Clear 26 1022 61 10000 1 120 10:43 25.06.2019
5879 Clear 25 1022 65 10000 1.5 0 10:22 25.06.2019
5880 Clear 24 1021 73 10000 1.5 0 09:55 25.06.2019
5881 Clear 24 1021 73 10000 1.5 0 09:37 25.06.2019
5882 Clear 23 1021 73 10000 1.5 0 09:18 25.06.2019
5883 Clear 21 1021 83 10000 1.5 0 08:42 25.06.2019
5884 Clear 21 1021 82 10000 0.5 0 08:23 25.06.2019
5885 Clear 19 1020 100 10000 1 0 07:39 25.06.2019
5886 Clear 18 1020 100 10000 1 0 06:54 25.06.2019
5887 Clear 18 1020 100 10000 1 0 06:36 25.06.2019
5888 Clear 19 1019 100 10000 0.5 0 02:46 25.06.2019
5889 Clear 19 1019 100 10000 0.5 80 01:40 25.06.2019
5890 Clear 20 1019 100 10000 1 0 00:36 25.06.2019
5891 Clear 21 1019 100 10000 0.5 0 23:56 24.06.2019
5892 Clear 21 1019 100 10000 0.5 0 23:37 24.06.2019
5893 Clear 21 1019 100 10000 0.5 0 23:37 24.06.2019
5894 Clear 21 1019 100 10000 0.5 0 23:37 24.06.2019
5895 Clear 22 1019 94 10000 1 0 23:19 24.06.2019
5896 Clear 22 1019 94 10000 1.5 0 22:40 24.06.2019
5897 Clear 22 1018 78 10000 1.84 8.425 22:19 24.06.2019
5898 Clear 24 1018 69 10000 1 0 21:39 24.06.2019
5899 Clear 25 1018 57 10000 1.5 0 21:19 24.06.2019
5900 Clear 26 1018 54 10000 0.96 32.22 20:56 24.06.2019
5901 Clear 26 1018 54 10000 0.68 25.398 20:37 24.06.2019
5902 Clear 26 1018 51 10000 2.6 320 20:19 24.06.2019
5903 Clear 27 1018 51 10000 2.6 330 19:43 24.06.2019
5904 Clear 28 1018 42 10000 2.1 340 19:21 24.06.2019
5905 Clear 28 1018 45 10000 1.5 330 18:44 24.06.2019
5906 Clear 29 1018 43 10000 2.6 330 18:25 24.06.2019
5907 Clear 29 1018 43 10000 2.1 330 17:46 24.06.2019
5908 Clear 30 1018 38 10000 2.6 320 17:25 24.06.2019
5909 Clear 30 1018 43 10000 2.6 300 16:46 24.06.2019
5910 Clear 29 1018 45 10000 2.6 310 16:20 24.06.2019
5911 Clear 29 1018 48 10000 3.6 290 15:48 24.06.2019
5912 Clear 29 1018 48 10000 3.1 320 15:29 24.06.2019
5913 Clear 28 1019 54 10000 3.1 300 14:43 24.06.2019
5914 Clear 28 1019 58 10000 3.6 310 14:24 24.06.2019
5915 Clear 27 1019 61 10000 3.1 320 13:46 24.06.2019
5916 Clear 27 1019 61 10000 4.1 270 13:24 24.06.2019
5917 Clear 26 1019 61 10000 3.1 260 12:43 24.06.2019
5918 Clear 25 1019 57 10000 1.5 0 12:21 24.06.2019
5919 Clear 25 1019 57 10000 1.5 200 11:46 24.06.2019
5920 Clear 24 1019 65 10000 1 0 11:28 24.06.2019
5921 Clear 24 1019 64 10000 0.5 0 10:57 24.06.2019
5922 Clear 23 1019 60 10000 0.5 0 10:36 24.06.2019
5923 Clear 23 1019 60 10000 0.5 0 10:18 24.06.2019
5924 Clear 22 1020 68 10000 1 200 09:43 24.06.2019
5925 Clear 20 1020 77 10000 2.6 110 09:19 24.06.2019
5926 Clear 20 1020 82 10000 2.6 110 08:50 24.06.2019
5927 Clear 18 1020 93 10000 1 0 08:20 24.06.2019
5928 Clear 17 1020 100 10000 1 0 07:41 24.06.2019
5929 Mist 16 1020 100 10000 1 0 07:23 24.06.2019
5930 Mist 15 1020 100 3300 0.5 0 06:24 24.06.2019
5931 Mist 15 1019 100 1000 0.5 0 05:45 24.06.2019
5932 Mist 15 1019 100 4000 0.5 0 04:46 24.06.2019
5933 Clear 16 1019 100 10000 1 310 03:54 24.06.2019
5934 Clear 16 1019 100 10000 0.5 0 02:48 24.06.2019
5935 Clear 17 1019 100 10000 0.5 0 01:55 24.06.2019
5936 Clear 17 1019 100 10000 0.5 0 01:34 24.06.2019
5937 Clear 17 1019 100 10000 1 90 00:55 24.06.2019
5938 Clear 18 1019 100 10000 0.5 0 00:23 24.06.2019
5939 Clear 18 1019 93 10000 2.64 22.588 23:58 23.06.2019
5940 Clear 19 1019 93 10000 2.64 22.588 23:40 23.06.2019
5941 Clear 19 1018 88 10000 0.5 0 23:20 23.06.2019
5942 Clear 19 1018 82 10000 1 0 22:41 23.06.2019
5943 Clear 20 1018 77 10000 0.5 0 22:20 23.06.2019
5944 Clear 21 1017 64 10000 0.5 0 21:42 23.06.2019
5945 Clear 22 1017 64 10000 1 0 21:22 23.06.2019
5946 Clear 23 1017 60 10000 1 0 20:52 23.06.2019
5947 Clear 23 1017 60 10000 1 0 20:52 23.06.2019
5948 Clear 23 1017 57 10000 1.5 0 20:32 23.06.2019
5949 Clear 24 1017 54 10000 1.5 0 19:56 23.06.2019
5950 Clear 24 1017 54 10000 1.5 0 19:38 23.06.2019
5951 Clear 25 1016 50 10000 3.1 330 19:19 23.06.2019
5952 Clear 25 1016 57 10000 3.1 320 18:44 23.06.2019
5953 Clear 25 1016 57 10000 3.1 330 18:20 23.06.2019
5954 Clouds 26 1016 51 10000 3.6 300 17:42 23.06.2019
5955 Clouds 26 1016 51 10000 3.1 290 17:22 23.06.2019
5956 Clouds 26 1016 54 10000 4.1 310 16:45 23.06.2019
5957 Clouds 25 1017 54 10000 4.1 290 16:25 23.06.2019
5958 Clouds 25 1017 54 10000 3.6 290 15:54 23.06.2019
5959 Clouds 25 1017 54 10000 3.6 290 15:36 23.06.2019
5960 Clear 25 1017 50 10000 3.1 280 15:18 23.06.2019
5961 Clear 24 1017 57 10000 2.1 310 14:38 23.06.2019
5962 Clear 23 1017 57 10000 3.6 310 14:20 23.06.2019
5963 Clouds 23 1017 60 10000 3.6 300 13:42 23.06.2019
5964 Clouds 23 1017 64 10000 3.1 300 13:21 23.06.2019
5965 Clouds 23 1017 64 10000 2.1 0 12:58 23.06.2019
5966 Clouds 22 1017 64 10000 2.1 0 12:39 23.06.2019
5967 Clouds 22 1017 68 10000 2.1 300 12:19 23.06.2019
5968 Clouds 21 1017 68 10000 2.1 290 11:45 23.06.2019
5969 Clouds 20 1017 73 10000 2.6 280 11:25 23.06.2019
5970 Clouds 20 1017 68 10000 1 320 10:48 23.06.2019
5971 Clouds 19 1018 72 10000 1.58 92.027 10:21 23.06.2019
5972 Clear 19 1018 77 10000 1.5 160 09:58 23.06.2019
5973 Clear 17 1018 82 10000 2.6 120 09:22 23.06.2019
5974 Clear 17 1018 88 10000 2.1 120 08:47 23.06.2019
5975 Clear 16 1018 87 10000 2.6 90 08:28 23.06.2019
5976 Clear 15 1018 87 10000 2.6 90 07:57 23.06.2019
5977 Clear 15 1018 100 10000 2.6 100 07:39 23.06.2019
5978 Fog 14 1018 100 10000 2.6 110 07:18 23.06.2019
5979 Mist 14 1018 100 10000 2.6 100 06:46 23.06.2019
5980 Fog 13 1018 100 9000 0.5 0 05:42 23.06.2019
5981 Clear 14 1018 100 10000 2.1 80 02:51 23.06.2019
5982 Clear 15 1018 100 10000 3.1 90 01:39 23.06.2019
5983 Clear 15 1018 93 10000 2.1 80 00:58 23.06.2019
5984 Clear 16 1018 93 10000 2.1 100 00:27 23.06.2019
5985 Clouds 16 1018 87 10000 3.1 100 23:44 22.06.2019
5986 Rain 16 1018 93 10000 2.1 100 23:25 22.06.2019
5987 Rain 17 1018 93 10000 1 0 22:47 22.06.2019
5988 Rain 17 1017 100 10000 1.5 0 22:26 22.06.2019
5989 Rain 18 1017 77 10000 0.5 0 21:43 22.06.2019
5990 Rain 19 1017 82 10000 1.5 0 21:20 22.06.2019
5991 Rain 19 1017 82 10000 2.1 310 20:57 22.06.2019
5992 Rain 19 1017 82 10000 2.1 310 20:38 22.06.2019
5993 Thunderstorm 20 1016 72 10000 4.6 330 20:20 22.06.2019
5994 Thunderstorm 20 1016 60 10000 2.6 310 19:40 22.06.2019
5995 Thunderstorm 21 1016 56 10000 1.5 320 19:20 22.06.2019
5996 Rain 21 1016 56 10000 2.1 340 18:42 22.06.2019
5997 Rain 21 1016 60 10000 3.1 320 18:22 22.06.2019
5998 Clouds 21 1016 56 10000 2.6 330 17:44 22.06.2019
5999 Clouds 21 1016 56 10000 2.1 350 17:25 22.06.2019
6000 Clouds 21 1016 64 10000 2.6 290 16:43 22.06.2019
6001 Clouds 21 1016 64 10000 2.6 310 16:24 22.06.2019
6002 Clouds 20 1016 64 10000 1.5 0 15:45 22.06.2019
6003 Clouds 20 1017 64 10000 1 0 15:27 22.06.2019
6004 -273 0 0 0 0 0 15:27 22.06.2019
6005 Rain 20 1017 68 10000 1 0 14:51 22.06.2019
6006 Rain 20 1017 68 10000 1 0 14:31 22.06.2019
6007 Rain 19 1017 72 10000 1 0 13:57 22.06.2019
6008 Rain 19 1017 72 10000 1 0 13:38 22.06.2019
6009 Rain 19 1017 72 10000 1 0 13:38 22.06.2019
6010 Rain 19 1017 77 10000 1 0 13:18 22.06.2019
6011 Rain 19 1017 72 10000 1 0 12:42 22.06.2019
6012 Clouds 18 1017 77 10000 0.5 0 12:18 22.06.2019
6013 Clouds 18 1017 77 10000 1 0 11:41 22.06.2019
6014 Clouds 18 1017 77 10000 1.5 0 11:19 22.06.2019
6015 Clouds 17 1017 77 10000 1.5 0 10:22 22.06.2019
6016 Rain 17 1017 88 10000 1.5 140 09:56 22.06.2019
6017 Clouds 16 1017 88 10000 1.5 0 09:29 22.06.2019
6018 Rain 16 1017 93 10000 2.1 130 08:47 22.06.2019
6019 Rain 16 1017 93 10000 1.5 0 08:28 22.06.2019
6020 Rain 16 1017 100 10000 0.5 0 07:44 22.06.2019
6021 Clouds 16 1017 100 10000 0.5 0 07:20 22.06.2019
6022 Drizzle 15 1017 100 10000 0.5 0 06:35 22.06.2019
6023 Rain 15 1017 100 10000 2.1 100 03:42 22.06.2019
6024 Rain 16 1018 100 10000 2.6 120 02:21 22.06.2019
6025 Rain 16 1018 100 10000 1 0 00:48 22.06.2019
6026 Rain 16 1018 93 10000 1.5 0 00:24 22.06.2019
6027 Rain 16 1018 93 10000 3.1 140 23:49 21.06.2019
6028 Rain 17 1018 100 10000 2.6 130 23:23 21.06.2019
6029 Rain 16 1018 100 10000 3.1 120 22:54 21.06.2019
6030 Rain 16 1018 100 10000 3.6 130 22:27 21.06.2019
6031 Rain 17 1018 93 10000 2.6 150 21:57 21.06.2019
6032 Rain 17 1018 93 10000 2.6 150 21:38 21.06.2019
6033 Rain 17 1018 93 10000 2.6 150 21:38 21.06.2019
6034 Rain 17 1018 93 10000 2.6 150 21:38 21.06.2019
6035 Rain 17 1018 93 10000 2.6 150 21:38 21.06.2019
6036 Rain 18 1018 93 10000 3.6 140 21:19 21.06.2019
6037 Rain 19 1017 100 10000 3.6 120 20:47 21.06.2019
6038 Rain 19 1017 93 10000 3.1 120 20:24 21.06.2019
6039 Thunderstorm 19 1017 68 10000 1 0 19:38 21.06.2019
6040 Rain 20 1017 60 10000 2.1 30 18:56 21.06.2019
6041 Clouds 20 1017 64 10000 2.6 360 18:35 21.06.2019
6042 Clouds 21 1017 68 10000 3.6 340 17:56 21.06.2019
6043 Rain 21 1017 64 10000 3.6 340 17:30 21.06.2019
6044 Clouds 21 1017 60 10000 3.6 360 16:43 21.06.2019
6045 Clouds 21 1017 60 10000 3.6 360 16:43 21.06.2019
6046 Clouds 21 1017 64 10000 2.6 360 16:23 21.06.2019
6047 Clouds 20 1017 68 10000 2.6 350 15:53 21.06.2019
6048 Rain 21 1017 64 10000 2.1 0 15:33 21.06.2019
6049 Rain 20 1017 64 10000 2.1 80 14:53 21.06.2019
6050 Clouds 20 1018 68 10000 1.5 0 14:31 21.06.2019
6051 Clouds 20 1018 73 10000 1 0 13:59 21.06.2019
6052 Clouds 20 1018 73 10000 1 0 13:37 21.06.2019
6053 Rain 20 1018 77 10000 0.5 0 13:19 21.06.2019
6054 Rain 19 1018 82 10000 1 0 12:42 21.06.2019
6055 Rain 19 1018 82 10000 1 110 12:22 21.06.2019
6056 Rain 19 1018 82 10000 1.5 0 11:48 21.06.2019
6057 Clouds 18 1018 88 10000 2.1 140 11:28 21.06.2019
6058 Clouds 18 1018 82 10000 2.6 150 10:56 21.06.2019
6059 Clouds 18 1018 82 10000 2.6 150 10:38 21.06.2019
6060 Clouds 18 1018 82 10000 2.6 140 10:20 21.06.2019
6061 Clouds 17 1018 82 10000 2.1 130 09:42 21.06.2019
6062 Clouds 16 1018 82 10000 2.1 110 09:21 21.06.2019
6063 Clouds 16 1018 88 10000 2.6 120 08:45 21.06.2019
6064 Clouds 16 1017 93 10000 2.6 90 08:27 21.06.2019
6065 Mist 15 1017 100 10000 2.6 120 07:56 21.06.2019
6066 Mist 15 1017 100 10000 2.6 120 07:38 21.06.2019
6067 Fog 14 1017 100 10000 2.1 90 06:58 21.06.2019
6068 Fog 14 1018 100 10000 2.1 90 06:24 21.06.2019
6069 Fog 14 1017 100 10000 1 110 05:32 21.06.2019
6070 Clouds 14 1017 100 10000 1.5 90 04:31 21.06.2019
6071 Clear 15 1017 100 10000 1.5 100 03:35 21.06.2019
6072 Clouds 15 1017 100 10000 2.6 90 02:53 21.06.2019
6073 Clouds 15 1017 93 10000 3.1 110 01:56 21.06.2019
6074 Rain 16 1017 93 10000 3.1 130 00:58 21.06.2019
6075 Rain 16 1017 88 10000 3.6 150 00:27 21.06.2019
6076 Rain 16 1018 88 10000 4.6 160 23:53 20.06.2019
6077 Rain 17 1017 82 10000 3.6 140 23:24 20.06.2019
6078 Rain 17 1017 82 10000 3.6 150 22:58 20.06.2019
6079 Rain 17 1017 82 10000 3.6 150 22:39 20.06.2019
6080 Rain 17 1017 82 10000 3.1 100 22:21 20.06.2019
6081 Rain 17 1017 82 10000 3.6 120 21:52 20.06.2019
6082 Rain 18 1016 77 10000 2.6 150 21:19 20.06.2019
6083 Rain 19 1016 68 10000 2.1 250 20:59 20.06.2019
6084 Rain 19 1016 68 10000 2.1 250 20:40 20.06.2019
6085 Rain 19 1016 64 10000 2.6 280 20:19 20.06.2019
6086 Thunderstorm 19 1015 82 10000 2.1 220 19:40 20.06.2019
6087 Clouds 19 1015 60 10000 3.6 300 19:19 20.06.2019
6088 Thunderstorm 19 1015 64 10000 5.1 300 18:44 20.06.2019
6089 Thunderstorm 20 1015 60 10000 4.6 290 18:23 20.06.2019
6090 Rain 21 1015 56 10000 3.6 290 17:59 20.06.2019
6091 Rain 21 1015 56 10000 3.6 290 17:41 20.06.2019
6092 Thunderstorm 21 1015 61 10000 2.1 140 16:58 20.06.2019
6093 Thunderstorm 22 1015 61 10000 2.1 140 16:40 20.06.2019
6094 Thunderstorm 21 1015 64 10000 3.6 240 16:19 20.06.2019
6095 Thunderstorm 21 1015 57 10000 1 0 15:43 20.06.2019
6096 Thunderstorm 22 1015 57 10000 2.1 150 15:23 20.06.2019
6097 Clouds 22 1015 64 10000 1 0 14:54 20.06.2019
6098 Rain 21 1016 60 10000 1.5 40 14:36 20.06.2019
6099 Rain 21 1016 60 10000 1.5 40 14:18 20.06.2019
6100 Rain 20 1016 60 10000 2.6 300 13:38 20.06.2019
6101 Rain 20 1016 77 10000 3.6 300 13:18 20.06.2019
6102 Rain 19 1016 72 10000 3.1 290 12:41 20.06.2019
6103 Rain 19 1016 77 10000 2.6 270 12:21 20.06.2019
6104 Rain 18 1016 68 10000 1.5 310 11:41 20.06.2019
6105 Thunderstorm 18 1016 82 10000 0.5 0 11:22 20.06.2019
6106 Thunderstorm 18 1016 82 10000 0.5 0 11:22 20.06.2019
6107 Clouds 19 1016 77 10000 0.5 0 10:44 20.06.2019
6108 Rain 18 1015 82 10000 1.8 190.905 10:24 20.06.2019
6109 Clouds 18 1015 93 10000 1.5 0 09:55 20.06.2019
6110 Clouds 18 1015 93 10000 1.5 0 09:36 20.06.2019
6111 Clouds 18 1015 93 10000 1.5 0 09:36 20.06.2019
6112 Clouds 17 1015 93 10000 1.5 0 09:18 20.06.2019
6113 Drizzle 17 1015 100 10000 2.1 130 08:43 20.06.2019
6114 Rain 16 1015 93 10000 0.5 0 08:22 20.06.2019
6115 Rain 16 1015 100 10000 2.1 120 07:44 20.06.2019
6116 Rain 16 1015 93 10000 1 0 07:25 20.06.2019
6117 Rain 16 1015 100 10000 1 0 06:19 20.06.2019
6118 Rain 17 1015 87 10000 2.6 70 03:40 20.06.2019
6119 Clouds 17 1014 77 10000 3.6 140 01:56 20.06.2019
6120 Clouds 18 1014 68 10000 4.6 160 00:33 20.06.2019
6121 Clouds 19 1014 64 10000 5.7 160 23:45 19.06.2019
6122 Rain 19 1014 68 10000 5.1 160 23:27 19.06.2019
6123 Rain 20 1013 68 10000 5.7 170 22:48 19.06.2019
6124 Rain 20 1013 60 10000 6.2 180 22:24 19.06.2019
6125 Rain 21 1013 53 10000 2.6 210 21:57 19.06.2019
6126 Rain 22 1011 38 10000 2.1 240 21:37 19.06.2019
6127 Rain 22 1011 38 10000 2.1 240 21:18 19.06.2019
6128 Clouds 23 1011 36 10000 3.6 260 20:40 19.06.2019
6129 Rain 23 1011 44 10000 1 0 20:21 19.06.2019
6130 Thunderstorm 24 1011 47 10000 2.6 280 19:45 19.06.2019
6131 Rain 25 1011 37 10000 2.6 290 19:26 19.06.2019
6132 Clouds 26 1010 37 10000 2.6 280 18:56 19.06.2019
6133 Clouds 27 1011 37 10000 1.5 330 18:24 19.06.2019
6134 Clouds 27 1011 35 10000 2.6 320 17:44 19.06.2019
6135 Clear 27 1011 32 10000 2.1 10 17:25 19.06.2019
6136 Clouds 28 1011 34 10000 1 0 16:56 19.06.2019
6137 Clouds 27 1011 34 10000 1 0 16:36 19.06.2019
6138 Rain 27 1012 32 10000 1.5 0 16:18 19.06.2019
6139 Clouds 28 1012 35 10000 1.5 0 15:42 19.06.2019
6140 Rain 27 1012 34 10000 2.6 230 15:22 19.06.2019
6141 Rain 27 1013 30 10000 2.1 240 14:43 19.06.2019
6142 Rain 27 1013 30 10000 2.1 240 14:43 19.06.2019
6143 Clouds 27 1013 34 10000 3.6 290 14:24 19.06.2019
6144 Clear 26 1013 47 10000 3.6 280 13:47 19.06.2019
6145 Clear 26 1013 47 10000 3.6 280 13:28 19.06.2019
6146 Clear 25 1013 50 10000 3.6 310 12:57 19.06.2019
6147 Clear 26 1013 50 10000 3.6 310 12:39 19.06.2019
6148 Clear 25 1013 47 10000 3.1 310 12:18 19.06.2019
6149 Clouds 24 1014 50 10000 2.6 310 11:40 19.06.2019
6150 Clouds 23 1014 57 10000 2.1 320 11:20 19.06.2019
6151 Clouds 22 1014 64 10000 1.5 0 10:49 19.06.2019
6152 Clouds 22 1014 60 10000 1 0 10:28 19.06.2019
6153 Clouds 21 1014 68 10000 2.1 90 09:56 19.06.2019
6154 Clouds 21 1014 68 10000 2.1 90 09:37 19.06.2019
6155 Clear 19 1014 68 10000 2.1 110 09:18 19.06.2019
6156 Clear 19 1014 72 10000 2.6 110 08:43 19.06.2019
6157 Clear 18 1014 77 10000 2.6 100 08:25 19.06.2019
6158 Clear 17 1014 82 10000 2.6 100 07:43 19.06.2019
6159 Clear 16 1014 93 10000 2.6 100 07:23 19.06.2019
6160 Clear 14 1014 100 10000 0.5 0 06:37 19.06.2019
6161 Clear 14 1014 100 10000 0.5 0 06:19 19.06.2019
6162 Mist 14 1014 93 10000 1.5 0 05:27 19.06.2019
6163 Clear 15 1014 82 10000 2.6 90 03:53 19.06.2019
6164 Clear 16 1014 77 10000 3.1 110 02:51 19.06.2019
6165 Clear 17 1015 63 10000 3.6 110 01:41 19.06.2019
6166 Clouds 18 1015 68 10000 3.1 120 00:55 19.06.2019
6167 Clear 18 1015 68 10000 4.1 120 00:36 19.06.2019
6168 Clear 19 1015 68 10000 4.1 120 00:18 19.06.2019
6169 Rain 19 1015 64 10000 4.6 110 23:42 18.06.2019
6170 Clear 20 1015 68 10000 6.7 120 23:23 18.06.2019
6171 Rain 19 1015 77 10000 4.1 110 22:41 18.06.2019
6172 Rain 20 1015 72 10000 5.7 120 22:22 18.06.2019
6173 Clouds 20 1015 68 10000 6.7 140 21:44 18.06.2019
6174 Clear 22 1014 68 10000 4.1 120 21:23 18.06.2019
6175 Clear 22 1014 68 10000 3.6 120 20:59 18.06.2019
6176 Clear 22 1014 68 10000 3.6 120 20:40 18.06.2019
6177 Clear 23 1014 69 10000 4.1 140 20:21 18.06.2019
6178 Rain 24 1014 61 10000 3.6 120 19:39 18.06.2019
6179 Rain 24 1014 61 10000 3.6 150 19:21 18.06.2019
6180 Rain 24 1015 61 10000 2.6 110 18:51 18.06.2019
6181 Rain 25 1015 65 10000 4.1 140 18:25 18.06.2019
6182 Rain 25 1015 61 10000 4.6 120 17:49 18.06.2019
6183 Thunderstorm 25 1015 69 10000 4.6 110 17:23 18.06.2019
6184 Rain 26 1015 73 10000 3.6 120 16:58 18.06.2019
6185 Rain 26 1015 73 10000 3.6 120 16:40 18.06.2019
6186 Rain 26 1015 83 10000 3.6 170 16:21 18.06.2019
6187 Thunderstorm 27 1015 44 10000 2.6 310 15:41 18.06.2019
6188 Clouds 26 1015 39 10000 2.6 340 15:22 18.06.2019
6189 Clear 26 1015 44 10000 2.1 260 14:56 18.06.2019
6190 Clear 26 1015 44 10000 2.1 260 14:37 18.06.2019
6191 Clear 26 1016 47 10000 4.1 300 14:18 18.06.2019
6192 Clear 26 1016 54 10000 3.6 310 13:49 18.06.2019
6193 Clear 26 1016 47 10000 3.1 290 13:29 18.06.2019
6194 Clear 25 1016 44 10000 2.6 290 12:46 18.06.2019
6195 Clear 24 1016 57 10000 2.1 330 12:28 18.06.2019
6196 Clear 24 1017 57 10000 1 0 11:54 18.06.2019
6197 Clear 24 1017 57 10000 1 0 11:36 18.06.2019
6198 Clear 23 1017 64 10000 1.5 0 11:18 18.06.2019
6199 Clear 22 1017 64 10000 0.5 0 10:41 18.06.2019
6200 Clear 22 1017 64 10000 0.5 0 10:21 18.06.2019
6201 Clear 21 1017 73 10000 1.5 0 09:51 18.06.2019
6202 Clear 20 1017 77 10000 1 0 09:25 18.06.2019
6203 Clouds 18 1017 100 10000 0.5 0 08:50 18.06.2019
6204 Clear 18 1018 100 10000 0.5 260 08:30 18.06.2019
6205 Clouds 17 1017 100 10000 0.5 0 07:56 18.06.2019
6206 Clouds 16 1017 100 10000 0.5 0 07:26 18.06.2019
6207 Mist 15 1017 100 7000 0.5 0 06:55 18.06.2019
6208 Clear 14 1017 100 10000 0.5 0 05:27 18.06.2019
6209 Clouds 14 1017 100 10000 0.5 0 04:21 18.06.2019
6210 Clear 15 1017 100 5000 1 0 02:49 18.06.2019
6211 Clear 16 1017 100 10000 0.5 0 01:28 18.06.2019
6212 Clear 16 1017 100 10000 0.5 0 00:58 18.06.2019
6213 Clear 16 1017 100 10000 0.5 0 00:36 18.06.2019
6214 Clear 17 1017 100 10000 0.5 0 00:18 18.06.2019
6215 Clear 17 1017 100 10000 0.5 0 23:38 17.06.2019
6216 Clear 18 1017 93 10000 0.5 0 23:18 17.06.2019
6217 Clear 18 1017 88 10000 0.5 0 22:41 17.06.2019
6218 Clear 18 1017 82 10000 0.5 0 22:21 17.06.2019
6219 Clear 20 1016 73 10000 0.5 0 21:45 17.06.2019
6220 Clouds 22 1016 60 10000 1.5 0 21:24 17.06.2019
6221 Clouds 22 1016 60 10000 1.5 0 21:24 17.06.2019
6222 Clouds 22 1016 60 10000 2.6 340 20:44 17.06.2019
6223 Clouds 22 1016 60 10000 2.6 340 20:44 17.06.2019
6224 Clouds 23 1016 53 10000 2.1 350 20:25 17.06.2019
6225 Clouds 23 1016 50 10000 1.5 340 19:58 17.06.2019
6226 Clouds 23 1016 47 10000 1 0 19:39 17.06.2019
6227 Clouds 24 1016 47 10000 1 0 19:21 17.06.2019
6228 Clear 24 1016 47 10000 2.6 360 18:39 17.06.2019
6229 Clear 25 1016 44 10000 2.6 300 18:18 17.06.2019
6230 Clear 25 1017 47 10000 2.6 310 17:59 17.06.2019
6231 Clear 25 1017 47 10000 2.6 310 17:39 17.06.2019
6232 Clear 25 1017 47 10000 2.6 310 17:21 17.06.2019
6233 Clear 25 1017 47 10000 3.6 320 16:43 17.06.2019
6234 Clear 24 1017 47 10000 3.6 320 16:24 17.06.2019
6235 Clear 24 1017 53 10000 2.1 330 15:55 17.06.2019
6236 Clear 24 1017 53 10000 2.6 300 15:36 17.06.2019
6237 Clear 24 1017 60 10000 2.6 0 15:18 17.06.2019
6238 Clouds 23 1018 56 10000 2.6 270 14:42 17.06.2019
6239 Clouds 23 1018 60 10000 2.1 310 14:22 17.06.2019
6240 Clouds 22 1018 60 10000 2.1 310 13:44 17.06.2019
6241 Clouds 22 1018 60 10000 2.1 310 13:21 17.06.2019
6242 Clouds 22 1018 60 10000 2.6 360 12:47 17.06.2019
6243 Clouds 20 1018 60 10000 2.6 360 12:24 17.06.2019
6244 Clouds 19 1018 68 10000 1.5 0 11:45 17.06.2019
6245 Clouds 19 1018 68 10000 1.5 0 11:26 17.06.2019
6246 Clouds 19 1019 72 10000 1 0 10:57 17.06.2019
6247 Clouds 18 1019 77 10000 1 0 10:39 17.06.2019
6248 Clouds 18 1019 77 10000 1 0 10:21 17.06.2019
6249 Clear 17 1019 82 10000 0.5 0 09:39 17.06.2019
6250 -273 0 0 0 0 0 09:20 17.06.2019
6251 Clear 15 1020 100 10000 4.09 67.603 08:41 17.06.2019
6252 Clear 15 1020 100 10000 4.09 67.603 08:23 17.06.2019
6253 Clear 14 1020 100 10000 4.09 67.603 07:40 17.06.2019
6254 Clear 13 1020 100 10000 4.09 67.603 07:21 17.06.2019
6255 Clear 12 1020 100 10000 4.09 67.603 06:34 17.06.2019
6256 Mist 11 1020 100 2800 0.5 60 05:45 17.06.2019
6257 Clear 12 1020 100 10000 2.1 50 04:39 17.06.2019
6258 Clear 12 1020 100 10000 0.5 140 03:45 17.06.2019
6259 Clear 12 1020 100 10000 0.5 300 02:59 17.06.2019
6260 Clear 13 1020 100 10000 3.84 39.328 02:40 17.06.2019
6261 Clear 13 1021 100 10000 2.6 50 01:47 17.06.2019
6262 Clear 13 1021 100 10000 2.6 50 01:25 17.06.2019
6263 Clear 14 1021 100 10000 0.5 0 00:44 17.06.2019
6264 Clear 14 1021 100 10000 0.5 0 00:21 17.06.2019
6265 Clear 15 1021 93 10000 1 0 23:43 16.06.2019
6266 Clear 15 1021 93 10000 1 0 23:22 16.06.2019
6267 Clear 15 1021 93 10000 0.5 0 22:56 16.06.2019
6268 Clear 16 1021 77 10000 1 0 22:38 16.06.2019
6269 Clear 16 1021 68 10000 1.5 0 22:18 16.06.2019
6270 Clear 18 1021 63 10000 1.5 0 21:41 16.06.2019
6271 Clear 18 1021 63 10000 1.5 0 21:23 16.06.2019
6272 Clouds 19 1021 60 10000 2.1 40 20:59 16.06.2019
6273 Clouds 19 1021 60 10000 2.1 40 20:37 16.06.2019
6274 Clouds 20 1021 52 10000 2.6 0 20:18 16.06.2019
6275 Clouds 20 1021 52 10000 2.6 0 20:18 16.06.2019
6276 Clouds 20 1021 56 10000 3.1 50 19:42 16.06.2019
6277 Clouds 21 1021 56 10000 3.1 50 19:22 16.06.2019
6278 Clouds 21 1021 60 10000 2.1 20 18:59 16.06.2019
6279 Clouds 20 1021 56 10000 2.1 0 18:40 16.06.2019
6280 Clouds 21 1021 56 10000 2.1 0 18:20 16.06.2019
6281 Clouds 21 1021 56 10000 2.1 0 17:48 16.06.2019
6282 Clouds 21 1021 56 10000 2.1 0 17:23 16.06.2019
6283 Clouds 21 1021 60 10000 3.1 40 16:57 16.06.2019
6284 Clouds 21 1021 64 10000 2.1 20 16:39 16.06.2019
6285 Clouds 21 1021 64 10000 2.1 20 16:21 16.06.2019
6286 Clouds 21 1022 60 10000 2.6 0 15:44 16.06.2019
6287 Clouds 20 1022 60 10000 2.6 0 15:24 16.06.2019
6288 Clouds 20 1022 63 10000 3.6 330 14:45 16.06.2019
6289 Clouds 20 1022 63 10000 3.6 330 14:24 16.06.2019
6290 Clouds 20 1022 60 10000 2.6 0 13:56 16.06.2019
6291 Clouds 19 1022 60 10000 2.6 0 13:38 16.06.2019
6292 Clouds 19 1022 59 10000 2.1 350 13:20 16.06.2019
6293 Rain 18 1022 68 10000 1 0 12:41 16.06.2019
6294 Clouds 18 1022 68 10000 2.1 30 12:20 16.06.2019
6295 Clouds 17 1022 68 10000 1 0 11:46 16.06.2019
6296 Clouds 17 1022 68 10000 1 0 11:21 16.06.2019
6297 Clouds 16 1022 68 10000 1 0 10:56 16.06.2019
6298 Clouds 16 1023 82 10000 1 0 10:38 16.06.2019
6299 Clouds 15 1023 93 10000 0.94 121.256 10:18 16.06.2019
6300 Clouds 15 1023 87 10000 0.94 121.256 09:39 16.06.2019
6301 Clouds 14 1023 87 10000 0.58 45.279 09:21 16.06.2019
6302 Clouds 14 1023 100 10000 1.5 0 08:42 16.06.2019
6303 Clouds 13 1023 100 10000 1.5 0 08:19 16.06.2019
6304 Clouds 13 1023 100 10000 1.5 0 08:19 16.06.2019
6305 Drizzle 13 1022 100 10000 2.1 100 07:44 16.06.2019
6306 Drizzle 13 1022 100 10000 2.1 100 07:20 16.06.2019
6307 Drizzle 12 1022 100 7000 0.5 220 06:49 16.06.2019
6308 Clouds 12 1022 100 10000 2.6 90 05:52 16.06.2019
6309 Clouds 12 1022 100 10000 1.5 110 05:19 16.06.2019
6310 Clouds 12 1022 100 10000 2.1 80 03:59 16.06.2019
6311 Clouds 12 1022 100 10000 1.5 100 03:33 16.06.2019
6312 Clouds 12 1022 100 10000 2.6 130 02:48 16.06.2019
6313 Clouds 12 1022 100 10000 2.1 130 01:47 16.06.2019
6314 Clouds 12 1022 100 10000 2.1 130 01:28 16.06.2019
6315 Rain 12 1021 100 10000 0.5 0 00:42 16.06.2019
6316 Rain 12 1021 100 10000 0.5 0 00:23 16.06.2019
6317 Rain 12 1021 100 10000 1 0 23:55 15.06.2019
6318 Rain 12 1020 100 10000 2.1 0 23:36 15.06.2019
6319 Rain 13 1020 100 10000 0.5 0 23:18 15.06.2019
6320 Rain 13 1020 93 10000 3.6 140 22:41 15.06.2019
6321 Rain 13 1020 93 10000 3.6 140 22:22 15.06.2019
6322 Rain 13 1020 100 10000 1.5 0 21:42 15.06.2019
6323 Rain 13 1020 100 10000 1.5 0 21:20 15.06.2019
6324 Thunderstorm 14 1020 87 6000 3.1 220 20:43 15.06.2019
6325 Thunderstorm 14 1020 87 6000 3.1 220 20:22 15.06.2019
6326 Rain 15 1019 93 5000 5.7 240 19:46 15.06.2019
6327 Rain 15 1019 93 5000 5.7 240 19:25 15.06.2019
6328 Thunderstorm 18 1015 64 10000 5.1 340 18:42 15.06.2019
6329 Rain 20 1015 64 10000 5.1 340 18:23 15.06.2019
6330 Thunderstorm 21 1015 53 10000 3.6 330 17:44 15.06.2019
6331 Thunderstorm 21 1015 53 10000 3.6 330 17:26 15.06.2019
6332 Clouds 21 1016 56 10000 3.1 330 16:49 15.06.2019
6333 Clouds 21 1016 56 10000 3.1 330 16:49 15.06.2019
6334 Clouds 22 1016 50 10000 3.1 290 16:21 15.06.2019
6335 Clouds 22 1016 53 10000 2.1 0 15:45 15.06.2019
6336 Clouds 22 1016 53 10000 2.1 0 15:24 15.06.2019
6337 Clouds 22 1017 60 10000 2.6 300 14:56 15.06.2019
6338 Clouds 22 1017 60 10000 2.6 300 14:37 15.06.2019
6339 Clouds 21 1017 60 10000 2.6 300 14:18 15.06.2019
6340 Clouds 21 1017 64 10000 3.1 320 13:42 15.06.2019
6341 Clouds 21 1017 64 10000 3.1 320 13:20 15.06.2019
6342 Clouds 20 1017 64 10000 3.1 320 12:53 15.06.2019
6343 Clouds 20 1017 68 10000 4.1 300 12:28 15.06.2019
6344 Clouds 19 1017 77 10000 3.1 300 11:59 15.06.2019
6345 Clouds 19 1018 82 10000 2.1 310 11:41 15.06.2019
6346 Clouds 19 1018 82 10000 2.1 310 11:23 15.06.2019
6347 Rain 18 1017 77 10000 3.6 330 10:41 15.06.2019
6348 Rain 18 1017 77 10000 3.6 330 10:23 15.06.2019
6349 Clouds 18 1017 82 10000 2.6 10 09:44 15.06.2019
6350 Clouds 17 1017 82 10000 2.6 10 09:25 15.06.2019
6351 Clouds 17 1016 72 10000 3.6 330 08:53 15.06.2019
6352 Rain 17 1016 72 10000 3.6 310 08:32 15.06.2019
6353 -273 0 0 0 0 0 07:50 15.06.2019
6354 Rain 17 1016 82 10000 2.6 320 07:50 15.06.2019
6355 Rain 17 1016 82 10000 2.6 320 07:24 15.06.2019
6356 Rain 17 1015 77 10000 1.5 30 06:41 15.06.2019
6357 Rain 16 1015 72 10000 2.1 310 06:18 15.06.2019
6358 Rain 16 1014 68 10000 3.1 280 05:25 15.06.2019
6359 Rain 16 1013 72 10000 9.3 270 04:44 15.06.2019
6360 Rain 16 1013 72 10000 9.3 270 04:44 15.06.2019
6361 Rain 16 1013 72 10000 9.3 270 04:44 15.06.2019
6362 Rain 16 1013 72 10000 9.3 270 04:44 15.06.2019
6363 Rain 16 1013 72 10000 9.3 270 04:44 15.06.2019
6364 Drizzle 17 1012 77 10000 6.2 290 03:42 15.06.2019
6365 Clouds 17 1011 72 10000 1.5 330 02:56 15.06.2019
6366 Clouds 17 1011 82 10000 1.5 210 02:22 15.06.2019
6367 Clouds 18 1010 63 10000 1.5 0 01:44 15.06.2019
6368 Clouds 17 1010 82 10000 3.6 130 00:56 15.06.2019
6369 Clouds 17 1010 93 10000 2.6 110 00:37 15.06.2019
6370 Rain 18 1010 93 10000 1.5 0 23:54 14.06.2019
6371 Clouds 18 1010 82 10000 2.6 110 23:26 14.06.2019
6372 Clouds 20 1010 88 10000 2.1 90 22:45 14.06.2019
6373 Clouds 19 1010 88 10000 2.1 90 22:23 14.06.2019
6374 Clear 20 1010 77 10000 1 0 22:00 14.06.2019
6375 Clear 20 1010 77 10000 1 0 21:40 14.06.2019
6376 Clear 21 1010 77 10000 1 0 21:21 14.06.2019
6377 Clear 22 1010 53 10000 1.5 70 20:42 14.06.2019
6378 Clear 22 1011 50 10000 2.6 50 20:19 14.06.2019
6379 Clear 22 1011 50 10000 2.6 50 19:54 14.06.2019
6380 Clear 23 1011 50 10000 2.6 50 19:36 14.06.2019
6381 Clear 23 1011 44 10000 3.1 50 19:18 14.06.2019
6382 Clear 24 1012 41 10000 3.6 50 18:42 14.06.2019
6383 Clear 25 1012 41 10000 3.6 50 18:24 14.06.2019
6384 Clear 24 1012 47 10000 2.6 30 17:55 14.06.2019
6385 Clear 24 1013 47 10000 4.6 20 17:36 14.06.2019
6386 Clear 24 1014 53 10000 3.6 350 17:18 14.06.2019
6387 Clear 24 1014 53 10000 3.6 350 16:44 14.06.2019
6388 Clear 24 1014 53 10000 3.6 350 16:19 14.06.2019
6389 Clear 24 1014 53 10000 3.6 350 16:19 14.06.2019
6390 Clear 24 1014 53 10000 3.6 350 16:19 14.06.2019
6391 Clouds 23 1016 64 10000 1 0 15:41 14.06.2019
6392 Clear 22 1016 56 10000 0.5 0 15:23 14.06.2019
6393 Clear 22 1016 56 10000 0.5 0 15:23 14.06.2019
6394 Clear 22 1016 56 10000 0.5 0 14:58 14.06.2019
6395 Rain 21 1016 64 10000 1.5 0 14:38 14.06.2019
6396 Rain 21 1016 64 10000 1.5 0 14:38 14.06.2019
6397 Rain 21 1018 64 10000 2.1 320 14:19 14.06.2019
6398 Rain 21 1018 64 10000 2.1 320 14:19 14.06.2019
6399 Clouds 21 1018 64 10000 2.1 320 13:42 14.06.2019
6400 Clouds 21 1018 64 10000 2.1 320 13:24 14.06.2019
6401 Clear 21 1018 56 10000 2.1 330 12:42 14.06.2019
6402 Clear 21 1018 56 10000 2.1 330 12:42 14.06.2019
6403 Clear 21 1018 56 10000 2.1 330 12:24 14.06.2019
6404 Clear 21 1019 56 10000 1.5 330 11:57 14.06.2019
6405 Clear 21 1018 64 10000 4.1 320 11:38 14.06.2019
6406 Clear 20 1018 64 10000 4.1 320 11:20 14.06.2019
6407 Rain 19 1017 72 10000 3.6 120 10:42 14.06.2019
6408 Rain 19 1017 68 10000 1.5 0 10:18 14.06.2019
6409 Rain 18 1017 77 10000 1 0 09:43 14.06.2019
6410 Rain 17 1017 77 10000 1 0 09:22 14.06.2019
6411 Rain 16 1015 87 10000 3.1 140 08:46 14.06.2019
6412 Rain 15 1016 93 10000 1.5 280 08:19 14.06.2019
6413 -273 0 0 0 0 0 07:50 14.06.2019
6414 Clouds 14 1015 100 10000 2.1 150 07:21 14.06.2019
6415 Clear 13 1016 100 10000 1 0 06:34 14.06.2019
6416 Rain 12 1016 100 10000 1 0 05:56 14.06.2019
6417 Clouds 12 1015 93 10000 2.6 0 05:21 14.06.2019
6418 Clouds 12 1015 93 10000 2.1 190 04:45 14.06.2019
6419 Clouds 13 1016 100 10000 1 0 03:52 14.06.2019
6420 Clear 12 1016 100 10000 2.1 130 03:25 14.06.2019
6421 Clear 12 1016 93 10000 3.1 90 02:49 14.06.2019
6422 Clear 13 1016 93 10000 3.1 110 02:27 14.06.2019
6423 Clear 13 1016 93 10000 3.1 110 02:27 14.06.2019
6424 Clear 14 1017 100 10000 2.1 120 00:57 14.06.2019
6425 Clear 14 1016 76 0 1 0 00:23 14.06.2019
6426 Clear 15 1016 93 10000 1 110 23:57 13.06.2019
6427 Clear 15 1016 87 10000 1.5 0 23:39 13.06.2019
6428 Clear 15 1016 87 10000 1.5 0 23:39 13.06.2019
6429 Clear 16 1016 87 10000 1.5 0 23:20 13.06.2019
6430 Clear 16 1015 82 10000 0.5 0 22:39 13.06.2019
6431 Clear 17 1015 82 10000 0.5 0 22:21 13.06.2019
6432 Clear 18 1015 60 10000 0.32 206.162 21:40 13.06.2019
6433 Clear 19 1015 48 10000 2.6 20 21:20 13.06.2019
6434 Clear 19 1015 60 10000 1.43 143.539 21:20 13.06.2019
6435 Clear 20 1015 48 10000 2.6 20 20:55 13.06.2019
6436 Clear 21 1015 48 10000 2.6 20 20:36 13.06.2019
6437 Clear 22 1015 38 10000 1 0 20:18 13.06.2019
6438 Clear 22 1015 38 10000 1 0 20:18 13.06.2019
6439 Clear 23 1015 38 10000 1 0 19:41 13.06.2019
6440 Clear 23 1015 38 10000 1 0 19:22 13.06.2019
6441 Clear 23 1015 44 10000 1.5 0 18:57 13.06.2019
6442 Clear 23 1015 44 10000 1.5 270 18:38 13.06.2019
6443 Clear 23 1015 44 10000 1.5 270 18:20 13.06.2019
6444 Clouds 23 1015 44 10000 1.5 0 17:41 13.06.2019
6445 Clouds 23 1015 46 10000 1 0 17:20 13.06.2019
6446 Clouds 23 1015 43 10000 1 0 16:48 13.06.2019
6447 Clouds 23 1015 49 10000 2.1 0 16:22 13.06.2019
6448 Clouds 22 1015 49 10000 2.1 0 15:57 13.06.2019
6449 Clouds 23 1015 49 10000 1.5 0 15:38 13.06.2019
6450 Clouds 22 1015 52 10000 1 0 15:18 13.06.2019
6451 Clouds 22 1016 56 10000 2.1 0 14:44 13.06.2019
6452 Clouds 21 1016 56 10000 2.1 0 14:25 13.06.2019
6453 Clouds 21 1016 52 10000 2.1 360 13:46 13.06.2019
6454 Clouds 20 1016 52 10000 2.1 360 13:21 13.06.2019
6455 Clouds 20 1016 49 10000 1.5 0 12:58 13.06.2019
6456 Clouds 20 1016 59 10000 2.6 270 12:38 13.06.2019
6457 Clouds 20 1016 59 10000 2.6 270 12:19 13.06.2019
6458 Clouds 19 1016 55 10000 2.1 10 11:41 13.06.2019
6459 Clouds 19 1016 55 10000 2.1 10 11:22 13.06.2019
6460 Clouds 18 1016 67 10000 1 0 10:46 13.06.2019
6461 Clouds 17 1016 67 10000 1 0 10:27 13.06.2019
6462 Clouds 16 1016 87 10000 1.5 0 09:48 13.06.2019
6463 Clouds 16 1016 87 10000 1.5 0 09:25 13.06.2019
6464 Clouds 16 1016 87 10000 1.5 0 09:25 13.06.2019
6465 Clouds 15 1016 100 10000 2.1 110 08:50 13.06.2019
6466 Clouds 14 1016 100 10000 2.1 110 08:30 13.06.2019
6467 Clouds 13 1016 100 10000 2.1 90 07:59 13.06.2019
6468 Clouds 13 1016 100 10000 2.1 90 07:31 13.06.2019
6469 Clouds 12 1016 100 10000 2.6 100 06:53 13.06.2019
6470 Clouds 12 1016 100 10000 2.1 130 06:24 13.06.2019
6471 Clouds 12 1016 100 10000 2.1 130 05:58 13.06.2019
6472 Clouds 12 1016 100 10000 0.5 0 05:38 13.06.2019
6473 Clouds 12 1016 100 10000 1 0 05:18 13.06.2019
6474 Clouds 13 1015 100 10000 2.1 110 03:44 13.06.2019
6475 Clouds 13 1015 100 10000 1.5 120 01:55 13.06.2019
6476 Rain 13 1015 100 10000 3.1 100 00:30 13.06.2019
6477 Rain 14 1015 100 10000 3.1 120 23:26 12.06.2019
6478 Rain 14 1015 100 10000 2.1 110 22:59 12.06.2019
6479 Rain 13 1015 100 10000 2.6 150 22:40 12.06.2019
6480 Rain 14 1015 100 10000 2.6 150 22:21 12.06.2019
6481 Rain 14 1013 100 10000 4.1 120 21:43 12.06.2019
6482 Rain 15 1013 100 10000 4.1 120 21:25 12.06.2019
6483 Thunderstorm 16 1013 93 10000 3.6 130 20:48 12.06.2019
6484 Thunderstorm 16 1013 93 10000 3.6 130 20:29 12.06.2019
6485 Rain 17 1013 82 10000 3.6 140 19:57 12.06.2019
6486 Thunderstorm 17 1012 63 10000 2.1 160 19:38 12.06.2019
6487 Thunderstorm 18 1012 63 10000 2.1 160 19:19 12.06.2019
6488 Rain 18 1013 63 10000 1.5 0 18:44 12.06.2019
6489 Rain 19 1013 63 10000 1.5 0 18:26 12.06.2019
6490 Clouds 19 1012 49 10000 1.5 0 17:47 12.06.2019
6491 Clouds 19 1012 49 10000 1.5 0 17:23 12.06.2019
6492 Clouds 19 1013 63 10000 1 0 16:44 12.06.2019
6493 Clouds 19 1013 63 10000 1 0 16:25 12.06.2019
6494 Clouds 19 1013 55 10000 1.5 290 15:58 12.06.2019
6495 Clouds 18 1013 55 10000 3.1 310 15:34 12.06.2019
6496 Clear 18 1012 55 10000 4.6 290 14:59 12.06.2019
6497 Clouds 17 1013 59 10000 3.6 290 14:34 12.06.2019
6498 Clouds 17 1013 63 10000 2.6 310 13:58 12.06.2019
6499 Clouds 17 1013 72 10000 3.1 300 13:39 12.06.2019
6500 Clouds 16 1013 63 10000 2.6 300 13:19 12.06.2019
6501 Clouds 16 1013 67 10000 3.1 230 12:44 12.06.2019
6502 Clouds 14 1013 67 10000 3.1 230 12:22 12.06.2019
6503 Clouds 14 1013 62 10000 3.1 0 11:58 12.06.2019
6504 Clouds 14 1013 67 10000 3.6 290 11:39 12.06.2019
6505 Clouds 13 1013 71 10000 2.6 310 11:20 12.06.2019
6506 Clouds 13 1013 81 10000 1 350 10:44 12.06.2019
6507 Rain 12 1013 81 10000 2.6 310 10:20 12.06.2019
6508 Rain 11 1013 87 10000 3.6 310 09:43 12.06.2019
6509 Rain 10 1012 81 10000 5.1 280 09:22 12.06.2019
6510 Drizzle 10 1012 87 10000 8.2 270 08:38 12.06.2019
6511 Drizzle 10 1012 87 10000 8.2 270 08:19 12.06.2019
6512 Rain 11 1011 81 7000 8.7 260 07:37 12.06.2019
6513 Rain 12 1010 93 10000 2.6 290 06:41 12.06.2019
6514 Rain 12 1009 100 10000 1.5 50 05:27 12.06.2019
6515 Drizzle 12 1010 87 10000 2.6 340 03:41 12.06.2019
6516 Clouds 12 1011 87 10000 2.6 330 00:54 12.06.2019
6517 Clouds 12 1011 82 10000 3.1 340 00:35 12.06.2019
6518 Clouds 12 1011 87 10000 3.1 320 23:44 11.06.2019
6519 Clouds 12 1011 87 10000 3.1 320 23:26 11.06.2019
6520 Rain 13 1011 82 10000 1.5 340 22:43 11.06.2019
6521 Rain 13 1011 87 10000 1.5 0 22:18 11.06.2019
6522 Rain 13 1011 87 10000 1.5 0 21:56 11.06.2019
6523 Rain 13 1011 93 10000 2.1 310 21:37 11.06.2019
6524 Rain 14 1011 87 10000 2.6 290 21:19 11.06.2019
6525 Rain 14 1011 82 10000 2.6 290 20:46 11.06.2019
6526 Rain 14 1011 82 10000 2.6 290 20:23 11.06.2019
6527 Rain 14 1011 77 10000 2.1 300 19:53 11.06.2019
6528 Rain 14 1011 77 10000 2.1 290 19:31 11.06.2019
6529 Rain 14 1011 77 10000 2.6 290 18:54 11.06.2019
6530 Rain 15 1011 72 10000 1 0 18:21 11.06.2019
6531 Rain 15 1011 77 10000 1.5 360 17:42 11.06.2019
6532 Rain 15 1011 77 10000 1.5 360 17:22 11.06.2019
6533 Rain 15 1011 63 10000 1 0 16:56 11.06.2019
6534 Rain 15 1011 63 10000 1 0 16:37 11.06.2019
6535 Clouds 15 1011 63 10000 2.1 0 16:19 11.06.2019
6536 Rain 15 1011 72 10000 1 0 15:41 11.06.2019
6537 Rain 15 1011 77 10000 1.5 0 15:20 11.06.2019
6538 Rain 15 1012 87 10000 4.1 310 14:44 11.06.2019
6539 Rain 15 1012 82 10000 2.1 320 14:21 11.06.2019
6540 Rain 14 1012 82 10000 2.1 320 13:50 11.06.2019
6541 Rain 14 1012 82 10000 2.1 320 13:23 11.06.2019
6542 Rain 14 1011 82 10000 1 0 12:44 11.06.2019
6543 Rain 13 1011 82 10000 1 0 12:23 11.06.2019
6544 Rain 13 1011 82 10000 1 0 11:58 11.06.2019
6545 Rain 13 1011 87 10000 1 0 11:38 11.06.2019
6546 Rain 13 1011 87 10000 1 0 11:19 11.06.2019
6547 Rain 13 1011 87 10000 1.5 340 10:43 11.06.2019
6548 Rain 13 1011 87 10000 1.5 340 10:24 11.06.2019
6549 Rain 12 1011 93 10000 2.67 53.336 09:46 11.06.2019
6550 Rain 12 1011 93 10000 1.6 25.941 09:23 11.06.2019
6551 Clouds 12 1011 100 10000 0.5 0 08:44 11.06.2019
6552 Clouds 12 1011 100 10000 0.5 0 08:24 11.06.2019
6553 Clouds 11 1011 100 10000 0.5 0 07:37 11.06.2019
6554 Clouds 10 1011 100 10000 0.5 0 06:55 11.06.2019
6555 Clouds 10 1011 100 10000 1 30 06:25 11.06.2019
6556 Rain 10 1012 100 10000 1 0 04:52 11.06.2019
6557 Rain 11 1013 100 10000 1.5 0 02:49 11.06.2019
6558 Rain 11 1014 100 10000 1.5 260 01:25 11.06.2019
6559 Rain 12 1014 100 6000 4.1 140 00:45 11.06.2019
6560 Rain 12 1015 100 8000 2.6 140 23:47 10.06.2019
6561 Rain 13 1015 100 8000 2.6 140 23:22 10.06.2019
6562 Rain 13 1014 100 5000 1.5 110 22:55 10.06.2019
6563 Rain 13 1014 100 10000 1.5 130 22:36 10.06.2019
6564 Rain 13 1014 100 9000 2.1 100 22:18 10.06.2019
6565 Rain 13 1014 100 9000 2.6 130 21:39 10.06.2019
6566 Rain 13 1014 100 9000 2.6 130 21:21 10.06.2019
6567 Rain 14 1013 100 10000 2.1 0 20:45 10.06.2019
6568 Rain 14 1013 100 10000 2.1 0 20:23 10.06.2019
6569 Rain 14 1014 100 10000 1 0 19:53 10.06.2019
6570 -273 0 0 0 0 0 19:27 10.06.2019
6571 Rain 14 1014 100 8000 0.5 0 18:59 10.06.2019
6572 Rain 14 1014 100 7000 1.62 264.745 18:40 10.06.2019
6573 Rain 15 1015 100 7000 1 0 18:20 10.06.2019
6574 Rain 15 1015 100 7000 1 0 17:54 10.06.2019
6575 Rain 15 1014 93 10000 1.5 0 17:36 10.06.2019
6576 Rain 15 1015 93 7000 2.6 290 17:18 10.06.2019
6577 Rain 15 1014 100 7000 4.1 310 16:42 10.06.2019
6578 Rain 15 1014 100 7000 4.1 310 16:22 10.06.2019
6579 Rain 15 1014 87 10000 2.1 280 15:42 10.06.2019
6580 Rain 16 1014 87 10000 2.1 280 15:23 10.06.2019
6581 Rain 16 1014 93 10000 3.1 300 14:49 10.06.2019
6582 Rain 16 1015 100 10000 4.1 310 14:31 10.06.2019
6583 Rain 16 1015 100 5000 2.1 340 13:58 10.06.2019
6584 Rain 16 1015 100 5000 2.1 340 13:39 10.06.2019
6585 Rain 16 1015 100 5000 2.1 340 13:20 10.06.2019
6586 Rain 17 1014 82 10000 3.1 350 12:40 10.06.2019
6587 Rain 17 1014 82 10000 3.1 350 12:22 10.06.2019
6588 Clouds 17 1014 82 10000 1.5 0 11:43 10.06.2019
6589 Clouds 17 1014 82 10000 1.5 0 11:19 10.06.2019
6590 Rain 15 1016 88 10000 3.1 160 10:42 10.06.2019
6591 Rain 15 1016 88 10000 3.1 160 10:20 10.06.2019
6592 Rain 14 1016 100 10000 3.1 150 09:55 10.06.2019
6593 Rain 14 1017 100 10000 1.5 0 09:33 10.06.2019
6594 Rain 13 1018 100 8000 2.6 140 08:50 10.06.2019
6595 Rain 13 1018 100 10000 1.5 30 08:28 10.06.2019
6596 Rain 13 1018 100 8000 2.6 330 07:59 10.06.2019
6597 Rain 12 1017 100 7000 0.5 0 06:34 10.06.2019
6598 Fog 12 1018 100 550 2.1 140 04:27 10.06.2019
6599 Fog 12 1018 100 150 0.5 0 01:57 10.06.2019
6600 Fog 12 1018 100 150 0.5 0 01:23 10.06.2019
6601 Fog 12 1018 100 1000 1 0 00:54 10.06.2019
6602 Mist 13 1018 100 3700 0.5 0 23:59 09.06.2019
6603 Mist 13 1019 100 5000 2.1 250 23:40 09.06.2019
6604 Mist 13 1019 100 3400 2.1 300 23:18 09.06.2019
6605 Mist 13 1019 100 3100 0.5 0 22:42 09.06.2019
6606 Mist 13 1019 100 3100 0.5 0 22:24 09.06.2019
6607 Mist 13 1019 100 3100 0.5 0 22:24 09.06.2019
6608 Rain 14 1019 100 10000 2.6 310 21:41 09.06.2019
6609 Rain 14 1019 100 10000 2.1 290 21:22 09.06.2019
6610 Rain 14 1019 100 10000 1 0 20:42 09.06.2019
6611 Rain 14 1019 100 10000 1 0 20:23 09.06.2019
6612 Rain 14 1019 100 10000 1 0 19:46 09.06.2019
6613 Rain 14 1019 100 10000 3.6 100 19:19 09.06.2019
6614 Rain 14 1019 100 10000 3.6 100 18:57 09.06.2019
6615 Rain 14 1019 100 10000 3.6 140 18:39 09.06.2019
6616 Rain 14 1020 100 10000 3.6 130 18:21 09.06.2019
6617 Rain 14 1022 93 10000 2.6 140 17:46 09.06.2019
6618 Rain 14 1022 93 10000 2.6 140 17:26 09.06.2019
6619 Rain 14 1022 100 10000 2.6 130 16:54 09.06.2019
6620 Rain 13 1023 93 9000 1 0 16:36 09.06.2019
6621 Rain 14 1023 93 10000 1 0 16:18 09.06.2019
6622 Rain 13 1023 93 6000 1 0 15:42 09.06.2019
6623 Rain 13 1023 93 10000 2.6 330 15:20 09.06.2019
6624 Rain 14 1023 93 10000 2.1 330 14:43 09.06.2019
6625 Rain 14 1023 93 10000 2.1 330 14:21 09.06.2019
6626 Rain 14 1023 93 8000 0.5 0 13:50 09.06.2019
6627 Rain 14 1023 100 7000 1 0 13:22 09.06.2019
6628 Rain 14 1023 87 10000 1 0 12:41 09.06.2019
6629 Rain 14 1023 87 10000 1 0 12:22 09.06.2019
6630 Rain 14 1023 82 10000 2.1 300 11:39 09.06.2019
6631 Rain 14 1023 82 10000 2.1 300 11:21 09.06.2019
6632 Clouds 15 1023 82 10000 1 0 10:45 09.06.2019
6633 Clouds 14 1023 82 10000 1 0 10:23 09.06.2019
6634 Clear 14 1022 76 10000 1.5 0 09:41 09.06.2019
6635 Clear 14 1022 76 10000 1.5 0 09:41 09.06.2019
6636 Clear 14 1022 76 10000 1.5 0 09:22 09.06.2019
6637 Clear 13 1022 81 10000 1.5 0 08:53 09.06.2019
6638 Clear 13 1022 87 10000 0.5 0 08:34 09.06.2019
6639 Clear 11 1022 93 10000 0.5 0 07:27 09.06.2019
6640 Clear 10 1023 93 10000 1 0 06:30 09.06.2019
6641 Clear 9 1023 100 10000 0.5 0 04:59 09.06.2019
6642 Clouds 10 1024 93 10000 1 0 01:39 09.06.2019
6643 Clouds 11 1024 93 10000 1 0 01:21 09.06.2019
6644 Clouds 11 1024 93 10000 1 0 01:21 09.06.2019
6645 Clouds 11 1024 87 10000 0.5 0 00:59 09.06.2019
6646 Clear 13 1023 76 10000 1.54 3.126 23:45 08.06.2019
6647 Clear 14 1023 76 10000 1.54 3.126 23:25 08.06.2019
6648 Clear 14 1023 76 10000 0.5 0 22:59 08.06.2019
6649 Clear 14 1023 48 10000 1 0 22:41 08.06.2019
6650 Clear 15 1023 48 10000 1 0 22:19 08.06.2019
6651 Clear 15 1023 48 10000 1 0 21:51 08.06.2019
6652 Clear 15 1023 48 10000 1 0 21:51 08.06.2019
6653 Clear 17 1023 48 10000 1 0 21:27 08.06.2019
6654 Clear 18 1022 32 10000 2.1 340 20:58 08.06.2019
6655 Clear 18 1022 26 10000 1 0 20:40 08.06.2019
6656 Clear 19 1022 26 10000 1 0 20:19 08.06.2019
6657 Clear 18 1022 30 10000 1.5 0 19:40 08.06.2019
6658 Clear 20 1022 30 10000 1.5 0 19:20 08.06.2019
6659 Clear 20 1022 25 10000 1 0 18:56 08.06.2019
6660 Clear 21 1023 28 10000 1.5 0 18:35 08.06.2019
6661 Clear 21 1023 30 10000 1.5 300 17:57 08.06.2019
6662 Clear 21 1023 35 10000 1.5 300 17:38 08.06.2019
6663 Clear 22 1023 33 10000 3.1 270 17:18 08.06.2019
6664 Clear 22 1024 30 10000 2.6 280 16:38 08.06.2019
6665 Clear 21 1024 30 10000 3.1 310 16:18 08.06.2019
6666 Clear 21 1024 35 10000 2.6 280 15:37 08.06.2019
6667 Clear 20 1024 30 10000 3.1 270 14:53 08.06.2019
6668 Clear 20 1024 32 10000 2.6 260 14:32 08.06.2019
6669 Clear 20 1024 32 10000 4.1 290 13:59 08.06.2019
6670 Clear 20 1024 32 10000 3.1 290 13:24 08.06.2019
6671 Clear 19 1025 37 10000 5.1 240 12:45 08.06.2019
6672 Clear 18 1025 37 10000 5.1 240 12:20 08.06.2019
6673 Clear 17 1024 42 10000 5.1 300 11:44 08.06.2019
6674 Clear 17 1024 42 10000 5.1 300 11:22 08.06.2019
6675 Clear 17 1025 42 10000 3.6 280 10:44 08.06.2019
6676 Clear 16 1025 51 10000 4.1 290 10:22 08.06.2019
6677 Clouds 15 1025 51 10000 5.1 280 09:48 08.06.2019
6678 Clouds 14 1025 51 10000 5.1 280 09:21 08.06.2019
6679 Clouds 13 1024 62 10000 1.5 290 08:29 08.06.2019
6680 Clouds 13 1024 81 10000 1 0 07:49 08.06.2019
6681 Clouds 12 1024 81 10000 1 0 06:50 08.06.2019
6682 Clouds 12 1023 76 10000 0.5 0 05:47 08.06.2019
6683 Rain 12 1022 62 10000 1 0 03:30 08.06.2019
6684 Rain 12 1020 81 10000 2.1 20 01:25 08.06.2019
6685 Clouds 13 1020 76 10000 2.6 340 00:25 08.06.2019
6686 Rain 13 1020 82 10000 4.1 310 23:41 07.06.2019
6687 Rain 13 1020 82 10000 4.1 310 23:20 07.06.2019
6688 Rain 13 1018 100 10000 1 0 22:39 07.06.2019
6689 Rain 14 1018 100 10000 1 0 22:19 07.06.2019
6690 Rain 14 1017 100 10000 1.5 100 21:49 07.06.2019
6691 Clouds 15 1017 87 10000 1 0 21:28 07.06.2019
6692 Rain 15 1016 82 10000 1.5 0 20:55 07.06.2019
6693 Rain 15 1015 67 10000 4.1 260 20:35 07.06.2019
6694 Rain 16 1014 63 10000 5.7 270 19:48 07.06.2019
6695 Clouds 17 1014 63 10000 5.7 270 19:21 07.06.2019
6696 Clouds 18 1012 55 10000 8.2 290 18:52 07.06.2019
6697 Clouds 21 1012 55 10000 8.2 290 18:28 07.06.2019
6698 Clouds 22 1011 53 10000 3.1 330 17:48 07.06.2019
6699 Clouds 22 1011 53 10000 3.1 330 17:27 07.06.2019
6700 Clouds 23 1010 53 10000 3.6 300 16:52 07.06.2019
6701 Clear 23 1010 49 10000 4.6 290 16:33 07.06.2019
6702 Clear 23 1010 56 10000 4.1 280 15:50 07.06.2019
6703 Clear 22 1010 68 10000 5.1 310 15:23 07.06.2019
6704 Clear 21 1009 63 10000 4.1 310 14:47 07.06.2019
6705 Clear 21 1009 63 10000 4.1 310 14:26 07.06.2019
6706 Clear 21 1010 72 10000 4.1 300 13:45 07.06.2019
6707 Clear 20 1010 72 10000 4.1 300 13:25 07.06.2019
6708 Clouds 18 1011 77 10000 3.1 330 12:48 07.06.2019
6709 Clouds 17 1011 77 10000 3.1 330 12:22 07.06.2019
6710 Clouds 16 1011 82 10000 2.1 340 11:49 07.06.2019
6711 Clouds 15 1011 82 10000 2.1 340 11:29 07.06.2019
6712 Clouds 15 1011 77 10000 3.1 320 10:49 07.06.2019
6713 Clouds 14 1012 82 10000 1.5 0 10:28 07.06.2019
6714 Clouds 13 1012 87 10000 1 0 09:53 07.06.2019
6715 Clouds 13 1012 87 10000 1 0 09:53 07.06.2019
6716 Clouds 12 1012 87 10000 1 0 09:30 07.06.2019
6717 Clouds 12 1013 93 10000 1 0 08:56 07.06.2019
6718 Fog 11<